<?xml version="1.0" encoding="UTF-8" standalone="no" ?>
<gpx xmlns="http://www.topografix.com/GPX/1/1" xmlns:xsi="http://www.w3.org/2001/XMLSchema-instance" xsi:schemaLocation="http://www.topografix.com/GPX/1/1 http://www.topografix.com/GPX/1/1/gpx.xsd" version="1.1" creator="VisuGPX - https://www.visugpx.com">
  <metadata>
    <name>Tour d\'Avrillé</name>
    <desc><![CDATA[parcours tout terrains]]></desc>
  </metadata>
  <trk>
    <name><![CDATA[Tour d\'Avrillé_1]]></name>
    <trkseg>
      <trkpt lat="47.49" lon="-0.58156">
        <ele>51</ele>
        <time>2015-09-01T08:02:08.000Z</time>
      </trkpt>
      <trkpt lat="47.49" lon="-0.58156">
        <ele>51</ele>
        <time>2015-09-01T08:02:09.000Z</time>
      </trkpt>
      <trkpt lat="47.49" lon="-0.58157">
        <ele>50</ele>
        <time>2015-09-01T08:02:10.000Z</time>
      </trkpt>
      <trkpt lat="47.49" lon="-0.58158">
        <ele>50</ele>
        <time>2015-09-01T08:02:11.000Z</time>
      </trkpt>
      <trkpt lat="47.49" lon="-0.58159">
        <ele>50</ele>
        <time>2015-09-01T08:02:12.000Z</time>
      </trkpt>
      <trkpt lat="47.49001" lon="-0.5816">
        <ele>48</ele>
        <time>2015-09-01T08:02:13.000Z</time>
      </trkpt>
      <trkpt lat="47.49001" lon="-0.58161">
        <ele>47</ele>
        <time>2015-09-01T08:02:14.000Z</time>
      </trkpt>
      <trkpt lat="47.49001" lon="-0.58163">
        <ele>45</ele>
        <time>2015-09-01T08:02:15.000Z</time>
      </trkpt>
      <trkpt lat="47.49002" lon="-0.58165">
        <ele>44</ele>
        <time>2015-09-01T08:02:16.000Z</time>
      </trkpt>
      <trkpt lat="47.49002" lon="-0.58167">
        <ele>44</ele>
        <time>2015-09-01T08:02:17.000Z</time>
      </trkpt>
      <trkpt lat="47.49003" lon="-0.5817">
        <ele>44</ele>
        <time>2015-09-01T08:02:18.000Z</time>
      </trkpt>
      <trkpt lat="47.49003" lon="-0.58173">
        <ele>44</ele>
        <time>2015-09-01T08:02:19.000Z</time>
      </trkpt>
      <trkpt lat="47.49004" lon="-0.58177">
        <ele>43</ele>
        <time>2015-09-01T08:02:20.000Z</time>
      </trkpt>
      <trkpt lat="47.49005" lon="-0.58179">
        <ele>43</ele>
        <time>2015-09-01T08:02:21.000Z</time>
      </trkpt>
      <trkpt lat="47.49006" lon="-0.58182">
        <ele>42</ele>
        <time>2015-09-01T08:02:22.000Z</time>
      </trkpt>
      <trkpt lat="47.49007" lon="-0.58185">
        <ele>42</ele>
        <time>2015-09-01T08:02:23.000Z</time>
      </trkpt>
      <trkpt lat="47.49008" lon="-0.58188">
        <ele>43</ele>
        <time>2015-09-01T08:02:24.000Z</time>
      </trkpt>
      <trkpt lat="47.4901" lon="-0.58191">
        <ele>43</ele>
        <time>2015-09-01T08:02:25.000Z</time>
      </trkpt>
      <trkpt lat="47.49011" lon="-0.58194">
        <ele>43</ele>
        <time>2015-09-01T08:02:26.000Z</time>
      </trkpt>
      <trkpt lat="47.49012" lon="-0.58197">
        <ele>42</ele>
        <time>2015-09-01T08:02:27.000Z</time>
      </trkpt>
      <trkpt lat="47.49014" lon="-0.582">
        <ele>43</ele>
        <time>2015-09-01T08:02:28.000Z</time>
      </trkpt>
      <trkpt lat="47.49016" lon="-0.58203">
        <ele>44</ele>
        <time>2015-09-01T08:02:29.000Z</time>
      </trkpt>
      <trkpt lat="47.49018" lon="-0.58207">
        <ele>45</ele>
        <time>2015-09-01T08:02:30.000Z</time>
      </trkpt>
      <trkpt lat="47.49019" lon="-0.58211">
        <ele>45</ele>
        <time>2015-09-01T08:02:31.000Z</time>
      </trkpt>
      <trkpt lat="47.49021" lon="-0.58215">
        <ele>45</ele>
        <time>2015-09-01T08:02:32.000Z</time>
      </trkpt>
      <trkpt lat="47.49022" lon="-0.58219">
        <ele>45</ele>
        <time>2015-09-01T08:02:33.000Z</time>
      </trkpt>
      <trkpt lat="47.49023" lon="-0.58222">
        <ele>46</ele>
        <time>2015-09-01T08:02:34.000Z</time>
      </trkpt>
      <trkpt lat="47.49023" lon="-0.58227">
        <ele>48</ele>
        <time>2015-09-01T08:02:35.000Z</time>
      </trkpt>
      <trkpt lat="47.49024" lon="-0.58231">
        <ele>48</ele>
        <time>2015-09-01T08:02:36.000Z</time>
      </trkpt>
      <trkpt lat="47.49024" lon="-0.58234">
        <ele>49</ele>
        <time>2015-09-01T08:02:37.000Z</time>
      </trkpt>
      <trkpt lat="47.49023" lon="-0.58237">
        <ele>50</ele>
        <time>2015-09-01T08:02:38.000Z</time>
      </trkpt>
      <trkpt lat="47.49022" lon="-0.58241">
        <ele>52</ele>
        <time>2015-09-01T08:02:39.000Z</time>
      </trkpt>
      <trkpt lat="47.49021" lon="-0.58245">
        <ele>53</ele>
        <time>2015-09-01T08:02:40.000Z</time>
      </trkpt>
      <trkpt lat="47.4902" lon="-0.58249">
        <ele>54</ele>
        <time>2015-09-01T08:02:41.000Z</time>
      </trkpt>
      <trkpt lat="47.49018" lon="-0.58253">
        <ele>55</ele>
        <time>2015-09-01T08:02:42.000Z</time>
      </trkpt>
      <trkpt lat="47.49017" lon="-0.58257">
        <ele>55</ele>
        <time>2015-09-01T08:02:43.000Z</time>
      </trkpt>
      <trkpt lat="47.49015" lon="-0.5826">
        <ele>57</ele>
        <time>2015-09-01T08:02:44.000Z</time>
      </trkpt>
      <trkpt lat="47.49013" lon="-0.58264">
        <ele>59</ele>
        <time>2015-09-01T08:02:45.000Z</time>
      </trkpt>
      <trkpt lat="47.4901" lon="-0.58268">
        <ele>61</ele>
        <time>2015-09-01T08:02:46.000Z</time>
      </trkpt>
      <trkpt lat="47.49008" lon="-0.58272">
        <ele>62</ele>
        <time>2015-09-01T08:02:47.000Z</time>
      </trkpt>
      <trkpt lat="47.49006" lon="-0.58274">
        <ele>62</ele>
        <time>2015-09-01T08:02:48.000Z</time>
      </trkpt>
      <trkpt lat="47.49004" lon="-0.58277">
        <ele>62</ele>
        <time>2015-09-01T08:02:49.000Z</time>
      </trkpt>
      <trkpt lat="47.49002" lon="-0.5828">
        <ele>62</ele>
        <time>2015-09-01T08:02:50.000Z</time>
      </trkpt>
      <trkpt lat="47.49001" lon="-0.58283">
        <ele>62</ele>
        <time>2015-09-01T08:02:51.000Z</time>
      </trkpt>
      <trkpt lat="47.48999" lon="-0.58285">
        <ele>63</ele>
        <time>2015-09-01T08:02:52.000Z</time>
      </trkpt>
      <trkpt lat="47.48997" lon="-0.58288">
        <ele>63</ele>
        <time>2015-09-01T08:02:53.000Z</time>
      </trkpt>
      <trkpt lat="47.48995" lon="-0.58291">
        <ele>63</ele>
        <time>2015-09-01T08:02:54.000Z</time>
      </trkpt>
      <trkpt lat="47.48993" lon="-0.58294">
        <ele>64</ele>
        <time>2015-09-01T08:02:55.000Z</time>
      </trkpt>
      <trkpt lat="47.48991" lon="-0.58295">
        <ele>58</ele>
        <time>2015-09-01T08:02:56.000Z</time>
      </trkpt>
      <trkpt lat="47.48989" lon="-0.58296">
        <ele>56</ele>
        <time>2015-09-01T08:02:57.000Z</time>
      </trkpt>
      <trkpt lat="47.48986" lon="-0.58296">
        <ele>53</ele>
        <time>2015-09-01T08:02:58.000Z</time>
      </trkpt>
      <trkpt lat="47.48984" lon="-0.58297">
        <ele>52</ele>
        <time>2015-09-01T08:02:59.000Z</time>
      </trkpt>
      <trkpt lat="47.48982" lon="-0.58299">
        <ele>51</ele>
        <time>2015-09-01T08:03:00.000Z</time>
      </trkpt>
      <trkpt lat="47.48979" lon="-0.58301">
        <ele>51</ele>
        <time>2015-09-01T08:03:01.000Z</time>
      </trkpt>
      <trkpt lat="47.48977" lon="-0.58304">
        <ele>51</ele>
        <time>2015-09-01T08:03:02.000Z</time>
      </trkpt>
      <trkpt lat="47.48975" lon="-0.58307">
        <ele>50</ele>
        <time>2015-09-01T08:03:03.000Z</time>
      </trkpt>
      <trkpt lat="47.48974" lon="-0.5831">
        <ele>49</ele>
        <time>2015-09-01T08:03:04.000Z</time>
      </trkpt>
      <trkpt lat="47.48972" lon="-0.58313">
        <ele>49</ele>
        <time>2015-09-01T08:03:05.000Z</time>
      </trkpt>
      <trkpt lat="47.4897" lon="-0.58316">
        <ele>49</ele>
        <time>2015-09-01T08:03:06.000Z</time>
      </trkpt>
      <trkpt lat="47.48968" lon="-0.58319">
        <ele>49</ele>
        <time>2015-09-01T08:03:07.000Z</time>
      </trkpt>
      <trkpt lat="47.48966" lon="-0.58322">
        <ele>49</ele>
        <time>2015-09-01T08:03:08.000Z</time>
      </trkpt>
      <trkpt lat="47.48965" lon="-0.58325">
        <ele>49</ele>
        <time>2015-09-01T08:03:09.000Z</time>
      </trkpt>
      <trkpt lat="47.48963" lon="-0.58328">
        <ele>49</ele>
        <time>2015-09-01T08:03:10.000Z</time>
      </trkpt>
      <trkpt lat="47.48961" lon="-0.58331">
        <ele>49</ele>
        <time>2015-09-01T08:03:11.000Z</time>
      </trkpt>
      <trkpt lat="47.48959" lon="-0.58334">
        <ele>49</ele>
        <time>2015-09-01T08:03:12.000Z</time>
      </trkpt>
      <trkpt lat="47.48957" lon="-0.58337">
        <ele>48</ele>
        <time>2015-09-01T08:03:13.000Z</time>
      </trkpt>
      <trkpt lat="47.48955" lon="-0.5834">
        <ele>47</ele>
        <time>2015-09-01T08:03:14.000Z</time>
      </trkpt>
      <trkpt lat="47.48952" lon="-0.58342">
        <ele>47</ele>
        <time>2015-09-01T08:03:15.000Z</time>
      </trkpt>
      <trkpt lat="47.4895" lon="-0.58345">
        <ele>47</ele>
        <time>2015-09-01T08:03:16.000Z</time>
      </trkpt>
      <trkpt lat="47.48948" lon="-0.58348">
        <ele>47</ele>
        <time>2015-09-01T08:03:17.000Z</time>
      </trkpt>
      <trkpt lat="47.48947" lon="-0.58351">
        <ele>46</ele>
        <time>2015-09-01T08:03:18.000Z</time>
      </trkpt>
      <trkpt lat="47.48945" lon="-0.58354">
        <ele>47</ele>
        <time>2015-09-01T08:03:19.000Z</time>
      </trkpt>
      <trkpt lat="47.48943" lon="-0.58357">
        <ele>47</ele>
        <time>2015-09-01T08:03:20.000Z</time>
      </trkpt>
      <trkpt lat="47.48941" lon="-0.58359">
        <ele>47</ele>
        <time>2015-09-01T08:03:21.000Z</time>
      </trkpt>
      <trkpt lat="47.48939" lon="-0.58362">
        <ele>47</ele>
        <time>2015-09-01T08:03:22.000Z</time>
      </trkpt>
      <trkpt lat="47.48937" lon="-0.58364">
        <ele>46</ele>
        <time>2015-09-01T08:03:23.000Z</time>
      </trkpt>
      <trkpt lat="47.48934" lon="-0.58367">
        <ele>45</ele>
        <time>2015-09-01T08:03:24.000Z</time>
      </trkpt>
      <trkpt lat="47.48932" lon="-0.58369">
        <ele>45</ele>
        <time>2015-09-01T08:03:25.000Z</time>
      </trkpt>
      <trkpt lat="47.48931" lon="-0.58372">
        <ele>45</ele>
        <time>2015-09-01T08:03:26.000Z</time>
      </trkpt>
      <trkpt lat="47.48929" lon="-0.58375">
        <ele>45</ele>
        <time>2015-09-01T08:03:27.000Z</time>
      </trkpt>
      <trkpt lat="47.48928" lon="-0.58377">
        <ele>44</ele>
        <time>2015-09-01T08:03:28.000Z</time>
      </trkpt>
      <trkpt lat="47.48926" lon="-0.5838">
        <ele>44</ele>
        <time>2015-09-01T08:03:29.000Z</time>
      </trkpt>
      <trkpt lat="47.48924" lon="-0.58383">
        <ele>44</ele>
        <time>2015-09-01T08:03:30.000Z</time>
      </trkpt>
      <trkpt lat="47.48922" lon="-0.58386">
        <ele>44</ele>
        <time>2015-09-01T08:03:31.000Z</time>
      </trkpt>
      <trkpt lat="47.48921" lon="-0.58389">
        <ele>44</ele>
        <time>2015-09-01T08:03:32.000Z</time>
      </trkpt>
      <trkpt lat="47.48919" lon="-0.58392">
        <ele>44</ele>
        <time>2015-09-01T08:03:33.000Z</time>
      </trkpt>
      <trkpt lat="47.48917" lon="-0.58395">
        <ele>44</ele>
        <time>2015-09-01T08:03:34.000Z</time>
      </trkpt>
      <trkpt lat="47.48915" lon="-0.58398">
        <ele>44</ele>
        <time>2015-09-01T08:03:35.000Z</time>
      </trkpt>
      <trkpt lat="47.48913" lon="-0.58401">
        <ele>44</ele>
        <time>2015-09-01T08:03:36.000Z</time>
      </trkpt>
      <trkpt lat="47.48911" lon="-0.58404">
        <ele>44</ele>
        <time>2015-09-01T08:03:37.000Z</time>
      </trkpt>
      <trkpt lat="47.48909" lon="-0.58407">
        <ele>43</ele>
        <time>2015-09-01T08:03:38.000Z</time>
      </trkpt>
      <trkpt lat="47.48906" lon="-0.58411">
        <ele>43</ele>
        <time>2015-09-01T08:03:39.000Z</time>
      </trkpt>
      <trkpt lat="47.48904" lon="-0.58414">
        <ele>43</ele>
        <time>2015-09-01T08:03:40.000Z</time>
      </trkpt>
      <trkpt lat="47.48902" lon="-0.58417">
        <ele>45</ele>
        <time>2015-09-01T08:03:41.000Z</time>
      </trkpt>
      <trkpt lat="47.489" lon="-0.5842">
        <ele>45</ele>
        <time>2015-09-01T08:03:42.000Z</time>
      </trkpt>
      <trkpt lat="47.48899" lon="-0.58423">
        <ele>47</ele>
        <time>2015-09-01T08:03:43.000Z</time>
      </trkpt>
      <trkpt lat="47.48897" lon="-0.58426">
        <ele>47</ele>
        <time>2015-09-01T08:03:44.000Z</time>
      </trkpt>
      <trkpt lat="47.48895" lon="-0.58429">
        <ele>47</ele>
        <time>2015-09-01T08:03:45.000Z</time>
      </trkpt>
      <trkpt lat="47.48893" lon="-0.58432">
        <ele>46</ele>
        <time>2015-09-01T08:03:46.000Z</time>
      </trkpt>
      <trkpt lat="47.48891" lon="-0.58435">
        <ele>47</ele>
        <time>2015-09-01T08:03:47.000Z</time>
      </trkpt>
      <trkpt lat="47.4889" lon="-0.58438">
        <ele>47</ele>
        <time>2015-09-01T08:03:48.000Z</time>
      </trkpt>
      <trkpt lat="47.48889" lon="-0.58441">
        <ele>47</ele>
        <time>2015-09-01T08:03:49.000Z</time>
      </trkpt>
      <trkpt lat="47.48887" lon="-0.58445">
        <ele>47</ele>
        <time>2015-09-01T08:03:50.000Z</time>
      </trkpt>
      <trkpt lat="47.48886" lon="-0.58448">
        <ele>47</ele>
        <time>2015-09-01T08:03:51.000Z</time>
      </trkpt>
      <trkpt lat="47.48884" lon="-0.58451">
        <ele>48</ele>
        <time>2015-09-01T08:03:52.000Z</time>
      </trkpt>
      <trkpt lat="47.48882" lon="-0.58454">
        <ele>47</ele>
        <time>2015-09-01T08:03:53.000Z</time>
      </trkpt>
      <trkpt lat="47.48881" lon="-0.58457">
        <ele>47</ele>
        <time>2015-09-01T08:03:54.000Z</time>
      </trkpt>
      <trkpt lat="47.4888" lon="-0.5846">
        <ele>47</ele>
        <time>2015-09-01T08:03:55.000Z</time>
      </trkpt>
      <trkpt lat="47.48879" lon="-0.58464">
        <ele>46</ele>
        <time>2015-09-01T08:03:56.000Z</time>
      </trkpt>
      <trkpt lat="47.48877" lon="-0.58467">
        <ele>44</ele>
        <time>2015-09-01T08:03:57.000Z</time>
      </trkpt>
      <trkpt lat="47.48876" lon="-0.5847">
        <ele>43</ele>
        <time>2015-09-01T08:03:58.000Z</time>
      </trkpt>
      <trkpt lat="47.48875" lon="-0.58473">
        <ele>42</ele>
        <time>2015-09-01T08:03:59.000Z</time>
      </trkpt>
      <trkpt lat="47.48873" lon="-0.58476">
        <ele>41</ele>
        <time>2015-09-01T08:04:00.000Z</time>
      </trkpt>
      <trkpt lat="47.48872" lon="-0.58479">
        <ele>41</ele>
        <time>2015-09-01T08:04:01.000Z</time>
      </trkpt>
      <trkpt lat="47.4887" lon="-0.58483">
        <ele>40</ele>
        <time>2015-09-01T08:04:02.000Z</time>
      </trkpt>
      <trkpt lat="47.48868" lon="-0.58486">
        <ele>40</ele>
        <time>2015-09-01T08:04:03.000Z</time>
      </trkpt>
      <trkpt lat="47.48866" lon="-0.58489">
        <ele>39</ele>
        <time>2015-09-01T08:04:04.000Z</time>
      </trkpt>
      <trkpt lat="47.48864" lon="-0.58493">
        <ele>39</ele>
        <time>2015-09-01T08:04:05.000Z</time>
      </trkpt>
      <trkpt lat="47.48862" lon="-0.58496">
        <ele>39</ele>
        <time>2015-09-01T08:04:06.000Z</time>
      </trkpt>
      <trkpt lat="47.4886" lon="-0.58499">
        <ele>39</ele>
        <time>2015-09-01T08:04:07.000Z</time>
      </trkpt>
      <trkpt lat="47.48859" lon="-0.58502">
        <ele>40</ele>
        <time>2015-09-01T08:04:08.000Z</time>
      </trkpt>
      <trkpt lat="47.48857" lon="-0.58505">
        <ele>40</ele>
        <time>2015-09-01T08:04:09.000Z</time>
      </trkpt>
      <trkpt lat="47.48856" lon="-0.58508">
        <ele>40</ele>
        <time>2015-09-01T08:04:10.000Z</time>
      </trkpt>
      <trkpt lat="47.48855" lon="-0.58511">
        <ele>41</ele>
        <time>2015-09-01T08:04:11.000Z</time>
      </trkpt>
      <trkpt lat="47.48853" lon="-0.58514">
        <ele>41</ele>
        <time>2015-09-01T08:04:12.000Z</time>
      </trkpt>
      <trkpt lat="47.48851" lon="-0.58517">
        <ele>41</ele>
        <time>2015-09-01T08:04:13.000Z</time>
      </trkpt>
      <trkpt lat="47.48849" lon="-0.5852">
        <ele>41</ele>
        <time>2015-09-01T08:04:14.000Z</time>
      </trkpt>
      <trkpt lat="47.48848" lon="-0.58523">
        <ele>41</ele>
        <time>2015-09-01T08:04:15.000Z</time>
      </trkpt>
      <trkpt lat="47.48846" lon="-0.58525">
        <ele>41</ele>
        <time>2015-09-01T08:04:16.000Z</time>
      </trkpt>
      <trkpt lat="47.48844" lon="-0.58528">
        <ele>40</ele>
        <time>2015-09-01T08:04:17.000Z</time>
      </trkpt>
      <trkpt lat="47.48843" lon="-0.58531">
        <ele>39</ele>
        <time>2015-09-01T08:04:18.000Z</time>
      </trkpt>
      <trkpt lat="47.48842" lon="-0.58534">
        <ele>39</ele>
        <time>2015-09-01T08:04:19.000Z</time>
      </trkpt>
      <trkpt lat="47.4884" lon="-0.58538">
        <ele>38</ele>
        <time>2015-09-01T08:04:20.000Z</time>
      </trkpt>
      <trkpt lat="47.48838" lon="-0.58541">
        <ele>39</ele>
        <time>2015-09-01T08:04:21.000Z</time>
      </trkpt>
      <trkpt lat="47.48836" lon="-0.58544">
        <ele>39</ele>
        <time>2015-09-01T08:04:22.000Z</time>
      </trkpt>
      <trkpt lat="47.48835" lon="-0.58548">
        <ele>39</ele>
        <time>2015-09-01T08:04:23.000Z</time>
      </trkpt>
      <trkpt lat="47.48833" lon="-0.58551">
        <ele>38</ele>
        <time>2015-09-01T08:04:24.000Z</time>
      </trkpt>
      <trkpt lat="47.48832" lon="-0.58554">
        <ele>38</ele>
        <time>2015-09-01T08:04:25.000Z</time>
      </trkpt>
      <trkpt lat="47.4883" lon="-0.58557">
        <ele>39</ele>
        <time>2015-09-01T08:04:26.000Z</time>
      </trkpt>
      <trkpt lat="47.48829" lon="-0.58559">
        <ele>39</ele>
        <time>2015-09-01T08:04:27.000Z</time>
      </trkpt>
      <trkpt lat="47.48827" lon="-0.58562">
        <ele>39</ele>
        <time>2015-09-01T08:04:28.000Z</time>
      </trkpt>
      <trkpt lat="47.48825" lon="-0.58566">
        <ele>39</ele>
        <time>2015-09-01T08:04:29.000Z</time>
      </trkpt>
      <trkpt lat="47.48823" lon="-0.58569">
        <ele>38</ele>
        <time>2015-09-01T08:04:30.000Z</time>
      </trkpt>
      <trkpt lat="47.48822" lon="-0.58572">
        <ele>39</ele>
        <time>2015-09-01T08:04:31.000Z</time>
      </trkpt>
      <trkpt lat="47.4882" lon="-0.58575">
        <ele>37</ele>
        <time>2015-09-01T08:04:32.000Z</time>
      </trkpt>
      <trkpt lat="47.48818" lon="-0.58578">
        <ele>38</ele>
        <time>2015-09-01T08:04:33.000Z</time>
      </trkpt>
      <trkpt lat="47.48816" lon="-0.58581">
        <ele>38</ele>
        <time>2015-09-01T08:04:34.000Z</time>
      </trkpt>
      <trkpt lat="47.48814" lon="-0.58584">
        <ele>37</ele>
        <time>2015-09-01T08:04:35.000Z</time>
      </trkpt>
      <trkpt lat="47.48812" lon="-0.58587">
        <ele>38</ele>
        <time>2015-09-01T08:04:36.000Z</time>
      </trkpt>
      <trkpt lat="47.48811" lon="-0.5859">
        <ele>39</ele>
        <time>2015-09-01T08:04:37.000Z</time>
      </trkpt>
      <trkpt lat="47.4881" lon="-0.58593">
        <ele>39</ele>
        <time>2015-09-01T08:04:38.000Z</time>
      </trkpt>
      <trkpt lat="47.48809" lon="-0.58596">
        <ele>40</ele>
        <time>2015-09-01T08:04:39.000Z</time>
      </trkpt>
      <trkpt lat="47.48808" lon="-0.586">
        <ele>41</ele>
        <time>2015-09-01T08:04:40.000Z</time>
      </trkpt>
      <trkpt lat="47.48807" lon="-0.58603">
        <ele>41</ele>
        <time>2015-09-01T08:04:41.000Z</time>
      </trkpt>
      <trkpt lat="47.48806" lon="-0.58607">
        <ele>41</ele>
        <time>2015-09-01T08:04:42.000Z</time>
      </trkpt>
      <trkpt lat="47.48805" lon="-0.5861">
        <ele>40</ele>
        <time>2015-09-01T08:04:43.000Z</time>
      </trkpt>
      <trkpt lat="47.48803" lon="-0.58613">
        <ele>40</ele>
        <time>2015-09-01T08:04:44.000Z</time>
      </trkpt>
      <trkpt lat="47.48802" lon="-0.58617">
        <ele>40</ele>
        <time>2015-09-01T08:04:45.000Z</time>
      </trkpt>
      <trkpt lat="47.488" lon="-0.5862">
        <ele>40</ele>
        <time>2015-09-01T08:04:46.000Z</time>
      </trkpt>
      <trkpt lat="47.48799" lon="-0.58624">
        <ele>40</ele>
        <time>2015-09-01T08:04:47.000Z</time>
      </trkpt>
      <trkpt lat="47.48797" lon="-0.58627">
        <ele>40</ele>
        <time>2015-09-01T08:04:48.000Z</time>
      </trkpt>
      <trkpt lat="47.48796" lon="-0.58631">
        <ele>41</ele>
        <time>2015-09-01T08:04:49.000Z</time>
      </trkpt>
      <trkpt lat="47.48795" lon="-0.58634">
        <ele>41</ele>
        <time>2015-09-01T08:04:50.000Z</time>
      </trkpt>
      <trkpt lat="47.48794" lon="-0.58637">
        <ele>41</ele>
        <time>2015-09-01T08:04:51.000Z</time>
      </trkpt>
      <trkpt lat="47.48792" lon="-0.58641">
        <ele>42</ele>
        <time>2015-09-01T08:04:52.000Z</time>
      </trkpt>
      <trkpt lat="47.4879" lon="-0.58644">
        <ele>41</ele>
        <time>2015-09-01T08:04:53.000Z</time>
      </trkpt>
      <trkpt lat="47.48789" lon="-0.58647">
        <ele>41</ele>
        <time>2015-09-01T08:04:54.000Z</time>
      </trkpt>
      <trkpt lat="47.48787" lon="-0.5865">
        <ele>41</ele>
        <time>2015-09-01T08:04:55.000Z</time>
      </trkpt>
      <trkpt lat="47.48786" lon="-0.58653">
        <ele>41</ele>
        <time>2015-09-01T08:04:56.000Z</time>
      </trkpt>
      <trkpt lat="47.48784" lon="-0.58656">
        <ele>41</ele>
        <time>2015-09-01T08:04:57.000Z</time>
      </trkpt>
      <trkpt lat="47.48783" lon="-0.58659">
        <ele>41</ele>
        <time>2015-09-01T08:04:58.000Z</time>
      </trkpt>
      <trkpt lat="47.48782" lon="-0.58663">
        <ele>40</ele>
        <time>2015-09-01T08:04:59.000Z</time>
      </trkpt>
      <trkpt lat="47.4878" lon="-0.58666">
        <ele>39</ele>
        <time>2015-09-01T08:05:00.000Z</time>
      </trkpt>
      <trkpt lat="47.48779" lon="-0.58668">
        <ele>38</ele>
        <time>2015-09-01T08:05:01.000Z</time>
      </trkpt>
      <trkpt lat="47.48778" lon="-0.5867">
        <ele>39</ele>
        <time>2015-09-01T08:05:02.000Z</time>
      </trkpt>
      <trkpt lat="47.48778" lon="-0.58673">
        <ele>39</ele>
        <time>2015-09-01T08:05:03.000Z</time>
      </trkpt>
      <trkpt lat="47.48777" lon="-0.58676">
        <ele>41</ele>
        <time>2015-09-01T08:05:04.000Z</time>
      </trkpt>
      <trkpt lat="47.48776" lon="-0.58679">
        <ele>40</ele>
        <time>2015-09-01T08:05:05.000Z</time>
      </trkpt>
      <trkpt lat="47.48775" lon="-0.58682">
        <ele>40</ele>
        <time>2015-09-01T08:05:06.000Z</time>
      </trkpt>
      <trkpt lat="47.48774" lon="-0.58686">
        <ele>41</ele>
        <time>2015-09-01T08:05:07.000Z</time>
      </trkpt>
      <trkpt lat="47.48775" lon="-0.58691">
        <ele>42</ele>
        <time>2015-09-01T08:05:08.000Z</time>
      </trkpt>
      <trkpt lat="47.48776" lon="-0.58695">
        <ele>42</ele>
        <time>2015-09-01T08:05:09.000Z</time>
      </trkpt>
      <trkpt lat="47.48778" lon="-0.58699">
        <ele>43</ele>
        <time>2015-09-01T08:05:10.000Z</time>
      </trkpt>
      <trkpt lat="47.48779" lon="-0.58703">
        <ele>43</ele>
        <time>2015-09-01T08:05:11.000Z</time>
      </trkpt>
      <trkpt lat="47.48779" lon="-0.58707">
        <ele>43</ele>
        <time>2015-09-01T08:05:12.000Z</time>
      </trkpt>
      <trkpt lat="47.4878" lon="-0.58711">
        <ele>43</ele>
        <time>2015-09-01T08:05:13.000Z</time>
      </trkpt>
      <trkpt lat="47.4878" lon="-0.58715">
        <ele>44</ele>
        <time>2015-09-01T08:05:14.000Z</time>
      </trkpt>
      <trkpt lat="47.4878" lon="-0.58719">
        <ele>44</ele>
        <time>2015-09-01T08:05:15.000Z</time>
      </trkpt>
      <trkpt lat="47.48779" lon="-0.58723">
        <ele>45</ele>
        <time>2015-09-01T08:05:16.000Z</time>
      </trkpt>
      <trkpt lat="47.48778" lon="-0.58726">
        <ele>45</ele>
        <time>2015-09-01T08:05:17.000Z</time>
      </trkpt>
      <trkpt lat="47.48778" lon="-0.58729">
        <ele>45</ele>
        <time>2015-09-01T08:05:18.000Z</time>
      </trkpt>
      <trkpt lat="47.48777" lon="-0.58732">
        <ele>45</ele>
        <time>2015-09-01T08:05:19.000Z</time>
      </trkpt>
      <trkpt lat="47.48775" lon="-0.58735">
        <ele>44</ele>
        <time>2015-09-01T08:05:20.000Z</time>
      </trkpt>
      <trkpt lat="47.48774" lon="-0.58738">
        <ele>45</ele>
        <time>2015-09-01T08:05:21.000Z</time>
      </trkpt>
      <trkpt lat="47.48772" lon="-0.5874">
        <ele>46</ele>
        <time>2015-09-01T08:05:22.000Z</time>
      </trkpt>
      <trkpt lat="47.4877" lon="-0.58741">
        <ele>46</ele>
        <time>2015-09-01T08:05:23.000Z</time>
      </trkpt>
      <trkpt lat="47.48768" lon="-0.58743">
        <ele>46</ele>
        <time>2015-09-01T08:05:24.000Z</time>
      </trkpt>
      <trkpt lat="47.48766" lon="-0.58745">
        <ele>47</ele>
        <time>2015-09-01T08:05:25.000Z</time>
      </trkpt>
      <trkpt lat="47.48763" lon="-0.58747">
        <ele>46</ele>
        <time>2015-09-01T08:05:26.000Z</time>
      </trkpt>
      <trkpt lat="47.48761" lon="-0.58749">
        <ele>47</ele>
        <time>2015-09-01T08:05:27.000Z</time>
      </trkpt>
      <trkpt lat="47.48758" lon="-0.58751">
        <ele>47</ele>
        <time>2015-09-01T08:05:28.000Z</time>
      </trkpt>
      <trkpt lat="47.48755" lon="-0.58752">
        <ele>47</ele>
        <time>2015-09-01T08:05:29.000Z</time>
      </trkpt>
      <trkpt lat="47.48752" lon="-0.58754">
        <ele>47</ele>
        <time>2015-09-01T08:05:30.000Z</time>
      </trkpt>
      <trkpt lat="47.4875" lon="-0.58756">
        <ele>47</ele>
        <time>2015-09-01T08:05:31.000Z</time>
      </trkpt>
      <trkpt lat="47.48747" lon="-0.58758">
        <ele>47</ele>
        <time>2015-09-01T08:05:32.000Z</time>
      </trkpt>
      <trkpt lat="47.48745" lon="-0.5876">
        <ele>48</ele>
        <time>2015-09-01T08:05:33.000Z</time>
      </trkpt>
      <trkpt lat="47.48743" lon="-0.58762">
        <ele>48</ele>
        <time>2015-09-01T08:05:34.000Z</time>
      </trkpt>
      <trkpt lat="47.4874" lon="-0.58763">
        <ele>48</ele>
        <time>2015-09-01T08:05:35.000Z</time>
      </trkpt>
      <trkpt lat="47.48738" lon="-0.58765">
        <ele>47</ele>
        <time>2015-09-01T08:05:36.000Z</time>
      </trkpt>
      <trkpt lat="47.48735" lon="-0.58767">
        <ele>47</ele>
        <time>2015-09-01T08:05:37.000Z</time>
      </trkpt>
      <trkpt lat="47.48732" lon="-0.58768">
        <ele>49</ele>
        <time>2015-09-01T08:05:38.000Z</time>
      </trkpt>
      <trkpt lat="47.4873" lon="-0.5877">
        <ele>49</ele>
        <time>2015-09-01T08:05:39.000Z</time>
      </trkpt>
      <trkpt lat="47.48727" lon="-0.58771">
        <ele>48</ele>
        <time>2015-09-01T08:05:40.000Z</time>
      </trkpt>
      <trkpt lat="47.48724" lon="-0.58773">
        <ele>48</ele>
        <time>2015-09-01T08:05:41.000Z</time>
      </trkpt>
      <trkpt lat="47.48722" lon="-0.58775">
        <ele>48</ele>
        <time>2015-09-01T08:05:42.000Z</time>
      </trkpt>
      <trkpt lat="47.48719" lon="-0.58777">
        <ele>49</ele>
        <time>2015-09-01T08:05:43.000Z</time>
      </trkpt>
      <trkpt lat="47.48716" lon="-0.58778">
        <ele>48</ele>
        <time>2015-09-01T08:05:44.000Z</time>
      </trkpt>
      <trkpt lat="47.48713" lon="-0.5878">
        <ele>47</ele>
        <time>2015-09-01T08:05:45.000Z</time>
      </trkpt>
      <trkpt lat="47.4871" lon="-0.58783">
        <ele>47</ele>
        <time>2015-09-01T08:05:46.000Z</time>
      </trkpt>
      <trkpt lat="47.48708" lon="-0.58785">
        <ele>46</ele>
        <time>2015-09-01T08:05:47.000Z</time>
      </trkpt>
      <trkpt lat="47.48705" lon="-0.58787">
        <ele>46</ele>
        <time>2015-09-01T08:05:48.000Z</time>
      </trkpt>
      <trkpt lat="47.48702" lon="-0.58789">
        <ele>46</ele>
        <time>2015-09-01T08:05:49.000Z</time>
      </trkpt>
      <trkpt lat="47.48699" lon="-0.58791">
        <ele>46</ele>
        <time>2015-09-01T08:05:50.000Z</time>
      </trkpt>
      <trkpt lat="47.48697" lon="-0.58793">
        <ele>46</ele>
        <time>2015-09-01T08:05:51.000Z</time>
      </trkpt>
      <trkpt lat="47.48695" lon="-0.58794">
        <ele>47</ele>
        <time>2015-09-01T08:05:52.000Z</time>
      </trkpt>
      <trkpt lat="47.48692" lon="-0.58796">
        <ele>47</ele>
        <time>2015-09-01T08:05:53.000Z</time>
      </trkpt>
      <trkpt lat="47.4869" lon="-0.58797">
        <ele>48</ele>
        <time>2015-09-01T08:05:54.000Z</time>
      </trkpt>
      <trkpt lat="47.48688" lon="-0.58799">
        <ele>48</ele>
        <time>2015-09-01T08:05:55.000Z</time>
      </trkpt>
      <trkpt lat="47.48685" lon="-0.58801">
        <ele>48</ele>
        <time>2015-09-01T08:05:56.000Z</time>
      </trkpt>
      <trkpt lat="47.48682" lon="-0.58802">
        <ele>48</ele>
        <time>2015-09-01T08:05:57.000Z</time>
      </trkpt>
      <trkpt lat="47.4868" lon="-0.58804">
        <ele>48</ele>
        <time>2015-09-01T08:05:58.000Z</time>
      </trkpt>
      <trkpt lat="47.48677" lon="-0.58806">
        <ele>48</ele>
        <time>2015-09-01T08:05:59.000Z</time>
      </trkpt>
      <trkpt lat="47.48675" lon="-0.58808">
        <ele>48</ele>
        <time>2015-09-01T08:06:00.000Z</time>
      </trkpt>
      <trkpt lat="47.48673" lon="-0.58809">
        <ele>47</ele>
        <time>2015-09-01T08:06:01.000Z</time>
      </trkpt>
      <trkpt lat="47.48671" lon="-0.58811">
        <ele>47</ele>
        <time>2015-09-01T08:06:02.000Z</time>
      </trkpt>
      <trkpt lat="47.48669" lon="-0.58813">
        <ele>47</ele>
        <time>2015-09-01T08:06:03.000Z</time>
      </trkpt>
      <trkpt lat="47.48666" lon="-0.58814">
        <ele>47</ele>
        <time>2015-09-01T08:06:04.000Z</time>
      </trkpt>
      <trkpt lat="47.48664" lon="-0.58816">
        <ele>48</ele>
        <time>2015-09-01T08:06:05.000Z</time>
      </trkpt>
      <trkpt lat="47.48661" lon="-0.58817">
        <ele>50</ele>
        <time>2015-09-01T08:06:06.000Z</time>
      </trkpt>
      <trkpt lat="47.48659" lon="-0.58818">
        <ele>51</ele>
        <time>2015-09-01T08:06:07.000Z</time>
      </trkpt>
      <trkpt lat="47.48657" lon="-0.58819">
        <ele>51</ele>
        <time>2015-09-01T08:06:08.000Z</time>
      </trkpt>
      <trkpt lat="47.48654" lon="-0.58819">
        <ele>53</ele>
        <time>2015-09-01T08:06:09.000Z</time>
      </trkpt>
      <trkpt lat="47.48652" lon="-0.5882">
        <ele>53</ele>
        <time>2015-09-01T08:06:10.000Z</time>
      </trkpt>
      <trkpt lat="47.4865" lon="-0.58819">
        <ele>49</ele>
        <time>2015-09-01T08:06:11.000Z</time>
      </trkpt>
      <trkpt lat="47.48648" lon="-0.58818">
        <ele>48</ele>
        <time>2015-09-01T08:06:12.000Z</time>
      </trkpt>
      <trkpt lat="47.48647" lon="-0.58816">
        <ele>48</ele>
        <time>2015-09-01T08:06:13.000Z</time>
      </trkpt>
      <trkpt lat="47.48645" lon="-0.58815">
        <ele>47</ele>
        <time>2015-09-01T08:06:14.000Z</time>
      </trkpt>
      <trkpt lat="47.48643" lon="-0.58813">
        <ele>47</ele>
        <time>2015-09-01T08:06:15.000Z</time>
      </trkpt>
      <trkpt lat="47.48641" lon="-0.58811">
        <ele>47</ele>
        <time>2015-09-01T08:06:16.000Z</time>
      </trkpt>
      <trkpt lat="47.48639" lon="-0.58809">
        <ele>47</ele>
        <time>2015-09-01T08:06:17.000Z</time>
      </trkpt>
      <trkpt lat="47.48637" lon="-0.58807">
        <ele>46</ele>
        <time>2015-09-01T08:06:18.000Z</time>
      </trkpt>
      <trkpt lat="47.48635" lon="-0.58805">
        <ele>46</ele>
        <time>2015-09-01T08:06:19.000Z</time>
      </trkpt>
      <trkpt lat="47.48634" lon="-0.58802">
        <ele>45</ele>
        <time>2015-09-01T08:06:20.000Z</time>
      </trkpt>
      <trkpt lat="47.48631" lon="-0.588">
        <ele>44</ele>
        <time>2015-09-01T08:06:21.000Z</time>
      </trkpt>
      <trkpt lat="47.48629" lon="-0.58797">
        <ele>44</ele>
        <time>2015-09-01T08:06:22.000Z</time>
      </trkpt>
      <trkpt lat="47.48627" lon="-0.58795">
        <ele>44</ele>
        <time>2015-09-01T08:06:23.000Z</time>
      </trkpt>
      <trkpt lat="47.48625" lon="-0.58792">
        <ele>44</ele>
        <time>2015-09-01T08:06:24.000Z</time>
      </trkpt>
      <trkpt lat="47.48624" lon="-0.5879">
        <ele>44</ele>
        <time>2015-09-01T08:06:25.000Z</time>
      </trkpt>
      <trkpt lat="47.48622" lon="-0.58787">
        <ele>43</ele>
        <time>2015-09-01T08:06:26.000Z</time>
      </trkpt>
      <trkpt lat="47.4862" lon="-0.58786">
        <ele>43</ele>
        <time>2015-09-01T08:06:27.000Z</time>
      </trkpt>
      <trkpt lat="47.48618" lon="-0.58784">
        <ele>43</ele>
        <time>2015-09-01T08:06:28.000Z</time>
      </trkpt>
      <trkpt lat="47.48616" lon="-0.58784">
        <ele>43</ele>
        <time>2015-09-01T08:06:29.000Z</time>
      </trkpt>
      <trkpt lat="47.48615" lon="-0.58783">
        <ele>43</ele>
        <time>2015-09-01T08:06:30.000Z</time>
      </trkpt>
      <trkpt lat="47.48614" lon="-0.58784">
        <ele>42</ele>
        <time>2015-09-01T08:06:31.000Z</time>
      </trkpt>
      <trkpt lat="47.48612" lon="-0.58785">
        <ele>42</ele>
        <time>2015-09-01T08:06:32.000Z</time>
      </trkpt>
      <trkpt lat="47.4861" lon="-0.58786">
        <ele>42</ele>
        <time>2015-09-01T08:06:33.000Z</time>
      </trkpt>
      <trkpt lat="47.48607" lon="-0.58787">
        <ele>42</ele>
        <time>2015-09-01T08:06:34.000Z</time>
      </trkpt>
      <trkpt lat="47.48604" lon="-0.58789">
        <ele>42</ele>
        <time>2015-09-01T08:06:35.000Z</time>
      </trkpt>
      <trkpt lat="47.48601" lon="-0.58791">
        <ele>42</ele>
        <time>2015-09-01T08:06:36.000Z</time>
      </trkpt>
      <trkpt lat="47.48598" lon="-0.58793">
        <ele>42</ele>
        <time>2015-09-01T08:06:37.000Z</time>
      </trkpt>
      <trkpt lat="47.48595" lon="-0.58795">
        <ele>42</ele>
        <time>2015-09-01T08:06:38.000Z</time>
      </trkpt>
      <trkpt lat="47.48593" lon="-0.58797">
        <ele>44</ele>
        <time>2015-09-01T08:06:39.000Z</time>
      </trkpt>
      <trkpt lat="47.48591" lon="-0.58798">
        <ele>44</ele>
        <time>2015-09-01T08:06:40.000Z</time>
      </trkpt>
      <trkpt lat="47.48588" lon="-0.58799">
        <ele>44</ele>
        <time>2015-09-01T08:06:41.000Z</time>
      </trkpt>
      <trkpt lat="47.48586" lon="-0.588">
        <ele>44</ele>
        <time>2015-09-01T08:06:42.000Z</time>
      </trkpt>
      <trkpt lat="47.48583" lon="-0.58802">
        <ele>44</ele>
        <time>2015-09-01T08:06:43.000Z</time>
      </trkpt>
      <trkpt lat="47.48581" lon="-0.58804">
        <ele>44</ele>
        <time>2015-09-01T08:06:44.000Z</time>
      </trkpt>
      <trkpt lat="47.48578" lon="-0.58805">
        <ele>44</ele>
        <time>2015-09-01T08:06:45.000Z</time>
      </trkpt>
      <trkpt lat="47.48575" lon="-0.58807">
        <ele>44</ele>
        <time>2015-09-01T08:06:46.000Z</time>
      </trkpt>
      <trkpt lat="47.48572" lon="-0.58807">
        <ele>44</ele>
        <time>2015-09-01T08:06:47.000Z</time>
      </trkpt>
      <trkpt lat="47.48569" lon="-0.58808">
        <ele>44</ele>
        <time>2015-09-01T08:06:48.000Z</time>
      </trkpt>
      <trkpt lat="47.48567" lon="-0.58809">
        <ele>45</ele>
        <time>2015-09-01T08:06:49.000Z</time>
      </trkpt>
      <trkpt lat="47.48565" lon="-0.5881">
        <ele>45</ele>
        <time>2015-09-01T08:06:50.000Z</time>
      </trkpt>
      <trkpt lat="47.48563" lon="-0.58811">
        <ele>45</ele>
        <time>2015-09-01T08:06:51.000Z</time>
      </trkpt>
      <trkpt lat="47.48561" lon="-0.58811">
        <ele>45</ele>
        <time>2015-09-01T08:06:52.000Z</time>
      </trkpt>
      <trkpt lat="47.48558" lon="-0.58812">
        <ele>45</ele>
        <time>2015-09-01T08:06:53.000Z</time>
      </trkpt>
      <trkpt lat="47.48556" lon="-0.58811">
        <ele>44</ele>
        <time>2015-09-01T08:06:54.000Z</time>
      </trkpt>
      <trkpt lat="47.48554" lon="-0.5881">
        <ele>44</ele>
        <time>2015-09-01T08:06:55.000Z</time>
      </trkpt>
      <trkpt lat="47.48553" lon="-0.58809">
        <ele>44</ele>
        <time>2015-09-01T08:06:56.000Z</time>
      </trkpt>
      <trkpt lat="47.48552" lon="-0.58807">
        <ele>44</ele>
        <time>2015-09-01T08:06:57.000Z</time>
      </trkpt>
      <trkpt lat="47.4855" lon="-0.58804">
        <ele>43</ele>
        <time>2015-09-01T08:06:58.000Z</time>
      </trkpt>
      <trkpt lat="47.48547" lon="-0.58801">
        <ele>43</ele>
        <time>2015-09-01T08:06:59.000Z</time>
      </trkpt>
      <trkpt lat="47.48545" lon="-0.58797">
        <ele>43</ele>
        <time>2015-09-01T08:07:00.000Z</time>
      </trkpt>
      <trkpt lat="47.48543" lon="-0.58794">
        <ele>43</ele>
        <time>2015-09-01T08:07:01.000Z</time>
      </trkpt>
      <trkpt lat="47.48541" lon="-0.58791">
        <ele>43</ele>
        <time>2015-09-01T08:07:02.000Z</time>
      </trkpt>
      <trkpt lat="47.4854" lon="-0.58787">
        <ele>43</ele>
        <time>2015-09-01T08:07:03.000Z</time>
      </trkpt>
      <trkpt lat="47.48538" lon="-0.58784">
        <ele>44</ele>
        <time>2015-09-01T08:07:04.000Z</time>
      </trkpt>
      <trkpt lat="47.48537" lon="-0.5878">
        <ele>44</ele>
        <time>2015-09-01T08:07:05.000Z</time>
      </trkpt>
      <trkpt lat="47.48535" lon="-0.58776">
        <ele>44</ele>
        <time>2015-09-01T08:07:06.000Z</time>
      </trkpt>
      <trkpt lat="47.48534" lon="-0.58772">
        <ele>44</ele>
        <time>2015-09-01T08:07:07.000Z</time>
      </trkpt>
      <trkpt lat="47.48533" lon="-0.58769">
        <ele>44</ele>
        <time>2015-09-01T08:07:08.000Z</time>
      </trkpt>
      <trkpt lat="47.48532" lon="-0.58765">
        <ele>45</ele>
        <time>2015-09-01T08:07:09.000Z</time>
      </trkpt>
      <trkpt lat="47.48531" lon="-0.58761">
        <ele>44</ele>
        <time>2015-09-01T08:07:10.000Z</time>
      </trkpt>
      <trkpt lat="47.4853" lon="-0.58757">
        <ele>44</ele>
        <time>2015-09-01T08:07:11.000Z</time>
      </trkpt>
      <trkpt lat="47.48529" lon="-0.58754">
        <ele>44</ele>
        <time>2015-09-01T08:07:12.000Z</time>
      </trkpt>
      <trkpt lat="47.48528" lon="-0.58751">
        <ele>44</ele>
        <time>2015-09-01T08:07:13.000Z</time>
      </trkpt>
      <trkpt lat="47.48527" lon="-0.58748">
        <ele>45</ele>
        <time>2015-09-01T08:07:14.000Z</time>
      </trkpt>
      <trkpt lat="47.48525" lon="-0.58745">
        <ele>45</ele>
        <time>2015-09-01T08:07:15.000Z</time>
      </trkpt>
      <trkpt lat="47.48524" lon="-0.58741">
        <ele>44</ele>
        <time>2015-09-01T08:07:16.000Z</time>
      </trkpt>
      <trkpt lat="47.48522" lon="-0.58738">
        <ele>44</ele>
        <time>2015-09-01T08:07:17.000Z</time>
      </trkpt>
      <trkpt lat="47.48521" lon="-0.58735">
        <ele>44</ele>
        <time>2015-09-01T08:07:18.000Z</time>
      </trkpt>
      <trkpt lat="47.4852" lon="-0.58731">
        <ele>45</ele>
        <time>2015-09-01T08:07:19.000Z</time>
      </trkpt>
      <trkpt lat="47.48518" lon="-0.58728">
        <ele>45</ele>
        <time>2015-09-01T08:07:20.000Z</time>
      </trkpt>
      <trkpt lat="47.48517" lon="-0.58725">
        <ele>44</ele>
        <time>2015-09-01T08:07:21.000Z</time>
      </trkpt>
      <trkpt lat="47.48516" lon="-0.58721">
        <ele>44</ele>
        <time>2015-09-01T08:07:22.000Z</time>
      </trkpt>
      <trkpt lat="47.48514" lon="-0.58718">
        <ele>43</ele>
        <time>2015-09-01T08:07:23.000Z</time>
      </trkpt>
      <trkpt lat="47.48512" lon="-0.58715">
        <ele>43</ele>
        <time>2015-09-01T08:07:24.000Z</time>
      </trkpt>
      <trkpt lat="47.48511" lon="-0.58712">
        <ele>43</ele>
        <time>2015-09-01T08:07:25.000Z</time>
      </trkpt>
      <trkpt lat="47.4851" lon="-0.58708">
        <ele>43</ele>
        <time>2015-09-01T08:07:26.000Z</time>
      </trkpt>
      <trkpt lat="47.48509" lon="-0.58704">
        <ele>43</ele>
        <time>2015-09-01T08:07:27.000Z</time>
      </trkpt>
      <trkpt lat="47.48509" lon="-0.587">
        <ele>43</ele>
        <time>2015-09-01T08:07:28.000Z</time>
      </trkpt>
      <trkpt lat="47.48509" lon="-0.58696">
        <ele>43</ele>
        <time>2015-09-01T08:07:29.000Z</time>
      </trkpt>
      <trkpt lat="47.48508" lon="-0.58692">
        <ele>42</ele>
        <time>2015-09-01T08:07:30.000Z</time>
      </trkpt>
      <trkpt lat="47.48507" lon="-0.58689">
        <ele>42</ele>
        <time>2015-09-01T08:07:31.000Z</time>
      </trkpt>
      <trkpt lat="47.48506" lon="-0.58685">
        <ele>42</ele>
        <time>2015-09-01T08:07:32.000Z</time>
      </trkpt>
      <trkpt lat="47.48504" lon="-0.58681">
        <ele>41</ele>
        <time>2015-09-01T08:07:33.000Z</time>
      </trkpt>
      <trkpt lat="47.48504" lon="-0.58678">
        <ele>41</ele>
        <time>2015-09-01T08:07:34.000Z</time>
      </trkpt>
      <trkpt lat="47.48503" lon="-0.58674">
        <ele>41</ele>
        <time>2015-09-01T08:07:35.000Z</time>
      </trkpt>
      <trkpt lat="47.48502" lon="-0.5867">
        <ele>42</ele>
        <time>2015-09-01T08:07:36.000Z</time>
      </trkpt>
      <trkpt lat="47.48501" lon="-0.58667">
        <ele>42</ele>
        <time>2015-09-01T08:07:37.000Z</time>
      </trkpt>
      <trkpt lat="47.485" lon="-0.58664">
        <ele>41</ele>
        <time>2015-09-01T08:07:38.000Z</time>
      </trkpt>
      <trkpt lat="47.48499" lon="-0.5866">
        <ele>41</ele>
        <time>2015-09-01T08:07:39.000Z</time>
      </trkpt>
      <trkpt lat="47.48497" lon="-0.58657">
        <ele>41</ele>
        <time>2015-09-01T08:07:40.000Z</time>
      </trkpt>
      <trkpt lat="47.48496" lon="-0.58654">
        <ele>42</ele>
        <time>2015-09-01T08:07:41.000Z</time>
      </trkpt>
      <trkpt lat="47.48495" lon="-0.58651">
        <ele>41</ele>
        <time>2015-09-01T08:07:42.000Z</time>
      </trkpt>
      <trkpt lat="47.48494" lon="-0.58647">
        <ele>41</ele>
        <time>2015-09-01T08:07:43.000Z</time>
      </trkpt>
      <trkpt lat="47.48492" lon="-0.58643">
        <ele>41</ele>
        <time>2015-09-01T08:07:44.000Z</time>
      </trkpt>
      <trkpt lat="47.48491" lon="-0.5864">
        <ele>41</ele>
        <time>2015-09-01T08:07:45.000Z</time>
      </trkpt>
      <trkpt lat="47.48491" lon="-0.58635">
        <ele>43</ele>
        <time>2015-09-01T08:07:46.000Z</time>
      </trkpt>
      <trkpt lat="47.4849" lon="-0.58631">
        <ele>43</ele>
        <time>2015-09-01T08:07:47.000Z</time>
      </trkpt>
      <trkpt lat="47.4849" lon="-0.58626">
        <ele>42</ele>
        <time>2015-09-01T08:07:48.000Z</time>
      </trkpt>
      <trkpt lat="47.48489" lon="-0.58622">
        <ele>43</ele>
        <time>2015-09-01T08:07:49.000Z</time>
      </trkpt>
      <trkpt lat="47.48489" lon="-0.58618">
        <ele>44</ele>
        <time>2015-09-01T08:07:50.000Z</time>
      </trkpt>
      <trkpt lat="47.48489" lon="-0.58614">
        <ele>44</ele>
        <time>2015-09-01T08:07:51.000Z</time>
      </trkpt>
      <trkpt lat="47.48489" lon="-0.5861">
        <ele>44</ele>
        <time>2015-09-01T08:07:52.000Z</time>
      </trkpt>
      <trkpt lat="47.48488" lon="-0.58607">
        <ele>43</ele>
        <time>2015-09-01T08:07:53.000Z</time>
      </trkpt>
      <trkpt lat="47.48487" lon="-0.58604">
        <ele>44</ele>
        <time>2015-09-01T08:07:54.000Z</time>
      </trkpt>
      <trkpt lat="47.48486" lon="-0.58603">
        <ele>44</ele>
        <time>2015-09-01T08:07:55.000Z</time>
      </trkpt>
      <trkpt lat="47.48484" lon="-0.58603">
        <ele>45</ele>
        <time>2015-09-01T08:07:56.000Z</time>
      </trkpt>
      <trkpt lat="47.48481" lon="-0.58604">
        <ele>47</ele>
        <time>2015-09-01T08:07:57.000Z</time>
      </trkpt>
      <trkpt lat="47.48478" lon="-0.58607">
        <ele>48</ele>
        <time>2015-09-01T08:07:58.000Z</time>
      </trkpt>
      <trkpt lat="47.48476" lon="-0.58609">
        <ele>48</ele>
        <time>2015-09-01T08:07:59.000Z</time>
      </trkpt>
      <trkpt lat="47.48475" lon="-0.58612">
        <ele>49</ele>
        <time>2015-09-01T08:08:00.000Z</time>
      </trkpt>
      <trkpt lat="47.48473" lon="-0.58615">
        <ele>49</ele>
        <time>2015-09-01T08:08:01.000Z</time>
      </trkpt>
      <trkpt lat="47.48472" lon="-0.58618">
        <ele>49</ele>
        <time>2015-09-01T08:08:02.000Z</time>
      </trkpt>
      <trkpt lat="47.48471" lon="-0.58621">
        <ele>49</ele>
        <time>2015-09-01T08:08:03.000Z</time>
      </trkpt>
      <trkpt lat="47.48469" lon="-0.58625">
        <ele>49</ele>
        <time>2015-09-01T08:08:04.000Z</time>
      </trkpt>
      <trkpt lat="47.48468" lon="-0.58629">
        <ele>49</ele>
        <time>2015-09-01T08:08:05.000Z</time>
      </trkpt>
      <trkpt lat="47.48467" lon="-0.58632">
        <ele>50</ele>
        <time>2015-09-01T08:08:06.000Z</time>
      </trkpt>
      <trkpt lat="47.48466" lon="-0.58636">
        <ele>50</ele>
        <time>2015-09-01T08:08:07.000Z</time>
      </trkpt>
      <trkpt lat="47.48465" lon="-0.58639">
        <ele>50</ele>
        <time>2015-09-01T08:08:08.000Z</time>
      </trkpt>
      <trkpt lat="47.48465" lon="-0.58643">
        <ele>50</ele>
        <time>2015-09-01T08:08:09.000Z</time>
      </trkpt>
      <trkpt lat="47.48465" lon="-0.58647">
        <ele>50</ele>
        <time>2015-09-01T08:08:10.000Z</time>
      </trkpt>
      <trkpt lat="47.48464" lon="-0.58651">
        <ele>51</ele>
        <time>2015-09-01T08:08:11.000Z</time>
      </trkpt>
      <trkpt lat="47.48464" lon="-0.58654">
        <ele>51</ele>
        <time>2015-09-01T08:08:12.000Z</time>
      </trkpt>
      <trkpt lat="47.48463" lon="-0.58657">
        <ele>51</ele>
        <time>2015-09-01T08:08:13.000Z</time>
      </trkpt>
      <trkpt lat="47.48462" lon="-0.58661">
        <ele>52</ele>
        <time>2015-09-01T08:08:14.000Z</time>
      </trkpt>
      <trkpt lat="47.48461" lon="-0.58665">
        <ele>52</ele>
        <time>2015-09-01T08:08:15.000Z</time>
      </trkpt>
      <trkpt lat="47.4846" lon="-0.58669">
        <ele>53</ele>
        <time>2015-09-01T08:08:16.000Z</time>
      </trkpt>
      <trkpt lat="47.4846" lon="-0.58673">
        <ele>54</ele>
        <time>2015-09-01T08:08:17.000Z</time>
      </trkpt>
      <trkpt lat="47.48459" lon="-0.58677">
        <ele>55</ele>
        <time>2015-09-01T08:08:18.000Z</time>
      </trkpt>
      <trkpt lat="47.48459" lon="-0.5868">
        <ele>56</ele>
        <time>2015-09-01T08:08:19.000Z</time>
      </trkpt>
      <trkpt lat="47.48458" lon="-0.58684">
        <ele>57</ele>
        <time>2015-09-01T08:08:20.000Z</time>
      </trkpt>
      <trkpt lat="47.48457" lon="-0.58687">
        <ele>59</ele>
        <time>2015-09-01T08:08:21.000Z</time>
      </trkpt>
      <trkpt lat="47.48456" lon="-0.5869">
        <ele>59</ele>
        <time>2015-09-01T08:08:22.000Z</time>
      </trkpt>
      <trkpt lat="47.48455" lon="-0.58694">
        <ele>59</ele>
        <time>2015-09-01T08:08:23.000Z</time>
      </trkpt>
      <trkpt lat="47.48454" lon="-0.58697">
        <ele>60</ele>
        <time>2015-09-01T08:08:24.000Z</time>
      </trkpt>
      <trkpt lat="47.48453" lon="-0.58701">
        <ele>60</ele>
        <time>2015-09-01T08:08:25.000Z</time>
      </trkpt>
      <trkpt lat="47.48453" lon="-0.58704">
        <ele>61</ele>
        <time>2015-09-01T08:08:26.000Z</time>
      </trkpt>
      <trkpt lat="47.48452" lon="-0.58708">
        <ele>62</ele>
        <time>2015-09-01T08:08:27.000Z</time>
      </trkpt>
      <trkpt lat="47.48452" lon="-0.58711">
        <ele>62</ele>
        <time>2015-09-01T08:08:28.000Z</time>
      </trkpt>
      <trkpt lat="47.48452" lon="-0.58714">
        <ele>64</ele>
        <time>2015-09-01T08:08:29.000Z</time>
      </trkpt>
      <trkpt lat="47.48451" lon="-0.58717">
        <ele>66</ele>
        <time>2015-09-01T08:08:30.000Z</time>
      </trkpt>
      <trkpt lat="47.48451" lon="-0.58721">
        <ele>67</ele>
        <time>2015-09-01T08:08:31.000Z</time>
      </trkpt>
      <trkpt lat="47.48451" lon="-0.58724">
        <ele>68</ele>
        <time>2015-09-01T08:08:32.000Z</time>
      </trkpt>
      <trkpt lat="47.4845" lon="-0.58728">
        <ele>68</ele>
        <time>2015-09-01T08:08:33.000Z</time>
      </trkpt>
      <trkpt lat="47.48449" lon="-0.58731">
        <ele>65</ele>
        <time>2015-09-01T08:08:34.000Z</time>
      </trkpt>
      <trkpt lat="47.48447" lon="-0.58735">
        <ele>65</ele>
        <time>2015-09-01T08:08:35.000Z</time>
      </trkpt>
      <trkpt lat="47.48445" lon="-0.5874">
        <ele>63</ele>
        <time>2015-09-01T08:08:36.000Z</time>
      </trkpt>
      <trkpt lat="47.48443" lon="-0.58743">
        <ele>64</ele>
        <time>2015-09-01T08:08:37.000Z</time>
      </trkpt>
      <trkpt lat="47.48442" lon="-0.58747">
        <ele>64</ele>
        <time>2015-09-01T08:08:38.000Z</time>
      </trkpt>
      <trkpt lat="47.48441" lon="-0.58751">
        <ele>64</ele>
        <time>2015-09-01T08:08:39.000Z</time>
      </trkpt>
      <trkpt lat="47.48439" lon="-0.58754">
        <ele>65</ele>
        <time>2015-09-01T08:08:40.000Z</time>
      </trkpt>
      <trkpt lat="47.48438" lon="-0.58757">
        <ele>65</ele>
        <time>2015-09-01T08:08:41.000Z</time>
      </trkpt>
      <trkpt lat="47.48436" lon="-0.58761">
        <ele>66</ele>
        <time>2015-09-01T08:08:42.000Z</time>
      </trkpt>
      <trkpt lat="47.48434" lon="-0.58764">
        <ele>64</ele>
        <time>2015-09-01T08:08:43.000Z</time>
      </trkpt>
      <trkpt lat="47.48432" lon="-0.58768">
        <ele>64</ele>
        <time>2015-09-01T08:08:44.000Z</time>
      </trkpt>
      <trkpt lat="47.48431" lon="-0.58772">
        <ele>65</ele>
        <time>2015-09-01T08:08:45.000Z</time>
      </trkpt>
      <trkpt lat="47.4843" lon="-0.58776">
        <ele>66</ele>
        <time>2015-09-01T08:08:46.000Z</time>
      </trkpt>
      <trkpt lat="47.48429" lon="-0.5878">
        <ele>65</ele>
        <time>2015-09-01T08:08:47.000Z</time>
      </trkpt>
      <trkpt lat="47.48427" lon="-0.58783">
        <ele>64</ele>
        <time>2015-09-01T08:08:48.000Z</time>
      </trkpt>
      <trkpt lat="47.48426" lon="-0.58787">
        <ele>65</ele>
        <time>2015-09-01T08:08:49.000Z</time>
      </trkpt>
      <trkpt lat="47.48425" lon="-0.58791">
        <ele>64</ele>
        <time>2015-09-01T08:08:50.000Z</time>
      </trkpt>
      <trkpt lat="47.48424" lon="-0.58795">
        <ele>63</ele>
        <time>2015-09-01T08:08:51.000Z</time>
      </trkpt>
      <trkpt lat="47.48423" lon="-0.58799">
        <ele>63</ele>
        <time>2015-09-01T08:08:52.000Z</time>
      </trkpt>
      <trkpt lat="47.48422" lon="-0.58803">
        <ele>63</ele>
        <time>2015-09-01T08:08:53.000Z</time>
      </trkpt>
      <trkpt lat="47.48421" lon="-0.58807">
        <ele>62</ele>
        <time>2015-09-01T08:08:54.000Z</time>
      </trkpt>
      <trkpt lat="47.4842" lon="-0.58811">
        <ele>62</ele>
        <time>2015-09-01T08:08:55.000Z</time>
      </trkpt>
      <trkpt lat="47.48419" lon="-0.58815">
        <ele>62</ele>
        <time>2015-09-01T08:08:56.000Z</time>
      </trkpt>
      <trkpt lat="47.48419" lon="-0.58819">
        <ele>62</ele>
        <time>2015-09-01T08:08:57.000Z</time>
      </trkpt>
      <trkpt lat="47.48418" lon="-0.58823">
        <ele>61</ele>
        <time>2015-09-01T08:08:58.000Z</time>
      </trkpt>
      <trkpt lat="47.48417" lon="-0.58827">
        <ele>60</ele>
        <time>2015-09-01T08:08:59.000Z</time>
      </trkpt>
      <trkpt lat="47.48415" lon="-0.58831">
        <ele>59</ele>
        <time>2015-09-01T08:09:00.000Z</time>
      </trkpt>
      <trkpt lat="47.48413" lon="-0.58835">
        <ele>56</ele>
        <time>2015-09-01T08:09:01.000Z</time>
      </trkpt>
      <trkpt lat="47.48412" lon="-0.58839">
        <ele>56</ele>
        <time>2015-09-01T08:09:02.000Z</time>
      </trkpt>
      <trkpt lat="47.4841" lon="-0.58843">
        <ele>55</ele>
        <time>2015-09-01T08:09:03.000Z</time>
      </trkpt>
      <trkpt lat="47.4841" lon="-0.58847">
        <ele>55</ele>
        <time>2015-09-01T08:09:04.000Z</time>
      </trkpt>
      <trkpt lat="47.48409" lon="-0.58851">
        <ele>55</ele>
        <time>2015-09-01T08:09:05.000Z</time>
      </trkpt>
      <trkpt lat="47.48409" lon="-0.58855">
        <ele>55</ele>
        <time>2015-09-01T08:09:06.000Z</time>
      </trkpt>
      <trkpt lat="47.48408" lon="-0.58859">
        <ele>55</ele>
        <time>2015-09-01T08:09:07.000Z</time>
      </trkpt>
      <trkpt lat="47.48407" lon="-0.58863">
        <ele>54</ele>
        <time>2015-09-01T08:09:08.000Z</time>
      </trkpt>
      <trkpt lat="47.48407" lon="-0.58867">
        <ele>54</ele>
        <time>2015-09-01T08:09:09.000Z</time>
      </trkpt>
      <trkpt lat="47.48406" lon="-0.58871">
        <ele>55</ele>
        <time>2015-09-01T08:09:10.000Z</time>
      </trkpt>
      <trkpt lat="47.48406" lon="-0.58876">
        <ele>54</ele>
        <time>2015-09-01T08:09:11.000Z</time>
      </trkpt>
      <trkpt lat="47.48405" lon="-0.5888">
        <ele>53</ele>
        <time>2015-09-01T08:09:12.000Z</time>
      </trkpt>
      <trkpt lat="47.48404" lon="-0.58885">
        <ele>53</ele>
        <time>2015-09-01T08:09:13.000Z</time>
      </trkpt>
      <trkpt lat="47.48403" lon="-0.58889">
        <ele>52</ele>
        <time>2015-09-01T08:09:14.000Z</time>
      </trkpt>
      <trkpt lat="47.48403" lon="-0.58893">
        <ele>51</ele>
        <time>2015-09-01T08:09:15.000Z</time>
      </trkpt>
      <trkpt lat="47.48402" lon="-0.58898">
        <ele>49</ele>
        <time>2015-09-01T08:09:16.000Z</time>
      </trkpt>
      <trkpt lat="47.48401" lon="-0.58903">
        <ele>48</ele>
        <time>2015-09-01T08:09:17.000Z</time>
      </trkpt>
      <trkpt lat="47.484" lon="-0.58908">
        <ele>46</ele>
        <time>2015-09-01T08:09:18.000Z</time>
      </trkpt>
      <trkpt lat="47.48399" lon="-0.58912">
        <ele>46</ele>
        <time>2015-09-01T08:09:19.000Z</time>
      </trkpt>
      <trkpt lat="47.48399" lon="-0.58916">
        <ele>46</ele>
        <time>2015-09-01T08:09:20.000Z</time>
      </trkpt>
      <trkpt lat="47.48399" lon="-0.5892">
        <ele>46</ele>
        <time>2015-09-01T08:09:21.000Z</time>
      </trkpt>
      <trkpt lat="47.48398" lon="-0.58924">
        <ele>47</ele>
        <time>2015-09-01T08:09:22.000Z</time>
      </trkpt>
      <trkpt lat="47.48397" lon="-0.58928">
        <ele>46</ele>
        <time>2015-09-01T08:09:23.000Z</time>
      </trkpt>
      <trkpt lat="47.48396" lon="-0.58932">
        <ele>47</ele>
        <time>2015-09-01T08:09:24.000Z</time>
      </trkpt>
      <trkpt lat="47.48395" lon="-0.58935">
        <ele>47</ele>
        <time>2015-09-01T08:09:25.000Z</time>
      </trkpt>
      <trkpt lat="47.48394" lon="-0.58939">
        <ele>47</ele>
        <time>2015-09-01T08:09:26.000Z</time>
      </trkpt>
      <trkpt lat="47.48393" lon="-0.58943">
        <ele>47</ele>
        <time>2015-09-01T08:09:27.000Z</time>
      </trkpt>
      <trkpt lat="47.48392" lon="-0.58947">
        <ele>47</ele>
        <time>2015-09-01T08:09:28.000Z</time>
      </trkpt>
      <trkpt lat="47.48392" lon="-0.58951">
        <ele>48</ele>
        <time>2015-09-01T08:09:29.000Z</time>
      </trkpt>
      <trkpt lat="47.48391" lon="-0.58954">
        <ele>49</ele>
        <time>2015-09-01T08:09:30.000Z</time>
      </trkpt>
      <trkpt lat="47.48391" lon="-0.58958">
        <ele>50</ele>
        <time>2015-09-01T08:09:31.000Z</time>
      </trkpt>
      <trkpt lat="47.48391" lon="-0.58961">
        <ele>50</ele>
        <time>2015-09-01T08:09:32.000Z</time>
      </trkpt>
      <trkpt lat="47.48389" lon="-0.58964">
        <ele>50</ele>
        <time>2015-09-01T08:09:33.000Z</time>
      </trkpt>
      <trkpt lat="47.48388" lon="-0.58968">
        <ele>50</ele>
        <time>2015-09-01T08:09:34.000Z</time>
      </trkpt>
      <trkpt lat="47.48387" lon="-0.58972">
        <ele>50</ele>
        <time>2015-09-01T08:09:35.000Z</time>
      </trkpt>
      <trkpt lat="47.48387" lon="-0.58976">
        <ele>51</ele>
        <time>2015-09-01T08:09:36.000Z</time>
      </trkpt>
      <trkpt lat="47.48386" lon="-0.5898">
        <ele>50</ele>
        <time>2015-09-01T08:09:37.000Z</time>
      </trkpt>
      <trkpt lat="47.48385" lon="-0.58984">
        <ele>50</ele>
        <time>2015-09-01T08:09:38.000Z</time>
      </trkpt>
      <trkpt lat="47.48384" lon="-0.58988">
        <ele>51</ele>
        <time>2015-09-01T08:09:39.000Z</time>
      </trkpt>
      <trkpt lat="47.48384" lon="-0.58992">
        <ele>50</ele>
        <time>2015-09-01T08:09:40.000Z</time>
      </trkpt>
      <trkpt lat="47.48384" lon="-0.58997">
        <ele>47</ele>
        <time>2015-09-01T08:09:41.000Z</time>
      </trkpt>
      <trkpt lat="47.48383" lon="-0.59002">
        <ele>43</ele>
        <time>2015-09-01T08:09:42.000Z</time>
      </trkpt>
      <trkpt lat="47.48382" lon="-0.59007">
        <ele>40</ele>
        <time>2015-09-01T08:09:43.000Z</time>
      </trkpt>
      <trkpt lat="47.4838" lon="-0.59012">
        <ele>38</ele>
        <time>2015-09-01T08:09:44.000Z</time>
      </trkpt>
      <trkpt lat="47.48379" lon="-0.59017">
        <ele>38</ele>
        <time>2015-09-01T08:09:45.000Z</time>
      </trkpt>
      <trkpt lat="47.48377" lon="-0.59021">
        <ele>39</ele>
        <time>2015-09-01T08:09:46.000Z</time>
      </trkpt>
      <trkpt lat="47.48375" lon="-0.59025">
        <ele>39</ele>
        <time>2015-09-01T08:09:47.000Z</time>
      </trkpt>
      <trkpt lat="47.48374" lon="-0.59029">
        <ele>39</ele>
        <time>2015-09-01T08:09:48.000Z</time>
      </trkpt>
      <trkpt lat="47.48372" lon="-0.59033">
        <ele>39</ele>
        <time>2015-09-01T08:09:49.000Z</time>
      </trkpt>
      <trkpt lat="47.48371" lon="-0.59036">
        <ele>40</ele>
        <time>2015-09-01T08:09:50.000Z</time>
      </trkpt>
      <trkpt lat="47.4837" lon="-0.5904">
        <ele>40</ele>
        <time>2015-09-01T08:09:51.000Z</time>
      </trkpt>
      <trkpt lat="47.48368" lon="-0.59043">
        <ele>40</ele>
        <time>2015-09-01T08:09:52.000Z</time>
      </trkpt>
      <trkpt lat="47.48367" lon="-0.59047">
        <ele>40</ele>
        <time>2015-09-01T08:09:53.000Z</time>
      </trkpt>
      <trkpt lat="47.48365" lon="-0.5905">
        <ele>40</ele>
        <time>2015-09-01T08:09:54.000Z</time>
      </trkpt>
      <trkpt lat="47.48364" lon="-0.59053">
        <ele>41</ele>
        <time>2015-09-01T08:09:55.000Z</time>
      </trkpt>
      <trkpt lat="47.48362" lon="-0.59056">
        <ele>41</ele>
        <time>2015-09-01T08:09:56.000Z</time>
      </trkpt>
      <trkpt lat="47.4836" lon="-0.59058">
        <ele>41</ele>
        <time>2015-09-01T08:09:57.000Z</time>
      </trkpt>
      <trkpt lat="47.48358" lon="-0.59061">
        <ele>41</ele>
        <time>2015-09-01T08:09:58.000Z</time>
      </trkpt>
      <trkpt lat="47.48356" lon="-0.59063">
        <ele>41</ele>
        <time>2015-09-01T08:09:59.000Z</time>
      </trkpt>
      <trkpt lat="47.48353" lon="-0.59066">
        <ele>41</ele>
        <time>2015-09-01T08:10:00.000Z</time>
      </trkpt>
      <trkpt lat="47.48352" lon="-0.59068">
        <ele>41</ele>
        <time>2015-09-01T08:10:01.000Z</time>
      </trkpt>
      <trkpt lat="47.48351" lon="-0.59072">
        <ele>41</ele>
        <time>2015-09-01T08:10:02.000Z</time>
      </trkpt>
      <trkpt lat="47.48351" lon="-0.59076">
        <ele>40</ele>
        <time>2015-09-01T08:10:03.000Z</time>
      </trkpt>
      <trkpt lat="47.48351" lon="-0.59082">
        <ele>38</ele>
        <time>2015-09-01T08:10:04.000Z</time>
      </trkpt>
      <trkpt lat="47.48351" lon="-0.59086">
        <ele>38</ele>
        <time>2015-09-01T08:10:05.000Z</time>
      </trkpt>
      <trkpt lat="47.48351" lon="-0.59091">
        <ele>37</ele>
        <time>2015-09-01T08:10:06.000Z</time>
      </trkpt>
      <trkpt lat="47.4835" lon="-0.59094">
        <ele>37</ele>
        <time>2015-09-01T08:10:07.000Z</time>
      </trkpt>
      <trkpt lat="47.48349" lon="-0.59098">
        <ele>37</ele>
        <time>2015-09-01T08:10:08.000Z</time>
      </trkpt>
      <trkpt lat="47.48349" lon="-0.59102">
        <ele>37</ele>
        <time>2015-09-01T08:10:09.000Z</time>
      </trkpt>
      <trkpt lat="47.48348" lon="-0.59106">
        <ele>36</ele>
        <time>2015-09-01T08:10:10.000Z</time>
      </trkpt>
      <trkpt lat="47.48347" lon="-0.5911">
        <ele>36</ele>
        <time>2015-09-01T08:10:11.000Z</time>
      </trkpt>
      <trkpt lat="47.48347" lon="-0.59113">
        <ele>36</ele>
        <time>2015-09-01T08:10:12.000Z</time>
      </trkpt>
      <trkpt lat="47.48347" lon="-0.59118">
        <ele>36</ele>
        <time>2015-09-01T08:10:13.000Z</time>
      </trkpt>
      <trkpt lat="47.48348" lon="-0.59122">
        <ele>36</ele>
        <time>2015-09-01T08:10:14.000Z</time>
      </trkpt>
      <trkpt lat="47.48348" lon="-0.59126">
        <ele>36</ele>
        <time>2015-09-01T08:10:15.000Z</time>
      </trkpt>
      <trkpt lat="47.48349" lon="-0.5913">
        <ele>36</ele>
        <time>2015-09-01T08:10:16.000Z</time>
      </trkpt>
      <trkpt lat="47.4835" lon="-0.59134">
        <ele>35</ele>
        <time>2015-09-01T08:10:17.000Z</time>
      </trkpt>
      <trkpt lat="47.48351" lon="-0.59138">
        <ele>35</ele>
        <time>2015-09-01T08:10:18.000Z</time>
      </trkpt>
      <trkpt lat="47.48351" lon="-0.59142">
        <ele>35</ele>
        <time>2015-09-01T08:10:19.000Z</time>
      </trkpt>
      <trkpt lat="47.48352" lon="-0.59146">
        <ele>34</ele>
        <time>2015-09-01T08:10:20.000Z</time>
      </trkpt>
      <trkpt lat="47.48352" lon="-0.59149">
        <ele>33</ele>
        <time>2015-09-01T08:10:21.000Z</time>
      </trkpt>
      <trkpt lat="47.48353" lon="-0.59153">
        <ele>32</ele>
        <time>2015-09-01T08:10:22.000Z</time>
      </trkpt>
      <trkpt lat="47.48353" lon="-0.59156">
        <ele>32</ele>
        <time>2015-09-01T08:10:23.000Z</time>
      </trkpt>
      <trkpt lat="47.48354" lon="-0.5916">
        <ele>30</ele>
        <time>2015-09-01T08:10:24.000Z</time>
      </trkpt>
      <trkpt lat="47.48355" lon="-0.59163">
        <ele>30</ele>
        <time>2015-09-01T08:10:25.000Z</time>
      </trkpt>
      <trkpt lat="47.48356" lon="-0.59166">
        <ele>28</ele>
        <time>2015-09-01T08:10:26.000Z</time>
      </trkpt>
      <trkpt lat="47.48358" lon="-0.59169">
        <ele>29</ele>
        <time>2015-09-01T08:10:27.000Z</time>
      </trkpt>
      <trkpt lat="47.48359" lon="-0.59171">
        <ele>28</ele>
        <time>2015-09-01T08:10:28.000Z</time>
      </trkpt>
      <trkpt lat="47.48361" lon="-0.59174">
        <ele>27</ele>
        <time>2015-09-01T08:10:29.000Z</time>
      </trkpt>
      <trkpt lat="47.48362" lon="-0.59177">
        <ele>26</ele>
        <time>2015-09-01T08:10:30.000Z</time>
      </trkpt>
      <trkpt lat="47.48364" lon="-0.5918">
        <ele>26</ele>
        <time>2015-09-01T08:10:31.000Z</time>
      </trkpt>
      <trkpt lat="47.48365" lon="-0.59183">
        <ele>25</ele>
        <time>2015-09-01T08:10:32.000Z</time>
      </trkpt>
      <trkpt lat="47.48367" lon="-0.59186">
        <ele>24</ele>
        <time>2015-09-01T08:10:33.000Z</time>
      </trkpt>
      <trkpt lat="47.48369" lon="-0.59189">
        <ele>24</ele>
        <time>2015-09-01T08:10:34.000Z</time>
      </trkpt>
      <trkpt lat="47.48371" lon="-0.59191">
        <ele>23</ele>
        <time>2015-09-01T08:10:35.000Z</time>
      </trkpt>
      <trkpt lat="47.48373" lon="-0.59194">
        <ele>23</ele>
        <time>2015-09-01T08:10:36.000Z</time>
      </trkpt>
      <trkpt lat="47.48374" lon="-0.59197">
        <ele>23</ele>
        <time>2015-09-01T08:10:37.000Z</time>
      </trkpt>
      <trkpt lat="47.48376" lon="-0.592">
        <ele>23</ele>
        <time>2015-09-01T08:10:38.000Z</time>
      </trkpt>
      <trkpt lat="47.48377" lon="-0.59203">
        <ele>22</ele>
        <time>2015-09-01T08:10:39.000Z</time>
      </trkpt>
      <trkpt lat="47.48378" lon="-0.59206">
        <ele>22</ele>
        <time>2015-09-01T08:10:40.000Z</time>
      </trkpt>
      <trkpt lat="47.4838" lon="-0.59208">
        <ele>22</ele>
        <time>2015-09-01T08:10:41.000Z</time>
      </trkpt>
      <trkpt lat="47.48382" lon="-0.59211">
        <ele>21</ele>
        <time>2015-09-01T08:10:42.000Z</time>
      </trkpt>
      <trkpt lat="47.48384" lon="-0.59215">
        <ele>21</ele>
        <time>2015-09-01T08:10:43.000Z</time>
      </trkpt>
      <trkpt lat="47.48386" lon="-0.59218">
        <ele>22</ele>
        <time>2015-09-01T08:10:44.000Z</time>
      </trkpt>
      <trkpt lat="47.48387" lon="-0.59222">
        <ele>23</ele>
        <time>2015-09-01T08:10:45.000Z</time>
      </trkpt>
      <trkpt lat="47.48389" lon="-0.59225">
        <ele>23</ele>
        <time>2015-09-01T08:10:46.000Z</time>
      </trkpt>
      <trkpt lat="47.48391" lon="-0.59229">
        <ele>24</ele>
        <time>2015-09-01T08:10:47.000Z</time>
      </trkpt>
      <trkpt lat="47.48393" lon="-0.59232">
        <ele>24</ele>
        <time>2015-09-01T08:10:48.000Z</time>
      </trkpt>
      <trkpt lat="47.48395" lon="-0.59235">
        <ele>24</ele>
        <time>2015-09-01T08:10:49.000Z</time>
      </trkpt>
      <trkpt lat="47.48396" lon="-0.59238">
        <ele>26</ele>
        <time>2015-09-01T08:10:50.000Z</time>
      </trkpt>
      <trkpt lat="47.48398" lon="-0.59242">
        <ele>26</ele>
        <time>2015-09-01T08:10:51.000Z</time>
      </trkpt>
      <trkpt lat="47.48399" lon="-0.59246">
        <ele>26</ele>
        <time>2015-09-01T08:10:52.000Z</time>
      </trkpt>
      <trkpt lat="47.484" lon="-0.59249">
        <ele>28</ele>
        <time>2015-09-01T08:10:53.000Z</time>
      </trkpt>
      <trkpt lat="47.48401" lon="-0.59252">
        <ele>28</ele>
        <time>2015-09-01T08:10:54.000Z</time>
      </trkpt>
      <trkpt lat="47.48402" lon="-0.59255">
        <ele>27</ele>
        <time>2015-09-01T08:10:55.000Z</time>
      </trkpt>
      <trkpt lat="47.48402" lon="-0.59259">
        <ele>28</ele>
        <time>2015-09-01T08:10:56.000Z</time>
      </trkpt>
      <trkpt lat="47.48402" lon="-0.59263">
        <ele>30</ele>
        <time>2015-09-01T08:10:57.000Z</time>
      </trkpt>
      <trkpt lat="47.48402" lon="-0.59268">
        <ele>33</ele>
        <time>2015-09-01T08:10:58.000Z</time>
      </trkpt>
      <trkpt lat="47.48401" lon="-0.59272">
        <ele>35</ele>
        <time>2015-09-01T08:10:59.000Z</time>
      </trkpt>
      <trkpt lat="47.48401" lon="-0.59276">
        <ele>36</ele>
        <time>2015-09-01T08:11:00.000Z</time>
      </trkpt>
      <trkpt lat="47.48401" lon="-0.5928">
        <ele>37</ele>
        <time>2015-09-01T08:11:01.000Z</time>
      </trkpt>
      <trkpt lat="47.484" lon="-0.59284">
        <ele>38</ele>
        <time>2015-09-01T08:11:02.000Z</time>
      </trkpt>
      <trkpt lat="47.484" lon="-0.59288">
        <ele>40</ele>
        <time>2015-09-01T08:11:03.000Z</time>
      </trkpt>
      <trkpt lat="47.48399" lon="-0.59292">
        <ele>41</ele>
        <time>2015-09-01T08:11:04.000Z</time>
      </trkpt>
      <trkpt lat="47.48397" lon="-0.59295">
        <ele>41</ele>
        <time>2015-09-01T08:11:05.000Z</time>
      </trkpt>
      <trkpt lat="47.48396" lon="-0.59298">
        <ele>41</ele>
        <time>2015-09-01T08:11:06.000Z</time>
      </trkpt>
      <trkpt lat="47.48394" lon="-0.59301">
        <ele>39</ele>
        <time>2015-09-01T08:11:07.000Z</time>
      </trkpt>
      <trkpt lat="47.48393" lon="-0.59304">
        <ele>39</ele>
        <time>2015-09-01T08:11:08.000Z</time>
      </trkpt>
      <trkpt lat="47.48391" lon="-0.59307">
        <ele>40</ele>
        <time>2015-09-01T08:11:09.000Z</time>
      </trkpt>
      <trkpt lat="47.48389" lon="-0.5931">
        <ele>41</ele>
        <time>2015-09-01T08:11:10.000Z</time>
      </trkpt>
      <trkpt lat="47.48387" lon="-0.59313">
        <ele>42</ele>
        <time>2015-09-01T08:11:11.000Z</time>
      </trkpt>
      <trkpt lat="47.48385" lon="-0.59317">
        <ele>42</ele>
        <time>2015-09-01T08:11:12.000Z</time>
      </trkpt>
      <trkpt lat="47.48383" lon="-0.59321">
        <ele>43</ele>
        <time>2015-09-01T08:11:13.000Z</time>
      </trkpt>
      <trkpt lat="47.48381" lon="-0.59325">
        <ele>42</ele>
        <time>2015-09-01T08:11:14.000Z</time>
      </trkpt>
      <trkpt lat="47.48379" lon="-0.59328">
        <ele>43</ele>
        <time>2015-09-01T08:11:15.000Z</time>
      </trkpt>
      <trkpt lat="47.48378" lon="-0.59332">
        <ele>42</ele>
        <time>2015-09-01T08:11:16.000Z</time>
      </trkpt>
      <trkpt lat="47.48376" lon="-0.59337">
        <ele>41</ele>
        <time>2015-09-01T08:11:17.000Z</time>
      </trkpt>
      <trkpt lat="47.48375" lon="-0.59341">
        <ele>42</ele>
        <time>2015-09-01T08:11:18.000Z</time>
      </trkpt>
      <trkpt lat="47.48374" lon="-0.59345">
        <ele>42</ele>
        <time>2015-09-01T08:11:19.000Z</time>
      </trkpt>
      <trkpt lat="47.48372" lon="-0.59349">
        <ele>39</ele>
        <time>2015-09-01T08:11:20.000Z</time>
      </trkpt>
      <trkpt lat="47.48371" lon="-0.59353">
        <ele>38</ele>
        <time>2015-09-01T08:11:21.000Z</time>
      </trkpt>
      <trkpt lat="47.4837" lon="-0.59358">
        <ele>35</ele>
        <time>2015-09-01T08:11:22.000Z</time>
      </trkpt>
      <trkpt lat="47.48369" lon="-0.59362">
        <ele>35</ele>
        <time>2015-09-01T08:11:23.000Z</time>
      </trkpt>
      <trkpt lat="47.48368" lon="-0.59367">
        <ele>35</ele>
        <time>2015-09-01T08:11:24.000Z</time>
      </trkpt>
      <trkpt lat="47.48368" lon="-0.59371">
        <ele>35</ele>
        <time>2015-09-01T08:11:25.000Z</time>
      </trkpt>
      <trkpt lat="47.48367" lon="-0.59375">
        <ele>35</ele>
        <time>2015-09-01T08:11:26.000Z</time>
      </trkpt>
      <trkpt lat="47.48367" lon="-0.59379">
        <ele>35</ele>
        <time>2015-09-01T08:11:27.000Z</time>
      </trkpt>
      <trkpt lat="47.48368" lon="-0.59383">
        <ele>35</ele>
        <time>2015-09-01T08:11:28.000Z</time>
      </trkpt>
      <trkpt lat="47.48368" lon="-0.59386">
        <ele>35</ele>
        <time>2015-09-01T08:11:29.000Z</time>
      </trkpt>
      <trkpt lat="47.48369" lon="-0.5939">
        <ele>35</ele>
        <time>2015-09-01T08:11:30.000Z</time>
      </trkpt>
      <trkpt lat="47.48369" lon="-0.59394">
        <ele>36</ele>
        <time>2015-09-01T08:11:31.000Z</time>
      </trkpt>
      <trkpt lat="47.4837" lon="-0.59398">
        <ele>35</ele>
        <time>2015-09-01T08:11:32.000Z</time>
      </trkpt>
      <trkpt lat="47.4837" lon="-0.59402">
        <ele>35</ele>
        <time>2015-09-01T08:11:33.000Z</time>
      </trkpt>
      <trkpt lat="47.4837" lon="-0.59406">
        <ele>35</ele>
        <time>2015-09-01T08:11:34.000Z</time>
      </trkpt>
      <trkpt lat="47.4837" lon="-0.5941">
        <ele>36</ele>
        <time>2015-09-01T08:11:35.000Z</time>
      </trkpt>
      <trkpt lat="47.4837" lon="-0.59414">
        <ele>35</ele>
        <time>2015-09-01T08:11:36.000Z</time>
      </trkpt>
      <trkpt lat="47.48369" lon="-0.59417">
        <ele>35</ele>
        <time>2015-09-01T08:11:37.000Z</time>
      </trkpt>
      <trkpt lat="47.48369" lon="-0.5942">
        <ele>35</ele>
        <time>2015-09-01T08:11:38.000Z</time>
      </trkpt>
      <trkpt lat="47.48369" lon="-0.59423">
        <ele>35</ele>
        <time>2015-09-01T08:11:39.000Z</time>
      </trkpt>
      <trkpt lat="47.48369" lon="-0.59426">
        <ele>36</ele>
        <time>2015-09-01T08:11:40.000Z</time>
      </trkpt>
      <trkpt lat="47.48369" lon="-0.59429">
        <ele>36</ele>
        <time>2015-09-01T08:11:41.000Z</time>
      </trkpt>
      <trkpt lat="47.48368" lon="-0.59433">
        <ele>36</ele>
        <time>2015-09-01T08:11:42.000Z</time>
      </trkpt>
      <trkpt lat="47.48368" lon="-0.59436">
        <ele>37</ele>
        <time>2015-09-01T08:11:43.000Z</time>
      </trkpt>
      <trkpt lat="47.48366" lon="-0.5944">
        <ele>38</ele>
        <time>2015-09-01T08:11:44.000Z</time>
      </trkpt>
      <trkpt lat="47.48366" lon="-0.59444">
        <ele>36</ele>
        <time>2015-09-01T08:11:45.000Z</time>
      </trkpt>
      <trkpt lat="47.48365" lon="-0.59448">
        <ele>34</ele>
        <time>2015-09-01T08:11:46.000Z</time>
      </trkpt>
      <trkpt lat="47.48364" lon="-0.59453">
        <ele>32</ele>
        <time>2015-09-01T08:11:47.000Z</time>
      </trkpt>
      <trkpt lat="47.48364" lon="-0.59458">
        <ele>30</ele>
        <time>2015-09-01T08:11:48.000Z</time>
      </trkpt>
      <trkpt lat="47.48364" lon="-0.59462">
        <ele>30</ele>
        <time>2015-09-01T08:11:49.000Z</time>
      </trkpt>
      <trkpt lat="47.48364" lon="-0.59466">
        <ele>30</ele>
        <time>2015-09-01T08:11:50.000Z</time>
      </trkpt>
      <trkpt lat="47.48364" lon="-0.59469">
        <ele>30</ele>
        <time>2015-09-01T08:11:51.000Z</time>
      </trkpt>
      <trkpt lat="47.48364" lon="-0.59473">
        <ele>30</ele>
        <time>2015-09-01T08:11:52.000Z</time>
      </trkpt>
      <trkpt lat="47.48364" lon="-0.59477">
        <ele>30</ele>
        <time>2015-09-01T08:11:53.000Z</time>
      </trkpt>
      <trkpt lat="47.48365" lon="-0.59481">
        <ele>30</ele>
        <time>2015-09-01T08:11:54.000Z</time>
      </trkpt>
      <trkpt lat="47.48365" lon="-0.59485">
        <ele>30</ele>
        <time>2015-09-01T08:11:55.000Z</time>
      </trkpt>
      <trkpt lat="47.48366" lon="-0.59488">
        <ele>30</ele>
        <time>2015-09-01T08:11:56.000Z</time>
      </trkpt>
      <trkpt lat="47.48366" lon="-0.59492">
        <ele>30</ele>
        <time>2015-09-01T08:11:57.000Z</time>
      </trkpt>
      <trkpt lat="47.48367" lon="-0.59496">
        <ele>32</ele>
        <time>2015-09-01T08:11:58.000Z</time>
      </trkpt>
      <trkpt lat="47.48367" lon="-0.595">
        <ele>32</ele>
        <time>2015-09-01T08:11:59.000Z</time>
      </trkpt>
      <trkpt lat="47.48368" lon="-0.59504">
        <ele>32</ele>
        <time>2015-09-01T08:12:00.000Z</time>
      </trkpt>
      <trkpt lat="47.48368" lon="-0.59508">
        <ele>33</ele>
        <time>2015-09-01T08:12:01.000Z</time>
      </trkpt>
      <trkpt lat="47.48369" lon="-0.59512">
        <ele>34</ele>
        <time>2015-09-01T08:12:02.000Z</time>
      </trkpt>
      <trkpt lat="47.4837" lon="-0.59516">
        <ele>34</ele>
        <time>2015-09-01T08:12:03.000Z</time>
      </trkpt>
      <trkpt lat="47.48371" lon="-0.5952">
        <ele>35</ele>
        <time>2015-09-01T08:12:04.000Z</time>
      </trkpt>
      <trkpt lat="47.48372" lon="-0.59523">
        <ele>36</ele>
        <time>2015-09-01T08:12:05.000Z</time>
      </trkpt>
      <trkpt lat="47.48373" lon="-0.59527">
        <ele>36</ele>
        <time>2015-09-01T08:12:06.000Z</time>
      </trkpt>
      <trkpt lat="47.48374" lon="-0.59531">
        <ele>36</ele>
        <time>2015-09-01T08:12:07.000Z</time>
      </trkpt>
      <trkpt lat="47.48375" lon="-0.59535">
        <ele>36</ele>
        <time>2015-09-01T08:12:08.000Z</time>
      </trkpt>
      <trkpt lat="47.48376" lon="-0.59538">
        <ele>35</ele>
        <time>2015-09-01T08:12:09.000Z</time>
      </trkpt>
      <trkpt lat="47.48378" lon="-0.59541">
        <ele>35</ele>
        <time>2015-09-01T08:12:10.000Z</time>
      </trkpt>
      <trkpt lat="47.48379" lon="-0.59544">
        <ele>35</ele>
        <time>2015-09-01T08:12:11.000Z</time>
      </trkpt>
      <trkpt lat="47.4838" lon="-0.59547">
        <ele>35</ele>
        <time>2015-09-01T08:12:12.000Z</time>
      </trkpt>
      <trkpt lat="47.48381" lon="-0.5955">
        <ele>36</ele>
        <time>2015-09-01T08:12:13.000Z</time>
      </trkpt>
      <trkpt lat="47.48381" lon="-0.59554">
        <ele>35</ele>
        <time>2015-09-01T08:12:14.000Z</time>
      </trkpt>
      <trkpt lat="47.48382" lon="-0.59557">
        <ele>34</ele>
        <time>2015-09-01T08:12:15.000Z</time>
      </trkpt>
      <trkpt lat="47.48383" lon="-0.5956">
        <ele>34</ele>
        <time>2015-09-01T08:12:16.000Z</time>
      </trkpt>
      <trkpt lat="47.48384" lon="-0.59565">
        <ele>34</ele>
        <time>2015-09-01T08:12:17.000Z</time>
      </trkpt>
      <trkpt lat="47.48385" lon="-0.59569">
        <ele>34</ele>
        <time>2015-09-01T08:12:18.000Z</time>
      </trkpt>
      <trkpt lat="47.48386" lon="-0.59573">
        <ele>35</ele>
        <time>2015-09-01T08:12:19.000Z</time>
      </trkpt>
      <trkpt lat="47.48387" lon="-0.59577">
        <ele>35</ele>
        <time>2015-09-01T08:12:20.000Z</time>
      </trkpt>
      <trkpt lat="47.48387" lon="-0.59581">
        <ele>35</ele>
        <time>2015-09-01T08:12:21.000Z</time>
      </trkpt>
      <trkpt lat="47.48388" lon="-0.59585">
        <ele>35</ele>
        <time>2015-09-01T08:12:22.000Z</time>
      </trkpt>
      <trkpt lat="47.48388" lon="-0.5959">
        <ele>36</ele>
        <time>2015-09-01T08:12:23.000Z</time>
      </trkpt>
      <trkpt lat="47.48389" lon="-0.59594">
        <ele>36</ele>
        <time>2015-09-01T08:12:24.000Z</time>
      </trkpt>
      <trkpt lat="47.48389" lon="-0.59599">
        <ele>38</ele>
        <time>2015-09-01T08:12:25.000Z</time>
      </trkpt>
      <trkpt lat="47.48389" lon="-0.59604">
        <ele>39</ele>
        <time>2015-09-01T08:12:26.000Z</time>
      </trkpt>
      <trkpt lat="47.48387" lon="-0.59609">
        <ele>39</ele>
        <time>2015-09-01T08:12:27.000Z</time>
      </trkpt>
      <trkpt lat="47.48384" lon="-0.59613">
        <ele>38</ele>
        <time>2015-09-01T08:12:28.000Z</time>
      </trkpt>
      <trkpt lat="47.48381" lon="-0.59617">
        <ele>38</ele>
        <time>2015-09-01T08:12:29.000Z</time>
      </trkpt>
      <trkpt lat="47.4838" lon="-0.5962">
        <ele>38</ele>
        <time>2015-09-01T08:12:30.000Z</time>
      </trkpt>
      <trkpt lat="47.48379" lon="-0.59623">
        <ele>38</ele>
        <time>2015-09-01T08:12:31.000Z</time>
      </trkpt>
      <trkpt lat="47.48378" lon="-0.59625">
        <ele>38</ele>
        <time>2015-09-01T08:12:32.000Z</time>
      </trkpt>
      <trkpt lat="47.48377" lon="-0.59628">
        <ele>38</ele>
        <time>2015-09-01T08:12:33.000Z</time>
      </trkpt>
      <trkpt lat="47.48376" lon="-0.5963">
        <ele>38</ele>
        <time>2015-09-01T08:12:34.000Z</time>
      </trkpt>
      <trkpt lat="47.48375" lon="-0.59633">
        <ele>38</ele>
        <time>2015-09-01T08:12:35.000Z</time>
      </trkpt>
      <trkpt lat="47.48375" lon="-0.59636">
        <ele>39</ele>
        <time>2015-09-01T08:12:36.000Z</time>
      </trkpt>
      <trkpt lat="47.48375" lon="-0.59639">
        <ele>40</ele>
        <time>2015-09-01T08:12:37.000Z</time>
      </trkpt>
      <trkpt lat="47.48375" lon="-0.59642">
        <ele>40</ele>
        <time>2015-09-01T08:12:38.000Z</time>
      </trkpt>
      <trkpt lat="47.48375" lon="-0.59646">
        <ele>40</ele>
        <time>2015-09-01T08:12:39.000Z</time>
      </trkpt>
      <trkpt lat="47.48375" lon="-0.59649">
        <ele>40</ele>
        <time>2015-09-01T08:12:40.000Z</time>
      </trkpt>
      <trkpt lat="47.48375" lon="-0.59653">
        <ele>41</ele>
        <time>2015-09-01T08:12:41.000Z</time>
      </trkpt>
      <trkpt lat="47.48376" lon="-0.59657">
        <ele>43</ele>
        <time>2015-09-01T08:12:42.000Z</time>
      </trkpt>
      <trkpt lat="47.48376" lon="-0.59662">
        <ele>44</ele>
        <time>2015-09-01T08:12:43.000Z</time>
      </trkpt>
      <trkpt lat="47.48376" lon="-0.59666">
        <ele>43</ele>
        <time>2015-09-01T08:12:44.000Z</time>
      </trkpt>
      <trkpt lat="47.48376" lon="-0.5967">
        <ele>45</ele>
        <time>2015-09-01T08:12:45.000Z</time>
      </trkpt>
      <trkpt lat="47.48377" lon="-0.59673">
        <ele>45</ele>
        <time>2015-09-01T08:12:46.000Z</time>
      </trkpt>
      <trkpt lat="47.48377" lon="-0.59677">
        <ele>45</ele>
        <time>2015-09-01T08:12:47.000Z</time>
      </trkpt>
      <trkpt lat="47.48377" lon="-0.5968">
        <ele>45</ele>
        <time>2015-09-01T08:12:48.000Z</time>
      </trkpt>
      <trkpt lat="47.48378" lon="-0.59684">
        <ele>44</ele>
        <time>2015-09-01T08:12:49.000Z</time>
      </trkpt>
      <trkpt lat="47.48378" lon="-0.59688">
        <ele>44</ele>
        <time>2015-09-01T08:12:50.000Z</time>
      </trkpt>
      <trkpt lat="47.48379" lon="-0.59691">
        <ele>43</ele>
        <time>2015-09-01T08:12:51.000Z</time>
      </trkpt>
      <trkpt lat="47.48379" lon="-0.59695">
        <ele>41</ele>
        <time>2015-09-01T08:12:52.000Z</time>
      </trkpt>
      <trkpt lat="47.48379" lon="-0.59698">
        <ele>41</ele>
        <time>2015-09-01T08:12:53.000Z</time>
      </trkpt>
      <trkpt lat="47.48379" lon="-0.59701">
        <ele>39</ele>
        <time>2015-09-01T08:12:54.000Z</time>
      </trkpt>
      <trkpt lat="47.48379" lon="-0.59704">
        <ele>39</ele>
        <time>2015-09-01T08:12:55.000Z</time>
      </trkpt>
      <trkpt lat="47.48379" lon="-0.59707">
        <ele>38</ele>
        <time>2015-09-01T08:12:56.000Z</time>
      </trkpt>
      <trkpt lat="47.48379" lon="-0.59711">
        <ele>39</ele>
        <time>2015-09-01T08:12:57.000Z</time>
      </trkpt>
      <trkpt lat="47.4838" lon="-0.59715">
        <ele>37</ele>
        <time>2015-09-01T08:12:58.000Z</time>
      </trkpt>
      <trkpt lat="47.4838" lon="-0.59719">
        <ele>39</ele>
        <time>2015-09-01T08:12:59.000Z</time>
      </trkpt>
      <trkpt lat="47.4838" lon="-0.59723">
        <ele>39</ele>
        <time>2015-09-01T08:13:00.000Z</time>
      </trkpt>
      <trkpt lat="47.48379" lon="-0.59727">
        <ele>40</ele>
        <time>2015-09-01T08:13:01.000Z</time>
      </trkpt>
      <trkpt lat="47.48379" lon="-0.59731">
        <ele>40</ele>
        <time>2015-09-01T08:13:02.000Z</time>
      </trkpt>
      <trkpt lat="47.4838" lon="-0.59735">
        <ele>40</ele>
        <time>2015-09-01T08:13:03.000Z</time>
      </trkpt>
      <trkpt lat="47.4838" lon="-0.59738">
        <ele>40</ele>
        <time>2015-09-01T08:13:04.000Z</time>
      </trkpt>
      <trkpt lat="47.48381" lon="-0.59742">
        <ele>40</ele>
        <time>2015-09-01T08:13:05.000Z</time>
      </trkpt>
      <trkpt lat="47.48381" lon="-0.59746">
        <ele>40</ele>
        <time>2015-09-01T08:13:06.000Z</time>
      </trkpt>
      <trkpt lat="47.48381" lon="-0.59749">
        <ele>40</ele>
        <time>2015-09-01T08:13:07.000Z</time>
      </trkpt>
      <trkpt lat="47.48381" lon="-0.59753">
        <ele>40</ele>
        <time>2015-09-01T08:13:08.000Z</time>
      </trkpt>
      <trkpt lat="47.4838" lon="-0.59757">
        <ele>40</ele>
        <time>2015-09-01T08:13:09.000Z</time>
      </trkpt>
      <trkpt lat="47.48379" lon="-0.59761">
        <ele>39</ele>
        <time>2015-09-01T08:13:10.000Z</time>
      </trkpt>
      <trkpt lat="47.48378" lon="-0.59765">
        <ele>38</ele>
        <time>2015-09-01T08:13:11.000Z</time>
      </trkpt>
      <trkpt lat="47.48377" lon="-0.59768">
        <ele>38</ele>
        <time>2015-09-01T08:13:12.000Z</time>
      </trkpt>
      <trkpt lat="47.48377" lon="-0.59771">
        <ele>39</ele>
        <time>2015-09-01T08:13:13.000Z</time>
      </trkpt>
      <trkpt lat="47.48377" lon="-0.59775">
        <ele>39</ele>
        <time>2015-09-01T08:13:14.000Z</time>
      </trkpt>
      <trkpt lat="47.48378" lon="-0.59778">
        <ele>40</ele>
        <time>2015-09-01T08:13:15.000Z</time>
      </trkpt>
      <trkpt lat="47.48379" lon="-0.59782">
        <ele>41</ele>
        <time>2015-09-01T08:13:16.000Z</time>
      </trkpt>
      <trkpt lat="47.48379" lon="-0.59785">
        <ele>41</ele>
        <time>2015-09-01T08:13:17.000Z</time>
      </trkpt>
      <trkpt lat="47.48378" lon="-0.59789">
        <ele>41</ele>
        <time>2015-09-01T08:13:18.000Z</time>
      </trkpt>
      <trkpt lat="47.48378" lon="-0.59793">
        <ele>41</ele>
        <time>2015-09-01T08:13:19.000Z</time>
      </trkpt>
      <trkpt lat="47.48377" lon="-0.59796">
        <ele>42</ele>
        <time>2015-09-01T08:13:20.000Z</time>
      </trkpt>
      <trkpt lat="47.48377" lon="-0.59799">
        <ele>42</ele>
        <time>2015-09-01T08:13:21.000Z</time>
      </trkpt>
      <trkpt lat="47.48376" lon="-0.59803">
        <ele>40</ele>
        <time>2015-09-01T08:13:22.000Z</time>
      </trkpt>
      <trkpt lat="47.48375" lon="-0.59807">
        <ele>39</ele>
        <time>2015-09-01T08:13:23.000Z</time>
      </trkpt>
      <trkpt lat="47.48375" lon="-0.5981">
        <ele>39</ele>
        <time>2015-09-01T08:13:24.000Z</time>
      </trkpt>
      <trkpt lat="47.48375" lon="-0.59814">
        <ele>40</ele>
        <time>2015-09-01T08:13:25.000Z</time>
      </trkpt>
      <trkpt lat="47.48375" lon="-0.59817">
        <ele>40</ele>
        <time>2015-09-01T08:13:26.000Z</time>
      </trkpt>
      <trkpt lat="47.48375" lon="-0.5982">
        <ele>39</ele>
        <time>2015-09-01T08:13:27.000Z</time>
      </trkpt>
      <trkpt lat="47.48375" lon="-0.59823">
        <ele>39</ele>
        <time>2015-09-01T08:13:28.000Z</time>
      </trkpt>
      <trkpt lat="47.48375" lon="-0.59826">
        <ele>40</ele>
        <time>2015-09-01T08:13:29.000Z</time>
      </trkpt>
      <trkpt lat="47.48375" lon="-0.59827">
        <ele>39</ele>
        <time>2015-09-01T08:13:30.000Z</time>
      </trkpt>
      <trkpt lat="47.48374" lon="-0.59828">
        <ele>38</ele>
        <time>2015-09-01T08:13:31.000Z</time>
      </trkpt>
      <trkpt lat="47.48373" lon="-0.59828">
        <ele>35</ele>
        <time>2015-09-01T08:13:32.000Z</time>
      </trkpt>
      <trkpt lat="47.48371" lon="-0.59828">
        <ele>34</ele>
        <time>2015-09-01T08:13:33.000Z</time>
      </trkpt>
      <trkpt lat="47.48369" lon="-0.59827">
        <ele>31</ele>
        <time>2015-09-01T08:13:34.000Z</time>
      </trkpt>
      <trkpt lat="47.48367" lon="-0.59826">
        <ele>30</ele>
        <time>2015-09-01T08:13:35.000Z</time>
      </trkpt>
      <trkpt lat="47.48365" lon="-0.59824">
        <ele>31</ele>
        <time>2015-09-01T08:13:36.000Z</time>
      </trkpt>
      <trkpt lat="47.48364" lon="-0.59821">
        <ele>30</ele>
        <time>2015-09-01T08:13:37.000Z</time>
      </trkpt>
      <trkpt lat="47.48363" lon="-0.59819">
        <ele>29</ele>
        <time>2015-09-01T08:13:38.000Z</time>
      </trkpt>
      <trkpt lat="47.48361" lon="-0.59818">
        <ele>27</ele>
        <time>2015-09-01T08:13:39.000Z</time>
      </trkpt>
      <trkpt lat="47.48359" lon="-0.59816">
        <ele>23</ele>
        <time>2015-09-01T08:13:40.000Z</time>
      </trkpt>
      <trkpt lat="47.48358" lon="-0.59815">
        <ele>22</ele>
        <time>2015-09-01T08:13:41.000Z</time>
      </trkpt>
      <trkpt lat="47.48357" lon="-0.59815">
        <ele>22</ele>
        <time>2015-09-01T08:13:42.000Z</time>
      </trkpt>
      <trkpt lat="47.48356" lon="-0.59815">
        <ele>21</ele>
        <time>2015-09-01T08:13:43.000Z</time>
      </trkpt>
      <trkpt lat="47.48356" lon="-0.59816">
        <ele>21</ele>
        <time>2015-09-01T08:13:44.000Z</time>
      </trkpt>
      <trkpt lat="47.48355" lon="-0.59818">
        <ele>21</ele>
        <time>2015-09-01T08:13:45.000Z</time>
      </trkpt>
      <trkpt lat="47.48355" lon="-0.5982">
        <ele>19</ele>
        <time>2015-09-01T08:13:46.000Z</time>
      </trkpt>
      <trkpt lat="47.48355" lon="-0.59822">
        <ele>18</ele>
        <time>2015-09-01T08:13:47.000Z</time>
      </trkpt>
      <trkpt lat="47.48355" lon="-0.59826">
        <ele>18</ele>
        <time>2015-09-01T08:13:48.000Z</time>
      </trkpt>
      <trkpt lat="47.48356" lon="-0.59829">
        <ele>18</ele>
        <time>2015-09-01T08:13:49.000Z</time>
      </trkpt>
      <trkpt lat="47.48357" lon="-0.59833">
        <ele>18</ele>
        <time>2015-09-01T08:13:50.000Z</time>
      </trkpt>
      <trkpt lat="47.48357" lon="-0.59837">
        <ele>18</ele>
        <time>2015-09-01T08:13:51.000Z</time>
      </trkpt>
      <trkpt lat="47.48357" lon="-0.5984">
        <ele>17</ele>
        <time>2015-09-01T08:13:52.000Z</time>
      </trkpt>
      <trkpt lat="47.48357" lon="-0.59844">
        <ele>18</ele>
        <time>2015-09-01T08:13:53.000Z</time>
      </trkpt>
      <trkpt lat="47.48357" lon="-0.59848">
        <ele>19</ele>
        <time>2015-09-01T08:13:54.000Z</time>
      </trkpt>
      <trkpt lat="47.48357" lon="-0.59852">
        <ele>19</ele>
        <time>2015-09-01T08:13:55.000Z</time>
      </trkpt>
      <trkpt lat="47.48358" lon="-0.59856">
        <ele>20</ele>
        <time>2015-09-01T08:13:56.000Z</time>
      </trkpt>
      <trkpt lat="47.48357" lon="-0.5986">
        <ele>19</ele>
        <time>2015-09-01T08:13:57.000Z</time>
      </trkpt>
      <trkpt lat="47.48357" lon="-0.59864">
        <ele>19</ele>
        <time>2015-09-01T08:13:58.000Z</time>
      </trkpt>
      <trkpt lat="47.48357" lon="-0.59868">
        <ele>16</ele>
        <time>2015-09-01T08:13:59.000Z</time>
      </trkpt>
      <trkpt lat="47.48357" lon="-0.59871">
        <ele>14</ele>
        <time>2015-09-01T08:14:00.000Z</time>
      </trkpt>
      <trkpt lat="47.48357" lon="-0.59875">
        <ele>13</ele>
        <time>2015-09-01T08:14:01.000Z</time>
      </trkpt>
      <trkpt lat="47.48357" lon="-0.59878">
        <ele>13</ele>
        <time>2015-09-01T08:14:02.000Z</time>
      </trkpt>
      <trkpt lat="47.48358" lon="-0.59882">
        <ele>11</ele>
        <time>2015-09-01T08:14:03.000Z</time>
      </trkpt>
      <trkpt lat="47.48358" lon="-0.59885">
        <ele>11</ele>
        <time>2015-09-01T08:14:04.000Z</time>
      </trkpt>
      <trkpt lat="47.48357" lon="-0.59889">
        <ele>10</ele>
        <time>2015-09-01T08:14:05.000Z</time>
      </trkpt>
      <trkpt lat="47.48358" lon="-0.59892">
        <ele>11</ele>
        <time>2015-09-01T08:14:06.000Z</time>
      </trkpt>
      <trkpt lat="47.48358" lon="-0.59895">
        <ele>12</ele>
        <time>2015-09-01T08:14:07.000Z</time>
      </trkpt>
      <trkpt lat="47.48359" lon="-0.59899">
        <ele>13</ele>
        <time>2015-09-01T08:14:08.000Z</time>
      </trkpt>
      <trkpt lat="47.48359" lon="-0.59902">
        <ele>14</ele>
        <time>2015-09-01T08:14:09.000Z</time>
      </trkpt>
      <trkpt lat="47.4836" lon="-0.59904">
        <ele>13</ele>
        <time>2015-09-01T08:14:10.000Z</time>
      </trkpt>
      <trkpt lat="47.48361" lon="-0.59907">
        <ele>13</ele>
        <time>2015-09-01T08:14:11.000Z</time>
      </trkpt>
      <trkpt lat="47.48362" lon="-0.5991">
        <ele>12</ele>
        <time>2015-09-01T08:14:12.000Z</time>
      </trkpt>
      <trkpt lat="47.48364" lon="-0.59913">
        <ele>12</ele>
        <time>2015-09-01T08:14:13.000Z</time>
      </trkpt>
      <trkpt lat="47.48365" lon="-0.59916">
        <ele>11</ele>
        <time>2015-09-01T08:14:14.000Z</time>
      </trkpt>
      <trkpt lat="47.48366" lon="-0.59919">
        <ele>10</ele>
        <time>2015-09-01T08:14:15.000Z</time>
      </trkpt>
      <trkpt lat="47.48367" lon="-0.59921">
        <ele>10</ele>
        <time>2015-09-01T08:14:16.000Z</time>
      </trkpt>
      <trkpt lat="47.48368" lon="-0.59924">
        <ele>10</ele>
        <time>2015-09-01T08:14:17.000Z</time>
      </trkpt>
      <trkpt lat="47.48368" lon="-0.59926">
        <ele>11</ele>
        <time>2015-09-01T08:14:18.000Z</time>
      </trkpt>
      <trkpt lat="47.4837" lon="-0.59929">
        <ele>11</ele>
        <time>2015-09-01T08:14:19.000Z</time>
      </trkpt>
      <trkpt lat="47.48372" lon="-0.59931">
        <ele>10</ele>
        <time>2015-09-01T08:14:20.000Z</time>
      </trkpt>
      <trkpt lat="47.48373" lon="-0.59933">
        <ele>10</ele>
        <time>2015-09-01T08:14:21.000Z</time>
      </trkpt>
      <trkpt lat="47.48375" lon="-0.59935">
        <ele>10</ele>
        <time>2015-09-01T08:14:22.000Z</time>
      </trkpt>
      <trkpt lat="47.48376" lon="-0.59937">
        <ele>11</ele>
        <time>2015-09-01T08:14:23.000Z</time>
      </trkpt>
      <trkpt lat="47.48378" lon="-0.59939">
        <ele>11</ele>
        <time>2015-09-01T08:14:24.000Z</time>
      </trkpt>
      <trkpt lat="47.4838" lon="-0.59942">
        <ele>11</ele>
        <time>2015-09-01T08:14:25.000Z</time>
      </trkpt>
      <trkpt lat="47.48383" lon="-0.59945">
        <ele>11</ele>
        <time>2015-09-01T08:14:26.000Z</time>
      </trkpt>
      <trkpt lat="47.48385" lon="-0.59947">
        <ele>11</ele>
        <time>2015-09-01T08:14:27.000Z</time>
      </trkpt>
      <trkpt lat="47.48387" lon="-0.5995">
        <ele>11</ele>
        <time>2015-09-01T08:14:28.000Z</time>
      </trkpt>
      <trkpt lat="47.48389" lon="-0.59952">
        <ele>12</ele>
        <time>2015-09-01T08:14:29.000Z</time>
      </trkpt>
      <trkpt lat="47.4839" lon="-0.59954">
        <ele>13</ele>
        <time>2015-09-01T08:14:30.000Z</time>
      </trkpt>
      <trkpt lat="47.48392" lon="-0.59956">
        <ele>13</ele>
        <time>2015-09-01T08:14:31.000Z</time>
      </trkpt>
      <trkpt lat="47.48393" lon="-0.59958">
        <ele>14</ele>
        <time>2015-09-01T08:14:32.000Z</time>
      </trkpt>
      <trkpt lat="47.48394" lon="-0.5996">
        <ele>15</ele>
        <time>2015-09-01T08:14:33.000Z</time>
      </trkpt>
      <trkpt lat="47.48396" lon="-0.59963">
        <ele>17</ele>
        <time>2015-09-01T08:14:34.000Z</time>
      </trkpt>
      <trkpt lat="47.48398" lon="-0.59965">
        <ele>17</ele>
        <time>2015-09-01T08:14:35.000Z</time>
      </trkpt>
      <trkpt lat="47.48399" lon="-0.59967">
        <ele>17</ele>
        <time>2015-09-01T08:14:36.000Z</time>
      </trkpt>
      <trkpt lat="47.48401" lon="-0.59968">
        <ele>19</ele>
        <time>2015-09-01T08:14:37.000Z</time>
      </trkpt>
      <trkpt lat="47.48403" lon="-0.59969">
        <ele>21</ele>
        <time>2015-09-01T08:14:38.000Z</time>
      </trkpt>
      <trkpt lat="47.48405" lon="-0.5997">
        <ele>21</ele>
        <time>2015-09-01T08:14:39.000Z</time>
      </trkpt>
      <trkpt lat="47.48408" lon="-0.5997">
        <ele>21</ele>
        <time>2015-09-01T08:14:40.000Z</time>
      </trkpt>
      <trkpt lat="47.4841" lon="-0.59971">
        <ele>22</ele>
        <time>2015-09-01T08:14:41.000Z</time>
      </trkpt>
      <trkpt lat="47.48412" lon="-0.59971">
        <ele>23</ele>
        <time>2015-09-01T08:14:42.000Z</time>
      </trkpt>
      <trkpt lat="47.48414" lon="-0.59971">
        <ele>23</ele>
        <time>2015-09-01T08:14:43.000Z</time>
      </trkpt>
      <trkpt lat="47.48417" lon="-0.59972">
        <ele>25</ele>
        <time>2015-09-01T08:14:44.000Z</time>
      </trkpt>
      <trkpt lat="47.4842" lon="-0.59972">
        <ele>26</ele>
        <time>2015-09-01T08:14:45.000Z</time>
      </trkpt>
      <trkpt lat="47.48423" lon="-0.59971">
        <ele>26</ele>
        <time>2015-09-01T08:14:46.000Z</time>
      </trkpt>
      <trkpt lat="47.48426" lon="-0.59971">
        <ele>27</ele>
        <time>2015-09-01T08:14:47.000Z</time>
      </trkpt>
      <trkpt lat="47.48429" lon="-0.5997">
        <ele>27</ele>
        <time>2015-09-01T08:14:48.000Z</time>
      </trkpt>
      <trkpt lat="47.48432" lon="-0.5997">
        <ele>26</ele>
        <time>2015-09-01T08:14:49.000Z</time>
      </trkpt>
      <trkpt lat="47.48434" lon="-0.5997">
        <ele>27</ele>
        <time>2015-09-01T08:14:50.000Z</time>
      </trkpt>
      <trkpt lat="47.48436" lon="-0.5997">
        <ele>27</ele>
        <time>2015-09-01T08:14:51.000Z</time>
      </trkpt>
      <trkpt lat="47.48438" lon="-0.5997">
        <ele>27</ele>
        <time>2015-09-01T08:14:52.000Z</time>
      </trkpt>
      <trkpt lat="47.48441" lon="-0.5997">
        <ele>27</ele>
        <time>2015-09-01T08:14:53.000Z</time>
      </trkpt>
      <trkpt lat="47.48444" lon="-0.59969">
        <ele>28</ele>
        <time>2015-09-01T08:14:54.000Z</time>
      </trkpt>
      <trkpt lat="47.48447" lon="-0.59967">
        <ele>28</ele>
        <time>2015-09-01T08:14:55.000Z</time>
      </trkpt>
      <trkpt lat="47.4845" lon="-0.59966">
        <ele>27</ele>
        <time>2015-09-01T08:14:56.000Z</time>
      </trkpt>
      <trkpt lat="47.48453" lon="-0.59965">
        <ele>25</ele>
        <time>2015-09-01T08:14:57.000Z</time>
      </trkpt>
      <trkpt lat="47.48455" lon="-0.59965">
        <ele>26</ele>
        <time>2015-09-01T08:14:58.000Z</time>
      </trkpt>
      <trkpt lat="47.48458" lon="-0.59964">
        <ele>26</ele>
        <time>2015-09-01T08:14:59.000Z</time>
      </trkpt>
      <trkpt lat="47.48462" lon="-0.59964">
        <ele>25</ele>
        <time>2015-09-01T08:15:00.000Z</time>
      </trkpt>
      <trkpt lat="47.48465" lon="-0.59963">
        <ele>25</ele>
        <time>2015-09-01T08:15:01.000Z</time>
      </trkpt>
      <trkpt lat="47.48468" lon="-0.59963">
        <ele>24</ele>
        <time>2015-09-01T08:15:02.000Z</time>
      </trkpt>
      <trkpt lat="47.48472" lon="-0.59963">
        <ele>24</ele>
        <time>2015-09-01T08:15:03.000Z</time>
      </trkpt>
      <trkpt lat="47.48475" lon="-0.59963">
        <ele>24</ele>
        <time>2015-09-01T08:15:04.000Z</time>
      </trkpt>
      <trkpt lat="47.48477" lon="-0.59962">
        <ele>23</ele>
        <time>2015-09-01T08:15:05.000Z</time>
      </trkpt>
      <trkpt lat="47.4848" lon="-0.59962">
        <ele>23</ele>
        <time>2015-09-01T08:15:06.000Z</time>
      </trkpt>
      <trkpt lat="47.48482" lon="-0.59962">
        <ele>23</ele>
        <time>2015-09-01T08:15:07.000Z</time>
      </trkpt>
      <trkpt lat="47.48485" lon="-0.59961">
        <ele>23</ele>
        <time>2015-09-01T08:15:08.000Z</time>
      </trkpt>
      <trkpt lat="47.48488" lon="-0.59961">
        <ele>23</ele>
        <time>2015-09-01T08:15:09.000Z</time>
      </trkpt>
      <trkpt lat="47.4849" lon="-0.5996">
        <ele>22</ele>
        <time>2015-09-01T08:15:10.000Z</time>
      </trkpt>
      <trkpt lat="47.48493" lon="-0.5996">
        <ele>22</ele>
        <time>2015-09-01T08:15:11.000Z</time>
      </trkpt>
      <trkpt lat="47.48496" lon="-0.59959">
        <ele>22</ele>
        <time>2015-09-01T08:15:12.000Z</time>
      </trkpt>
      <trkpt lat="47.48498" lon="-0.59958">
        <ele>23</ele>
        <time>2015-09-01T08:15:13.000Z</time>
      </trkpt>
      <trkpt lat="47.485" lon="-0.59958">
        <ele>24</ele>
        <time>2015-09-01T08:15:14.000Z</time>
      </trkpt>
      <trkpt lat="47.48503" lon="-0.59958">
        <ele>24</ele>
        <time>2015-09-01T08:15:15.000Z</time>
      </trkpt>
      <trkpt lat="47.48505" lon="-0.59958">
        <ele>24</ele>
        <time>2015-09-01T08:15:16.000Z</time>
      </trkpt>
      <trkpt lat="47.48508" lon="-0.59958">
        <ele>24</ele>
        <time>2015-09-01T08:15:17.000Z</time>
      </trkpt>
      <trkpt lat="47.4851" lon="-0.59958">
        <ele>24</ele>
        <time>2015-09-01T08:15:18.000Z</time>
      </trkpt>
      <trkpt lat="47.48513" lon="-0.59957">
        <ele>25</ele>
        <time>2015-09-01T08:15:19.000Z</time>
      </trkpt>
      <trkpt lat="47.48515" lon="-0.59957">
        <ele>25</ele>
        <time>2015-09-01T08:15:20.000Z</time>
      </trkpt>
      <trkpt lat="47.48518" lon="-0.59957">
        <ele>27</ele>
        <time>2015-09-01T08:15:21.000Z</time>
      </trkpt>
      <trkpt lat="47.4852" lon="-0.59956">
        <ele>28</ele>
        <time>2015-09-01T08:15:22.000Z</time>
      </trkpt>
      <trkpt lat="47.48522" lon="-0.59955">
        <ele>28</ele>
        <time>2015-09-01T08:15:23.000Z</time>
      </trkpt>
      <trkpt lat="47.48523" lon="-0.59955">
        <ele>29</ele>
        <time>2015-09-01T08:15:24.000Z</time>
      </trkpt>
      <trkpt lat="47.48524" lon="-0.59954">
        <ele>29</ele>
        <time>2015-09-01T08:15:25.000Z</time>
      </trkpt>
      <trkpt lat="47.48526" lon="-0.59954">
        <ele>30</ele>
        <time>2015-09-01T08:15:26.000Z</time>
      </trkpt>
      <trkpt lat="47.48528" lon="-0.59954">
        <ele>31</ele>
        <time>2015-09-01T08:15:27.000Z</time>
      </trkpt>
      <trkpt lat="47.4853" lon="-0.59954">
        <ele>32</ele>
        <time>2015-09-01T08:15:28.000Z</time>
      </trkpt>
      <trkpt lat="47.48532" lon="-0.59954">
        <ele>32</ele>
        <time>2015-09-01T08:15:29.000Z</time>
      </trkpt>
      <trkpt lat="47.48535" lon="-0.59955">
        <ele>33</ele>
        <time>2015-09-01T08:15:30.000Z</time>
      </trkpt>
      <trkpt lat="47.48537" lon="-0.59955">
        <ele>33</ele>
        <time>2015-09-01T08:15:31.000Z</time>
      </trkpt>
      <trkpt lat="47.48539" lon="-0.59956">
        <ele>33</ele>
        <time>2015-09-01T08:15:32.000Z</time>
      </trkpt>
      <trkpt lat="47.48541" lon="-0.59957">
        <ele>34</ele>
        <time>2015-09-01T08:15:33.000Z</time>
      </trkpt>
      <trkpt lat="47.48543" lon="-0.59958">
        <ele>34</ele>
        <time>2015-09-01T08:15:34.000Z</time>
      </trkpt>
      <trkpt lat="47.48545" lon="-0.59959">
        <ele>34</ele>
        <time>2015-09-01T08:15:35.000Z</time>
      </trkpt>
      <trkpt lat="47.48546" lon="-0.59959">
        <ele>35</ele>
        <time>2015-09-01T08:15:36.000Z</time>
      </trkpt>
      <trkpt lat="47.48548" lon="-0.59959">
        <ele>37</ele>
        <time>2015-09-01T08:15:37.000Z</time>
      </trkpt>
      <trkpt lat="47.48551" lon="-0.59957">
        <ele>36</ele>
        <time>2015-09-01T08:15:38.000Z</time>
      </trkpt>
      <trkpt lat="47.48554" lon="-0.59956">
        <ele>36</ele>
        <time>2015-09-01T08:15:39.000Z</time>
      </trkpt>
      <trkpt lat="47.48556" lon="-0.59954">
        <ele>37</ele>
        <time>2015-09-01T08:15:40.000Z</time>
      </trkpt>
      <trkpt lat="47.48558" lon="-0.59953">
        <ele>38</ele>
        <time>2015-09-01T08:15:41.000Z</time>
      </trkpt>
      <trkpt lat="47.4856" lon="-0.59952">
        <ele>38</ele>
        <time>2015-09-01T08:15:42.000Z</time>
      </trkpt>
      <trkpt lat="47.48562" lon="-0.59951">
        <ele>38</ele>
        <time>2015-09-01T08:15:43.000Z</time>
      </trkpt>
      <trkpt lat="47.48565" lon="-0.5995">
        <ele>39</ele>
        <time>2015-09-01T08:15:44.000Z</time>
      </trkpt>
      <trkpt lat="47.48568" lon="-0.5995">
        <ele>39</ele>
        <time>2015-09-01T08:15:45.000Z</time>
      </trkpt>
      <trkpt lat="47.48571" lon="-0.5995">
        <ele>39</ele>
        <time>2015-09-01T08:15:46.000Z</time>
      </trkpt>
      <trkpt lat="47.48574" lon="-0.5995">
        <ele>39</ele>
        <time>2015-09-01T08:15:47.000Z</time>
      </trkpt>
      <trkpt lat="47.48577" lon="-0.59951">
        <ele>39</ele>
        <time>2015-09-01T08:15:48.000Z</time>
      </trkpt>
      <trkpt lat="47.48579" lon="-0.59952">
        <ele>39</ele>
        <time>2015-09-01T08:15:49.000Z</time>
      </trkpt>
      <trkpt lat="47.48582" lon="-0.59953">
        <ele>38</ele>
        <time>2015-09-01T08:15:50.000Z</time>
      </trkpt>
      <trkpt lat="47.48585" lon="-0.59955">
        <ele>37</ele>
        <time>2015-09-01T08:15:51.000Z</time>
      </trkpt>
      <trkpt lat="47.48588" lon="-0.59957">
        <ele>36</ele>
        <time>2015-09-01T08:15:52.000Z</time>
      </trkpt>
      <trkpt lat="47.4859" lon="-0.59958">
        <ele>35</ele>
        <time>2015-09-01T08:15:53.000Z</time>
      </trkpt>
      <trkpt lat="47.48592" lon="-0.5996">
        <ele>35</ele>
        <time>2015-09-01T08:15:54.000Z</time>
      </trkpt>
      <trkpt lat="47.48595" lon="-0.5996">
        <ele>35</ele>
        <time>2015-09-01T08:15:55.000Z</time>
      </trkpt>
      <trkpt lat="47.48597" lon="-0.59958">
        <ele>34</ele>
        <time>2015-09-01T08:15:56.000Z</time>
      </trkpt>
      <trkpt lat="47.48599" lon="-0.59956">
        <ele>33</ele>
        <time>2015-09-01T08:15:57.000Z</time>
      </trkpt>
      <trkpt lat="47.48602" lon="-0.59953">
        <ele>32</ele>
        <time>2015-09-01T08:15:58.000Z</time>
      </trkpt>
      <trkpt lat="47.48604" lon="-0.5995">
        <ele>32</ele>
        <time>2015-09-01T08:15:59.000Z</time>
      </trkpt>
      <trkpt lat="47.48606" lon="-0.59947">
        <ele>31</ele>
        <time>2015-09-01T08:16:00.000Z</time>
      </trkpt>
      <trkpt lat="47.48608" lon="-0.59945">
        <ele>32</ele>
        <time>2015-09-01T08:16:01.000Z</time>
      </trkpt>
      <trkpt lat="47.4861" lon="-0.59943">
        <ele>32</ele>
        <time>2015-09-01T08:16:02.000Z</time>
      </trkpt>
      <trkpt lat="47.48612" lon="-0.59941">
        <ele>33</ele>
        <time>2015-09-01T08:16:03.000Z</time>
      </trkpt>
      <trkpt lat="47.48613" lon="-0.59941">
        <ele>30</ele>
        <time>2015-09-01T08:16:04.000Z</time>
      </trkpt>
      <trkpt lat="47.48615" lon="-0.59941">
        <ele>29</ele>
        <time>2015-09-01T08:16:05.000Z</time>
      </trkpt>
      <trkpt lat="47.48618" lon="-0.59942">
        <ele>28</ele>
        <time>2015-09-01T08:16:06.000Z</time>
      </trkpt>
      <trkpt lat="47.48621" lon="-0.59943">
        <ele>27</ele>
        <time>2015-09-01T08:16:07.000Z</time>
      </trkpt>
      <trkpt lat="47.48625" lon="-0.59944">
        <ele>26</ele>
        <time>2015-09-01T08:16:08.000Z</time>
      </trkpt>
      <trkpt lat="47.48628" lon="-0.59946">
        <ele>25</ele>
        <time>2015-09-01T08:16:09.000Z</time>
      </trkpt>
      <trkpt lat="47.4863" lon="-0.59949">
        <ele>24</ele>
        <time>2015-09-01T08:16:10.000Z</time>
      </trkpt>
      <trkpt lat="47.48632" lon="-0.59952">
        <ele>23</ele>
        <time>2015-09-01T08:16:11.000Z</time>
      </trkpt>
      <trkpt lat="47.48633" lon="-0.59954">
        <ele>24</ele>
        <time>2015-09-01T08:16:12.000Z</time>
      </trkpt>
      <trkpt lat="47.48635" lon="-0.59957">
        <ele>21</ele>
        <time>2015-09-01T08:16:13.000Z</time>
      </trkpt>
      <trkpt lat="47.48637" lon="-0.5996">
        <ele>21</ele>
        <time>2015-09-01T08:16:14.000Z</time>
      </trkpt>
      <trkpt lat="47.48638" lon="-0.59963">
        <ele>20</ele>
        <time>2015-09-01T08:16:15.000Z</time>
      </trkpt>
      <trkpt lat="47.4864" lon="-0.59966">
        <ele>19</ele>
        <time>2015-09-01T08:16:16.000Z</time>
      </trkpt>
      <trkpt lat="47.48642" lon="-0.59968">
        <ele>18</ele>
        <time>2015-09-01T08:16:17.000Z</time>
      </trkpt>
      <trkpt lat="47.48644" lon="-0.5997">
        <ele>17</ele>
        <time>2015-09-01T08:16:18.000Z</time>
      </trkpt>
      <trkpt lat="47.48646" lon="-0.59972">
        <ele>16</ele>
        <time>2015-09-01T08:16:19.000Z</time>
      </trkpt>
      <trkpt lat="47.48647" lon="-0.59974">
        <ele>15</ele>
        <time>2015-09-01T08:16:20.000Z</time>
      </trkpt>
      <trkpt lat="47.48649" lon="-0.59976">
        <ele>13</ele>
        <time>2015-09-01T08:16:21.000Z</time>
      </trkpt>
      <trkpt lat="47.4865" lon="-0.59978">
        <ele>13</ele>
        <time>2015-09-01T08:16:22.000Z</time>
      </trkpt>
      <trkpt lat="47.48653" lon="-0.5998">
        <ele>13</ele>
        <time>2015-09-01T08:16:23.000Z</time>
      </trkpt>
      <trkpt lat="47.48654" lon="-0.59983">
        <ele>13</ele>
        <time>2015-09-01T08:16:24.000Z</time>
      </trkpt>
      <trkpt lat="47.48656" lon="-0.59985">
        <ele>13</ele>
        <time>2015-09-01T08:16:25.000Z</time>
      </trkpt>
      <trkpt lat="47.48657" lon="-0.59989">
        <ele>14</ele>
        <time>2015-09-01T08:16:26.000Z</time>
      </trkpt>
      <trkpt lat="47.48658" lon="-0.59992">
        <ele>14</ele>
        <time>2015-09-01T08:16:27.000Z</time>
      </trkpt>
      <trkpt lat="47.48659" lon="-0.59995">
        <ele>14</ele>
        <time>2015-09-01T08:16:28.000Z</time>
      </trkpt>
      <trkpt lat="47.4866" lon="-0.59998">
        <ele>14</ele>
        <time>2015-09-01T08:16:29.000Z</time>
      </trkpt>
      <trkpt lat="47.48661" lon="-0.60001">
        <ele>14</ele>
        <time>2015-09-01T08:16:30.000Z</time>
      </trkpt>
      <trkpt lat="47.48661" lon="-0.60004">
        <ele>13</ele>
        <time>2015-09-01T08:16:31.000Z</time>
      </trkpt>
      <trkpt lat="47.48662" lon="-0.60007">
        <ele>12</ele>
        <time>2015-09-01T08:16:32.000Z</time>
      </trkpt>
      <trkpt lat="47.48663" lon="-0.6001">
        <ele>11</ele>
        <time>2015-09-01T08:16:33.000Z</time>
      </trkpt>
      <trkpt lat="47.48663" lon="-0.60013">
        <ele>12</ele>
        <time>2015-09-01T08:16:34.000Z</time>
      </trkpt>
      <trkpt lat="47.48664" lon="-0.60015">
        <ele>11</ele>
        <time>2015-09-01T08:16:35.000Z</time>
      </trkpt>
      <trkpt lat="47.48664" lon="-0.60017">
        <ele>11</ele>
        <time>2015-09-01T08:16:36.000Z</time>
      </trkpt>
      <trkpt lat="47.48666" lon="-0.60019">
        <ele>12</ele>
        <time>2015-09-01T08:16:37.000Z</time>
      </trkpt>
      <trkpt lat="47.48668" lon="-0.60021">
        <ele>13</ele>
        <time>2015-09-01T08:16:38.000Z</time>
      </trkpt>
      <trkpt lat="47.48671" lon="-0.60024">
        <ele>14</ele>
        <time>2015-09-01T08:16:39.000Z</time>
      </trkpt>
      <trkpt lat="47.48674" lon="-0.60028">
        <ele>14</ele>
        <time>2015-09-01T08:16:40.000Z</time>
      </trkpt>
      <trkpt lat="47.48677" lon="-0.6003">
        <ele>15</ele>
        <time>2015-09-01T08:16:41.000Z</time>
      </trkpt>
      <trkpt lat="47.48679" lon="-0.60034">
        <ele>15</ele>
        <time>2015-09-01T08:16:42.000Z</time>
      </trkpt>
      <trkpt lat="47.48681" lon="-0.60036">
        <ele>16</ele>
        <time>2015-09-01T08:16:43.000Z</time>
      </trkpt>
      <trkpt lat="47.48683" lon="-0.60039">
        <ele>16</ele>
        <time>2015-09-01T08:16:44.000Z</time>
      </trkpt>
      <trkpt lat="47.48685" lon="-0.60042">
        <ele>16</ele>
        <time>2015-09-01T08:16:45.000Z</time>
      </trkpt>
      <trkpt lat="47.48686" lon="-0.60045">
        <ele>17</ele>
        <time>2015-09-01T08:16:46.000Z</time>
      </trkpt>
      <trkpt lat="47.48687" lon="-0.60049">
        <ele>18</ele>
        <time>2015-09-01T08:16:47.000Z</time>
      </trkpt>
      <trkpt lat="47.48687" lon="-0.60053">
        <ele>19</ele>
        <time>2015-09-01T08:16:48.000Z</time>
      </trkpt>
      <trkpt lat="47.48688" lon="-0.60057">
        <ele>20</ele>
        <time>2015-09-01T08:16:49.000Z</time>
      </trkpt>
      <trkpt lat="47.48689" lon="-0.60061">
        <ele>22</ele>
        <time>2015-09-01T08:16:50.000Z</time>
      </trkpt>
      <trkpt lat="47.4869" lon="-0.60065">
        <ele>23</ele>
        <time>2015-09-01T08:16:51.000Z</time>
      </trkpt>
      <trkpt lat="47.4869" lon="-0.60069">
        <ele>23</ele>
        <time>2015-09-01T08:16:52.000Z</time>
      </trkpt>
      <trkpt lat="47.4869" lon="-0.60073">
        <ele>23</ele>
        <time>2015-09-01T08:16:53.000Z</time>
      </trkpt>
      <trkpt lat="47.4869" lon="-0.60077">
        <ele>22</ele>
        <time>2015-09-01T08:16:54.000Z</time>
      </trkpt>
      <trkpt lat="47.4869" lon="-0.60081">
        <ele>22</ele>
        <time>2015-09-01T08:16:55.000Z</time>
      </trkpt>
      <trkpt lat="47.4869" lon="-0.60085">
        <ele>21</ele>
        <time>2015-09-01T08:16:56.000Z</time>
      </trkpt>
      <trkpt lat="47.4869" lon="-0.60089">
        <ele>21</ele>
        <time>2015-09-01T08:16:57.000Z</time>
      </trkpt>
      <trkpt lat="47.4869" lon="-0.60093">
        <ele>21</ele>
        <time>2015-09-01T08:16:58.000Z</time>
      </trkpt>
      <trkpt lat="47.48691" lon="-0.60097">
        <ele>21</ele>
        <time>2015-09-01T08:16:59.000Z</time>
      </trkpt>
      <trkpt lat="47.48691" lon="-0.60101">
        <ele>21</ele>
        <time>2015-09-01T08:17:00.000Z</time>
      </trkpt>
      <trkpt lat="47.48692" lon="-0.60104">
        <ele>22</ele>
        <time>2015-09-01T08:17:01.000Z</time>
      </trkpt>
      <trkpt lat="47.48692" lon="-0.60108">
        <ele>22</ele>
        <time>2015-09-01T08:17:02.000Z</time>
      </trkpt>
      <trkpt lat="47.48692" lon="-0.60112">
        <ele>21</ele>
        <time>2015-09-01T08:17:03.000Z</time>
      </trkpt>
      <trkpt lat="47.48691" lon="-0.60117">
        <ele>21</ele>
        <time>2015-09-01T08:17:04.000Z</time>
      </trkpt>
      <trkpt lat="47.48692" lon="-0.60122">
        <ele>23</ele>
        <time>2015-09-01T08:17:05.000Z</time>
      </trkpt>
      <trkpt lat="47.48692" lon="-0.60127">
        <ele>23</ele>
        <time>2015-09-01T08:17:06.000Z</time>
      </trkpt>
      <trkpt lat="47.48692" lon="-0.6013">
        <ele>22</ele>
        <time>2015-09-01T08:17:07.000Z</time>
      </trkpt>
      <trkpt lat="47.48692" lon="-0.60134">
        <ele>22</ele>
        <time>2015-09-01T08:17:08.000Z</time>
      </trkpt>
      <trkpt lat="47.48692" lon="-0.60138">
        <ele>22</ele>
        <time>2015-09-01T08:17:09.000Z</time>
      </trkpt>
      <trkpt lat="47.48692" lon="-0.60142">
        <ele>21</ele>
        <time>2015-09-01T08:17:10.000Z</time>
      </trkpt>
      <trkpt lat="47.4869" lon="-0.60147">
        <ele>17</ele>
        <time>2015-09-01T08:17:11.000Z</time>
      </trkpt>
      <trkpt lat="47.48689" lon="-0.60151">
        <ele>15</ele>
        <time>2015-09-01T08:17:12.000Z</time>
      </trkpt>
      <trkpt lat="47.48688" lon="-0.60156">
        <ele>11</ele>
        <time>2015-09-01T08:17:13.000Z</time>
      </trkpt>
      <trkpt lat="47.48687" lon="-0.60161">
        <ele>9</ele>
        <time>2015-09-01T08:17:14.000Z</time>
      </trkpt>
      <trkpt lat="47.48686" lon="-0.60166">
        <ele>9</ele>
        <time>2015-09-01T08:17:15.000Z</time>
      </trkpt>
      <trkpt lat="47.48685" lon="-0.60172">
        <ele>9</ele>
        <time>2015-09-01T08:17:16.000Z</time>
      </trkpt>
      <trkpt lat="47.48685" lon="-0.60177">
        <ele>10</ele>
        <time>2015-09-01T08:17:17.000Z</time>
      </trkpt>
      <trkpt lat="47.48685" lon="-0.60183">
        <ele>10</ele>
        <time>2015-09-01T08:17:18.000Z</time>
      </trkpt>
      <trkpt lat="47.48686" lon="-0.60189">
        <ele>12</ele>
        <time>2015-09-01T08:17:19.000Z</time>
      </trkpt>
      <trkpt lat="47.48687" lon="-0.60194">
        <ele>11</ele>
        <time>2015-09-01T08:17:20.000Z</time>
      </trkpt>
      <trkpt lat="47.48687" lon="-0.60199">
        <ele>11</ele>
        <time>2015-09-01T08:17:21.000Z</time>
      </trkpt>
      <trkpt lat="47.48687" lon="-0.60204">
        <ele>10</ele>
        <time>2015-09-01T08:17:22.000Z</time>
      </trkpt>
      <trkpt lat="47.48687" lon="-0.60209">
        <ele>11</ele>
        <time>2015-09-01T08:17:23.000Z</time>
      </trkpt>
      <trkpt lat="47.48688" lon="-0.60214">
        <ele>11</ele>
        <time>2015-09-01T08:17:24.000Z</time>
      </trkpt>
      <trkpt lat="47.48689" lon="-0.60218">
        <ele>12</ele>
        <time>2015-09-01T08:17:25.000Z</time>
      </trkpt>
      <trkpt lat="47.48689" lon="-0.60223">
        <ele>12</ele>
        <time>2015-09-01T08:17:26.000Z</time>
      </trkpt>
      <trkpt lat="47.48689" lon="-0.60227">
        <ele>12</ele>
        <time>2015-09-01T08:17:27.000Z</time>
      </trkpt>
      <trkpt lat="47.48689" lon="-0.60231">
        <ele>13</ele>
        <time>2015-09-01T08:17:28.000Z</time>
      </trkpt>
      <trkpt lat="47.4869" lon="-0.60236">
        <ele>14</ele>
        <time>2015-09-01T08:17:29.000Z</time>
      </trkpt>
      <trkpt lat="47.4869" lon="-0.6024">
        <ele>15</ele>
        <time>2015-09-01T08:17:30.000Z</time>
      </trkpt>
      <trkpt lat="47.4869" lon="-0.60245">
        <ele>17</ele>
        <time>2015-09-01T08:17:31.000Z</time>
      </trkpt>
      <trkpt lat="47.48689" lon="-0.6025">
        <ele>18</ele>
        <time>2015-09-01T08:17:32.000Z</time>
      </trkpt>
      <trkpt lat="47.48689" lon="-0.60256">
        <ele>20</ele>
        <time>2015-09-01T08:17:33.000Z</time>
      </trkpt>
      <trkpt lat="47.48689" lon="-0.60262">
        <ele>19</ele>
        <time>2015-09-01T08:17:34.000Z</time>
      </trkpt>
      <trkpt lat="47.48688" lon="-0.60267">
        <ele>19</ele>
        <time>2015-09-01T08:17:35.000Z</time>
      </trkpt>
      <trkpt lat="47.48688" lon="-0.60272">
        <ele>19</ele>
        <time>2015-09-01T08:17:36.000Z</time>
      </trkpt>
      <trkpt lat="47.48687" lon="-0.60276">
        <ele>19</ele>
        <time>2015-09-01T08:17:37.000Z</time>
      </trkpt>
      <trkpt lat="47.48687" lon="-0.60281">
        <ele>20</ele>
        <time>2015-09-01T08:17:38.000Z</time>
      </trkpt>
      <trkpt lat="47.48688" lon="-0.60285">
        <ele>20</ele>
        <time>2015-09-01T08:17:39.000Z</time>
      </trkpt>
      <trkpt lat="47.48688" lon="-0.6029">
        <ele>21</ele>
        <time>2015-09-01T08:17:40.000Z</time>
      </trkpt>
      <trkpt lat="47.48689" lon="-0.60294">
        <ele>21</ele>
        <time>2015-09-01T08:17:41.000Z</time>
      </trkpt>
      <trkpt lat="47.48689" lon="-0.60298">
        <ele>22</ele>
        <time>2015-09-01T08:17:42.000Z</time>
      </trkpt>
      <trkpt lat="47.48689" lon="-0.60302">
        <ele>22</ele>
        <time>2015-09-01T08:17:43.000Z</time>
      </trkpt>
      <trkpt lat="47.48689" lon="-0.60305">
        <ele>22</ele>
        <time>2015-09-01T08:17:44.000Z</time>
      </trkpt>
      <trkpt lat="47.4869" lon="-0.60309">
        <ele>22</ele>
        <time>2015-09-01T08:17:45.000Z</time>
      </trkpt>
      <trkpt lat="47.48691" lon="-0.60312">
        <ele>22</ele>
        <time>2015-09-01T08:17:46.000Z</time>
      </trkpt>
      <trkpt lat="47.48691" lon="-0.60315">
        <ele>22</ele>
        <time>2015-09-01T08:17:47.000Z</time>
      </trkpt>
      <trkpt lat="47.48692" lon="-0.60318">
        <ele>22</ele>
        <time>2015-09-01T08:17:48.000Z</time>
      </trkpt>
      <trkpt lat="47.48692" lon="-0.60321">
        <ele>23</ele>
        <time>2015-09-01T08:17:49.000Z</time>
      </trkpt>
      <trkpt lat="47.48692" lon="-0.60325">
        <ele>24</ele>
        <time>2015-09-01T08:17:50.000Z</time>
      </trkpt>
      <trkpt lat="47.48692" lon="-0.6033">
        <ele>24</ele>
        <time>2015-09-01T08:17:51.000Z</time>
      </trkpt>
      <trkpt lat="47.48692" lon="-0.60334">
        <ele>24</ele>
        <time>2015-09-01T08:17:52.000Z</time>
      </trkpt>
      <trkpt lat="47.48692" lon="-0.60337">
        <ele>24</ele>
        <time>2015-09-01T08:17:53.000Z</time>
      </trkpt>
      <trkpt lat="47.48692" lon="-0.6034">
        <ele>24</ele>
        <time>2015-09-01T08:17:54.000Z</time>
      </trkpt>
      <trkpt lat="47.48692" lon="-0.60344">
        <ele>23</ele>
        <time>2015-09-01T08:17:55.000Z</time>
      </trkpt>
      <trkpt lat="47.48692" lon="-0.60347">
        <ele>22</ele>
        <time>2015-09-01T08:17:56.000Z</time>
      </trkpt>
      <trkpt lat="47.48692" lon="-0.60351">
        <ele>20</ele>
        <time>2015-09-01T08:17:57.000Z</time>
      </trkpt>
      <trkpt lat="47.48691" lon="-0.60355">
        <ele>19</ele>
        <time>2015-09-01T08:17:58.000Z</time>
      </trkpt>
      <trkpt lat="47.48692" lon="-0.60359">
        <ele>18</ele>
        <time>2015-09-01T08:17:59.000Z</time>
      </trkpt>
      <trkpt lat="47.48692" lon="-0.60363">
        <ele>18</ele>
        <time>2015-09-01T08:18:00.000Z</time>
      </trkpt>
      <trkpt lat="47.48693" lon="-0.60367">
        <ele>18</ele>
        <time>2015-09-01T08:18:01.000Z</time>
      </trkpt>
      <trkpt lat="47.48692" lon="-0.60371">
        <ele>15</ele>
        <time>2015-09-01T08:18:02.000Z</time>
      </trkpt>
      <trkpt lat="47.48692" lon="-0.60375">
        <ele>14</ele>
        <time>2015-09-01T08:18:03.000Z</time>
      </trkpt>
      <trkpt lat="47.48692" lon="-0.60378">
        <ele>14</ele>
        <time>2015-09-01T08:18:04.000Z</time>
      </trkpt>
      <trkpt lat="47.48692" lon="-0.60382">
        <ele>13</ele>
        <time>2015-09-01T08:18:05.000Z</time>
      </trkpt>
      <trkpt lat="47.48692" lon="-0.60385">
        <ele>12</ele>
        <time>2015-09-01T08:18:06.000Z</time>
      </trkpt>
      <trkpt lat="47.48692" lon="-0.60389">
        <ele>13</ele>
        <time>2015-09-01T08:18:07.000Z</time>
      </trkpt>
      <trkpt lat="47.48693" lon="-0.60393">
        <ele>13</ele>
        <time>2015-09-01T08:18:08.000Z</time>
      </trkpt>
      <trkpt lat="47.48694" lon="-0.60397">
        <ele>13</ele>
        <time>2015-09-01T08:18:09.000Z</time>
      </trkpt>
      <trkpt lat="47.48695" lon="-0.60401">
        <ele>13</ele>
        <time>2015-09-01T08:18:10.000Z</time>
      </trkpt>
      <trkpt lat="47.48696" lon="-0.60404">
        <ele>13</ele>
        <time>2015-09-01T08:18:11.000Z</time>
      </trkpt>
      <trkpt lat="47.48697" lon="-0.60408">
        <ele>14</ele>
        <time>2015-09-01T08:18:12.000Z</time>
      </trkpt>
      <trkpt lat="47.48698" lon="-0.60412">
        <ele>14</ele>
        <time>2015-09-01T08:18:13.000Z</time>
      </trkpt>
      <trkpt lat="47.48698" lon="-0.60416">
        <ele>15</ele>
        <time>2015-09-01T08:18:14.000Z</time>
      </trkpt>
      <trkpt lat="47.48699" lon="-0.6042">
        <ele>15</ele>
        <time>2015-09-01T08:18:15.000Z</time>
      </trkpt>
      <trkpt lat="47.487" lon="-0.60424">
        <ele>15</ele>
        <time>2015-09-01T08:18:16.000Z</time>
      </trkpt>
      <trkpt lat="47.48701" lon="-0.60428">
        <ele>15</ele>
        <time>2015-09-01T08:18:17.000Z</time>
      </trkpt>
      <trkpt lat="47.48701" lon="-0.60433">
        <ele>15</ele>
        <time>2015-09-01T08:18:18.000Z</time>
      </trkpt>
      <trkpt lat="47.48702" lon="-0.60437">
        <ele>15</ele>
        <time>2015-09-01T08:18:19.000Z</time>
      </trkpt>
      <trkpt lat="47.48702" lon="-0.6044">
        <ele>14</ele>
        <time>2015-09-01T08:18:20.000Z</time>
      </trkpt>
      <trkpt lat="47.48703" lon="-0.60443">
        <ele>12</ele>
        <time>2015-09-01T08:18:21.000Z</time>
      </trkpt>
      <trkpt lat="47.48703" lon="-0.60447">
        <ele>12</ele>
        <time>2015-09-01T08:18:22.000Z</time>
      </trkpt>
      <trkpt lat="47.48704" lon="-0.6045">
        <ele>11</ele>
        <time>2015-09-01T08:18:23.000Z</time>
      </trkpt>
      <trkpt lat="47.48705" lon="-0.60453">
        <ele>12</ele>
        <time>2015-09-01T08:18:24.000Z</time>
      </trkpt>
      <trkpt lat="47.48706" lon="-0.60456">
        <ele>12</ele>
        <time>2015-09-01T08:18:25.000Z</time>
      </trkpt>
      <trkpt lat="47.48708" lon="-0.60459">
        <ele>12</ele>
        <time>2015-09-01T08:18:26.000Z</time>
      </trkpt>
      <trkpt lat="47.48709" lon="-0.60462">
        <ele>13</ele>
        <time>2015-09-01T08:18:27.000Z</time>
      </trkpt>
      <trkpt lat="47.48711" lon="-0.60465">
        <ele>13</ele>
        <time>2015-09-01T08:18:28.000Z</time>
      </trkpt>
      <trkpt lat="47.48711" lon="-0.60468">
        <ele>13</ele>
        <time>2015-09-01T08:18:29.000Z</time>
      </trkpt>
      <trkpt lat="47.48712" lon="-0.60471">
        <ele>13</ele>
        <time>2015-09-01T08:18:30.000Z</time>
      </trkpt>
      <trkpt lat="47.48713" lon="-0.60474">
        <ele>14</ele>
        <time>2015-09-01T08:18:31.000Z</time>
      </trkpt>
      <trkpt lat="47.48714" lon="-0.60477">
        <ele>14</ele>
        <time>2015-09-01T08:18:32.000Z</time>
      </trkpt>
      <trkpt lat="47.48715" lon="-0.60481">
        <ele>14</ele>
        <time>2015-09-01T08:18:33.000Z</time>
      </trkpt>
      <trkpt lat="47.48716" lon="-0.60484">
        <ele>15</ele>
        <time>2015-09-01T08:18:34.000Z</time>
      </trkpt>
      <trkpt lat="47.48717" lon="-0.60487">
        <ele>15</ele>
        <time>2015-09-01T08:18:35.000Z</time>
      </trkpt>
      <trkpt lat="47.48717" lon="-0.60491">
        <ele>15</ele>
        <time>2015-09-01T08:18:36.000Z</time>
      </trkpt>
      <trkpt lat="47.48718" lon="-0.60495">
        <ele>15</ele>
        <time>2015-09-01T08:18:37.000Z</time>
      </trkpt>
      <trkpt lat="47.48719" lon="-0.60499">
        <ele>17</ele>
        <time>2015-09-01T08:18:38.000Z</time>
      </trkpt>
      <trkpt lat="47.4872" lon="-0.60503">
        <ele>17</ele>
        <time>2015-09-01T08:18:39.000Z</time>
      </trkpt>
      <trkpt lat="47.48722" lon="-0.60507">
        <ele>16</ele>
        <time>2015-09-01T08:18:40.000Z</time>
      </trkpt>
      <trkpt lat="47.48723" lon="-0.60511">
        <ele>16</ele>
        <time>2015-09-01T08:18:41.000Z</time>
      </trkpt>
      <trkpt lat="47.48724" lon="-0.60515">
        <ele>18</ele>
        <time>2015-09-01T08:18:42.000Z</time>
      </trkpt>
      <trkpt lat="47.48726" lon="-0.60519">
        <ele>18</ele>
        <time>2015-09-01T08:18:43.000Z</time>
      </trkpt>
      <trkpt lat="47.48728" lon="-0.60523">
        <ele>19</ele>
        <time>2015-09-01T08:18:44.000Z</time>
      </trkpt>
      <trkpt lat="47.4873" lon="-0.60526">
        <ele>20</ele>
        <time>2015-09-01T08:18:45.000Z</time>
      </trkpt>
      <trkpt lat="47.48732" lon="-0.60529">
        <ele>21</ele>
        <time>2015-09-01T08:18:46.000Z</time>
      </trkpt>
      <trkpt lat="47.48733" lon="-0.60533">
        <ele>22</ele>
        <time>2015-09-01T08:18:47.000Z</time>
      </trkpt>
      <trkpt lat="47.48735" lon="-0.60537">
        <ele>24</ele>
        <time>2015-09-01T08:18:48.000Z</time>
      </trkpt>
      <trkpt lat="47.48737" lon="-0.6054">
        <ele>24</ele>
        <time>2015-09-01T08:18:49.000Z</time>
      </trkpt>
      <trkpt lat="47.4874" lon="-0.60544">
        <ele>24</ele>
        <time>2015-09-01T08:18:50.000Z</time>
      </trkpt>
      <trkpt lat="47.48741" lon="-0.60547">
        <ele>24</ele>
        <time>2015-09-01T08:18:51.000Z</time>
      </trkpt>
      <trkpt lat="47.48743" lon="-0.60551">
        <ele>25</ele>
        <time>2015-09-01T08:18:52.000Z</time>
      </trkpt>
      <trkpt lat="47.48744" lon="-0.60554">
        <ele>24</ele>
        <time>2015-09-01T08:18:53.000Z</time>
      </trkpt>
      <trkpt lat="47.48745" lon="-0.60558">
        <ele>24</ele>
        <time>2015-09-01T08:18:54.000Z</time>
      </trkpt>
      <trkpt lat="47.48746" lon="-0.60562">
        <ele>26</ele>
        <time>2015-09-01T08:18:55.000Z</time>
      </trkpt>
      <trkpt lat="47.48747" lon="-0.60566">
        <ele>26</ele>
        <time>2015-09-01T08:18:56.000Z</time>
      </trkpt>
      <trkpt lat="47.48748" lon="-0.6057">
        <ele>27</ele>
        <time>2015-09-01T08:18:57.000Z</time>
      </trkpt>
      <trkpt lat="47.48749" lon="-0.60573">
        <ele>27</ele>
        <time>2015-09-01T08:18:58.000Z</time>
      </trkpt>
      <trkpt lat="47.48752" lon="-0.60577">
        <ele>27</ele>
        <time>2015-09-01T08:18:59.000Z</time>
      </trkpt>
      <trkpt lat="47.48754" lon="-0.6058">
        <ele>26</ele>
        <time>2015-09-01T08:19:00.000Z</time>
      </trkpt>
      <trkpt lat="47.48756" lon="-0.60583">
        <ele>26</ele>
        <time>2015-09-01T08:19:01.000Z</time>
      </trkpt>
      <trkpt lat="47.48757" lon="-0.60586">
        <ele>26</ele>
        <time>2015-09-01T08:19:02.000Z</time>
      </trkpt>
      <trkpt lat="47.48759" lon="-0.60589">
        <ele>26</ele>
        <time>2015-09-01T08:19:03.000Z</time>
      </trkpt>
      <trkpt lat="47.4876" lon="-0.60593">
        <ele>26</ele>
        <time>2015-09-01T08:19:04.000Z</time>
      </trkpt>
      <trkpt lat="47.48762" lon="-0.60595">
        <ele>27</ele>
        <time>2015-09-01T08:19:05.000Z</time>
      </trkpt>
      <trkpt lat="47.48763" lon="-0.60599">
        <ele>29</ele>
        <time>2015-09-01T08:19:06.000Z</time>
      </trkpt>
      <trkpt lat="47.48763" lon="-0.60602">
        <ele>29</ele>
        <time>2015-09-01T08:19:07.000Z</time>
      </trkpt>
      <trkpt lat="47.48764" lon="-0.60606">
        <ele>28</ele>
        <time>2015-09-01T08:19:08.000Z</time>
      </trkpt>
      <trkpt lat="47.48765" lon="-0.60609">
        <ele>28</ele>
        <time>2015-09-01T08:19:09.000Z</time>
      </trkpt>
      <trkpt lat="47.48766" lon="-0.60612">
        <ele>29</ele>
        <time>2015-09-01T08:19:10.000Z</time>
      </trkpt>
      <trkpt lat="47.48769" lon="-0.60616">
        <ele>29</ele>
        <time>2015-09-01T08:19:11.000Z</time>
      </trkpt>
      <trkpt lat="47.48771" lon="-0.60619">
        <ele>29</ele>
        <time>2015-09-01T08:19:12.000Z</time>
      </trkpt>
      <trkpt lat="47.48774" lon="-0.60622">
        <ele>30</ele>
        <time>2015-09-01T08:19:13.000Z</time>
      </trkpt>
      <trkpt lat="47.48776" lon="-0.60625">
        <ele>29</ele>
        <time>2015-09-01T08:19:14.000Z</time>
      </trkpt>
      <trkpt lat="47.48778" lon="-0.60628">
        <ele>29</ele>
        <time>2015-09-01T08:19:15.000Z</time>
      </trkpt>
      <trkpt lat="47.4878" lon="-0.60631">
        <ele>29</ele>
        <time>2015-09-01T08:19:16.000Z</time>
      </trkpt>
      <trkpt lat="47.48782" lon="-0.60634">
        <ele>29</ele>
        <time>2015-09-01T08:19:17.000Z</time>
      </trkpt>
      <trkpt lat="47.48783" lon="-0.60636">
        <ele>28</ele>
        <time>2015-09-01T08:19:18.000Z</time>
      </trkpt>
      <trkpt lat="47.48785" lon="-0.60638">
        <ele>28</ele>
        <time>2015-09-01T08:19:19.000Z</time>
      </trkpt>
      <trkpt lat="47.48787" lon="-0.60641">
        <ele>28</ele>
        <time>2015-09-01T08:19:20.000Z</time>
      </trkpt>
      <trkpt lat="47.48789" lon="-0.60644">
        <ele>29</ele>
        <time>2015-09-01T08:19:21.000Z</time>
      </trkpt>
      <trkpt lat="47.4879" lon="-0.60646">
        <ele>28</ele>
        <time>2015-09-01T08:19:22.000Z</time>
      </trkpt>
      <trkpt lat="47.48791" lon="-0.60648">
        <ele>27</ele>
        <time>2015-09-01T08:19:23.000Z</time>
      </trkpt>
      <trkpt lat="47.48792" lon="-0.6065">
        <ele>28</ele>
        <time>2015-09-01T08:19:24.000Z</time>
      </trkpt>
      <trkpt lat="47.48794" lon="-0.60653">
        <ele>26</ele>
        <time>2015-09-01T08:19:25.000Z</time>
      </trkpt>
      <trkpt lat="47.48795" lon="-0.60656">
        <ele>25</ele>
        <time>2015-09-01T08:19:26.000Z</time>
      </trkpt>
      <trkpt lat="47.48796" lon="-0.60659">
        <ele>23</ele>
        <time>2015-09-01T08:19:27.000Z</time>
      </trkpt>
      <trkpt lat="47.48797" lon="-0.60662">
        <ele>21</ele>
        <time>2015-09-01T08:19:28.000Z</time>
      </trkpt>
      <trkpt lat="47.48798" lon="-0.60665">
        <ele>20</ele>
        <time>2015-09-01T08:19:29.000Z</time>
      </trkpt>
      <trkpt lat="47.488" lon="-0.60668">
        <ele>18</ele>
        <time>2015-09-01T08:19:30.000Z</time>
      </trkpt>
      <trkpt lat="47.48801" lon="-0.6067">
        <ele>18</ele>
        <time>2015-09-01T08:19:31.000Z</time>
      </trkpt>
      <trkpt lat="47.48803" lon="-0.60672">
        <ele>18</ele>
        <time>2015-09-01T08:19:32.000Z</time>
      </trkpt>
      <trkpt lat="47.48806" lon="-0.60674">
        <ele>18</ele>
        <time>2015-09-01T08:19:33.000Z</time>
      </trkpt>
      <trkpt lat="47.48808" lon="-0.60675">
        <ele>18</ele>
        <time>2015-09-01T08:19:34.000Z</time>
      </trkpt>
      <trkpt lat="47.4881" lon="-0.60676">
        <ele>18</ele>
        <time>2015-09-01T08:19:35.000Z</time>
      </trkpt>
      <trkpt lat="47.48812" lon="-0.60677">
        <ele>19</ele>
        <time>2015-09-01T08:19:36.000Z</time>
      </trkpt>
      <trkpt lat="47.48814" lon="-0.60678">
        <ele>19</ele>
        <time>2015-09-01T08:19:37.000Z</time>
      </trkpt>
      <trkpt lat="47.48817" lon="-0.60679">
        <ele>19</ele>
        <time>2015-09-01T08:19:38.000Z</time>
      </trkpt>
      <trkpt lat="47.48819" lon="-0.6068">
        <ele>19</ele>
        <time>2015-09-01T08:19:39.000Z</time>
      </trkpt>
      <trkpt lat="47.48821" lon="-0.60681">
        <ele>20</ele>
        <time>2015-09-01T08:19:40.000Z</time>
      </trkpt>
      <trkpt lat="47.48823" lon="-0.60683">
        <ele>21</ele>
        <time>2015-09-01T08:19:41.000Z</time>
      </trkpt>
      <trkpt lat="47.48826" lon="-0.60685">
        <ele>21</ele>
        <time>2015-09-01T08:19:42.000Z</time>
      </trkpt>
      <trkpt lat="47.48828" lon="-0.60686">
        <ele>23</ele>
        <time>2015-09-01T08:19:43.000Z</time>
      </trkpt>
      <trkpt lat="47.48831" lon="-0.60687">
        <ele>23</ele>
        <time>2015-09-01T08:19:44.000Z</time>
      </trkpt>
      <trkpt lat="47.48833" lon="-0.60688">
        <ele>23</ele>
        <time>2015-09-01T08:19:45.000Z</time>
      </trkpt>
      <trkpt lat="47.48835" lon="-0.60688">
        <ele>23</ele>
        <time>2015-09-01T08:19:46.000Z</time>
      </trkpt>
      <trkpt lat="47.48838" lon="-0.60688">
        <ele>24</ele>
        <time>2015-09-01T08:19:47.000Z</time>
      </trkpt>
      <trkpt lat="47.4884" lon="-0.60688">
        <ele>23</ele>
        <time>2015-09-01T08:19:48.000Z</time>
      </trkpt>
      <trkpt lat="47.48842" lon="-0.60686">
        <ele>24</ele>
        <time>2015-09-01T08:19:49.000Z</time>
      </trkpt>
      <trkpt lat="47.48845" lon="-0.60683">
        <ele>24</ele>
        <time>2015-09-01T08:19:50.000Z</time>
      </trkpt>
      <trkpt lat="47.48847" lon="-0.6068">
        <ele>24</ele>
        <time>2015-09-01T08:19:51.000Z</time>
      </trkpt>
      <trkpt lat="47.4885" lon="-0.60678">
        <ele>24</ele>
        <time>2015-09-01T08:19:52.000Z</time>
      </trkpt>
      <trkpt lat="47.48854" lon="-0.60675">
        <ele>24</ele>
        <time>2015-09-01T08:19:53.000Z</time>
      </trkpt>
      <trkpt lat="47.48856" lon="-0.60672">
        <ele>24</ele>
        <time>2015-09-01T08:19:54.000Z</time>
      </trkpt>
      <trkpt lat="47.48859" lon="-0.60669">
        <ele>25</ele>
        <time>2015-09-01T08:19:55.000Z</time>
      </trkpt>
      <trkpt lat="47.48861" lon="-0.60665">
        <ele>24</ele>
        <time>2015-09-01T08:19:56.000Z</time>
      </trkpt>
      <trkpt lat="47.48862" lon="-0.60662">
        <ele>24</ele>
        <time>2015-09-01T08:19:57.000Z</time>
      </trkpt>
      <trkpt lat="47.48863" lon="-0.60659">
        <ele>24</ele>
        <time>2015-09-01T08:19:58.000Z</time>
      </trkpt>
      <trkpt lat="47.48865" lon="-0.60656">
        <ele>24</ele>
        <time>2015-09-01T08:19:59.000Z</time>
      </trkpt>
      <trkpt lat="47.48866" lon="-0.60653">
        <ele>24</ele>
        <time>2015-09-01T08:20:00.000Z</time>
      </trkpt>
      <trkpt lat="47.48868" lon="-0.60651">
        <ele>23</ele>
        <time>2015-09-01T08:20:01.000Z</time>
      </trkpt>
      <trkpt lat="47.48869" lon="-0.60647">
        <ele>23</ele>
        <time>2015-09-01T08:20:02.000Z</time>
      </trkpt>
      <trkpt lat="47.4887" lon="-0.60644">
        <ele>24</ele>
        <time>2015-09-01T08:20:03.000Z</time>
      </trkpt>
      <trkpt lat="47.48872" lon="-0.60641">
        <ele>24</ele>
        <time>2015-09-01T08:20:04.000Z</time>
      </trkpt>
      <trkpt lat="47.48874" lon="-0.60638">
        <ele>24</ele>
        <time>2015-09-01T08:20:05.000Z</time>
      </trkpt>
      <trkpt lat="47.48876" lon="-0.60635">
        <ele>24</ele>
        <time>2015-09-01T08:20:06.000Z</time>
      </trkpt>
      <trkpt lat="47.48878" lon="-0.60632">
        <ele>25</ele>
        <time>2015-09-01T08:20:07.000Z</time>
      </trkpt>
      <trkpt lat="47.4888" lon="-0.60629">
        <ele>25</ele>
        <time>2015-09-01T08:20:08.000Z</time>
      </trkpt>
      <trkpt lat="47.48882" lon="-0.60627">
        <ele>25</ele>
        <time>2015-09-01T08:20:09.000Z</time>
      </trkpt>
      <trkpt lat="47.48884" lon="-0.60625">
        <ele>26</ele>
        <time>2015-09-01T08:20:10.000Z</time>
      </trkpt>
      <trkpt lat="47.48887" lon="-0.60623">
        <ele>26</ele>
        <time>2015-09-01T08:20:11.000Z</time>
      </trkpt>
      <trkpt lat="47.48888" lon="-0.60621">
        <ele>27</ele>
        <time>2015-09-01T08:20:12.000Z</time>
      </trkpt>
      <trkpt lat="47.4889" lon="-0.60619">
        <ele>27</ele>
        <time>2015-09-01T08:20:13.000Z</time>
      </trkpt>
      <trkpt lat="47.48892" lon="-0.60617">
        <ele>27</ele>
        <time>2015-09-01T08:20:14.000Z</time>
      </trkpt>
      <trkpt lat="47.48894" lon="-0.60615">
        <ele>28</ele>
        <time>2015-09-01T08:20:15.000Z</time>
      </trkpt>
      <trkpt lat="47.48896" lon="-0.60612">
        <ele>28</ele>
        <time>2015-09-01T08:20:16.000Z</time>
      </trkpt>
      <trkpt lat="47.48898" lon="-0.60609">
        <ele>29</ele>
        <time>2015-09-01T08:20:17.000Z</time>
      </trkpt>
      <trkpt lat="47.489" lon="-0.60607">
        <ele>29</ele>
        <time>2015-09-01T08:20:18.000Z</time>
      </trkpt>
      <trkpt lat="47.48901" lon="-0.60604">
        <ele>30</ele>
        <time>2015-09-01T08:20:19.000Z</time>
      </trkpt>
      <trkpt lat="47.48903" lon="-0.60601">
        <ele>30</ele>
        <time>2015-09-01T08:20:20.000Z</time>
      </trkpt>
      <trkpt lat="47.48903" lon="-0.60597">
        <ele>30</ele>
        <time>2015-09-01T08:20:21.000Z</time>
      </trkpt>
      <trkpt lat="47.48904" lon="-0.60594">
        <ele>32</ele>
        <time>2015-09-01T08:20:22.000Z</time>
      </trkpt>
      <trkpt lat="47.48906" lon="-0.6059">
        <ele>32</ele>
        <time>2015-09-01T08:20:23.000Z</time>
      </trkpt>
      <trkpt lat="47.48907" lon="-0.60587">
        <ele>32</ele>
        <time>2015-09-01T08:20:24.000Z</time>
      </trkpt>
      <trkpt lat="47.48908" lon="-0.60584">
        <ele>31</ele>
        <time>2015-09-01T08:20:25.000Z</time>
      </trkpt>
      <trkpt lat="47.48909" lon="-0.60581">
        <ele>31</ele>
        <time>2015-09-01T08:20:26.000Z</time>
      </trkpt>
      <trkpt lat="47.48909" lon="-0.60577">
        <ele>30</ele>
        <time>2015-09-01T08:20:27.000Z</time>
      </trkpt>
      <trkpt lat="47.4891" lon="-0.60574">
        <ele>30</ele>
        <time>2015-09-01T08:20:28.000Z</time>
      </trkpt>
      <trkpt lat="47.48911" lon="-0.6057">
        <ele>30</ele>
        <time>2015-09-01T08:20:29.000Z</time>
      </trkpt>
      <trkpt lat="47.48912" lon="-0.60567">
        <ele>29</ele>
        <time>2015-09-01T08:20:30.000Z</time>
      </trkpt>
      <trkpt lat="47.48913" lon="-0.60564">
        <ele>31</ele>
        <time>2015-09-01T08:20:31.000Z</time>
      </trkpt>
      <trkpt lat="47.48915" lon="-0.60561">
        <ele>29</ele>
        <time>2015-09-01T08:20:32.000Z</time>
      </trkpt>
      <trkpt lat="47.48916" lon="-0.60558">
        <ele>29</ele>
        <time>2015-09-01T08:20:33.000Z</time>
      </trkpt>
      <trkpt lat="47.48918" lon="-0.60555">
        <ele>28</ele>
        <time>2015-09-01T08:20:34.000Z</time>
      </trkpt>
      <trkpt lat="47.48919" lon="-0.60553">
        <ele>28</ele>
        <time>2015-09-01T08:20:35.000Z</time>
      </trkpt>
      <trkpt lat="47.48921" lon="-0.6055">
        <ele>28</ele>
        <time>2015-09-01T08:20:36.000Z</time>
      </trkpt>
      <trkpt lat="47.48923" lon="-0.60547">
        <ele>28</ele>
        <time>2015-09-01T08:20:37.000Z</time>
      </trkpt>
      <trkpt lat="47.48924" lon="-0.60544">
        <ele>28</ele>
        <time>2015-09-01T08:20:38.000Z</time>
      </trkpt>
      <trkpt lat="47.48926" lon="-0.60541">
        <ele>28</ele>
        <time>2015-09-01T08:20:39.000Z</time>
      </trkpt>
      <trkpt lat="47.48927" lon="-0.60538">
        <ele>28</ele>
        <time>2015-09-01T08:20:40.000Z</time>
      </trkpt>
      <trkpt lat="47.48929" lon="-0.60535">
        <ele>29</ele>
        <time>2015-09-01T08:20:41.000Z</time>
      </trkpt>
      <trkpt lat="47.4893" lon="-0.60532">
        <ele>29</ele>
        <time>2015-09-01T08:20:42.000Z</time>
      </trkpt>
      <trkpt lat="47.48931" lon="-0.60528">
        <ele>28</ele>
        <time>2015-09-01T08:20:43.000Z</time>
      </trkpt>
      <trkpt lat="47.48931" lon="-0.60525">
        <ele>27</ele>
        <time>2015-09-01T08:20:44.000Z</time>
      </trkpt>
      <trkpt lat="47.48931" lon="-0.60521">
        <ele>25</ele>
        <time>2015-09-01T08:20:45.000Z</time>
      </trkpt>
      <trkpt lat="47.4893" lon="-0.60518">
        <ele>25</ele>
        <time>2015-09-01T08:20:46.000Z</time>
      </trkpt>
      <trkpt lat="47.48931" lon="-0.60515">
        <ele>25</ele>
        <time>2015-09-01T08:20:47.000Z</time>
      </trkpt>
      <trkpt lat="47.48932" lon="-0.60512">
        <ele>25</ele>
        <time>2015-09-01T08:20:48.000Z</time>
      </trkpt>
      <trkpt lat="47.48932" lon="-0.60509">
        <ele>24</ele>
        <time>2015-09-01T08:20:49.000Z</time>
      </trkpt>
      <trkpt lat="47.48933" lon="-0.60506">
        <ele>25</ele>
        <time>2015-09-01T08:20:50.000Z</time>
      </trkpt>
      <trkpt lat="47.48934" lon="-0.60503">
        <ele>25</ele>
        <time>2015-09-01T08:20:51.000Z</time>
      </trkpt>
      <trkpt lat="47.48934" lon="-0.60499">
        <ele>26</ele>
        <time>2015-09-01T08:20:52.000Z</time>
      </trkpt>
      <trkpt lat="47.48935" lon="-0.60495">
        <ele>26</ele>
        <time>2015-09-01T08:20:53.000Z</time>
      </trkpt>
      <trkpt lat="47.48935" lon="-0.60492">
        <ele>25</ele>
        <time>2015-09-01T08:20:54.000Z</time>
      </trkpt>
      <trkpt lat="47.48935" lon="-0.60489">
        <ele>25</ele>
        <time>2015-09-01T08:20:55.000Z</time>
      </trkpt>
      <trkpt lat="47.48936" lon="-0.60486">
        <ele>25</ele>
        <time>2015-09-01T08:20:56.000Z</time>
      </trkpt>
      <trkpt lat="47.48936" lon="-0.60483">
        <ele>25</ele>
        <time>2015-09-01T08:20:57.000Z</time>
      </trkpt>
      <trkpt lat="47.48937" lon="-0.6048">
        <ele>25</ele>
        <time>2015-09-01T08:20:58.000Z</time>
      </trkpt>
      <trkpt lat="47.48937" lon="-0.60477">
        <ele>25</ele>
        <time>2015-09-01T08:20:59.000Z</time>
      </trkpt>
      <trkpt lat="47.48939" lon="-0.60474">
        <ele>25</ele>
        <time>2015-09-01T08:21:00.000Z</time>
      </trkpt>
      <trkpt lat="47.4894" lon="-0.6047">
        <ele>26</ele>
        <time>2015-09-01T08:21:01.000Z</time>
      </trkpt>
      <trkpt lat="47.48941" lon="-0.60467">
        <ele>26</ele>
        <time>2015-09-01T08:21:02.000Z</time>
      </trkpt>
      <trkpt lat="47.48943" lon="-0.60463">
        <ele>28</ele>
        <time>2015-09-01T08:21:03.000Z</time>
      </trkpt>
      <trkpt lat="47.48944" lon="-0.6046">
        <ele>27</ele>
        <time>2015-09-01T08:21:04.000Z</time>
      </trkpt>
      <trkpt lat="47.48946" lon="-0.60457">
        <ele>29</ele>
        <time>2015-09-01T08:21:05.000Z</time>
      </trkpt>
      <trkpt lat="47.48947" lon="-0.60453">
        <ele>28</ele>
        <time>2015-09-01T08:21:06.000Z</time>
      </trkpt>
      <trkpt lat="47.48947" lon="-0.6045">
        <ele>29</ele>
        <time>2015-09-01T08:21:07.000Z</time>
      </trkpt>
      <trkpt lat="47.48948" lon="-0.60447">
        <ele>28</ele>
        <time>2015-09-01T08:21:08.000Z</time>
      </trkpt>
      <trkpt lat="47.48949" lon="-0.60443">
        <ele>29</ele>
        <time>2015-09-01T08:21:09.000Z</time>
      </trkpt>
      <trkpt lat="47.4895" lon="-0.6044">
        <ele>29</ele>
        <time>2015-09-01T08:21:10.000Z</time>
      </trkpt>
      <trkpt lat="47.48951" lon="-0.60437">
        <ele>30</ele>
        <time>2015-09-01T08:21:11.000Z</time>
      </trkpt>
      <trkpt lat="47.48952" lon="-0.60434">
        <ele>30</ele>
        <time>2015-09-01T08:21:12.000Z</time>
      </trkpt>
      <trkpt lat="47.48952" lon="-0.60431">
        <ele>30</ele>
        <time>2015-09-01T08:21:13.000Z</time>
      </trkpt>
      <trkpt lat="47.48952" lon="-0.60429">
        <ele>31</ele>
        <time>2015-09-01T08:21:14.000Z</time>
      </trkpt>
      <trkpt lat="47.48951" lon="-0.60426">
        <ele>31</ele>
        <time>2015-09-01T08:21:15.000Z</time>
      </trkpt>
      <trkpt lat="47.48951" lon="-0.60424">
        <ele>31</ele>
        <time>2015-09-01T08:21:16.000Z</time>
      </trkpt>
      <trkpt lat="47.48951" lon="-0.60422">
        <ele>31</ele>
        <time>2015-09-01T08:21:17.000Z</time>
      </trkpt>
      <trkpt lat="47.4895" lon="-0.60419">
        <ele>31</ele>
        <time>2015-09-01T08:21:18.000Z</time>
      </trkpt>
      <trkpt lat="47.48949" lon="-0.60416">
        <ele>32</ele>
        <time>2015-09-01T08:21:19.000Z</time>
      </trkpt>
      <trkpt lat="47.48949" lon="-0.60413">
        <ele>33</ele>
        <time>2015-09-01T08:21:20.000Z</time>
      </trkpt>
      <trkpt lat="47.48949" lon="-0.60411">
        <ele>33</ele>
        <time>2015-09-01T08:21:21.000Z</time>
      </trkpt>
      <trkpt lat="47.48948" lon="-0.60408">
        <ele>35</ele>
        <time>2015-09-01T08:21:22.000Z</time>
      </trkpt>
      <trkpt lat="47.48947" lon="-0.60405">
        <ele>36</ele>
        <time>2015-09-01T08:21:23.000Z</time>
      </trkpt>
      <trkpt lat="47.48947" lon="-0.60403">
        <ele>37</ele>
        <time>2015-09-01T08:21:24.000Z</time>
      </trkpt>
      <trkpt lat="47.48946" lon="-0.604">
        <ele>38</ele>
        <time>2015-09-01T08:21:25.000Z</time>
      </trkpt>
      <trkpt lat="47.48945" lon="-0.60397">
        <ele>39</ele>
        <time>2015-09-01T08:21:26.000Z</time>
      </trkpt>
      <trkpt lat="47.48943" lon="-0.60394">
        <ele>38</ele>
        <time>2015-09-01T08:21:27.000Z</time>
      </trkpt>
      <trkpt lat="47.48941" lon="-0.60391">
        <ele>38</ele>
        <time>2015-09-01T08:21:28.000Z</time>
      </trkpt>
      <trkpt lat="47.48939" lon="-0.60388">
        <ele>38</ele>
        <time>2015-09-01T08:21:29.000Z</time>
      </trkpt>
      <trkpt lat="47.48938" lon="-0.60385">
        <ele>39</ele>
        <time>2015-09-01T08:21:30.000Z</time>
      </trkpt>
      <trkpt lat="47.48937" lon="-0.60382">
        <ele>40</ele>
        <time>2015-09-01T08:21:31.000Z</time>
      </trkpt>
      <trkpt lat="47.48936" lon="-0.60378">
        <ele>39</ele>
        <time>2015-09-01T08:21:32.000Z</time>
      </trkpt>
      <trkpt lat="47.48935" lon="-0.60375">
        <ele>40</ele>
        <time>2015-09-01T08:21:33.000Z</time>
      </trkpt>
      <trkpt lat="47.48933" lon="-0.60371">
        <ele>41</ele>
        <time>2015-09-01T08:21:34.000Z</time>
      </trkpt>
      <trkpt lat="47.48931" lon="-0.60367">
        <ele>40</ele>
        <time>2015-09-01T08:21:35.000Z</time>
      </trkpt>
      <trkpt lat="47.48928" lon="-0.60363">
        <ele>40</ele>
        <time>2015-09-01T08:21:36.000Z</time>
      </trkpt>
      <trkpt lat="47.48927" lon="-0.60359">
        <ele>40</ele>
        <time>2015-09-01T08:21:37.000Z</time>
      </trkpt>
      <trkpt lat="47.48926" lon="-0.60355">
        <ele>39</ele>
        <time>2015-09-01T08:21:38.000Z</time>
      </trkpt>
      <trkpt lat="47.48924" lon="-0.60352">
        <ele>38</ele>
        <time>2015-09-01T08:21:39.000Z</time>
      </trkpt>
      <trkpt lat="47.48923" lon="-0.60348">
        <ele>38</ele>
        <time>2015-09-01T08:21:40.000Z</time>
      </trkpt>
      <trkpt lat="47.48921" lon="-0.60345">
        <ele>37</ele>
        <time>2015-09-01T08:21:41.000Z</time>
      </trkpt>
      <trkpt lat="47.4892" lon="-0.60341">
        <ele>37</ele>
        <time>2015-09-01T08:21:42.000Z</time>
      </trkpt>
      <trkpt lat="47.48919" lon="-0.60337">
        <ele>37</ele>
        <time>2015-09-01T08:21:43.000Z</time>
      </trkpt>
      <trkpt lat="47.48918" lon="-0.60333">
        <ele>39</ele>
        <time>2015-09-01T08:21:44.000Z</time>
      </trkpt>
      <trkpt lat="47.48917" lon="-0.60328">
        <ele>40</ele>
        <time>2015-09-01T08:21:45.000Z</time>
      </trkpt>
      <trkpt lat="47.48917" lon="-0.60323">
        <ele>41</ele>
        <time>2015-09-01T08:21:46.000Z</time>
      </trkpt>
      <trkpt lat="47.48917" lon="-0.60319">
        <ele>41</ele>
        <time>2015-09-01T08:21:47.000Z</time>
      </trkpt>
      <trkpt lat="47.48916" lon="-0.60314">
        <ele>41</ele>
        <time>2015-09-01T08:21:48.000Z</time>
      </trkpt>
      <trkpt lat="47.48916" lon="-0.6031">
        <ele>42</ele>
        <time>2015-09-01T08:21:49.000Z</time>
      </trkpt>
      <trkpt lat="47.48914" lon="-0.60306">
        <ele>40</ele>
        <time>2015-09-01T08:21:50.000Z</time>
      </trkpt>
      <trkpt lat="47.48914" lon="-0.60301">
        <ele>40</ele>
        <time>2015-09-01T08:21:51.000Z</time>
      </trkpt>
      <trkpt lat="47.48912" lon="-0.60297">
        <ele>38</ele>
        <time>2015-09-01T08:21:52.000Z</time>
      </trkpt>
      <trkpt lat="47.48911" lon="-0.60294">
        <ele>38</ele>
        <time>2015-09-01T08:21:53.000Z</time>
      </trkpt>
      <trkpt lat="47.48909" lon="-0.6029">
        <ele>37</ele>
        <time>2015-09-01T08:21:54.000Z</time>
      </trkpt>
      <trkpt lat="47.48908" lon="-0.60286">
        <ele>37</ele>
        <time>2015-09-01T08:21:55.000Z</time>
      </trkpt>
      <trkpt lat="47.48907" lon="-0.60281">
        <ele>39</ele>
        <time>2015-09-01T08:21:56.000Z</time>
      </trkpt>
      <trkpt lat="47.48906" lon="-0.60277">
        <ele>38</ele>
        <time>2015-09-01T08:21:57.000Z</time>
      </trkpt>
      <trkpt lat="47.48904" lon="-0.60273">
        <ele>37</ele>
        <time>2015-09-01T08:21:58.000Z</time>
      </trkpt>
      <trkpt lat="47.48903" lon="-0.60269">
        <ele>38</ele>
        <time>2015-09-01T08:21:59.000Z</time>
      </trkpt>
      <trkpt lat="47.48902" lon="-0.60265">
        <ele>37</ele>
        <time>2015-09-01T08:22:00.000Z</time>
      </trkpt>
      <trkpt lat="47.48901" lon="-0.60261">
        <ele>38</ele>
        <time>2015-09-01T08:22:01.000Z</time>
      </trkpt>
      <trkpt lat="47.489" lon="-0.60257">
        <ele>38</ele>
        <time>2015-09-01T08:22:02.000Z</time>
      </trkpt>
      <trkpt lat="47.48899" lon="-0.60253">
        <ele>39</ele>
        <time>2015-09-01T08:22:03.000Z</time>
      </trkpt>
      <trkpt lat="47.48899" lon="-0.60249">
        <ele>40</ele>
        <time>2015-09-01T08:22:04.000Z</time>
      </trkpt>
      <trkpt lat="47.48898" lon="-0.60246">
        <ele>40</ele>
        <time>2015-09-01T08:22:05.000Z</time>
      </trkpt>
      <trkpt lat="47.48897" lon="-0.60242">
        <ele>40</ele>
        <time>2015-09-01T08:22:06.000Z</time>
      </trkpt>
      <trkpt lat="47.48896" lon="-0.60238">
        <ele>40</ele>
        <time>2015-09-01T08:22:07.000Z</time>
      </trkpt>
      <trkpt lat="47.48895" lon="-0.60235">
        <ele>40</ele>
        <time>2015-09-01T08:22:08.000Z</time>
      </trkpt>
      <trkpt lat="47.48894" lon="-0.60231">
        <ele>39</ele>
        <time>2015-09-01T08:22:09.000Z</time>
      </trkpt>
      <trkpt lat="47.48892" lon="-0.60228">
        <ele>40</ele>
        <time>2015-09-01T08:22:10.000Z</time>
      </trkpt>
      <trkpt lat="47.48892" lon="-0.60224">
        <ele>40</ele>
        <time>2015-09-01T08:22:11.000Z</time>
      </trkpt>
      <trkpt lat="47.48891" lon="-0.6022">
        <ele>41</ele>
        <time>2015-09-01T08:22:12.000Z</time>
      </trkpt>
      <trkpt lat="47.48891" lon="-0.60216">
        <ele>41</ele>
        <time>2015-09-01T08:22:13.000Z</time>
      </trkpt>
      <trkpt lat="47.48891" lon="-0.60212">
        <ele>41</ele>
        <time>2015-09-01T08:22:14.000Z</time>
      </trkpt>
      <trkpt lat="47.4889" lon="-0.60209">
        <ele>41</ele>
        <time>2015-09-01T08:22:15.000Z</time>
      </trkpt>
      <trkpt lat="47.48889" lon="-0.60205">
        <ele>40</ele>
        <time>2015-09-01T08:22:16.000Z</time>
      </trkpt>
      <trkpt lat="47.48889" lon="-0.60202">
        <ele>41</ele>
        <time>2015-09-01T08:22:17.000Z</time>
      </trkpt>
      <trkpt lat="47.48888" lon="-0.60198">
        <ele>42</ele>
        <time>2015-09-01T08:22:18.000Z</time>
      </trkpt>
      <trkpt lat="47.48888" lon="-0.60195">
        <ele>41</ele>
        <time>2015-09-01T08:22:19.000Z</time>
      </trkpt>
      <trkpt lat="47.48887" lon="-0.60191">
        <ele>41</ele>
        <time>2015-09-01T08:22:20.000Z</time>
      </trkpt>
      <trkpt lat="47.48885" lon="-0.60187">
        <ele>41</ele>
        <time>2015-09-01T08:22:21.000Z</time>
      </trkpt>
      <trkpt lat="47.48884" lon="-0.60184">
        <ele>41</ele>
        <time>2015-09-01T08:22:22.000Z</time>
      </trkpt>
      <trkpt lat="47.48883" lon="-0.6018">
        <ele>40</ele>
        <time>2015-09-01T08:22:23.000Z</time>
      </trkpt>
      <trkpt lat="47.48883" lon="-0.60177">
        <ele>39</ele>
        <time>2015-09-01T08:22:24.000Z</time>
      </trkpt>
      <trkpt lat="47.48881" lon="-0.60173">
        <ele>38</ele>
        <time>2015-09-01T08:22:25.000Z</time>
      </trkpt>
      <trkpt lat="47.48879" lon="-0.60169">
        <ele>38</ele>
        <time>2015-09-01T08:22:26.000Z</time>
      </trkpt>
      <trkpt lat="47.48877" lon="-0.60164">
        <ele>37</ele>
        <time>2015-09-01T08:22:27.000Z</time>
      </trkpt>
      <trkpt lat="47.48876" lon="-0.60161">
        <ele>34</ele>
        <time>2015-09-01T08:22:28.000Z</time>
      </trkpt>
      <trkpt lat="47.48874" lon="-0.60157">
        <ele>33</ele>
        <time>2015-09-01T08:22:29.000Z</time>
      </trkpt>
      <trkpt lat="47.48872" lon="-0.60153">
        <ele>33</ele>
        <time>2015-09-01T08:22:30.000Z</time>
      </trkpt>
      <trkpt lat="47.4887" lon="-0.60149">
        <ele>33</ele>
        <time>2015-09-01T08:22:31.000Z</time>
      </trkpt>
      <trkpt lat="47.48868" lon="-0.60144">
        <ele>32</ele>
        <time>2015-09-01T08:22:32.000Z</time>
      </trkpt>
      <trkpt lat="47.48867" lon="-0.6014">
        <ele>32</ele>
        <time>2015-09-01T08:22:33.000Z</time>
      </trkpt>
      <trkpt lat="47.48866" lon="-0.60136">
        <ele>32</ele>
        <time>2015-09-01T08:22:34.000Z</time>
      </trkpt>
      <trkpt lat="47.48865" lon="-0.60132">
        <ele>33</ele>
        <time>2015-09-01T08:22:35.000Z</time>
      </trkpt>
      <trkpt lat="47.48864" lon="-0.60128">
        <ele>34</ele>
        <time>2015-09-01T08:22:36.000Z</time>
      </trkpt>
      <trkpt lat="47.48864" lon="-0.60124">
        <ele>35</ele>
        <time>2015-09-01T08:22:37.000Z</time>
      </trkpt>
      <trkpt lat="47.48864" lon="-0.60121">
        <ele>35</ele>
        <time>2015-09-01T08:22:38.000Z</time>
      </trkpt>
      <trkpt lat="47.48864" lon="-0.60116">
        <ele>36</ele>
        <time>2015-09-01T08:22:39.000Z</time>
      </trkpt>
      <trkpt lat="47.48864" lon="-0.60113">
        <ele>35</ele>
        <time>2015-09-01T08:22:40.000Z</time>
      </trkpt>
      <trkpt lat="47.48863" lon="-0.60109">
        <ele>35</ele>
        <time>2015-09-01T08:22:41.000Z</time>
      </trkpt>
      <trkpt lat="47.48862" lon="-0.60105">
        <ele>35</ele>
        <time>2015-09-01T08:22:42.000Z</time>
      </trkpt>
      <trkpt lat="47.4886" lon="-0.60102">
        <ele>34</ele>
        <time>2015-09-01T08:22:43.000Z</time>
      </trkpt>
      <trkpt lat="47.48859" lon="-0.60099">
        <ele>35</ele>
        <time>2015-09-01T08:22:44.000Z</time>
      </trkpt>
      <trkpt lat="47.48858" lon="-0.60095">
        <ele>34</ele>
        <time>2015-09-01T08:22:45.000Z</time>
      </trkpt>
      <trkpt lat="47.48857" lon="-0.60091">
        <ele>34</ele>
        <time>2015-09-01T08:22:46.000Z</time>
      </trkpt>
      <trkpt lat="47.48855" lon="-0.60087">
        <ele>34</ele>
        <time>2015-09-01T08:22:47.000Z</time>
      </trkpt>
      <trkpt lat="47.48854" lon="-0.60082">
        <ele>34</ele>
        <time>2015-09-01T08:22:48.000Z</time>
      </trkpt>
      <trkpt lat="47.48853" lon="-0.60079">
        <ele>34</ele>
        <time>2015-09-01T08:22:49.000Z</time>
      </trkpt>
      <trkpt lat="47.48853" lon="-0.60075">
        <ele>35</ele>
        <time>2015-09-01T08:22:50.000Z</time>
      </trkpt>
      <trkpt lat="47.48852" lon="-0.60072">
        <ele>35</ele>
        <time>2015-09-01T08:22:51.000Z</time>
      </trkpt>
      <trkpt lat="47.48852" lon="-0.60069">
        <ele>36</ele>
        <time>2015-09-01T08:22:52.000Z</time>
      </trkpt>
      <trkpt lat="47.48851" lon="-0.60065">
        <ele>37</ele>
        <time>2015-09-01T08:22:53.000Z</time>
      </trkpt>
      <trkpt lat="47.48851" lon="-0.60062">
        <ele>36</ele>
        <time>2015-09-01T08:22:54.000Z</time>
      </trkpt>
      <trkpt lat="47.48851" lon="-0.60059">
        <ele>36</ele>
        <time>2015-09-01T08:22:55.000Z</time>
      </trkpt>
      <trkpt lat="47.4885" lon="-0.60056">
        <ele>35</ele>
        <time>2015-09-01T08:22:56.000Z</time>
      </trkpt>
      <trkpt lat="47.48849" lon="-0.60053">
        <ele>35</ele>
        <time>2015-09-01T08:22:57.000Z</time>
      </trkpt>
      <trkpt lat="47.48848" lon="-0.60049">
        <ele>36</ele>
        <time>2015-09-01T08:22:58.000Z</time>
      </trkpt>
      <trkpt lat="47.48847" lon="-0.60046">
        <ele>36</ele>
        <time>2015-09-01T08:22:59.000Z</time>
      </trkpt>
      <trkpt lat="47.48847" lon="-0.60042">
        <ele>37</ele>
        <time>2015-09-01T08:23:00.000Z</time>
      </trkpt>
      <trkpt lat="47.48846" lon="-0.60039">
        <ele>37</ele>
        <time>2015-09-01T08:23:01.000Z</time>
      </trkpt>
      <trkpt lat="47.48846" lon="-0.60035">
        <ele>37</ele>
        <time>2015-09-01T08:23:02.000Z</time>
      </trkpt>
      <trkpt lat="47.48845" lon="-0.6003">
        <ele>37</ele>
        <time>2015-09-01T08:23:03.000Z</time>
      </trkpt>
      <trkpt lat="47.48844" lon="-0.60026">
        <ele>38</ele>
        <time>2015-09-01T08:23:04.000Z</time>
      </trkpt>
      <trkpt lat="47.48843" lon="-0.60023">
        <ele>37</ele>
        <time>2015-09-01T08:23:05.000Z</time>
      </trkpt>
      <trkpt lat="47.48842" lon="-0.60019">
        <ele>37</ele>
        <time>2015-09-01T08:23:06.000Z</time>
      </trkpt>
      <trkpt lat="47.48841" lon="-0.60016">
        <ele>38</ele>
        <time>2015-09-01T08:23:07.000Z</time>
      </trkpt>
      <trkpt lat="47.48841" lon="-0.60012">
        <ele>38</ele>
        <time>2015-09-01T08:23:08.000Z</time>
      </trkpt>
      <trkpt lat="47.4884" lon="-0.60009">
        <ele>37</ele>
        <time>2015-09-01T08:23:09.000Z</time>
      </trkpt>
      <trkpt lat="47.48839" lon="-0.60005">
        <ele>38</ele>
        <time>2015-09-01T08:23:10.000Z</time>
      </trkpt>
      <trkpt lat="47.48839" lon="-0.60002">
        <ele>38</ele>
        <time>2015-09-01T08:23:11.000Z</time>
      </trkpt>
      <trkpt lat="47.48839" lon="-0.59999">
        <ele>38</ele>
        <time>2015-09-01T08:23:12.000Z</time>
      </trkpt>
      <trkpt lat="47.48838" lon="-0.59995">
        <ele>38</ele>
        <time>2015-09-01T08:23:13.000Z</time>
      </trkpt>
      <trkpt lat="47.48837" lon="-0.59991">
        <ele>36</ele>
        <time>2015-09-01T08:23:14.000Z</time>
      </trkpt>
      <trkpt lat="47.48836" lon="-0.59987">
        <ele>36</ele>
        <time>2015-09-01T08:23:15.000Z</time>
      </trkpt>
      <trkpt lat="47.48835" lon="-0.59983">
        <ele>37</ele>
        <time>2015-09-01T08:23:16.000Z</time>
      </trkpt>
      <trkpt lat="47.48834" lon="-0.59978">
        <ele>37</ele>
        <time>2015-09-01T08:23:17.000Z</time>
      </trkpt>
      <trkpt lat="47.48833" lon="-0.59974">
        <ele>38</ele>
        <time>2015-09-01T08:23:18.000Z</time>
      </trkpt>
      <trkpt lat="47.48832" lon="-0.5997">
        <ele>38</ele>
        <time>2015-09-01T08:23:19.000Z</time>
      </trkpt>
      <trkpt lat="47.48831" lon="-0.59965">
        <ele>38</ele>
        <time>2015-09-01T08:23:20.000Z</time>
      </trkpt>
      <trkpt lat="47.48831" lon="-0.5996">
        <ele>39</ele>
        <time>2015-09-01T08:23:21.000Z</time>
      </trkpt>
      <trkpt lat="47.4883" lon="-0.59956">
        <ele>39</ele>
        <time>2015-09-01T08:23:22.000Z</time>
      </trkpt>
      <trkpt lat="47.4883" lon="-0.59952">
        <ele>41</ele>
        <time>2015-09-01T08:23:23.000Z</time>
      </trkpt>
      <trkpt lat="47.48829" lon="-0.59948">
        <ele>42</ele>
        <time>2015-09-01T08:23:24.000Z</time>
      </trkpt>
      <trkpt lat="47.48828" lon="-0.59944">
        <ele>42</ele>
        <time>2015-09-01T08:23:25.000Z</time>
      </trkpt>
      <trkpt lat="47.48828" lon="-0.59939">
        <ele>41</ele>
        <time>2015-09-01T08:23:26.000Z</time>
      </trkpt>
      <trkpt lat="47.48827" lon="-0.59935">
        <ele>41</ele>
        <time>2015-09-01T08:23:27.000Z</time>
      </trkpt>
      <trkpt lat="47.48826" lon="-0.59931">
        <ele>39</ele>
        <time>2015-09-01T08:23:28.000Z</time>
      </trkpt>
      <trkpt lat="47.48824" lon="-0.59927">
        <ele>39</ele>
        <time>2015-09-01T08:23:29.000Z</time>
      </trkpt>
      <trkpt lat="47.48822" lon="-0.59922">
        <ele>39</ele>
        <time>2015-09-01T08:23:30.000Z</time>
      </trkpt>
      <trkpt lat="47.4882" lon="-0.59917">
        <ele>35</ele>
        <time>2015-09-01T08:23:31.000Z</time>
      </trkpt>
      <trkpt lat="47.48817" lon="-0.59913">
        <ele>35</ele>
        <time>2015-09-01T08:23:32.000Z</time>
      </trkpt>
      <trkpt lat="47.48814" lon="-0.59909">
        <ele>35</ele>
        <time>2015-09-01T08:23:33.000Z</time>
      </trkpt>
      <trkpt lat="47.48813" lon="-0.59905">
        <ele>34</ele>
        <time>2015-09-01T08:23:34.000Z</time>
      </trkpt>
      <trkpt lat="47.48811" lon="-0.599">
        <ele>34</ele>
        <time>2015-09-01T08:23:35.000Z</time>
      </trkpt>
      <trkpt lat="47.4881" lon="-0.59896">
        <ele>35</ele>
        <time>2015-09-01T08:23:36.000Z</time>
      </trkpt>
      <trkpt lat="47.48809" lon="-0.59891">
        <ele>36</ele>
        <time>2015-09-01T08:23:37.000Z</time>
      </trkpt>
      <trkpt lat="47.48809" lon="-0.59887">
        <ele>38</ele>
        <time>2015-09-01T08:23:38.000Z</time>
      </trkpt>
      <trkpt lat="47.48809" lon="-0.59882">
        <ele>39</ele>
        <time>2015-09-01T08:23:39.000Z</time>
      </trkpt>
      <trkpt lat="47.48809" lon="-0.59878">
        <ele>40</ele>
        <time>2015-09-01T08:23:40.000Z</time>
      </trkpt>
      <trkpt lat="47.48809" lon="-0.59874">
        <ele>41</ele>
        <time>2015-09-01T08:23:41.000Z</time>
      </trkpt>
      <trkpt lat="47.48808" lon="-0.5987">
        <ele>41</ele>
        <time>2015-09-01T08:23:42.000Z</time>
      </trkpt>
      <trkpt lat="47.48807" lon="-0.59865">
        <ele>39</ele>
        <time>2015-09-01T08:23:43.000Z</time>
      </trkpt>
      <trkpt lat="47.48805" lon="-0.5986">
        <ele>38</ele>
        <time>2015-09-01T08:23:44.000Z</time>
      </trkpt>
      <trkpt lat="47.48803" lon="-0.59855">
        <ele>38</ele>
        <time>2015-09-01T08:23:45.000Z</time>
      </trkpt>
      <trkpt lat="47.48802" lon="-0.59851">
        <ele>37</ele>
        <time>2015-09-01T08:23:46.000Z</time>
      </trkpt>
      <trkpt lat="47.48802" lon="-0.59847">
        <ele>37</ele>
        <time>2015-09-01T08:23:47.000Z</time>
      </trkpt>
      <trkpt lat="47.48803" lon="-0.59843">
        <ele>35</ele>
        <time>2015-09-01T08:23:48.000Z</time>
      </trkpt>
      <trkpt lat="47.48803" lon="-0.5984">
        <ele>33</ele>
        <time>2015-09-01T08:23:49.000Z</time>
      </trkpt>
      <trkpt lat="47.48804" lon="-0.59837">
        <ele>33</ele>
        <time>2015-09-01T08:23:50.000Z</time>
      </trkpt>
      <trkpt lat="47.48805" lon="-0.59834">
        <ele>32</ele>
        <time>2015-09-01T08:23:51.000Z</time>
      </trkpt>
      <trkpt lat="47.48806" lon="-0.59831">
        <ele>32</ele>
        <time>2015-09-01T08:23:52.000Z</time>
      </trkpt>
      <trkpt lat="47.48808" lon="-0.59829">
        <ele>31</ele>
        <time>2015-09-01T08:23:53.000Z</time>
      </trkpt>
      <trkpt lat="47.4881" lon="-0.59826">
        <ele>30</ele>
        <time>2015-09-01T08:23:54.000Z</time>
      </trkpt>
      <trkpt lat="47.48812" lon="-0.59824">
        <ele>30</ele>
        <time>2015-09-01T08:23:55.000Z</time>
      </trkpt>
      <trkpt lat="47.48815" lon="-0.59822">
        <ele>30</ele>
        <time>2015-09-01T08:23:56.000Z</time>
      </trkpt>
      <trkpt lat="47.48817" lon="-0.59821">
        <ele>29</ele>
        <time>2015-09-01T08:23:57.000Z</time>
      </trkpt>
      <trkpt lat="47.4882" lon="-0.59819">
        <ele>29</ele>
        <time>2015-09-01T08:23:58.000Z</time>
      </trkpt>
      <trkpt lat="47.48823" lon="-0.59817">
        <ele>29</ele>
        <time>2015-09-01T08:23:59.000Z</time>
      </trkpt>
      <trkpt lat="47.48826" lon="-0.59816">
        <ele>29</ele>
        <time>2015-09-01T08:24:00.000Z</time>
      </trkpt>
      <trkpt lat="47.48829" lon="-0.59815">
        <ele>29</ele>
        <time>2015-09-01T08:24:01.000Z</time>
      </trkpt>
      <trkpt lat="47.48832" lon="-0.59814">
        <ele>29</ele>
        <time>2015-09-01T08:24:02.000Z</time>
      </trkpt>
      <trkpt lat="47.48834" lon="-0.59814">
        <ele>28</ele>
        <time>2015-09-01T08:24:03.000Z</time>
      </trkpt>
      <trkpt lat="47.48837" lon="-0.59813">
        <ele>29</ele>
        <time>2015-09-01T08:24:04.000Z</time>
      </trkpt>
      <trkpt lat="47.4884" lon="-0.59813">
        <ele>28</ele>
        <time>2015-09-01T08:24:05.000Z</time>
      </trkpt>
      <trkpt lat="47.48843" lon="-0.59812">
        <ele>28</ele>
        <time>2015-09-01T08:24:06.000Z</time>
      </trkpt>
      <trkpt lat="47.48846" lon="-0.59812">
        <ele>29</ele>
        <time>2015-09-01T08:24:07.000Z</time>
      </trkpt>
      <trkpt lat="47.4885" lon="-0.59811">
        <ele>30</ele>
        <time>2015-09-01T08:24:08.000Z</time>
      </trkpt>
      <trkpt lat="47.48852" lon="-0.5981">
        <ele>30</ele>
        <time>2015-09-01T08:24:09.000Z</time>
      </trkpt>
      <trkpt lat="47.48854" lon="-0.59807">
        <ele>29</ele>
        <time>2015-09-01T08:24:10.000Z</time>
      </trkpt>
      <trkpt lat="47.48856" lon="-0.59804">
        <ele>31</ele>
        <time>2015-09-01T08:24:11.000Z</time>
      </trkpt>
      <trkpt lat="47.48857" lon="-0.59799">
        <ele>31</ele>
        <time>2015-09-01T08:24:12.000Z</time>
      </trkpt>
      <trkpt lat="47.48857" lon="-0.59796">
        <ele>31</ele>
        <time>2015-09-01T08:24:13.000Z</time>
      </trkpt>
      <trkpt lat="47.48857" lon="-0.59793">
        <ele>30</ele>
        <time>2015-09-01T08:24:14.000Z</time>
      </trkpt>
      <trkpt lat="47.48856" lon="-0.59789">
        <ele>31</ele>
        <time>2015-09-01T08:24:15.000Z</time>
      </trkpt>
      <trkpt lat="47.48857" lon="-0.59785">
        <ele>31</ele>
        <time>2015-09-01T08:24:16.000Z</time>
      </trkpt>
      <trkpt lat="47.48858" lon="-0.59782">
        <ele>31</ele>
        <time>2015-09-01T08:24:17.000Z</time>
      </trkpt>
      <trkpt lat="47.48858" lon="-0.59778">
        <ele>30</ele>
        <time>2015-09-01T08:24:18.000Z</time>
      </trkpt>
      <trkpt lat="47.48858" lon="-0.59774">
        <ele>30</ele>
        <time>2015-09-01T08:24:19.000Z</time>
      </trkpt>
      <trkpt lat="47.48857" lon="-0.5977">
        <ele>31</ele>
        <time>2015-09-01T08:24:20.000Z</time>
      </trkpt>
      <trkpt lat="47.48857" lon="-0.59767">
        <ele>31</ele>
        <time>2015-09-01T08:24:21.000Z</time>
      </trkpt>
      <trkpt lat="47.48857" lon="-0.59764">
        <ele>31</ele>
        <time>2015-09-01T08:24:22.000Z</time>
      </trkpt>
      <trkpt lat="47.48857" lon="-0.59761">
        <ele>31</ele>
        <time>2015-09-01T08:24:23.000Z</time>
      </trkpt>
      <trkpt lat="47.48857" lon="-0.59758">
        <ele>32</ele>
        <time>2015-09-01T08:24:24.000Z</time>
      </trkpt>
      <trkpt lat="47.48857" lon="-0.59754">
        <ele>34</ele>
        <time>2015-09-01T08:24:25.000Z</time>
      </trkpt>
      <trkpt lat="47.48858" lon="-0.59749">
        <ele>34</ele>
        <time>2015-09-01T08:24:26.000Z</time>
      </trkpt>
      <trkpt lat="47.48858" lon="-0.59744">
        <ele>34</ele>
        <time>2015-09-01T08:24:27.000Z</time>
      </trkpt>
      <trkpt lat="47.48858" lon="-0.5974">
        <ele>34</ele>
        <time>2015-09-01T08:24:28.000Z</time>
      </trkpt>
      <trkpt lat="47.48859" lon="-0.59736">
        <ele>35</ele>
        <time>2015-09-01T08:24:29.000Z</time>
      </trkpt>
      <trkpt lat="47.48859" lon="-0.59732">
        <ele>35</ele>
        <time>2015-09-01T08:24:30.000Z</time>
      </trkpt>
      <trkpt lat="47.4886" lon="-0.59728">
        <ele>35</ele>
        <time>2015-09-01T08:24:31.000Z</time>
      </trkpt>
      <trkpt lat="47.4886" lon="-0.59724">
        <ele>35</ele>
        <time>2015-09-01T08:24:32.000Z</time>
      </trkpt>
      <trkpt lat="47.4886" lon="-0.59719">
        <ele>35</ele>
        <time>2015-09-01T08:24:33.000Z</time>
      </trkpt>
      <trkpt lat="47.4886" lon="-0.59715">
        <ele>35</ele>
        <time>2015-09-01T08:24:34.000Z</time>
      </trkpt>
      <trkpt lat="47.4886" lon="-0.59711">
        <ele>34</ele>
        <time>2015-09-01T08:24:35.000Z</time>
      </trkpt>
      <trkpt lat="47.4886" lon="-0.59707">
        <ele>34</ele>
        <time>2015-09-01T08:24:36.000Z</time>
      </trkpt>
      <trkpt lat="47.4886" lon="-0.59703">
        <ele>34</ele>
        <time>2015-09-01T08:24:37.000Z</time>
      </trkpt>
      <trkpt lat="47.4886" lon="-0.59698">
        <ele>34</ele>
        <time>2015-09-01T08:24:38.000Z</time>
      </trkpt>
      <trkpt lat="47.4886" lon="-0.59694">
        <ele>34</ele>
        <time>2015-09-01T08:24:39.000Z</time>
      </trkpt>
      <trkpt lat="47.48861" lon="-0.5969">
        <ele>34</ele>
        <time>2015-09-01T08:24:40.000Z</time>
      </trkpt>
      <trkpt lat="47.48861" lon="-0.59686">
        <ele>35</ele>
        <time>2015-09-01T08:24:41.000Z</time>
      </trkpt>
      <trkpt lat="47.48861" lon="-0.59682">
        <ele>34</ele>
        <time>2015-09-01T08:24:42.000Z</time>
      </trkpt>
      <trkpt lat="47.48861" lon="-0.59677">
        <ele>34</ele>
        <time>2015-09-01T08:24:43.000Z</time>
      </trkpt>
      <trkpt lat="47.48861" lon="-0.59673">
        <ele>34</ele>
        <time>2015-09-01T08:24:44.000Z</time>
      </trkpt>
      <trkpt lat="47.48861" lon="-0.59669">
        <ele>34</ele>
        <time>2015-09-01T08:24:45.000Z</time>
      </trkpt>
      <trkpt lat="47.48861" lon="-0.59665">
        <ele>34</ele>
        <time>2015-09-01T08:24:46.000Z</time>
      </trkpt>
      <trkpt lat="47.48861" lon="-0.59661">
        <ele>34</ele>
        <time>2015-09-01T08:24:47.000Z</time>
      </trkpt>
      <trkpt lat="47.48861" lon="-0.59656">
        <ele>33</ele>
        <time>2015-09-01T08:24:48.000Z</time>
      </trkpt>
      <trkpt lat="47.48861" lon="-0.59652">
        <ele>33</ele>
        <time>2015-09-01T08:24:49.000Z</time>
      </trkpt>
      <trkpt lat="47.48861" lon="-0.59648">
        <ele>33</ele>
        <time>2015-09-01T08:24:50.000Z</time>
      </trkpt>
      <trkpt lat="47.48861" lon="-0.59644">
        <ele>33</ele>
        <time>2015-09-01T08:24:51.000Z</time>
      </trkpt>
      <trkpt lat="47.48861" lon="-0.59639">
        <ele>33</ele>
        <time>2015-09-01T08:24:52.000Z</time>
      </trkpt>
      <trkpt lat="47.48861" lon="-0.59635">
        <ele>33</ele>
        <time>2015-09-01T08:24:53.000Z</time>
      </trkpt>
      <trkpt lat="47.48861" lon="-0.59631">
        <ele>34</ele>
        <time>2015-09-01T08:24:54.000Z</time>
      </trkpt>
      <trkpt lat="47.48861" lon="-0.59627">
        <ele>33</ele>
        <time>2015-09-01T08:24:55.000Z</time>
      </trkpt>
      <trkpt lat="47.48862" lon="-0.59623">
        <ele>33</ele>
        <time>2015-09-01T08:24:56.000Z</time>
      </trkpt>
      <trkpt lat="47.48862" lon="-0.59618">
        <ele>33</ele>
        <time>2015-09-01T08:24:57.000Z</time>
      </trkpt>
      <trkpt lat="47.48861" lon="-0.59614">
        <ele>33</ele>
        <time>2015-09-01T08:24:58.000Z</time>
      </trkpt>
      <trkpt lat="47.48861" lon="-0.5961">
        <ele>33</ele>
        <time>2015-09-01T08:24:59.000Z</time>
      </trkpt>
      <trkpt lat="47.48861" lon="-0.59606">
        <ele>32</ele>
        <time>2015-09-01T08:25:00.000Z</time>
      </trkpt>
      <trkpt lat="47.48861" lon="-0.59602">
        <ele>32</ele>
        <time>2015-09-01T08:25:01.000Z</time>
      </trkpt>
      <trkpt lat="47.48861" lon="-0.59598">
        <ele>33</ele>
        <time>2015-09-01T08:25:02.000Z</time>
      </trkpt>
      <trkpt lat="47.48861" lon="-0.59593">
        <ele>32</ele>
        <time>2015-09-01T08:25:03.000Z</time>
      </trkpt>
      <trkpt lat="47.48861" lon="-0.59589">
        <ele>32</ele>
        <time>2015-09-01T08:25:04.000Z</time>
      </trkpt>
      <trkpt lat="47.48861" lon="-0.59585">
        <ele>32</ele>
        <time>2015-09-01T08:25:05.000Z</time>
      </trkpt>
      <trkpt lat="47.48861" lon="-0.59581">
        <ele>33</ele>
        <time>2015-09-01T08:25:06.000Z</time>
      </trkpt>
      <trkpt lat="47.48861" lon="-0.59577">
        <ele>33</ele>
        <time>2015-09-01T08:25:07.000Z</time>
      </trkpt>
      <trkpt lat="47.48861" lon="-0.59573">
        <ele>33</ele>
        <time>2015-09-01T08:25:08.000Z</time>
      </trkpt>
      <trkpt lat="47.48861" lon="-0.59568">
        <ele>33</ele>
        <time>2015-09-01T08:25:09.000Z</time>
      </trkpt>
      <trkpt lat="47.48861" lon="-0.59564">
        <ele>33</ele>
        <time>2015-09-01T08:25:10.000Z</time>
      </trkpt>
      <trkpt lat="47.48861" lon="-0.5956">
        <ele>32</ele>
        <time>2015-09-01T08:25:11.000Z</time>
      </trkpt>
      <trkpt lat="47.4886" lon="-0.59556">
        <ele>32</ele>
        <time>2015-09-01T08:25:12.000Z</time>
      </trkpt>
      <trkpt lat="47.4886" lon="-0.59551">
        <ele>32</ele>
        <time>2015-09-01T08:25:13.000Z</time>
      </trkpt>
      <trkpt lat="47.4886" lon="-0.59547">
        <ele>33</ele>
        <time>2015-09-01T08:25:14.000Z</time>
      </trkpt>
      <trkpt lat="47.4886" lon="-0.59543">
        <ele>33</ele>
        <time>2015-09-01T08:25:15.000Z</time>
      </trkpt>
      <trkpt lat="47.4886" lon="-0.59539">
        <ele>33</ele>
        <time>2015-09-01T08:25:16.000Z</time>
      </trkpt>
      <trkpt lat="47.48861" lon="-0.59535">
        <ele>33</ele>
        <time>2015-09-01T08:25:17.000Z</time>
      </trkpt>
      <trkpt lat="47.48861" lon="-0.59531">
        <ele>34</ele>
        <time>2015-09-01T08:25:18.000Z</time>
      </trkpt>
      <trkpt lat="47.48861" lon="-0.59527">
        <ele>34</ele>
        <time>2015-09-01T08:25:19.000Z</time>
      </trkpt>
      <trkpt lat="47.48862" lon="-0.59522">
        <ele>35</ele>
        <time>2015-09-01T08:25:20.000Z</time>
      </trkpt>
      <trkpt lat="47.48862" lon="-0.59518">
        <ele>36</ele>
        <time>2015-09-01T08:25:21.000Z</time>
      </trkpt>
      <trkpt lat="47.48863" lon="-0.59514">
        <ele>37</ele>
        <time>2015-09-01T08:25:22.000Z</time>
      </trkpt>
      <trkpt lat="47.48863" lon="-0.5951">
        <ele>36</ele>
        <time>2015-09-01T08:25:23.000Z</time>
      </trkpt>
      <trkpt lat="47.48863" lon="-0.59505">
        <ele>37</ele>
        <time>2015-09-01T08:25:24.000Z</time>
      </trkpt>
      <trkpt lat="47.48863" lon="-0.59501">
        <ele>37</ele>
        <time>2015-09-01T08:25:25.000Z</time>
      </trkpt>
      <trkpt lat="47.48864" lon="-0.59497">
        <ele>37</ele>
        <time>2015-09-01T08:25:26.000Z</time>
      </trkpt>
      <trkpt lat="47.48864" lon="-0.59493">
        <ele>38</ele>
        <time>2015-09-01T08:25:27.000Z</time>
      </trkpt>
      <trkpt lat="47.48864" lon="-0.59488">
        <ele>37</ele>
        <time>2015-09-01T08:25:28.000Z</time>
      </trkpt>
      <trkpt lat="47.48865" lon="-0.59484">
        <ele>37</ele>
        <time>2015-09-01T08:25:29.000Z</time>
      </trkpt>
      <trkpt lat="47.48865" lon="-0.5948">
        <ele>37</ele>
        <time>2015-09-01T08:25:30.000Z</time>
      </trkpt>
      <trkpt lat="47.48866" lon="-0.59476">
        <ele>37</ele>
        <time>2015-09-01T08:25:31.000Z</time>
      </trkpt>
      <trkpt lat="47.48867" lon="-0.59472">
        <ele>36</ele>
        <time>2015-09-01T08:25:32.000Z</time>
      </trkpt>
      <trkpt lat="47.48868" lon="-0.59469">
        <ele>36</ele>
        <time>2015-09-01T08:25:33.000Z</time>
      </trkpt>
      <trkpt lat="47.48869" lon="-0.59466">
        <ele>37</ele>
        <time>2015-09-01T08:25:34.000Z</time>
      </trkpt>
      <trkpt lat="47.4887" lon="-0.59464">
        <ele>37</ele>
        <time>2015-09-01T08:25:35.000Z</time>
      </trkpt>
      <trkpt lat="47.48872" lon="-0.59462">
        <ele>39</ele>
        <time>2015-09-01T08:25:36.000Z</time>
      </trkpt>
      <trkpt lat="47.48875" lon="-0.59461">
        <ele>39</ele>
        <time>2015-09-01T08:25:37.000Z</time>
      </trkpt>
      <trkpt lat="47.48878" lon="-0.5946">
        <ele>39</ele>
        <time>2015-09-01T08:25:38.000Z</time>
      </trkpt>
      <trkpt lat="47.4888" lon="-0.5946">
        <ele>39</ele>
        <time>2015-09-01T08:25:39.000Z</time>
      </trkpt>
      <trkpt lat="47.48883" lon="-0.59459">
        <ele>39</ele>
        <time>2015-09-01T08:25:40.000Z</time>
      </trkpt>
      <trkpt lat="47.48886" lon="-0.59459">
        <ele>40</ele>
        <time>2015-09-01T08:25:41.000Z</time>
      </trkpt>
      <trkpt lat="47.48889" lon="-0.5946">
        <ele>40</ele>
        <time>2015-09-01T08:25:42.000Z</time>
      </trkpt>
      <trkpt lat="47.48893" lon="-0.59461">
        <ele>41</ele>
        <time>2015-09-01T08:25:43.000Z</time>
      </trkpt>
      <trkpt lat="47.48896" lon="-0.59461">
        <ele>41</ele>
        <time>2015-09-01T08:25:44.000Z</time>
      </trkpt>
      <trkpt lat="47.489" lon="-0.59462">
        <ele>41</ele>
        <time>2015-09-01T08:25:45.000Z</time>
      </trkpt>
      <trkpt lat="47.48903" lon="-0.59462">
        <ele>41</ele>
        <time>2015-09-01T08:25:46.000Z</time>
      </trkpt>
      <trkpt lat="47.48906" lon="-0.59463">
        <ele>41</ele>
        <time>2015-09-01T08:25:47.000Z</time>
      </trkpt>
      <trkpt lat="47.48909" lon="-0.59463">
        <ele>41</ele>
        <time>2015-09-01T08:25:48.000Z</time>
      </trkpt>
      <trkpt lat="47.48911" lon="-0.59463">
        <ele>41</ele>
        <time>2015-09-01T08:25:49.000Z</time>
      </trkpt>
      <trkpt lat="47.48914" lon="-0.59463">
        <ele>41</ele>
        <time>2015-09-01T08:25:50.000Z</time>
      </trkpt>
      <trkpt lat="47.48917" lon="-0.59464">
        <ele>42</ele>
        <time>2015-09-01T08:25:51.000Z</time>
      </trkpt>
      <trkpt lat="47.4892" lon="-0.59464">
        <ele>42</ele>
        <time>2015-09-01T08:25:52.000Z</time>
      </trkpt>
      <trkpt lat="47.48922" lon="-0.59463">
        <ele>42</ele>
        <time>2015-09-01T08:25:53.000Z</time>
      </trkpt>
      <trkpt lat="47.48925" lon="-0.59461">
        <ele>43</ele>
        <time>2015-09-01T08:25:54.000Z</time>
      </trkpt>
      <trkpt lat="47.48927" lon="-0.5946">
        <ele>41</ele>
        <time>2015-09-01T08:25:55.000Z</time>
      </trkpt>
      <trkpt lat="47.48929" lon="-0.59459">
        <ele>41</ele>
        <time>2015-09-01T08:25:56.000Z</time>
      </trkpt>
      <trkpt lat="47.48931" lon="-0.59458">
        <ele>40</ele>
        <time>2015-09-01T08:25:57.000Z</time>
      </trkpt>
      <trkpt lat="47.48933" lon="-0.59456">
        <ele>40</ele>
        <time>2015-09-01T08:25:58.000Z</time>
      </trkpt>
      <trkpt lat="47.48936" lon="-0.59454">
        <ele>40</ele>
        <time>2015-09-01T08:25:59.000Z</time>
      </trkpt>
      <trkpt lat="47.48938" lon="-0.59453">
        <ele>39</ele>
        <time>2015-09-01T08:26:00.000Z</time>
      </trkpt>
      <trkpt lat="47.48941" lon="-0.59451">
        <ele>39</ele>
        <time>2015-09-01T08:26:01.000Z</time>
      </trkpt>
      <trkpt lat="47.48943" lon="-0.5945">
        <ele>39</ele>
        <time>2015-09-01T08:26:02.000Z</time>
      </trkpt>
      <trkpt lat="47.48946" lon="-0.59448">
        <ele>39</ele>
        <time>2015-09-01T08:26:03.000Z</time>
      </trkpt>
      <trkpt lat="47.48949" lon="-0.59446">
        <ele>39</ele>
        <time>2015-09-01T08:26:04.000Z</time>
      </trkpt>
      <trkpt lat="47.48951" lon="-0.59443">
        <ele>39</ele>
        <time>2015-09-01T08:26:05.000Z</time>
      </trkpt>
      <trkpt lat="47.48953" lon="-0.59441">
        <ele>38</ele>
        <time>2015-09-01T08:26:06.000Z</time>
      </trkpt>
      <trkpt lat="47.48955" lon="-0.59438">
        <ele>39</ele>
        <time>2015-09-01T08:26:07.000Z</time>
      </trkpt>
      <trkpt lat="47.48957" lon="-0.59436">
        <ele>39</ele>
        <time>2015-09-01T08:26:08.000Z</time>
      </trkpt>
      <trkpt lat="47.48959" lon="-0.59435">
        <ele>39</ele>
        <time>2015-09-01T08:26:09.000Z</time>
      </trkpt>
      <trkpt lat="47.48962" lon="-0.59432">
        <ele>39</ele>
        <time>2015-09-01T08:26:10.000Z</time>
      </trkpt>
      <trkpt lat="47.48965" lon="-0.5943">
        <ele>39</ele>
        <time>2015-09-01T08:26:11.000Z</time>
      </trkpt>
      <trkpt lat="47.48968" lon="-0.59428">
        <ele>40</ele>
        <time>2015-09-01T08:26:12.000Z</time>
      </trkpt>
      <trkpt lat="47.48971" lon="-0.59426">
        <ele>40</ele>
        <time>2015-09-01T08:26:13.000Z</time>
      </trkpt>
      <trkpt lat="47.48974" lon="-0.59423">
        <ele>41</ele>
        <time>2015-09-01T08:26:14.000Z</time>
      </trkpt>
      <trkpt lat="47.48976" lon="-0.59419">
        <ele>40</ele>
        <time>2015-09-01T08:26:15.000Z</time>
      </trkpt>
      <trkpt lat="47.48977" lon="-0.59415">
        <ele>38</ele>
        <time>2015-09-01T08:26:16.000Z</time>
      </trkpt>
      <trkpt lat="47.48978" lon="-0.59411">
        <ele>38</ele>
        <time>2015-09-01T08:26:17.000Z</time>
      </trkpt>
      <trkpt lat="47.48979" lon="-0.59408">
        <ele>39</ele>
        <time>2015-09-01T08:26:18.000Z</time>
      </trkpt>
      <trkpt lat="47.4898" lon="-0.59405">
        <ele>38</ele>
        <time>2015-09-01T08:26:19.000Z</time>
      </trkpt>
      <trkpt lat="47.48981" lon="-0.59402">
        <ele>37</ele>
        <time>2015-09-01T08:26:20.000Z</time>
      </trkpt>
      <trkpt lat="47.48982" lon="-0.59398">
        <ele>36</ele>
        <time>2015-09-01T08:26:21.000Z</time>
      </trkpt>
      <trkpt lat="47.48984" lon="-0.59394">
        <ele>36</ele>
        <time>2015-09-01T08:26:22.000Z</time>
      </trkpt>
      <trkpt lat="47.48985" lon="-0.59391">
        <ele>35</ele>
        <time>2015-09-01T08:26:23.000Z</time>
      </trkpt>
      <trkpt lat="47.48987" lon="-0.59388">
        <ele>35</ele>
        <time>2015-09-01T08:26:24.000Z</time>
      </trkpt>
      <trkpt lat="47.48989" lon="-0.59384">
        <ele>34</ele>
        <time>2015-09-01T08:26:25.000Z</time>
      </trkpt>
      <trkpt lat="47.4899" lon="-0.5938">
        <ele>34</ele>
        <time>2015-09-01T08:26:26.000Z</time>
      </trkpt>
      <trkpt lat="47.48991" lon="-0.59377">
        <ele>33</ele>
        <time>2015-09-01T08:26:27.000Z</time>
      </trkpt>
      <trkpt lat="47.48992" lon="-0.59373">
        <ele>34</ele>
        <time>2015-09-01T08:26:28.000Z</time>
      </trkpt>
      <trkpt lat="47.48994" lon="-0.59368">
        <ele>34</ele>
        <time>2015-09-01T08:26:29.000Z</time>
      </trkpt>
      <trkpt lat="47.48996" lon="-0.59364">
        <ele>34</ele>
        <time>2015-09-01T08:26:30.000Z</time>
      </trkpt>
      <trkpt lat="47.48997" lon="-0.59359">
        <ele>35</ele>
        <time>2015-09-01T08:26:31.000Z</time>
      </trkpt>
      <trkpt lat="47.48998" lon="-0.59354">
        <ele>36</ele>
        <time>2015-09-01T08:26:32.000Z</time>
      </trkpt>
      <trkpt lat="47.48999" lon="-0.5935">
        <ele>35</ele>
        <time>2015-09-01T08:26:33.000Z</time>
      </trkpt>
      <trkpt lat="47.49" lon="-0.59345">
        <ele>36</ele>
        <time>2015-09-01T08:26:34.000Z</time>
      </trkpt>
      <trkpt lat="47.49002" lon="-0.59341">
        <ele>36</ele>
        <time>2015-09-01T08:26:35.000Z</time>
      </trkpt>
      <trkpt lat="47.49004" lon="-0.59337">
        <ele>36</ele>
        <time>2015-09-01T08:26:36.000Z</time>
      </trkpt>
      <trkpt lat="47.49005" lon="-0.59334">
        <ele>36</ele>
        <time>2015-09-01T08:26:37.000Z</time>
      </trkpt>
      <trkpt lat="47.49007" lon="-0.5933">
        <ele>36</ele>
        <time>2015-09-01T08:26:38.000Z</time>
      </trkpt>
      <trkpt lat="47.49008" lon="-0.59327">
        <ele>35</ele>
        <time>2015-09-01T08:26:39.000Z</time>
      </trkpt>
      <trkpt lat="47.4901" lon="-0.59324">
        <ele>35</ele>
        <time>2015-09-01T08:26:40.000Z</time>
      </trkpt>
      <trkpt lat="47.49011" lon="-0.59321">
        <ele>35</ele>
        <time>2015-09-01T08:26:41.000Z</time>
      </trkpt>
      <trkpt lat="47.49013" lon="-0.59317">
        <ele>35</ele>
        <time>2015-09-01T08:26:42.000Z</time>
      </trkpt>
      <trkpt lat="47.49015" lon="-0.59314">
        <ele>35</ele>
        <time>2015-09-01T08:26:43.000Z</time>
      </trkpt>
      <trkpt lat="47.49017" lon="-0.5931">
        <ele>35</ele>
        <time>2015-09-01T08:26:44.000Z</time>
      </trkpt>
      <trkpt lat="47.49019" lon="-0.59307">
        <ele>34</ele>
        <time>2015-09-01T08:26:45.000Z</time>
      </trkpt>
      <trkpt lat="47.49021" lon="-0.59304">
        <ele>34</ele>
        <time>2015-09-01T08:26:46.000Z</time>
      </trkpt>
      <trkpt lat="47.49024" lon="-0.593">
        <ele>34</ele>
        <time>2015-09-01T08:26:47.000Z</time>
      </trkpt>
      <trkpt lat="47.49026" lon="-0.59297">
        <ele>34</ele>
        <time>2015-09-01T08:26:48.000Z</time>
      </trkpt>
      <trkpt lat="47.49029" lon="-0.59294">
        <ele>34</ele>
        <time>2015-09-01T08:26:49.000Z</time>
      </trkpt>
      <trkpt lat="47.49031" lon="-0.59291">
        <ele>33</ele>
        <time>2015-09-01T08:26:50.000Z</time>
      </trkpt>
      <trkpt lat="47.49033" lon="-0.59288">
        <ele>34</ele>
        <time>2015-09-01T08:26:51.000Z</time>
      </trkpt>
      <trkpt lat="47.49035" lon="-0.59286">
        <ele>33</ele>
        <time>2015-09-01T08:26:52.000Z</time>
      </trkpt>
      <trkpt lat="47.49037" lon="-0.59283">
        <ele>33</ele>
        <time>2015-09-01T08:26:53.000Z</time>
      </trkpt>
      <trkpt lat="47.49039" lon="-0.5928">
        <ele>33</ele>
        <time>2015-09-01T08:26:54.000Z</time>
      </trkpt>
      <trkpt lat="47.49042" lon="-0.59278">
        <ele>33</ele>
        <time>2015-09-01T08:26:55.000Z</time>
      </trkpt>
      <trkpt lat="47.49044" lon="-0.59275">
        <ele>34</ele>
        <time>2015-09-01T08:26:56.000Z</time>
      </trkpt>
      <trkpt lat="47.49046" lon="-0.59272">
        <ele>33</ele>
        <time>2015-09-01T08:26:57.000Z</time>
      </trkpt>
      <trkpt lat="47.49046" lon="-0.59268">
        <ele>33</ele>
        <time>2015-09-01T08:26:58.000Z</time>
      </trkpt>
      <trkpt lat="47.49046" lon="-0.59263">
        <ele>33</ele>
        <time>2015-09-01T08:26:59.000Z</time>
      </trkpt>
      <trkpt lat="47.49045" lon="-0.59259">
        <ele>32</ele>
        <time>2015-09-01T08:27:00.000Z</time>
      </trkpt>
      <trkpt lat="47.49044" lon="-0.59255">
        <ele>32</ele>
        <time>2015-09-01T08:27:01.000Z</time>
      </trkpt>
      <trkpt lat="47.49043" lon="-0.59251">
        <ele>33</ele>
        <time>2015-09-01T08:27:02.000Z</time>
      </trkpt>
      <trkpt lat="47.49042" lon="-0.59247">
        <ele>32</ele>
        <time>2015-09-01T08:27:03.000Z</time>
      </trkpt>
      <trkpt lat="47.4904" lon="-0.59243">
        <ele>32</ele>
        <time>2015-09-01T08:27:04.000Z</time>
      </trkpt>
      <trkpt lat="47.49039" lon="-0.59239">
        <ele>33</ele>
        <time>2015-09-01T08:27:05.000Z</time>
      </trkpt>
      <trkpt lat="47.49038" lon="-0.59235">
        <ele>32</ele>
        <time>2015-09-01T08:27:06.000Z</time>
      </trkpt>
      <trkpt lat="47.49037" lon="-0.59231">
        <ele>33</ele>
        <time>2015-09-01T08:27:07.000Z</time>
      </trkpt>
      <trkpt lat="47.49036" lon="-0.59228">
        <ele>33</ele>
        <time>2015-09-01T08:27:08.000Z</time>
      </trkpt>
      <trkpt lat="47.49035" lon="-0.59224">
        <ele>32</ele>
        <time>2015-09-01T08:27:09.000Z</time>
      </trkpt>
      <trkpt lat="47.49034" lon="-0.5922">
        <ele>33</ele>
        <time>2015-09-01T08:27:10.000Z</time>
      </trkpt>
      <trkpt lat="47.49032" lon="-0.59216">
        <ele>32</ele>
        <time>2015-09-01T08:27:11.000Z</time>
      </trkpt>
      <trkpt lat="47.49031" lon="-0.59212">
        <ele>32</ele>
        <time>2015-09-01T08:27:12.000Z</time>
      </trkpt>
      <trkpt lat="47.4903" lon="-0.59209">
        <ele>31</ele>
        <time>2015-09-01T08:27:13.000Z</time>
      </trkpt>
      <trkpt lat="47.49029" lon="-0.59205">
        <ele>32</ele>
        <time>2015-09-01T08:27:14.000Z</time>
      </trkpt>
      <trkpt lat="47.49028" lon="-0.59201">
        <ele>32</ele>
        <time>2015-09-01T08:27:15.000Z</time>
      </trkpt>
      <trkpt lat="47.49027" lon="-0.59197">
        <ele>33</ele>
        <time>2015-09-01T08:27:16.000Z</time>
      </trkpt>
      <trkpt lat="47.49027" lon="-0.59193">
        <ele>34</ele>
        <time>2015-09-01T08:27:17.000Z</time>
      </trkpt>
      <trkpt lat="47.49026" lon="-0.59189">
        <ele>34</ele>
        <time>2015-09-01T08:27:18.000Z</time>
      </trkpt>
      <trkpt lat="47.49026" lon="-0.59185">
        <ele>35</ele>
        <time>2015-09-01T08:27:19.000Z</time>
      </trkpt>
      <trkpt lat="47.49025" lon="-0.59181">
        <ele>35</ele>
        <time>2015-09-01T08:27:20.000Z</time>
      </trkpt>
      <trkpt lat="47.49024" lon="-0.59176">
        <ele>35</ele>
        <time>2015-09-01T08:27:21.000Z</time>
      </trkpt>
      <trkpt lat="47.49024" lon="-0.59172">
        <ele>35</ele>
        <time>2015-09-01T08:27:22.000Z</time>
      </trkpt>
      <trkpt lat="47.49023" lon="-0.59168">
        <ele>35</ele>
        <time>2015-09-01T08:27:23.000Z</time>
      </trkpt>
      <trkpt lat="47.49022" lon="-0.59164">
        <ele>35</ele>
        <time>2015-09-01T08:27:24.000Z</time>
      </trkpt>
      <trkpt lat="47.49021" lon="-0.5916">
        <ele>35</ele>
        <time>2015-09-01T08:27:25.000Z</time>
      </trkpt>
      <trkpt lat="47.49021" lon="-0.59156">
        <ele>35</ele>
        <time>2015-09-01T08:27:26.000Z</time>
      </trkpt>
      <trkpt lat="47.4902" lon="-0.59151">
        <ele>35</ele>
        <time>2015-09-01T08:27:27.000Z</time>
      </trkpt>
      <trkpt lat="47.49019" lon="-0.59147">
        <ele>36</ele>
        <time>2015-09-01T08:27:28.000Z</time>
      </trkpt>
      <trkpt lat="47.49019" lon="-0.59143">
        <ele>36</ele>
        <time>2015-09-01T08:27:29.000Z</time>
      </trkpt>
      <trkpt lat="47.49018" lon="-0.59139">
        <ele>35</ele>
        <time>2015-09-01T08:27:30.000Z</time>
      </trkpt>
      <trkpt lat="47.49017" lon="-0.59135">
        <ele>36</ele>
        <time>2015-09-01T08:27:31.000Z</time>
      </trkpt>
      <trkpt lat="47.49016" lon="-0.5913">
        <ele>36</ele>
        <time>2015-09-01T08:27:32.000Z</time>
      </trkpt>
      <trkpt lat="47.49015" lon="-0.59126">
        <ele>36</ele>
        <time>2015-09-01T08:27:33.000Z</time>
      </trkpt>
      <trkpt lat="47.49014" lon="-0.59122">
        <ele>36</ele>
        <time>2015-09-01T08:27:34.000Z</time>
      </trkpt>
      <trkpt lat="47.49013" lon="-0.59118">
        <ele>36</ele>
        <time>2015-09-01T08:27:35.000Z</time>
      </trkpt>
      <trkpt lat="47.49012" lon="-0.59115">
        <ele>36</ele>
        <time>2015-09-01T08:27:36.000Z</time>
      </trkpt>
      <trkpt lat="47.49011" lon="-0.59111">
        <ele>36</ele>
        <time>2015-09-01T08:27:37.000Z</time>
      </trkpt>
      <trkpt lat="47.4901" lon="-0.59107">
        <ele>36</ele>
        <time>2015-09-01T08:27:38.000Z</time>
      </trkpt>
      <trkpt lat="47.49009" lon="-0.59103">
        <ele>36</ele>
        <time>2015-09-01T08:27:39.000Z</time>
      </trkpt>
      <trkpt lat="47.49008" lon="-0.59098">
        <ele>36</ele>
        <time>2015-09-01T08:27:40.000Z</time>
      </trkpt>
      <trkpt lat="47.49008" lon="-0.59094">
        <ele>36</ele>
        <time>2015-09-01T08:27:41.000Z</time>
      </trkpt>
      <trkpt lat="47.49007" lon="-0.5909">
        <ele>36</ele>
        <time>2015-09-01T08:27:42.000Z</time>
      </trkpt>
      <trkpt lat="47.49007" lon="-0.59086">
        <ele>36</ele>
        <time>2015-09-01T08:27:43.000Z</time>
      </trkpt>
      <trkpt lat="47.49007" lon="-0.59083">
        <ele>36</ele>
        <time>2015-09-01T08:27:44.000Z</time>
      </trkpt>
      <trkpt lat="47.49007" lon="-0.59079">
        <ele>37</ele>
        <time>2015-09-01T08:27:45.000Z</time>
      </trkpt>
      <trkpt lat="47.49008" lon="-0.59077">
        <ele>36</ele>
        <time>2015-09-01T08:27:46.000Z</time>
      </trkpt>
      <trkpt lat="47.49009" lon="-0.59075">
        <ele>35</ele>
        <time>2015-09-01T08:27:47.000Z</time>
      </trkpt>
      <trkpt lat="47.49011" lon="-0.59073">
        <ele>35</ele>
        <time>2015-09-01T08:27:48.000Z</time>
      </trkpt>
      <trkpt lat="47.49013" lon="-0.59072">
        <ele>35</ele>
        <time>2015-09-01T08:27:49.000Z</time>
      </trkpt>
      <trkpt lat="47.49014" lon="-0.5907">
        <ele>35</ele>
        <time>2015-09-01T08:27:50.000Z</time>
      </trkpt>
      <trkpt lat="47.49017" lon="-0.5907">
        <ele>35</ele>
        <time>2015-09-01T08:27:51.000Z</time>
      </trkpt>
      <trkpt lat="47.49019" lon="-0.59069">
        <ele>35</ele>
        <time>2015-09-01T08:27:52.000Z</time>
      </trkpt>
      <trkpt lat="47.49022" lon="-0.59069">
        <ele>35</ele>
        <time>2015-09-01T08:27:53.000Z</time>
      </trkpt>
      <trkpt lat="47.49024" lon="-0.59069">
        <ele>35</ele>
        <time>2015-09-01T08:27:54.000Z</time>
      </trkpt>
      <trkpt lat="47.49027" lon="-0.59069">
        <ele>35</ele>
        <time>2015-09-01T08:27:55.000Z</time>
      </trkpt>
      <trkpt lat="47.4903" lon="-0.5907">
        <ele>35</ele>
        <time>2015-09-01T08:27:56.000Z</time>
      </trkpt>
      <trkpt lat="47.49032" lon="-0.59071">
        <ele>35</ele>
        <time>2015-09-01T08:27:57.000Z</time>
      </trkpt>
      <trkpt lat="47.49036" lon="-0.59072">
        <ele>34</ele>
        <time>2015-09-01T08:27:58.000Z</time>
      </trkpt>
      <trkpt lat="47.49038" lon="-0.59074">
        <ele>34</ele>
        <time>2015-09-01T08:27:59.000Z</time>
      </trkpt>
      <trkpt lat="47.49041" lon="-0.59076">
        <ele>34</ele>
        <time>2015-09-01T08:28:00.000Z</time>
      </trkpt>
      <trkpt lat="47.49044" lon="-0.59078">
        <ele>33</ele>
        <time>2015-09-01T08:28:01.000Z</time>
      </trkpt>
      <trkpt lat="47.49047" lon="-0.59079">
        <ele>33</ele>
        <time>2015-09-01T08:28:02.000Z</time>
      </trkpt>
      <trkpt lat="47.4905" lon="-0.59082">
        <ele>33</ele>
        <time>2015-09-01T08:28:03.000Z</time>
      </trkpt>
      <trkpt lat="47.49053" lon="-0.59084">
        <ele>33</ele>
        <time>2015-09-01T08:28:04.000Z</time>
      </trkpt>
      <trkpt lat="47.49056" lon="-0.59086">
        <ele>33</ele>
        <time>2015-09-01T08:28:05.000Z</time>
      </trkpt>
      <trkpt lat="47.49059" lon="-0.59089">
        <ele>33</ele>
        <time>2015-09-01T08:28:06.000Z</time>
      </trkpt>
      <trkpt lat="47.49061" lon="-0.59092">
        <ele>33</ele>
        <time>2015-09-01T08:28:07.000Z</time>
      </trkpt>
      <trkpt lat="47.49064" lon="-0.59094">
        <ele>33</ele>
        <time>2015-09-01T08:28:08.000Z</time>
      </trkpt>
      <trkpt lat="47.49068" lon="-0.59096">
        <ele>33</ele>
        <time>2015-09-01T08:28:09.000Z</time>
      </trkpt>
      <trkpt lat="47.49071" lon="-0.59098">
        <ele>34</ele>
        <time>2015-09-01T08:28:10.000Z</time>
      </trkpt>
      <trkpt lat="47.49074" lon="-0.591">
        <ele>35</ele>
        <time>2015-09-01T08:28:11.000Z</time>
      </trkpt>
      <trkpt lat="47.49077" lon="-0.59101">
        <ele>35</ele>
        <time>2015-09-01T08:28:12.000Z</time>
      </trkpt>
      <trkpt lat="47.4908" lon="-0.59103">
        <ele>35</ele>
        <time>2015-09-01T08:28:13.000Z</time>
      </trkpt>
      <trkpt lat="47.49083" lon="-0.59104">
        <ele>35</ele>
        <time>2015-09-01T08:28:14.000Z</time>
      </trkpt>
      <trkpt lat="47.49086" lon="-0.59106">
        <ele>35</ele>
        <time>2015-09-01T08:28:15.000Z</time>
      </trkpt>
      <trkpt lat="47.4909" lon="-0.59108">
        <ele>35</ele>
        <time>2015-09-01T08:28:16.000Z</time>
      </trkpt>
      <trkpt lat="47.49093" lon="-0.5911">
        <ele>35</ele>
        <time>2015-09-01T08:28:17.000Z</time>
      </trkpt>
      <trkpt lat="47.49096" lon="-0.59112">
        <ele>35</ele>
        <time>2015-09-01T08:28:18.000Z</time>
      </trkpt>
      <trkpt lat="47.49099" lon="-0.59114">
        <ele>35</ele>
        <time>2015-09-01T08:28:19.000Z</time>
      </trkpt>
      <trkpt lat="47.49102" lon="-0.59116">
        <ele>35</ele>
        <time>2015-09-01T08:28:20.000Z</time>
      </trkpt>
      <trkpt lat="47.49105" lon="-0.59118">
        <ele>35</ele>
        <time>2015-09-01T08:28:21.000Z</time>
      </trkpt>
      <trkpt lat="47.49108" lon="-0.5912">
        <ele>36</ele>
        <time>2015-09-01T08:28:22.000Z</time>
      </trkpt>
      <trkpt lat="47.49111" lon="-0.59122">
        <ele>36</ele>
        <time>2015-09-01T08:28:23.000Z</time>
      </trkpt>
      <trkpt lat="47.49114" lon="-0.59124">
        <ele>36</ele>
        <time>2015-09-01T08:28:24.000Z</time>
      </trkpt>
      <trkpt lat="47.49116" lon="-0.59126">
        <ele>35</ele>
        <time>2015-09-01T08:28:25.000Z</time>
      </trkpt>
      <trkpt lat="47.49119" lon="-0.59128">
        <ele>35</ele>
        <time>2015-09-01T08:28:26.000Z</time>
      </trkpt>
      <trkpt lat="47.49121" lon="-0.59129">
        <ele>35</ele>
        <time>2015-09-01T08:28:27.000Z</time>
      </trkpt>
      <trkpt lat="47.49124" lon="-0.59131">
        <ele>35</ele>
        <time>2015-09-01T08:28:28.000Z</time>
      </trkpt>
      <trkpt lat="47.49126" lon="-0.59132">
        <ele>34</ele>
        <time>2015-09-01T08:28:29.000Z</time>
      </trkpt>
      <trkpt lat="47.49128" lon="-0.59134">
        <ele>34</ele>
        <time>2015-09-01T08:28:30.000Z</time>
      </trkpt>
      <trkpt lat="47.49131" lon="-0.59135">
        <ele>34</ele>
        <time>2015-09-01T08:28:31.000Z</time>
      </trkpt>
      <trkpt lat="47.49133" lon="-0.59136">
        <ele>35</ele>
        <time>2015-09-01T08:28:32.000Z</time>
      </trkpt>
      <trkpt lat="47.49135" lon="-0.59138">
        <ele>35</ele>
        <time>2015-09-01T08:28:33.000Z</time>
      </trkpt>
      <trkpt lat="47.49138" lon="-0.59139">
        <ele>36</ele>
        <time>2015-09-01T08:28:34.000Z</time>
      </trkpt>
      <trkpt lat="47.49141" lon="-0.59141">
        <ele>35</ele>
        <time>2015-09-01T08:28:35.000Z</time>
      </trkpt>
      <trkpt lat="47.49144" lon="-0.59142">
        <ele>35</ele>
        <time>2015-09-01T08:28:36.000Z</time>
      </trkpt>
      <trkpt lat="47.49147" lon="-0.59143">
        <ele>35</ele>
        <time>2015-09-01T08:28:37.000Z</time>
      </trkpt>
      <trkpt lat="47.49149" lon="-0.59145">
        <ele>35</ele>
        <time>2015-09-01T08:28:38.000Z</time>
      </trkpt>
      <trkpt lat="47.49152" lon="-0.59146">
        <ele>35</ele>
        <time>2015-09-01T08:28:39.000Z</time>
      </trkpt>
      <trkpt lat="47.49155" lon="-0.59147">
        <ele>35</ele>
        <time>2015-09-01T08:28:40.000Z</time>
      </trkpt>
      <trkpt lat="47.49158" lon="-0.59149">
        <ele>35</ele>
        <time>2015-09-01T08:28:41.000Z</time>
      </trkpt>
      <trkpt lat="47.4916" lon="-0.5915">
        <ele>34</ele>
        <time>2015-09-01T08:28:42.000Z</time>
      </trkpt>
      <trkpt lat="47.49163" lon="-0.59151">
        <ele>34</ele>
        <time>2015-09-01T08:28:43.000Z</time>
      </trkpt>
      <trkpt lat="47.49166" lon="-0.59152">
        <ele>34</ele>
        <time>2015-09-01T08:28:44.000Z</time>
      </trkpt>
      <trkpt lat="47.49168" lon="-0.59153">
        <ele>34</ele>
        <time>2015-09-01T08:28:45.000Z</time>
      </trkpt>
      <trkpt lat="47.49171" lon="-0.59154">
        <ele>34</ele>
        <time>2015-09-01T08:28:46.000Z</time>
      </trkpt>
      <trkpt lat="47.49175" lon="-0.59155">
        <ele>34</ele>
        <time>2015-09-01T08:28:47.000Z</time>
      </trkpt>
      <trkpt lat="47.49177" lon="-0.59156">
        <ele>33</ele>
        <time>2015-09-01T08:28:48.000Z</time>
      </trkpt>
      <trkpt lat="47.49181" lon="-0.59156">
        <ele>34</ele>
        <time>2015-09-01T08:28:49.000Z</time>
      </trkpt>
      <trkpt lat="47.49184" lon="-0.59156">
        <ele>34</ele>
        <time>2015-09-01T08:28:50.000Z</time>
      </trkpt>
      <trkpt lat="47.49187" lon="-0.59157">
        <ele>35</ele>
        <time>2015-09-01T08:28:51.000Z</time>
      </trkpt>
      <trkpt lat="47.4919" lon="-0.59157">
        <ele>34</ele>
        <time>2015-09-01T08:28:52.000Z</time>
      </trkpt>
      <trkpt lat="47.49192" lon="-0.59157">
        <ele>34</ele>
        <time>2015-09-01T08:28:53.000Z</time>
      </trkpt>
      <trkpt lat="47.49195" lon="-0.59157">
        <ele>34</ele>
        <time>2015-09-01T08:28:54.000Z</time>
      </trkpt>
      <trkpt lat="47.49197" lon="-0.59157">
        <ele>34</ele>
        <time>2015-09-01T08:28:55.000Z</time>
      </trkpt>
      <trkpt lat="47.49201" lon="-0.59158">
        <ele>36</ele>
        <time>2015-09-01T08:28:56.000Z</time>
      </trkpt>
      <trkpt lat="47.49204" lon="-0.59158">
        <ele>35</ele>
        <time>2015-09-01T08:28:57.000Z</time>
      </trkpt>
      <trkpt lat="47.49208" lon="-0.59158">
        <ele>35</ele>
        <time>2015-09-01T08:28:58.000Z</time>
      </trkpt>
      <trkpt lat="47.49211" lon="-0.59158">
        <ele>36</ele>
        <time>2015-09-01T08:28:59.000Z</time>
      </trkpt>
      <trkpt lat="47.49215" lon="-0.59158">
        <ele>35</ele>
        <time>2015-09-01T08:29:00.000Z</time>
      </trkpt>
      <trkpt lat="47.49218" lon="-0.59158">
        <ele>35</ele>
        <time>2015-09-01T08:29:01.000Z</time>
      </trkpt>
      <trkpt lat="47.49222" lon="-0.59158">
        <ele>36</ele>
        <time>2015-09-01T08:29:02.000Z</time>
      </trkpt>
      <trkpt lat="47.49225" lon="-0.59159">
        <ele>36</ele>
        <time>2015-09-01T08:29:03.000Z</time>
      </trkpt>
      <trkpt lat="47.49228" lon="-0.59159">
        <ele>36</ele>
        <time>2015-09-01T08:29:04.000Z</time>
      </trkpt>
      <trkpt lat="47.49231" lon="-0.59161">
        <ele>36</ele>
        <time>2015-09-01T08:29:05.000Z</time>
      </trkpt>
      <trkpt lat="47.49234" lon="-0.59163">
        <ele>36</ele>
        <time>2015-09-01T08:29:06.000Z</time>
      </trkpt>
      <trkpt lat="47.49236" lon="-0.59165">
        <ele>36</ele>
        <time>2015-09-01T08:29:07.000Z</time>
      </trkpt>
      <trkpt lat="47.49239" lon="-0.59167">
        <ele>35</ele>
        <time>2015-09-01T08:29:08.000Z</time>
      </trkpt>
      <trkpt lat="47.49241" lon="-0.59168">
        <ele>36</ele>
        <time>2015-09-01T08:29:09.000Z</time>
      </trkpt>
      <trkpt lat="47.49244" lon="-0.5917">
        <ele>36</ele>
        <time>2015-09-01T08:29:10.000Z</time>
      </trkpt>
      <trkpt lat="47.49247" lon="-0.5917">
        <ele>36</ele>
        <time>2015-09-01T08:29:11.000Z</time>
      </trkpt>
      <trkpt lat="47.4925" lon="-0.59171">
        <ele>35</ele>
        <time>2015-09-01T08:29:12.000Z</time>
      </trkpt>
      <trkpt lat="47.49253" lon="-0.59172">
        <ele>35</ele>
        <time>2015-09-01T08:29:13.000Z</time>
      </trkpt>
      <trkpt lat="47.49255" lon="-0.59173">
        <ele>35</ele>
        <time>2015-09-01T08:29:14.000Z</time>
      </trkpt>
      <trkpt lat="47.49257" lon="-0.59175">
        <ele>36</ele>
        <time>2015-09-01T08:29:15.000Z</time>
      </trkpt>
      <trkpt lat="47.49259" lon="-0.59178">
        <ele>36</ele>
        <time>2015-09-01T08:29:16.000Z</time>
      </trkpt>
      <trkpt lat="47.49261" lon="-0.59181">
        <ele>37</ele>
        <time>2015-09-01T08:29:17.000Z</time>
      </trkpt>
      <trkpt lat="47.49262" lon="-0.59185">
        <ele>37</ele>
        <time>2015-09-01T08:29:18.000Z</time>
      </trkpt>
      <trkpt lat="47.49263" lon="-0.59189">
        <ele>37</ele>
        <time>2015-09-01T08:29:19.000Z</time>
      </trkpt>
      <trkpt lat="47.49264" lon="-0.59193">
        <ele>36</ele>
        <time>2015-09-01T08:29:20.000Z</time>
      </trkpt>
      <trkpt lat="47.49264" lon="-0.59198">
        <ele>36</ele>
        <time>2015-09-01T08:29:21.000Z</time>
      </trkpt>
      <trkpt lat="47.49265" lon="-0.59202">
        <ele>36</ele>
        <time>2015-09-01T08:29:22.000Z</time>
      </trkpt>
      <trkpt lat="47.49266" lon="-0.59206">
        <ele>36</ele>
        <time>2015-09-01T08:29:23.000Z</time>
      </trkpt>
      <trkpt lat="47.49266" lon="-0.5921">
        <ele>36</ele>
        <time>2015-09-01T08:29:24.000Z</time>
      </trkpt>
      <trkpt lat="47.49267" lon="-0.59214">
        <ele>35</ele>
        <time>2015-09-01T08:29:25.000Z</time>
      </trkpt>
      <trkpt lat="47.49268" lon="-0.59218">
        <ele>35</ele>
        <time>2015-09-01T08:29:26.000Z</time>
      </trkpt>
      <trkpt lat="47.49269" lon="-0.59222">
        <ele>35</ele>
        <time>2015-09-01T08:29:27.000Z</time>
      </trkpt>
      <trkpt lat="47.4927" lon="-0.59227">
        <ele>35</ele>
        <time>2015-09-01T08:29:28.000Z</time>
      </trkpt>
      <trkpt lat="47.49271" lon="-0.59231">
        <ele>35</ele>
        <time>2015-09-01T08:29:29.000Z</time>
      </trkpt>
      <trkpt lat="47.49271" lon="-0.59236">
        <ele>34</ele>
        <time>2015-09-01T08:29:30.000Z</time>
      </trkpt>
      <trkpt lat="47.49271" lon="-0.5924">
        <ele>34</ele>
        <time>2015-09-01T08:29:31.000Z</time>
      </trkpt>
      <trkpt lat="47.49271" lon="-0.59245">
        <ele>34</ele>
        <time>2015-09-01T08:29:32.000Z</time>
      </trkpt>
      <trkpt lat="47.49271" lon="-0.59249">
        <ele>34</ele>
        <time>2015-09-01T08:29:33.000Z</time>
      </trkpt>
      <trkpt lat="47.49271" lon="-0.59253">
        <ele>33</ele>
        <time>2015-09-01T08:29:34.000Z</time>
      </trkpt>
      <trkpt lat="47.49271" lon="-0.59258">
        <ele>34</ele>
        <time>2015-09-01T08:29:35.000Z</time>
      </trkpt>
      <trkpt lat="47.49272" lon="-0.59262">
        <ele>34</ele>
        <time>2015-09-01T08:29:36.000Z</time>
      </trkpt>
      <trkpt lat="47.49273" lon="-0.59266">
        <ele>34</ele>
        <time>2015-09-01T08:29:37.000Z</time>
      </trkpt>
      <trkpt lat="47.49273" lon="-0.5927">
        <ele>34</ele>
        <time>2015-09-01T08:29:38.000Z</time>
      </trkpt>
      <trkpt lat="47.49273" lon="-0.59275">
        <ele>34</ele>
        <time>2015-09-01T08:29:39.000Z</time>
      </trkpt>
      <trkpt lat="47.49272" lon="-0.59279">
        <ele>34</ele>
        <time>2015-09-01T08:29:40.000Z</time>
      </trkpt>
      <trkpt lat="47.49273" lon="-0.59283">
        <ele>34</ele>
        <time>2015-09-01T08:29:41.000Z</time>
      </trkpt>
      <trkpt lat="47.49273" lon="-0.59288">
        <ele>34</ele>
        <time>2015-09-01T08:29:42.000Z</time>
      </trkpt>
      <trkpt lat="47.49272" lon="-0.59292">
        <ele>33</ele>
        <time>2015-09-01T08:29:43.000Z</time>
      </trkpt>
      <trkpt lat="47.49272" lon="-0.59297">
        <ele>34</ele>
        <time>2015-09-01T08:29:44.000Z</time>
      </trkpt>
      <trkpt lat="47.49272" lon="-0.59301">
        <ele>34</ele>
        <time>2015-09-01T08:29:45.000Z</time>
      </trkpt>
      <trkpt lat="47.49272" lon="-0.59305">
        <ele>34</ele>
        <time>2015-09-01T08:29:46.000Z</time>
      </trkpt>
      <trkpt lat="47.49273" lon="-0.59309">
        <ele>35</ele>
        <time>2015-09-01T08:29:47.000Z</time>
      </trkpt>
      <trkpt lat="47.49273" lon="-0.59314">
        <ele>35</ele>
        <time>2015-09-01T08:29:48.000Z</time>
      </trkpt>
      <trkpt lat="47.49274" lon="-0.59318">
        <ele>35</ele>
        <time>2015-09-01T08:29:49.000Z</time>
      </trkpt>
      <trkpt lat="47.49274" lon="-0.59322">
        <ele>35</ele>
        <time>2015-09-01T08:29:50.000Z</time>
      </trkpt>
      <trkpt lat="47.49274" lon="-0.59327">
        <ele>34</ele>
        <time>2015-09-01T08:29:51.000Z</time>
      </trkpt>
      <trkpt lat="47.49274" lon="-0.59331">
        <ele>35</ele>
        <time>2015-09-01T08:29:52.000Z</time>
      </trkpt>
      <trkpt lat="47.49273" lon="-0.59335">
        <ele>34</ele>
        <time>2015-09-01T08:29:53.000Z</time>
      </trkpt>
      <trkpt lat="47.49273" lon="-0.59339">
        <ele>34</ele>
        <time>2015-09-01T08:29:54.000Z</time>
      </trkpt>
      <trkpt lat="47.49273" lon="-0.59343">
        <ele>33</ele>
        <time>2015-09-01T08:29:55.000Z</time>
      </trkpt>
      <trkpt lat="47.49273" lon="-0.59346">
        <ele>34</ele>
        <time>2015-09-01T08:29:56.000Z</time>
      </trkpt>
      <trkpt lat="47.49274" lon="-0.5935">
        <ele>33</ele>
        <time>2015-09-01T08:29:57.000Z</time>
      </trkpt>
      <trkpt lat="47.49275" lon="-0.59353">
        <ele>34</ele>
        <time>2015-09-01T08:29:58.000Z</time>
      </trkpt>
      <trkpt lat="47.49276" lon="-0.59356">
        <ele>34</ele>
        <time>2015-09-01T08:29:59.000Z</time>
      </trkpt>
      <trkpt lat="47.49278" lon="-0.59358">
        <ele>35</ele>
        <time>2015-09-01T08:30:00.000Z</time>
      </trkpt>
      <trkpt lat="47.49279" lon="-0.59359">
        <ele>34</ele>
        <time>2015-09-01T08:30:01.000Z</time>
      </trkpt>
      <trkpt lat="47.49281" lon="-0.5936">
        <ele>34</ele>
        <time>2015-09-01T08:30:02.000Z</time>
      </trkpt>
      <trkpt lat="47.49284" lon="-0.59361">
        <ele>34</ele>
        <time>2015-09-01T08:30:03.000Z</time>
      </trkpt>
      <trkpt lat="47.49286" lon="-0.59363">
        <ele>34</ele>
        <time>2015-09-01T08:30:04.000Z</time>
      </trkpt>
      <trkpt lat="47.49287" lon="-0.59365">
        <ele>33</ele>
        <time>2015-09-01T08:30:05.000Z</time>
      </trkpt>
      <trkpt lat="47.49289" lon="-0.59367">
        <ele>33</ele>
        <time>2015-09-01T08:30:06.000Z</time>
      </trkpt>
      <trkpt lat="47.49291" lon="-0.59369">
        <ele>33</ele>
        <time>2015-09-01T08:30:07.000Z</time>
      </trkpt>
      <trkpt lat="47.49293" lon="-0.59372">
        <ele>33</ele>
        <time>2015-09-01T08:30:08.000Z</time>
      </trkpt>
      <trkpt lat="47.49296" lon="-0.59375">
        <ele>34</ele>
        <time>2015-09-01T08:30:09.000Z</time>
      </trkpt>
      <trkpt lat="47.49298" lon="-0.59379">
        <ele>35</ele>
        <time>2015-09-01T08:30:10.000Z</time>
      </trkpt>
      <trkpt lat="47.49301" lon="-0.59383">
        <ele>36</ele>
        <time>2015-09-01T08:30:11.000Z</time>
      </trkpt>
      <trkpt lat="47.49303" lon="-0.59386">
        <ele>36</ele>
        <time>2015-09-01T08:30:12.000Z</time>
      </trkpt>
      <trkpt lat="47.49305" lon="-0.5939">
        <ele>35</ele>
        <time>2015-09-01T08:30:13.000Z</time>
      </trkpt>
      <trkpt lat="47.49307" lon="-0.59393">
        <ele>36</ele>
        <time>2015-09-01T08:30:14.000Z</time>
      </trkpt>
      <trkpt lat="47.49309" lon="-0.59396">
        <ele>36</ele>
        <time>2015-09-01T08:30:15.000Z</time>
      </trkpt>
      <trkpt lat="47.49312" lon="-0.59399">
        <ele>36</ele>
        <time>2015-09-01T08:30:16.000Z</time>
      </trkpt>
      <trkpt lat="47.49314" lon="-0.59401">
        <ele>36</ele>
        <time>2015-09-01T08:30:17.000Z</time>
      </trkpt>
      <trkpt lat="47.49316" lon="-0.59403">
        <ele>36</ele>
        <time>2015-09-01T08:30:18.000Z</time>
      </trkpt>
      <trkpt lat="47.49319" lon="-0.59404">
        <ele>36</ele>
        <time>2015-09-01T08:30:19.000Z</time>
      </trkpt>
      <trkpt lat="47.49321" lon="-0.59406">
        <ele>36</ele>
        <time>2015-09-01T08:30:20.000Z</time>
      </trkpt>
      <trkpt lat="47.49323" lon="-0.59407">
        <ele>37</ele>
        <time>2015-09-01T08:30:21.000Z</time>
      </trkpt>
      <trkpt lat="47.49326" lon="-0.59408">
        <ele>37</ele>
        <time>2015-09-01T08:30:22.000Z</time>
      </trkpt>
      <trkpt lat="47.49329" lon="-0.59409">
        <ele>37</ele>
        <time>2015-09-01T08:30:23.000Z</time>
      </trkpt>
      <trkpt lat="47.49331" lon="-0.5941">
        <ele>37</ele>
        <time>2015-09-01T08:30:24.000Z</time>
      </trkpt>
      <trkpt lat="47.49334" lon="-0.59411">
        <ele>36</ele>
        <time>2015-09-01T08:30:25.000Z</time>
      </trkpt>
      <trkpt lat="47.49336" lon="-0.59412">
        <ele>36</ele>
        <time>2015-09-01T08:30:26.000Z</time>
      </trkpt>
      <trkpt lat="47.49338" lon="-0.59413">
        <ele>36</ele>
        <time>2015-09-01T08:30:27.000Z</time>
      </trkpt>
      <trkpt lat="47.4934" lon="-0.59414">
        <ele>36</ele>
        <time>2015-09-01T08:30:28.000Z</time>
      </trkpt>
      <trkpt lat="47.49342" lon="-0.59415">
        <ele>36</ele>
        <time>2015-09-01T08:30:29.000Z</time>
      </trkpt>
      <trkpt lat="47.49345" lon="-0.59416">
        <ele>36</ele>
        <time>2015-09-01T08:30:30.000Z</time>
      </trkpt>
      <trkpt lat="47.49347" lon="-0.59417">
        <ele>36</ele>
        <time>2015-09-01T08:30:31.000Z</time>
      </trkpt>
      <trkpt lat="47.4935" lon="-0.59417">
        <ele>36</ele>
        <time>2015-09-01T08:30:32.000Z</time>
      </trkpt>
      <trkpt lat="47.49352" lon="-0.59418">
        <ele>36</ele>
        <time>2015-09-01T08:30:33.000Z</time>
      </trkpt>
      <trkpt lat="47.49355" lon="-0.59419">
        <ele>36</ele>
        <time>2015-09-01T08:30:34.000Z</time>
      </trkpt>
      <trkpt lat="47.49358" lon="-0.5942">
        <ele>38</ele>
        <time>2015-09-01T08:30:35.000Z</time>
      </trkpt>
      <trkpt lat="47.4936" lon="-0.59422">
        <ele>38</ele>
        <time>2015-09-01T08:30:36.000Z</time>
      </trkpt>
      <trkpt lat="47.49363" lon="-0.59423">
        <ele>38</ele>
        <time>2015-09-01T08:30:37.000Z</time>
      </trkpt>
      <trkpt lat="47.49366" lon="-0.59424">
        <ele>38</ele>
        <time>2015-09-01T08:30:38.000Z</time>
      </trkpt>
      <trkpt lat="47.49369" lon="-0.59425">
        <ele>39</ele>
        <time>2015-09-01T08:30:39.000Z</time>
      </trkpt>
      <trkpt lat="47.49372" lon="-0.59427">
        <ele>38</ele>
        <time>2015-09-01T08:30:40.000Z</time>
      </trkpt>
      <trkpt lat="47.49375" lon="-0.59429">
        <ele>38</ele>
        <time>2015-09-01T08:30:41.000Z</time>
      </trkpt>
      <trkpt lat="47.49377" lon="-0.59431">
        <ele>38</ele>
        <time>2015-09-01T08:30:42.000Z</time>
      </trkpt>
      <trkpt lat="47.49379" lon="-0.59434">
        <ele>38</ele>
        <time>2015-09-01T08:30:43.000Z</time>
      </trkpt>
      <trkpt lat="47.49381" lon="-0.59437">
        <ele>38</ele>
        <time>2015-09-01T08:30:44.000Z</time>
      </trkpt>
      <trkpt lat="47.49384" lon="-0.5944">
        <ele>38</ele>
        <time>2015-09-01T08:30:45.000Z</time>
      </trkpt>
      <trkpt lat="47.49386" lon="-0.59443">
        <ele>38</ele>
        <time>2015-09-01T08:30:46.000Z</time>
      </trkpt>
      <trkpt lat="47.49388" lon="-0.59447">
        <ele>38</ele>
        <time>2015-09-01T08:30:47.000Z</time>
      </trkpt>
      <trkpt lat="47.4939" lon="-0.5945">
        <ele>38</ele>
        <time>2015-09-01T08:30:48.000Z</time>
      </trkpt>
      <trkpt lat="47.49392" lon="-0.59453">
        <ele>38</ele>
        <time>2015-09-01T08:30:49.000Z</time>
      </trkpt>
      <trkpt lat="47.49394" lon="-0.59456">
        <ele>38</ele>
        <time>2015-09-01T08:30:50.000Z</time>
      </trkpt>
      <trkpt lat="47.49397" lon="-0.59458">
        <ele>38</ele>
        <time>2015-09-01T08:30:51.000Z</time>
      </trkpt>
      <trkpt lat="47.49398" lon="-0.5946">
        <ele>37</ele>
        <time>2015-09-01T08:30:52.000Z</time>
      </trkpt>
      <trkpt lat="47.494" lon="-0.59461">
        <ele>36</ele>
        <time>2015-09-01T08:30:53.000Z</time>
      </trkpt>
      <trkpt lat="47.49402" lon="-0.59461">
        <ele>35</ele>
        <time>2015-09-01T08:30:54.000Z</time>
      </trkpt>
      <trkpt lat="47.49404" lon="-0.59461">
        <ele>36</ele>
        <time>2015-09-01T08:30:55.000Z</time>
      </trkpt>
      <trkpt lat="47.49406" lon="-0.59462">
        <ele>37</ele>
        <time>2015-09-01T08:30:56.000Z</time>
      </trkpt>
      <trkpt lat="47.49409" lon="-0.59463">
        <ele>38</ele>
        <time>2015-09-01T08:30:57.000Z</time>
      </trkpt>
      <trkpt lat="47.49411" lon="-0.59465">
        <ele>37</ele>
        <time>2015-09-01T08:30:58.000Z</time>
      </trkpt>
      <trkpt lat="47.49413" lon="-0.59467">
        <ele>37</ele>
        <time>2015-09-01T08:30:59.000Z</time>
      </trkpt>
      <trkpt lat="47.49415" lon="-0.5947">
        <ele>37</ele>
        <time>2015-09-01T08:31:00.000Z</time>
      </trkpt>
      <trkpt lat="47.49417" lon="-0.59472">
        <ele>36</ele>
        <time>2015-09-01T08:31:01.000Z</time>
      </trkpt>
      <trkpt lat="47.49419" lon="-0.59475">
        <ele>37</ele>
        <time>2015-09-01T08:31:02.000Z</time>
      </trkpt>
      <trkpt lat="47.49422" lon="-0.59478">
        <ele>37</ele>
        <time>2015-09-01T08:31:03.000Z</time>
      </trkpt>
      <trkpt lat="47.49424" lon="-0.59482">
        <ele>37</ele>
        <time>2015-09-01T08:31:04.000Z</time>
      </trkpt>
      <trkpt lat="47.49426" lon="-0.59485">
        <ele>37</ele>
        <time>2015-09-01T08:31:05.000Z</time>
      </trkpt>
      <trkpt lat="47.49427" lon="-0.59488">
        <ele>36</ele>
        <time>2015-09-01T08:31:06.000Z</time>
      </trkpt>
      <trkpt lat="47.49428" lon="-0.59492">
        <ele>36</ele>
        <time>2015-09-01T08:31:07.000Z</time>
      </trkpt>
      <trkpt lat="47.49429" lon="-0.59497">
        <ele>37</ele>
        <time>2015-09-01T08:31:08.000Z</time>
      </trkpt>
      <trkpt lat="47.4943" lon="-0.59501">
        <ele>36</ele>
        <time>2015-09-01T08:31:09.000Z</time>
      </trkpt>
      <trkpt lat="47.49431" lon="-0.59505">
        <ele>36</ele>
        <time>2015-09-01T08:31:10.000Z</time>
      </trkpt>
      <trkpt lat="47.49431" lon="-0.5951">
        <ele>36</ele>
        <time>2015-09-01T08:31:11.000Z</time>
      </trkpt>
      <trkpt lat="47.49432" lon="-0.59514">
        <ele>36</ele>
        <time>2015-09-01T08:31:12.000Z</time>
      </trkpt>
      <trkpt lat="47.49432" lon="-0.59518">
        <ele>36</ele>
        <time>2015-09-01T08:31:13.000Z</time>
      </trkpt>
      <trkpt lat="47.49433" lon="-0.59523">
        <ele>36</ele>
        <time>2015-09-01T08:31:14.000Z</time>
      </trkpt>
      <trkpt lat="47.49434" lon="-0.59527">
        <ele>36</ele>
        <time>2015-09-01T08:31:15.000Z</time>
      </trkpt>
      <trkpt lat="47.49434" lon="-0.59531">
        <ele>36</ele>
        <time>2015-09-01T08:31:16.000Z</time>
      </trkpt>
      <trkpt lat="47.49435" lon="-0.59535">
        <ele>35</ele>
        <time>2015-09-01T08:31:17.000Z</time>
      </trkpt>
      <trkpt lat="47.49436" lon="-0.59539">
        <ele>36</ele>
        <time>2015-09-01T08:31:18.000Z</time>
      </trkpt>
      <trkpt lat="47.49438" lon="-0.59542">
        <ele>36</ele>
        <time>2015-09-01T08:31:19.000Z</time>
      </trkpt>
      <trkpt lat="47.4944" lon="-0.59546">
        <ele>36</ele>
        <time>2015-09-01T08:31:20.000Z</time>
      </trkpt>
      <trkpt lat="47.49441" lon="-0.5955">
        <ele>36</ele>
        <time>2015-09-01T08:31:21.000Z</time>
      </trkpt>
      <trkpt lat="47.49443" lon="-0.59554">
        <ele>36</ele>
        <time>2015-09-01T08:31:22.000Z</time>
      </trkpt>
      <trkpt lat="47.49444" lon="-0.59558">
        <ele>36</ele>
        <time>2015-09-01T08:31:23.000Z</time>
      </trkpt>
      <trkpt lat="47.49446" lon="-0.59562">
        <ele>36</ele>
        <time>2015-09-01T08:31:24.000Z</time>
      </trkpt>
      <trkpt lat="47.49447" lon="-0.59566">
        <ele>36</ele>
        <time>2015-09-01T08:31:25.000Z</time>
      </trkpt>
      <trkpt lat="47.49448" lon="-0.59569">
        <ele>36</ele>
        <time>2015-09-01T08:31:26.000Z</time>
      </trkpt>
      <trkpt lat="47.49448" lon="-0.59573">
        <ele>35</ele>
        <time>2015-09-01T08:31:27.000Z</time>
      </trkpt>
      <trkpt lat="47.49449" lon="-0.59577">
        <ele>36</ele>
        <time>2015-09-01T08:31:28.000Z</time>
      </trkpt>
      <trkpt lat="47.49449" lon="-0.59582">
        <ele>35</ele>
        <time>2015-09-01T08:31:29.000Z</time>
      </trkpt>
      <trkpt lat="47.4945" lon="-0.59586">
        <ele>35</ele>
        <time>2015-09-01T08:31:30.000Z</time>
      </trkpt>
      <trkpt lat="47.49451" lon="-0.5959">
        <ele>35</ele>
        <time>2015-09-01T08:31:31.000Z</time>
      </trkpt>
      <trkpt lat="47.49452" lon="-0.59594">
        <ele>35</ele>
        <time>2015-09-01T08:31:32.000Z</time>
      </trkpt>
      <trkpt lat="47.49453" lon="-0.59598">
        <ele>35</ele>
        <time>2015-09-01T08:31:33.000Z</time>
      </trkpt>
      <trkpt lat="47.49454" lon="-0.59602">
        <ele>35</ele>
        <time>2015-09-01T08:31:34.000Z</time>
      </trkpt>
      <trkpt lat="47.49454" lon="-0.59606">
        <ele>34</ele>
        <time>2015-09-01T08:31:35.000Z</time>
      </trkpt>
      <trkpt lat="47.49455" lon="-0.59609">
        <ele>34</ele>
        <time>2015-09-01T08:31:36.000Z</time>
      </trkpt>
      <trkpt lat="47.49456" lon="-0.59613">
        <ele>33</ele>
        <time>2015-09-01T08:31:37.000Z</time>
      </trkpt>
      <trkpt lat="47.49458" lon="-0.59616">
        <ele>32</ele>
        <time>2015-09-01T08:31:38.000Z</time>
      </trkpt>
      <trkpt lat="47.49458" lon="-0.59619">
        <ele>32</ele>
        <time>2015-09-01T08:31:39.000Z</time>
      </trkpt>
      <trkpt lat="47.49459" lon="-0.59623">
        <ele>31</ele>
        <time>2015-09-01T08:31:40.000Z</time>
      </trkpt>
      <trkpt lat="47.4946" lon="-0.59627">
        <ele>31</ele>
        <time>2015-09-01T08:31:41.000Z</time>
      </trkpt>
      <trkpt lat="47.49462" lon="-0.59631">
        <ele>32</ele>
        <time>2015-09-01T08:31:42.000Z</time>
      </trkpt>
      <trkpt lat="47.49463" lon="-0.59635">
        <ele>33</ele>
        <time>2015-09-01T08:31:43.000Z</time>
      </trkpt>
      <trkpt lat="47.49464" lon="-0.59639">
        <ele>33</ele>
        <time>2015-09-01T08:31:44.000Z</time>
      </trkpt>
      <trkpt lat="47.49466" lon="-0.59643">
        <ele>33</ele>
        <time>2015-09-01T08:31:45.000Z</time>
      </trkpt>
      <trkpt lat="47.49467" lon="-0.59647">
        <ele>34</ele>
        <time>2015-09-01T08:31:46.000Z</time>
      </trkpt>
      <trkpt lat="47.49468" lon="-0.59652">
        <ele>34</ele>
        <time>2015-09-01T08:31:47.000Z</time>
      </trkpt>
      <trkpt lat="47.49468" lon="-0.59656">
        <ele>34</ele>
        <time>2015-09-01T08:31:48.000Z</time>
      </trkpt>
      <trkpt lat="47.49469" lon="-0.5966">
        <ele>34</ele>
        <time>2015-09-01T08:31:49.000Z</time>
      </trkpt>
      <trkpt lat="47.4947" lon="-0.59664">
        <ele>35</ele>
        <time>2015-09-01T08:31:50.000Z</time>
      </trkpt>
      <trkpt lat="47.4947" lon="-0.59669">
        <ele>35</ele>
        <time>2015-09-01T08:31:51.000Z</time>
      </trkpt>
      <trkpt lat="47.49471" lon="-0.59673">
        <ele>34</ele>
        <time>2015-09-01T08:31:52.000Z</time>
      </trkpt>
      <trkpt lat="47.49472" lon="-0.59677">
        <ele>35</ele>
        <time>2015-09-01T08:31:53.000Z</time>
      </trkpt>
      <trkpt lat="47.49473" lon="-0.59682">
        <ele>36</ele>
        <time>2015-09-01T08:31:54.000Z</time>
      </trkpt>
      <trkpt lat="47.49474" lon="-0.59686">
        <ele>36</ele>
        <time>2015-09-01T08:31:55.000Z</time>
      </trkpt>
      <trkpt lat="47.49474" lon="-0.59691">
        <ele>37</ele>
        <time>2015-09-01T08:31:56.000Z</time>
      </trkpt>
      <trkpt lat="47.49475" lon="-0.59695">
        <ele>37</ele>
        <time>2015-09-01T08:31:57.000Z</time>
      </trkpt>
      <trkpt lat="47.49476" lon="-0.597">
        <ele>37</ele>
        <time>2015-09-01T08:31:58.000Z</time>
      </trkpt>
      <trkpt lat="47.49477" lon="-0.59704">
        <ele>37</ele>
        <time>2015-09-01T08:31:59.000Z</time>
      </trkpt>
      <trkpt lat="47.49477" lon="-0.59708">
        <ele>37</ele>
        <time>2015-09-01T08:32:00.000Z</time>
      </trkpt>
      <trkpt lat="47.49478" lon="-0.59712">
        <ele>37</ele>
        <time>2015-09-01T08:32:01.000Z</time>
      </trkpt>
      <trkpt lat="47.49479" lon="-0.59716">
        <ele>37</ele>
        <time>2015-09-01T08:32:02.000Z</time>
      </trkpt>
      <trkpt lat="47.4948" lon="-0.59721">
        <ele>37</ele>
        <time>2015-09-01T08:32:03.000Z</time>
      </trkpt>
      <trkpt lat="47.49481" lon="-0.59725">
        <ele>36</ele>
        <time>2015-09-01T08:32:04.000Z</time>
      </trkpt>
      <trkpt lat="47.49481" lon="-0.59729">
        <ele>35</ele>
        <time>2015-09-01T08:32:05.000Z</time>
      </trkpt>
      <trkpt lat="47.49481" lon="-0.59733">
        <ele>35</ele>
        <time>2015-09-01T08:32:06.000Z</time>
      </trkpt>
      <trkpt lat="47.49482" lon="-0.59737">
        <ele>35</ele>
        <time>2015-09-01T08:32:07.000Z</time>
      </trkpt>
      <trkpt lat="47.49483" lon="-0.59741">
        <ele>35</ele>
        <time>2015-09-01T08:32:08.000Z</time>
      </trkpt>
      <trkpt lat="47.49484" lon="-0.59746">
        <ele>35</ele>
        <time>2015-09-01T08:32:09.000Z</time>
      </trkpt>
      <trkpt lat="47.49484" lon="-0.5975">
        <ele>36</ele>
        <time>2015-09-01T08:32:10.000Z</time>
      </trkpt>
      <trkpt lat="47.49485" lon="-0.59754">
        <ele>36</ele>
        <time>2015-09-01T08:32:11.000Z</time>
      </trkpt>
      <trkpt lat="47.49485" lon="-0.59758">
        <ele>36</ele>
        <time>2015-09-01T08:32:12.000Z</time>
      </trkpt>
      <trkpt lat="47.49485" lon="-0.59762">
        <ele>35</ele>
        <time>2015-09-01T08:32:13.000Z</time>
      </trkpt>
      <trkpt lat="47.49485" lon="-0.59767">
        <ele>36</ele>
        <time>2015-09-01T08:32:14.000Z</time>
      </trkpt>
      <trkpt lat="47.49485" lon="-0.59771">
        <ele>36</ele>
        <time>2015-09-01T08:32:15.000Z</time>
      </trkpt>
      <trkpt lat="47.49485" lon="-0.59775">
        <ele>36</ele>
        <time>2015-09-01T08:32:16.000Z</time>
      </trkpt>
      <trkpt lat="47.49485" lon="-0.59779">
        <ele>36</ele>
        <time>2015-09-01T08:32:17.000Z</time>
      </trkpt>
      <trkpt lat="47.49484" lon="-0.59782">
        <ele>37</ele>
        <time>2015-09-01T08:32:18.000Z</time>
      </trkpt>
      <trkpt lat="47.49482" lon="-0.59787">
        <ele>36</ele>
        <time>2015-09-01T08:32:19.000Z</time>
      </trkpt>
      <trkpt lat="47.4948" lon="-0.59791">
        <ele>36</ele>
        <time>2015-09-01T08:32:20.000Z</time>
      </trkpt>
      <trkpt lat="47.49477" lon="-0.59795">
        <ele>36</ele>
        <time>2015-09-01T08:32:21.000Z</time>
      </trkpt>
      <trkpt lat="47.49475" lon="-0.59799">
        <ele>36</ele>
        <time>2015-09-01T08:32:22.000Z</time>
      </trkpt>
      <trkpt lat="47.49474" lon="-0.59803">
        <ele>36</ele>
        <time>2015-09-01T08:32:23.000Z</time>
      </trkpt>
      <trkpt lat="47.49472" lon="-0.59806">
        <ele>35</ele>
        <time>2015-09-01T08:32:24.000Z</time>
      </trkpt>
      <trkpt lat="47.49469" lon="-0.5981">
        <ele>35</ele>
        <time>2015-09-01T08:32:25.000Z</time>
      </trkpt>
      <trkpt lat="47.49468" lon="-0.59814">
        <ele>36</ele>
        <time>2015-09-01T08:32:26.000Z</time>
      </trkpt>
      <trkpt lat="47.49467" lon="-0.59818">
        <ele>36</ele>
        <time>2015-09-01T08:32:27.000Z</time>
      </trkpt>
      <trkpt lat="47.49465" lon="-0.59822">
        <ele>35</ele>
        <time>2015-09-01T08:32:28.000Z</time>
      </trkpt>
      <trkpt lat="47.49464" lon="-0.59826">
        <ele>35</ele>
        <time>2015-09-01T08:32:29.000Z</time>
      </trkpt>
      <trkpt lat="47.49462" lon="-0.59829">
        <ele>35</ele>
        <time>2015-09-01T08:32:30.000Z</time>
      </trkpt>
      <trkpt lat="47.4946" lon="-0.59833">
        <ele>35</ele>
        <time>2015-09-01T08:32:31.000Z</time>
      </trkpt>
      <trkpt lat="47.49459" lon="-0.59838">
        <ele>35</ele>
        <time>2015-09-01T08:32:32.000Z</time>
      </trkpt>
      <trkpt lat="47.49457" lon="-0.59842">
        <ele>35</ele>
        <time>2015-09-01T08:32:33.000Z</time>
      </trkpt>
      <trkpt lat="47.49456" lon="-0.59846">
        <ele>35</ele>
        <time>2015-09-01T08:32:34.000Z</time>
      </trkpt>
      <trkpt lat="47.49454" lon="-0.5985">
        <ele>34</ele>
        <time>2015-09-01T08:32:35.000Z</time>
      </trkpt>
      <trkpt lat="47.49453" lon="-0.59854">
        <ele>34</ele>
        <time>2015-09-01T08:32:36.000Z</time>
      </trkpt>
      <trkpt lat="47.49452" lon="-0.59859">
        <ele>34</ele>
        <time>2015-09-01T08:32:37.000Z</time>
      </trkpt>
      <trkpt lat="47.49451" lon="-0.59863">
        <ele>34</ele>
        <time>2015-09-01T08:32:38.000Z</time>
      </trkpt>
      <trkpt lat="47.4945" lon="-0.59866">
        <ele>33</ele>
        <time>2015-09-01T08:32:39.000Z</time>
      </trkpt>
      <trkpt lat="47.49449" lon="-0.5987">
        <ele>33</ele>
        <time>2015-09-01T08:32:40.000Z</time>
      </trkpt>
      <trkpt lat="47.49449" lon="-0.59874">
        <ele>33</ele>
        <time>2015-09-01T08:32:41.000Z</time>
      </trkpt>
      <trkpt lat="47.49448" lon="-0.59877">
        <ele>33</ele>
        <time>2015-09-01T08:32:42.000Z</time>
      </trkpt>
      <trkpt lat="47.49447" lon="-0.59881">
        <ele>32</ele>
        <time>2015-09-01T08:32:43.000Z</time>
      </trkpt>
      <trkpt lat="47.49445" lon="-0.59885">
        <ele>32</ele>
        <time>2015-09-01T08:32:44.000Z</time>
      </trkpt>
      <trkpt lat="47.49443" lon="-0.59888">
        <ele>31</ele>
        <time>2015-09-01T08:32:45.000Z</time>
      </trkpt>
      <trkpt lat="47.49441" lon="-0.59892">
        <ele>31</ele>
        <time>2015-09-01T08:32:46.000Z</time>
      </trkpt>
      <trkpt lat="47.49439" lon="-0.59896">
        <ele>31</ele>
        <time>2015-09-01T08:32:47.000Z</time>
      </trkpt>
      <trkpt lat="47.49437" lon="-0.599">
        <ele>30</ele>
        <time>2015-09-01T08:32:48.000Z</time>
      </trkpt>
      <trkpt lat="47.49435" lon="-0.59903">
        <ele>31</ele>
        <time>2015-09-01T08:32:49.000Z</time>
      </trkpt>
      <trkpt lat="47.49433" lon="-0.59906">
        <ele>31</ele>
        <time>2015-09-01T08:32:50.000Z</time>
      </trkpt>
      <trkpt lat="47.49431" lon="-0.59909">
        <ele>31</ele>
        <time>2015-09-01T08:32:51.000Z</time>
      </trkpt>
      <trkpt lat="47.49429" lon="-0.59913">
        <ele>31</ele>
        <time>2015-09-01T08:32:52.000Z</time>
      </trkpt>
      <trkpt lat="47.49428" lon="-0.59916">
        <ele>31</ele>
        <time>2015-09-01T08:32:53.000Z</time>
      </trkpt>
      <trkpt lat="47.49426" lon="-0.59919">
        <ele>31</ele>
        <time>2015-09-01T08:32:54.000Z</time>
      </trkpt>
      <trkpt lat="47.49424" lon="-0.59923">
        <ele>31</ele>
        <time>2015-09-01T08:32:55.000Z</time>
      </trkpt>
      <trkpt lat="47.49422" lon="-0.59927">
        <ele>30</ele>
        <time>2015-09-01T08:32:56.000Z</time>
      </trkpt>
      <trkpt lat="47.49421" lon="-0.59931">
        <ele>29</ele>
        <time>2015-09-01T08:32:57.000Z</time>
      </trkpt>
      <trkpt lat="47.4942" lon="-0.59935">
        <ele>28</ele>
        <time>2015-09-01T08:32:58.000Z</time>
      </trkpt>
      <trkpt lat="47.49419" lon="-0.59939">
        <ele>28</ele>
        <time>2015-09-01T08:32:59.000Z</time>
      </trkpt>
      <trkpt lat="47.49419" lon="-0.59943">
        <ele>28</ele>
        <time>2015-09-01T08:33:00.000Z</time>
      </trkpt>
      <trkpt lat="47.49418" lon="-0.59947">
        <ele>28</ele>
        <time>2015-09-01T08:33:01.000Z</time>
      </trkpt>
      <trkpt lat="47.49418" lon="-0.59951">
        <ele>27</ele>
        <time>2015-09-01T08:33:02.000Z</time>
      </trkpt>
      <trkpt lat="47.49417" lon="-0.59955">
        <ele>27</ele>
        <time>2015-09-01T08:33:03.000Z</time>
      </trkpt>
      <trkpt lat="47.49417" lon="-0.59959">
        <ele>27</ele>
        <time>2015-09-01T08:33:04.000Z</time>
      </trkpt>
      <trkpt lat="47.49417" lon="-0.59963">
        <ele>27</ele>
        <time>2015-09-01T08:33:05.000Z</time>
      </trkpt>
      <trkpt lat="47.49417" lon="-0.59967">
        <ele>26</ele>
        <time>2015-09-01T08:33:06.000Z</time>
      </trkpt>
      <trkpt lat="47.49416" lon="-0.59971">
        <ele>26</ele>
        <time>2015-09-01T08:33:07.000Z</time>
      </trkpt>
      <trkpt lat="47.49416" lon="-0.59975">
        <ele>26</ele>
        <time>2015-09-01T08:33:08.000Z</time>
      </trkpt>
      <trkpt lat="47.49416" lon="-0.59979">
        <ele>25</ele>
        <time>2015-09-01T08:33:09.000Z</time>
      </trkpt>
      <trkpt lat="47.49416" lon="-0.59984">
        <ele>25</ele>
        <time>2015-09-01T08:33:10.000Z</time>
      </trkpt>
      <trkpt lat="47.49417" lon="-0.59987">
        <ele>26</ele>
        <time>2015-09-01T08:33:11.000Z</time>
      </trkpt>
      <trkpt lat="47.49418" lon="-0.59992">
        <ele>26</ele>
        <time>2015-09-01T08:33:12.000Z</time>
      </trkpt>
      <trkpt lat="47.49418" lon="-0.59996">
        <ele>26</ele>
        <time>2015-09-01T08:33:13.000Z</time>
      </trkpt>
      <trkpt lat="47.49419" lon="-0.6">
        <ele>26</ele>
        <time>2015-09-01T08:33:14.000Z</time>
      </trkpt>
      <trkpt lat="47.4942" lon="-0.60004">
        <ele>26</ele>
        <time>2015-09-01T08:33:15.000Z</time>
      </trkpt>
      <trkpt lat="47.49421" lon="-0.60008">
        <ele>26</ele>
        <time>2015-09-01T08:33:16.000Z</time>
      </trkpt>
      <trkpt lat="47.49422" lon="-0.60013">
        <ele>26</ele>
        <time>2015-09-01T08:33:17.000Z</time>
      </trkpt>
      <trkpt lat="47.49423" lon="-0.60017">
        <ele>26</ele>
        <time>2015-09-01T08:33:18.000Z</time>
      </trkpt>
      <trkpt lat="47.49424" lon="-0.60022">
        <ele>26</ele>
        <time>2015-09-01T08:33:19.000Z</time>
      </trkpt>
      <trkpt lat="47.49425" lon="-0.60026">
        <ele>26</ele>
        <time>2015-09-01T08:33:20.000Z</time>
      </trkpt>
      <trkpt lat="47.49426" lon="-0.6003">
        <ele>26</ele>
        <time>2015-09-01T08:33:21.000Z</time>
      </trkpt>
      <trkpt lat="47.49428" lon="-0.60034">
        <ele>26</ele>
        <time>2015-09-01T08:33:22.000Z</time>
      </trkpt>
      <trkpt lat="47.4943" lon="-0.60037">
        <ele>26</ele>
        <time>2015-09-01T08:33:23.000Z</time>
      </trkpt>
      <trkpt lat="47.49433" lon="-0.60041">
        <ele>26</ele>
        <time>2015-09-01T08:33:24.000Z</time>
      </trkpt>
      <trkpt lat="47.49434" lon="-0.60045">
        <ele>26</ele>
        <time>2015-09-01T08:33:25.000Z</time>
      </trkpt>
      <trkpt lat="47.49436" lon="-0.60049">
        <ele>27</ele>
        <time>2015-09-01T08:33:26.000Z</time>
      </trkpt>
      <trkpt lat="47.49437" lon="-0.60053">
        <ele>28</ele>
        <time>2015-09-01T08:33:27.000Z</time>
      </trkpt>
      <trkpt lat="47.49439" lon="-0.60058">
        <ele>30</ele>
        <time>2015-09-01T08:33:28.000Z</time>
      </trkpt>
      <trkpt lat="47.49441" lon="-0.60062">
        <ele>30</ele>
        <time>2015-09-01T08:33:29.000Z</time>
      </trkpt>
      <trkpt lat="47.49443" lon="-0.60065">
        <ele>29</ele>
        <time>2015-09-01T08:33:30.000Z</time>
      </trkpt>
      <trkpt lat="47.49445" lon="-0.60069">
        <ele>30</ele>
        <time>2015-09-01T08:33:31.000Z</time>
      </trkpt>
      <trkpt lat="47.49448" lon="-0.60072">
        <ele>30</ele>
        <time>2015-09-01T08:33:32.000Z</time>
      </trkpt>
      <trkpt lat="47.4945" lon="-0.60076">
        <ele>30</ele>
        <time>2015-09-01T08:33:33.000Z</time>
      </trkpt>
      <trkpt lat="47.49451" lon="-0.6008">
        <ele>29</ele>
        <time>2015-09-01T08:33:34.000Z</time>
      </trkpt>
      <trkpt lat="47.49451" lon="-0.60083">
        <ele>30</ele>
        <time>2015-09-01T08:33:35.000Z</time>
      </trkpt>
      <trkpt lat="47.49452" lon="-0.60087">
        <ele>30</ele>
        <time>2015-09-01T08:33:36.000Z</time>
      </trkpt>
      <trkpt lat="47.49453" lon="-0.60091">
        <ele>30</ele>
        <time>2015-09-01T08:33:37.000Z</time>
      </trkpt>
      <trkpt lat="47.49455" lon="-0.60094">
        <ele>29</ele>
        <time>2015-09-01T08:33:38.000Z</time>
      </trkpt>
      <trkpt lat="47.49457" lon="-0.60098">
        <ele>28</ele>
        <time>2015-09-01T08:33:39.000Z</time>
      </trkpt>
      <trkpt lat="47.49459" lon="-0.60101">
        <ele>28</ele>
        <time>2015-09-01T08:33:40.000Z</time>
      </trkpt>
      <trkpt lat="47.4946" lon="-0.60106">
        <ele>29</ele>
        <time>2015-09-01T08:33:41.000Z</time>
      </trkpt>
      <trkpt lat="47.4946" lon="-0.6011">
        <ele>29</ele>
        <time>2015-09-01T08:33:42.000Z</time>
      </trkpt>
      <trkpt lat="47.4946" lon="-0.60115">
        <ele>28</ele>
        <time>2015-09-01T08:33:43.000Z</time>
      </trkpt>
      <trkpt lat="47.4946" lon="-0.60119">
        <ele>29</ele>
        <time>2015-09-01T08:33:44.000Z</time>
      </trkpt>
      <trkpt lat="47.4946" lon="-0.60123">
        <ele>29</ele>
        <time>2015-09-01T08:33:45.000Z</time>
      </trkpt>
      <trkpt lat="47.4946" lon="-0.60126">
        <ele>28</ele>
        <time>2015-09-01T08:33:46.000Z</time>
      </trkpt>
      <trkpt lat="47.49461" lon="-0.60129">
        <ele>28</ele>
        <time>2015-09-01T08:33:47.000Z</time>
      </trkpt>
      <trkpt lat="47.49462" lon="-0.60132">
        <ele>27</ele>
        <time>2015-09-01T08:33:48.000Z</time>
      </trkpt>
      <trkpt lat="47.49462" lon="-0.60136">
        <ele>26</ele>
        <time>2015-09-01T08:33:49.000Z</time>
      </trkpt>
      <trkpt lat="47.49463" lon="-0.60139">
        <ele>26</ele>
        <time>2015-09-01T08:33:50.000Z</time>
      </trkpt>
      <trkpt lat="47.49464" lon="-0.60143">
        <ele>25</ele>
        <time>2015-09-01T08:33:51.000Z</time>
      </trkpt>
      <trkpt lat="47.49466" lon="-0.60147">
        <ele>24</ele>
        <time>2015-09-01T08:33:52.000Z</time>
      </trkpt>
      <trkpt lat="47.49467" lon="-0.60151">
        <ele>24</ele>
        <time>2015-09-01T08:33:53.000Z</time>
      </trkpt>
      <trkpt lat="47.49469" lon="-0.60154">
        <ele>23</ele>
        <time>2015-09-01T08:33:54.000Z</time>
      </trkpt>
      <trkpt lat="47.49471" lon="-0.60157">
        <ele>22</ele>
        <time>2015-09-01T08:33:55.000Z</time>
      </trkpt>
      <trkpt lat="47.49473" lon="-0.6016">
        <ele>21</ele>
        <time>2015-09-01T08:33:56.000Z</time>
      </trkpt>
      <trkpt lat="47.49476" lon="-0.60163">
        <ele>21</ele>
        <time>2015-09-01T08:33:57.000Z</time>
      </trkpt>
      <trkpt lat="47.49478" lon="-0.60167">
        <ele>22</ele>
        <time>2015-09-01T08:33:58.000Z</time>
      </trkpt>
      <trkpt lat="47.49479" lon="-0.60172">
        <ele>22</ele>
        <time>2015-09-01T08:33:59.000Z</time>
      </trkpt>
      <trkpt lat="47.49481" lon="-0.60176">
        <ele>22</ele>
        <time>2015-09-01T08:34:00.000Z</time>
      </trkpt>
      <trkpt lat="47.49483" lon="-0.6018">
        <ele>21</ele>
        <time>2015-09-01T08:34:01.000Z</time>
      </trkpt>
      <trkpt lat="47.49484" lon="-0.60183">
        <ele>21</ele>
        <time>2015-09-01T08:34:02.000Z</time>
      </trkpt>
      <trkpt lat="47.49486" lon="-0.60187">
        <ele>21</ele>
        <time>2015-09-01T08:34:03.000Z</time>
      </trkpt>
      <trkpt lat="47.49487" lon="-0.60192">
        <ele>22</ele>
        <time>2015-09-01T08:34:04.000Z</time>
      </trkpt>
      <trkpt lat="47.49488" lon="-0.60196">
        <ele>22</ele>
        <time>2015-09-01T08:34:05.000Z</time>
      </trkpt>
      <trkpt lat="47.4949" lon="-0.60201">
        <ele>22</ele>
        <time>2015-09-01T08:34:06.000Z</time>
      </trkpt>
      <trkpt lat="47.49491" lon="-0.60205">
        <ele>22</ele>
        <time>2015-09-01T08:34:07.000Z</time>
      </trkpt>
      <trkpt lat="47.49492" lon="-0.6021">
        <ele>23</ele>
        <time>2015-09-01T08:34:08.000Z</time>
      </trkpt>
      <trkpt lat="47.49492" lon="-0.60215">
        <ele>23</ele>
        <time>2015-09-01T08:34:09.000Z</time>
      </trkpt>
      <trkpt lat="47.49492" lon="-0.6022">
        <ele>22</ele>
        <time>2015-09-01T08:34:10.000Z</time>
      </trkpt>
      <trkpt lat="47.49492" lon="-0.60224">
        <ele>22</ele>
        <time>2015-09-01T08:34:11.000Z</time>
      </trkpt>
      <trkpt lat="47.49491" lon="-0.6023">
        <ele>22</ele>
        <time>2015-09-01T08:34:12.000Z</time>
      </trkpt>
      <trkpt lat="47.4949" lon="-0.60235">
        <ele>23</ele>
        <time>2015-09-01T08:34:13.000Z</time>
      </trkpt>
      <trkpt lat="47.49489" lon="-0.60241">
        <ele>25</ele>
        <time>2015-09-01T08:34:14.000Z</time>
      </trkpt>
      <trkpt lat="47.4949" lon="-0.60246">
        <ele>25</ele>
        <time>2015-09-01T08:34:15.000Z</time>
      </trkpt>
      <trkpt lat="47.4949" lon="-0.60251">
        <ele>25</ele>
        <time>2015-09-01T08:34:16.000Z</time>
      </trkpt>
      <trkpt lat="47.4949" lon="-0.60256">
        <ele>25</ele>
        <time>2015-09-01T08:34:17.000Z</time>
      </trkpt>
      <trkpt lat="47.4949" lon="-0.6026">
        <ele>24</ele>
        <time>2015-09-01T08:34:18.000Z</time>
      </trkpt>
      <trkpt lat="47.4949" lon="-0.60264">
        <ele>24</ele>
        <time>2015-09-01T08:34:19.000Z</time>
      </trkpt>
      <trkpt lat="47.4949" lon="-0.60268">
        <ele>23</ele>
        <time>2015-09-01T08:34:20.000Z</time>
      </trkpt>
      <trkpt lat="47.4949" lon="-0.60272">
        <ele>24</ele>
        <time>2015-09-01T08:34:21.000Z</time>
      </trkpt>
      <trkpt lat="47.4949" lon="-0.60277">
        <ele>24</ele>
        <time>2015-09-01T08:34:22.000Z</time>
      </trkpt>
      <trkpt lat="47.49491" lon="-0.6028">
        <ele>24</ele>
        <time>2015-09-01T08:34:23.000Z</time>
      </trkpt>
      <trkpt lat="47.49492" lon="-0.60284">
        <ele>24</ele>
        <time>2015-09-01T08:34:24.000Z</time>
      </trkpt>
      <trkpt lat="47.49493" lon="-0.60288">
        <ele>25</ele>
        <time>2015-09-01T08:34:25.000Z</time>
      </trkpt>
      <trkpt lat="47.49493" lon="-0.60292">
        <ele>23</ele>
        <time>2015-09-01T08:34:26.000Z</time>
      </trkpt>
      <trkpt lat="47.49494" lon="-0.60296">
        <ele>24</ele>
        <time>2015-09-01T08:34:27.000Z</time>
      </trkpt>
      <trkpt lat="47.49495" lon="-0.603">
        <ele>24</ele>
        <time>2015-09-01T08:34:28.000Z</time>
      </trkpt>
      <trkpt lat="47.49497" lon="-0.60304">
        <ele>24</ele>
        <time>2015-09-01T08:34:29.000Z</time>
      </trkpt>
      <trkpt lat="47.49498" lon="-0.60307">
        <ele>24</ele>
        <time>2015-09-01T08:34:30.000Z</time>
      </trkpt>
      <trkpt lat="47.49499" lon="-0.60311">
        <ele>24</ele>
        <time>2015-09-01T08:34:31.000Z</time>
      </trkpt>
      <trkpt lat="47.495" lon="-0.60315">
        <ele>24</ele>
        <time>2015-09-01T08:34:32.000Z</time>
      </trkpt>
      <trkpt lat="47.49501" lon="-0.60319">
        <ele>24</ele>
        <time>2015-09-01T08:34:33.000Z</time>
      </trkpt>
      <trkpt lat="47.49502" lon="-0.60323">
        <ele>25</ele>
        <time>2015-09-01T08:34:34.000Z</time>
      </trkpt>
      <trkpt lat="47.49502" lon="-0.60327">
        <ele>24</ele>
        <time>2015-09-01T08:34:35.000Z</time>
      </trkpt>
      <trkpt lat="47.49503" lon="-0.60331">
        <ele>24</ele>
        <time>2015-09-01T08:34:36.000Z</time>
      </trkpt>
      <trkpt lat="47.49504" lon="-0.60335">
        <ele>24</ele>
        <time>2015-09-01T08:34:37.000Z</time>
      </trkpt>
      <trkpt lat="47.49505" lon="-0.60339">
        <ele>24</ele>
        <time>2015-09-01T08:34:38.000Z</time>
      </trkpt>
      <trkpt lat="47.49505" lon="-0.60342">
        <ele>25</ele>
        <time>2015-09-01T08:34:39.000Z</time>
      </trkpt>
      <trkpt lat="47.49507" lon="-0.60346">
        <ele>25</ele>
        <time>2015-09-01T08:34:40.000Z</time>
      </trkpt>
      <trkpt lat="47.49509" lon="-0.6035">
        <ele>25</ele>
        <time>2015-09-01T08:34:41.000Z</time>
      </trkpt>
      <trkpt lat="47.49511" lon="-0.60354">
        <ele>25</ele>
        <time>2015-09-01T08:34:42.000Z</time>
      </trkpt>
      <trkpt lat="47.49512" lon="-0.60357">
        <ele>24</ele>
        <time>2015-09-01T08:34:43.000Z</time>
      </trkpt>
      <trkpt lat="47.49515" lon="-0.60361">
        <ele>25</ele>
        <time>2015-09-01T08:34:44.000Z</time>
      </trkpt>
      <trkpt lat="47.49516" lon="-0.60364">
        <ele>25</ele>
        <time>2015-09-01T08:34:45.000Z</time>
      </trkpt>
      <trkpt lat="47.49518" lon="-0.60368">
        <ele>25</ele>
        <time>2015-09-01T08:34:46.000Z</time>
      </trkpt>
      <trkpt lat="47.49519" lon="-0.60372">
        <ele>25</ele>
        <time>2015-09-01T08:34:47.000Z</time>
      </trkpt>
      <trkpt lat="47.4952" lon="-0.60376">
        <ele>25</ele>
        <time>2015-09-01T08:34:48.000Z</time>
      </trkpt>
      <trkpt lat="47.49521" lon="-0.6038">
        <ele>25</ele>
        <time>2015-09-01T08:34:49.000Z</time>
      </trkpt>
      <trkpt lat="47.49522" lon="-0.60385">
        <ele>24</ele>
        <time>2015-09-01T08:34:50.000Z</time>
      </trkpt>
      <trkpt lat="47.49523" lon="-0.60389">
        <ele>25</ele>
        <time>2015-09-01T08:34:51.000Z</time>
      </trkpt>
      <trkpt lat="47.49523" lon="-0.60394">
        <ele>25</ele>
        <time>2015-09-01T08:34:52.000Z</time>
      </trkpt>
      <trkpt lat="47.49522" lon="-0.60399">
        <ele>24</ele>
        <time>2015-09-01T08:34:53.000Z</time>
      </trkpt>
      <trkpt lat="47.49522" lon="-0.60403">
        <ele>25</ele>
        <time>2015-09-01T08:34:54.000Z</time>
      </trkpt>
      <trkpt lat="47.49522" lon="-0.60407">
        <ele>25</ele>
        <time>2015-09-01T08:34:55.000Z</time>
      </trkpt>
      <trkpt lat="47.49522" lon="-0.60412">
        <ele>25</ele>
        <time>2015-09-01T08:34:56.000Z</time>
      </trkpt>
      <trkpt lat="47.49522" lon="-0.60416">
        <ele>25</ele>
        <time>2015-09-01T08:34:57.000Z</time>
      </trkpt>
      <trkpt lat="47.49521" lon="-0.6042">
        <ele>24</ele>
        <time>2015-09-01T08:34:58.000Z</time>
      </trkpt>
      <trkpt lat="47.49521" lon="-0.60425">
        <ele>25</ele>
        <time>2015-09-01T08:34:59.000Z</time>
      </trkpt>
      <trkpt lat="47.49521" lon="-0.6043">
        <ele>25</ele>
        <time>2015-09-01T08:35:00.000Z</time>
      </trkpt>
      <trkpt lat="47.49522" lon="-0.60434">
        <ele>25</ele>
        <time>2015-09-01T08:35:01.000Z</time>
      </trkpt>
      <trkpt lat="47.49523" lon="-0.60438">
        <ele>25</ele>
        <time>2015-09-01T08:35:02.000Z</time>
      </trkpt>
      <trkpt lat="47.49524" lon="-0.60443">
        <ele>25</ele>
        <time>2015-09-01T08:35:03.000Z</time>
      </trkpt>
      <trkpt lat="47.49526" lon="-0.60447">
        <ele>25</ele>
        <time>2015-09-01T08:35:04.000Z</time>
      </trkpt>
      <trkpt lat="47.49527" lon="-0.60451">
        <ele>26</ele>
        <time>2015-09-01T08:35:05.000Z</time>
      </trkpt>
      <trkpt lat="47.49528" lon="-0.60455">
        <ele>25</ele>
        <time>2015-09-01T08:35:06.000Z</time>
      </trkpt>
      <trkpt lat="47.49528" lon="-0.6046">
        <ele>25</ele>
        <time>2015-09-01T08:35:07.000Z</time>
      </trkpt>
      <trkpt lat="47.49529" lon="-0.60464">
        <ele>24</ele>
        <time>2015-09-01T08:35:08.000Z</time>
      </trkpt>
      <trkpt lat="47.49529" lon="-0.60468">
        <ele>24</ele>
        <time>2015-09-01T08:35:09.000Z</time>
      </trkpt>
      <trkpt lat="47.49529" lon="-0.60472">
        <ele>24</ele>
        <time>2015-09-01T08:35:10.000Z</time>
      </trkpt>
      <trkpt lat="47.49529" lon="-0.60476">
        <ele>24</ele>
        <time>2015-09-01T08:35:11.000Z</time>
      </trkpt>
      <trkpt lat="47.49528" lon="-0.60481">
        <ele>24</ele>
        <time>2015-09-01T08:35:12.000Z</time>
      </trkpt>
      <trkpt lat="47.49527" lon="-0.60486">
        <ele>24</ele>
        <time>2015-09-01T08:35:13.000Z</time>
      </trkpt>
      <trkpt lat="47.49528" lon="-0.6049">
        <ele>24</ele>
        <time>2015-09-01T08:35:14.000Z</time>
      </trkpt>
      <trkpt lat="47.49529" lon="-0.60495">
        <ele>24</ele>
        <time>2015-09-01T08:35:15.000Z</time>
      </trkpt>
      <trkpt lat="47.4953" lon="-0.60499">
        <ele>24</ele>
        <time>2015-09-01T08:35:16.000Z</time>
      </trkpt>
      <trkpt lat="47.49531" lon="-0.60503">
        <ele>24</ele>
        <time>2015-09-01T08:35:17.000Z</time>
      </trkpt>
      <trkpt lat="47.49531" lon="-0.60508">
        <ele>24</ele>
        <time>2015-09-01T08:35:18.000Z</time>
      </trkpt>
      <trkpt lat="47.49532" lon="-0.60511">
        <ele>24</ele>
        <time>2015-09-01T08:35:19.000Z</time>
      </trkpt>
      <trkpt lat="47.49533" lon="-0.60515">
        <ele>24</ele>
        <time>2015-09-01T08:35:20.000Z</time>
      </trkpt>
      <trkpt lat="47.49534" lon="-0.60519">
        <ele>24</ele>
        <time>2015-09-01T08:35:21.000Z</time>
      </trkpt>
      <trkpt lat="47.49534" lon="-0.60523">
        <ele>24</ele>
        <time>2015-09-01T08:35:22.000Z</time>
      </trkpt>
      <trkpt lat="47.49534" lon="-0.60528">
        <ele>24</ele>
        <time>2015-09-01T08:35:23.000Z</time>
      </trkpt>
      <trkpt lat="47.49534" lon="-0.60532">
        <ele>24</ele>
        <time>2015-09-01T08:35:24.000Z</time>
      </trkpt>
      <trkpt lat="47.49534" lon="-0.60537">
        <ele>24</ele>
        <time>2015-09-01T08:35:25.000Z</time>
      </trkpt>
      <trkpt lat="47.49534" lon="-0.60541">
        <ele>24</ele>
        <time>2015-09-01T08:35:26.000Z</time>
      </trkpt>
      <trkpt lat="47.49535" lon="-0.60545">
        <ele>24</ele>
        <time>2015-09-01T08:35:27.000Z</time>
      </trkpt>
      <trkpt lat="47.49536" lon="-0.60549">
        <ele>23</ele>
        <time>2015-09-01T08:35:28.000Z</time>
      </trkpt>
      <trkpt lat="47.49537" lon="-0.60552">
        <ele>23</ele>
        <time>2015-09-01T08:35:29.000Z</time>
      </trkpt>
      <trkpt lat="47.49539" lon="-0.60556">
        <ele>23</ele>
        <time>2015-09-01T08:35:30.000Z</time>
      </trkpt>
      <trkpt lat="47.4954" lon="-0.60559">
        <ele>23</ele>
        <time>2015-09-01T08:35:31.000Z</time>
      </trkpt>
      <trkpt lat="47.49542" lon="-0.60563">
        <ele>23</ele>
        <time>2015-09-01T08:35:32.000Z</time>
      </trkpt>
      <trkpt lat="47.49544" lon="-0.60566">
        <ele>23</ele>
        <time>2015-09-01T08:35:33.000Z</time>
      </trkpt>
      <trkpt lat="47.49545" lon="-0.6057">
        <ele>23</ele>
        <time>2015-09-01T08:35:34.000Z</time>
      </trkpt>
      <trkpt lat="47.49546" lon="-0.60574">
        <ele>23</ele>
        <time>2015-09-01T08:35:35.000Z</time>
      </trkpt>
      <trkpt lat="47.49547" lon="-0.60578">
        <ele>22</ele>
        <time>2015-09-01T08:35:36.000Z</time>
      </trkpt>
      <trkpt lat="47.49549" lon="-0.60582">
        <ele>22</ele>
        <time>2015-09-01T08:35:37.000Z</time>
      </trkpt>
      <trkpt lat="47.4955" lon="-0.60586">
        <ele>22</ele>
        <time>2015-09-01T08:35:38.000Z</time>
      </trkpt>
      <trkpt lat="47.49552" lon="-0.60589">
        <ele>22</ele>
        <time>2015-09-01T08:35:39.000Z</time>
      </trkpt>
      <trkpt lat="47.49553" lon="-0.60594">
        <ele>22</ele>
        <time>2015-09-01T08:35:40.000Z</time>
      </trkpt>
      <trkpt lat="47.49554" lon="-0.60598">
        <ele>23</ele>
        <time>2015-09-01T08:35:41.000Z</time>
      </trkpt>
      <trkpt lat="47.49555" lon="-0.60602">
        <ele>24</ele>
        <time>2015-09-01T08:35:42.000Z</time>
      </trkpt>
      <trkpt lat="47.49556" lon="-0.60607">
        <ele>24</ele>
        <time>2015-09-01T08:35:43.000Z</time>
      </trkpt>
      <trkpt lat="47.49557" lon="-0.60612">
        <ele>24</ele>
        <time>2015-09-01T08:35:44.000Z</time>
      </trkpt>
      <trkpt lat="47.49559" lon="-0.60617">
        <ele>24</ele>
        <time>2015-09-01T08:35:45.000Z</time>
      </trkpt>
      <trkpt lat="47.4956" lon="-0.60621">
        <ele>25</ele>
        <time>2015-09-01T08:35:46.000Z</time>
      </trkpt>
      <trkpt lat="47.49561" lon="-0.60625">
        <ele>25</ele>
        <time>2015-09-01T08:35:47.000Z</time>
      </trkpt>
      <trkpt lat="47.49561" lon="-0.60629">
        <ele>25</ele>
        <time>2015-09-01T08:35:48.000Z</time>
      </trkpt>
      <trkpt lat="47.49562" lon="-0.60633">
        <ele>25</ele>
        <time>2015-09-01T08:35:49.000Z</time>
      </trkpt>
      <trkpt lat="47.49563" lon="-0.60637">
        <ele>25</ele>
        <time>2015-09-01T08:35:50.000Z</time>
      </trkpt>
      <trkpt lat="47.49564" lon="-0.60642">
        <ele>25</ele>
        <time>2015-09-01T08:35:51.000Z</time>
      </trkpt>
      <trkpt lat="47.49565" lon="-0.60646">
        <ele>25</ele>
        <time>2015-09-01T08:35:52.000Z</time>
      </trkpt>
      <trkpt lat="47.49565" lon="-0.6065">
        <ele>25</ele>
        <time>2015-09-01T08:35:53.000Z</time>
      </trkpt>
      <trkpt lat="47.49565" lon="-0.60655">
        <ele>25</ele>
        <time>2015-09-01T08:35:54.000Z</time>
      </trkpt>
      <trkpt lat="47.49565" lon="-0.60659">
        <ele>25</ele>
        <time>2015-09-01T08:35:55.000Z</time>
      </trkpt>
      <trkpt lat="47.49565" lon="-0.60664">
        <ele>26</ele>
        <time>2015-09-01T08:35:56.000Z</time>
      </trkpt>
      <trkpt lat="47.49565" lon="-0.60668">
        <ele>26</ele>
        <time>2015-09-01T08:35:57.000Z</time>
      </trkpt>
      <trkpt lat="47.49566" lon="-0.60673">
        <ele>26</ele>
        <time>2015-09-01T08:35:58.000Z</time>
      </trkpt>
      <trkpt lat="47.49567" lon="-0.60677">
        <ele>27</ele>
        <time>2015-09-01T08:35:59.000Z</time>
      </trkpt>
      <trkpt lat="47.49568" lon="-0.60681">
        <ele>27</ele>
        <time>2015-09-01T08:36:00.000Z</time>
      </trkpt>
      <trkpt lat="47.49569" lon="-0.60686">
        <ele>27</ele>
        <time>2015-09-01T08:36:01.000Z</time>
      </trkpt>
      <trkpt lat="47.4957" lon="-0.6069">
        <ele>28</ele>
        <time>2015-09-01T08:36:02.000Z</time>
      </trkpt>
      <trkpt lat="47.49571" lon="-0.60695">
        <ele>28</ele>
        <time>2015-09-01T08:36:03.000Z</time>
      </trkpt>
      <trkpt lat="47.49572" lon="-0.607">
        <ele>28</ele>
        <time>2015-09-01T08:36:04.000Z</time>
      </trkpt>
      <trkpt lat="47.49572" lon="-0.60705">
        <ele>28</ele>
        <time>2015-09-01T08:36:05.000Z</time>
      </trkpt>
      <trkpt lat="47.49572" lon="-0.6071">
        <ele>27</ele>
        <time>2015-09-01T08:36:06.000Z</time>
      </trkpt>
      <trkpt lat="47.49572" lon="-0.60715">
        <ele>27</ele>
        <time>2015-09-01T08:36:07.000Z</time>
      </trkpt>
      <trkpt lat="47.49572" lon="-0.60719">
        <ele>26</ele>
        <time>2015-09-01T08:36:08.000Z</time>
      </trkpt>
      <trkpt lat="47.49572" lon="-0.60724">
        <ele>26</ele>
        <time>2015-09-01T08:36:09.000Z</time>
      </trkpt>
      <trkpt lat="47.49573" lon="-0.60729">
        <ele>26</ele>
        <time>2015-09-01T08:36:10.000Z</time>
      </trkpt>
      <trkpt lat="47.49573" lon="-0.60734">
        <ele>26</ele>
        <time>2015-09-01T08:36:11.000Z</time>
      </trkpt>
      <trkpt lat="47.49574" lon="-0.60738">
        <ele>26</ele>
        <time>2015-09-01T08:36:12.000Z</time>
      </trkpt>
      <trkpt lat="47.49574" lon="-0.60743">
        <ele>26</ele>
        <time>2015-09-01T08:36:13.000Z</time>
      </trkpt>
      <trkpt lat="47.49575" lon="-0.60747">
        <ele>26</ele>
        <time>2015-09-01T08:36:14.000Z</time>
      </trkpt>
      <trkpt lat="47.49577" lon="-0.60752">
        <ele>25</ele>
        <time>2015-09-01T08:36:15.000Z</time>
      </trkpt>
      <trkpt lat="47.49577" lon="-0.60756">
        <ele>25</ele>
        <time>2015-09-01T08:36:16.000Z</time>
      </trkpt>
      <trkpt lat="47.49578" lon="-0.6076">
        <ele>25</ele>
        <time>2015-09-01T08:36:17.000Z</time>
      </trkpt>
      <trkpt lat="47.49579" lon="-0.60765">
        <ele>25</ele>
        <time>2015-09-01T08:36:18.000Z</time>
      </trkpt>
      <trkpt lat="47.49581" lon="-0.60769">
        <ele>26</ele>
        <time>2015-09-01T08:36:19.000Z</time>
      </trkpt>
      <trkpt lat="47.49583" lon="-0.60773">
        <ele>26</ele>
        <time>2015-09-01T08:36:20.000Z</time>
      </trkpt>
      <trkpt lat="47.49585" lon="-0.60777">
        <ele>25</ele>
        <time>2015-09-01T08:36:21.000Z</time>
      </trkpt>
      <trkpt lat="47.49586" lon="-0.60781">
        <ele>24</ele>
        <time>2015-09-01T08:36:22.000Z</time>
      </trkpt>
      <trkpt lat="47.49586" lon="-0.60785">
        <ele>25</ele>
        <time>2015-09-01T08:36:23.000Z</time>
      </trkpt>
      <trkpt lat="47.49587" lon="-0.60789">
        <ele>24</ele>
        <time>2015-09-01T08:36:24.000Z</time>
      </trkpt>
      <trkpt lat="47.49588" lon="-0.60794">
        <ele>23</ele>
        <time>2015-09-01T08:36:25.000Z</time>
      </trkpt>
      <trkpt lat="47.49588" lon="-0.60799">
        <ele>23</ele>
        <time>2015-09-01T08:36:26.000Z</time>
      </trkpt>
      <trkpt lat="47.49588" lon="-0.60803">
        <ele>22</ele>
        <time>2015-09-01T08:36:27.000Z</time>
      </trkpt>
      <trkpt lat="47.49588" lon="-0.60808">
        <ele>23</ele>
        <time>2015-09-01T08:36:28.000Z</time>
      </trkpt>
      <trkpt lat="47.49588" lon="-0.60813">
        <ele>23</ele>
        <time>2015-09-01T08:36:29.000Z</time>
      </trkpt>
      <trkpt lat="47.49589" lon="-0.60817">
        <ele>23</ele>
        <time>2015-09-01T08:36:30.000Z</time>
      </trkpt>
      <trkpt lat="47.4959" lon="-0.60822">
        <ele>23</ele>
        <time>2015-09-01T08:36:31.000Z</time>
      </trkpt>
      <trkpt lat="47.4959" lon="-0.60826">
        <ele>23</ele>
        <time>2015-09-01T08:36:32.000Z</time>
      </trkpt>
      <trkpt lat="47.49591" lon="-0.60831">
        <ele>23</ele>
        <time>2015-09-01T08:36:33.000Z</time>
      </trkpt>
      <trkpt lat="47.49592" lon="-0.60836">
        <ele>22</ele>
        <time>2015-09-01T08:36:34.000Z</time>
      </trkpt>
      <trkpt lat="47.49592" lon="-0.60841">
        <ele>23</ele>
        <time>2015-09-01T08:36:35.000Z</time>
      </trkpt>
      <trkpt lat="47.49592" lon="-0.60845">
        <ele>23</ele>
        <time>2015-09-01T08:36:36.000Z</time>
      </trkpt>
      <trkpt lat="47.49592" lon="-0.6085">
        <ele>23</ele>
        <time>2015-09-01T08:36:37.000Z</time>
      </trkpt>
      <trkpt lat="47.49592" lon="-0.60855">
        <ele>22</ele>
        <time>2015-09-01T08:36:38.000Z</time>
      </trkpt>
      <trkpt lat="47.49593" lon="-0.60859">
        <ele>22</ele>
        <time>2015-09-01T08:36:39.000Z</time>
      </trkpt>
      <trkpt lat="47.49593" lon="-0.60864">
        <ele>21</ele>
        <time>2015-09-01T08:36:40.000Z</time>
      </trkpt>
      <trkpt lat="47.49593" lon="-0.60869">
        <ele>21</ele>
        <time>2015-09-01T08:36:41.000Z</time>
      </trkpt>
      <trkpt lat="47.49594" lon="-0.60873">
        <ele>21</ele>
        <time>2015-09-01T08:36:42.000Z</time>
      </trkpt>
      <trkpt lat="47.49595" lon="-0.60877">
        <ele>21</ele>
        <time>2015-09-01T08:36:43.000Z</time>
      </trkpt>
      <trkpt lat="47.49597" lon="-0.60881">
        <ele>20</ele>
        <time>2015-09-01T08:36:44.000Z</time>
      </trkpt>
      <trkpt lat="47.49599" lon="-0.60885">
        <ele>20</ele>
        <time>2015-09-01T08:36:45.000Z</time>
      </trkpt>
      <trkpt lat="47.496" lon="-0.60888">
        <ele>19</ele>
        <time>2015-09-01T08:36:46.000Z</time>
      </trkpt>
      <trkpt lat="47.49601" lon="-0.60892">
        <ele>19</ele>
        <time>2015-09-01T08:36:47.000Z</time>
      </trkpt>
      <trkpt lat="47.49602" lon="-0.60896">
        <ele>18</ele>
        <time>2015-09-01T08:36:48.000Z</time>
      </trkpt>
      <trkpt lat="47.49603" lon="-0.609">
        <ele>18</ele>
        <time>2015-09-01T08:36:49.000Z</time>
      </trkpt>
      <trkpt lat="47.49604" lon="-0.60904">
        <ele>18</ele>
        <time>2015-09-01T08:36:50.000Z</time>
      </trkpt>
      <trkpt lat="47.49605" lon="-0.60908">
        <ele>18</ele>
        <time>2015-09-01T08:36:51.000Z</time>
      </trkpt>
      <trkpt lat="47.49606" lon="-0.60912">
        <ele>17</ele>
        <time>2015-09-01T08:36:52.000Z</time>
      </trkpt>
      <trkpt lat="47.49607" lon="-0.60916">
        <ele>18</ele>
        <time>2015-09-01T08:36:53.000Z</time>
      </trkpt>
      <trkpt lat="47.49607" lon="-0.6092">
        <ele>17</ele>
        <time>2015-09-01T08:36:54.000Z</time>
      </trkpt>
      <trkpt lat="47.49608" lon="-0.60924">
        <ele>18</ele>
        <time>2015-09-01T08:36:55.000Z</time>
      </trkpt>
      <trkpt lat="47.4961" lon="-0.60929">
        <ele>18</ele>
        <time>2015-09-01T08:36:56.000Z</time>
      </trkpt>
      <trkpt lat="47.49612" lon="-0.60933">
        <ele>18</ele>
        <time>2015-09-01T08:36:57.000Z</time>
      </trkpt>
      <trkpt lat="47.49614" lon="-0.60937">
        <ele>17</ele>
        <time>2015-09-01T08:36:58.000Z</time>
      </trkpt>
      <trkpt lat="47.49615" lon="-0.60941">
        <ele>18</ele>
        <time>2015-09-01T08:36:59.000Z</time>
      </trkpt>
      <trkpt lat="47.49617" lon="-0.60945">
        <ele>18</ele>
        <time>2015-09-01T08:37:00.000Z</time>
      </trkpt>
      <trkpt lat="47.49619" lon="-0.60948">
        <ele>17</ele>
        <time>2015-09-01T08:37:01.000Z</time>
      </trkpt>
      <trkpt lat="47.4962" lon="-0.60951">
        <ele>15</ele>
        <time>2015-09-01T08:37:02.000Z</time>
      </trkpt>
      <trkpt lat="47.49622" lon="-0.60954">
        <ele>15</ele>
        <time>2015-09-01T08:37:03.000Z</time>
      </trkpt>
      <trkpt lat="47.49624" lon="-0.60957">
        <ele>15</ele>
        <time>2015-09-01T08:37:04.000Z</time>
      </trkpt>
      <trkpt lat="47.49627" lon="-0.60959">
        <ele>15</ele>
        <time>2015-09-01T08:37:05.000Z</time>
      </trkpt>
      <trkpt lat="47.49631" lon="-0.60961">
        <ele>14</ele>
        <time>2015-09-01T08:37:06.000Z</time>
      </trkpt>
      <trkpt lat="47.49634" lon="-0.60962">
        <ele>14</ele>
        <time>2015-09-01T08:37:07.000Z</time>
      </trkpt>
      <trkpt lat="47.49636" lon="-0.60964">
        <ele>12</ele>
        <time>2015-09-01T08:37:08.000Z</time>
      </trkpt>
      <trkpt lat="47.49639" lon="-0.60966">
        <ele>12</ele>
        <time>2015-09-01T08:37:09.000Z</time>
      </trkpt>
      <trkpt lat="47.49641" lon="-0.60968">
        <ele>11</ele>
        <time>2015-09-01T08:37:10.000Z</time>
      </trkpt>
      <trkpt lat="47.49644" lon="-0.6097">
        <ele>10</ele>
        <time>2015-09-01T08:37:11.000Z</time>
      </trkpt>
      <trkpt lat="47.49647" lon="-0.60971">
        <ele>10</ele>
        <time>2015-09-01T08:37:12.000Z</time>
      </trkpt>
      <trkpt lat="47.49651" lon="-0.60973">
        <ele>10</ele>
        <time>2015-09-01T08:37:13.000Z</time>
      </trkpt>
      <trkpt lat="47.49653" lon="-0.60975">
        <ele>9</ele>
        <time>2015-09-01T08:37:14.000Z</time>
      </trkpt>
      <trkpt lat="47.49654" lon="-0.60978">
        <ele>8</ele>
        <time>2015-09-01T08:37:15.000Z</time>
      </trkpt>
      <trkpt lat="47.49656" lon="-0.60981">
        <ele>8</ele>
        <time>2015-09-01T08:37:16.000Z</time>
      </trkpt>
      <trkpt lat="47.49659" lon="-0.60983">
        <ele>8</ele>
        <time>2015-09-01T08:37:17.000Z</time>
      </trkpt>
      <trkpt lat="47.49662" lon="-0.60984">
        <ele>8</ele>
        <time>2015-09-01T08:37:18.000Z</time>
      </trkpt>
      <trkpt lat="47.49665" lon="-0.60986">
        <ele>8</ele>
        <time>2015-09-01T08:37:19.000Z</time>
      </trkpt>
      <trkpt lat="47.49668" lon="-0.60987">
        <ele>9</ele>
        <time>2015-09-01T08:37:20.000Z</time>
      </trkpt>
      <trkpt lat="47.4967" lon="-0.60988">
        <ele>8</ele>
        <time>2015-09-01T08:37:21.000Z</time>
      </trkpt>
      <trkpt lat="47.49673" lon="-0.60988">
        <ele>8</ele>
        <time>2015-09-01T08:37:22.000Z</time>
      </trkpt>
      <trkpt lat="47.49675" lon="-0.60987">
        <ele>8</ele>
        <time>2015-09-01T08:37:23.000Z</time>
      </trkpt>
      <trkpt lat="47.49676" lon="-0.60987">
        <ele>8</ele>
        <time>2015-09-01T08:37:24.000Z</time>
      </trkpt>
      <trkpt lat="47.49677" lon="-0.60987">
        <ele>10</ele>
        <time>2015-09-01T08:37:25.000Z</time>
      </trkpt>
      <trkpt lat="47.49677" lon="-0.60988">
        <ele>11</ele>
        <time>2015-09-01T08:37:26.000Z</time>
      </trkpt>
      <trkpt lat="47.49674" lon="-0.60989">
        <ele>12</ele>
        <time>2015-09-01T08:37:27.000Z</time>
      </trkpt>
      <trkpt lat="47.4967" lon="-0.60991">
        <ele>11</ele>
        <time>2015-09-01T08:37:28.000Z</time>
      </trkpt>
      <trkpt lat="47.49668" lon="-0.60992">
        <ele>12</ele>
        <time>2015-09-01T08:37:29.000Z</time>
      </trkpt>
      <trkpt lat="47.49668" lon="-0.60992">
        <ele>12</ele>
        <time>2015-09-01T08:37:30.000Z</time>
      </trkpt>
      <trkpt lat="47.49669" lon="-0.60992">
        <ele>12</ele>
        <time>2015-09-01T08:37:31.000Z</time>
      </trkpt>
      <trkpt lat="47.49672" lon="-0.60991">
        <ele>12</ele>
        <time>2015-09-01T08:37:32.000Z</time>
      </trkpt>
      <trkpt lat="47.49675" lon="-0.6099">
        <ele>12</ele>
        <time>2015-09-01T08:37:33.000Z</time>
      </trkpt>
      <trkpt lat="47.49679" lon="-0.60989">
        <ele>12</ele>
        <time>2015-09-01T08:37:34.000Z</time>
      </trkpt>
      <trkpt lat="47.49682" lon="-0.60989">
        <ele>11</ele>
        <time>2015-09-01T08:37:35.000Z</time>
      </trkpt>
      <trkpt lat="47.49686" lon="-0.6099">
        <ele>12</ele>
        <time>2015-09-01T08:37:36.000Z</time>
      </trkpt>
      <trkpt lat="47.4969" lon="-0.60991">
        <ele>12</ele>
        <time>2015-09-01T08:37:37.000Z</time>
      </trkpt>
      <trkpt lat="47.49695" lon="-0.60993">
        <ele>11</ele>
        <time>2015-09-01T08:37:38.000Z</time>
      </trkpt>
      <trkpt lat="47.497" lon="-0.60995">
        <ele>12</ele>
        <time>2015-09-01T08:37:39.000Z</time>
      </trkpt>
      <trkpt lat="47.49703" lon="-0.60998">
        <ele>12</ele>
        <time>2015-09-01T08:37:40.000Z</time>
      </trkpt>
      <trkpt lat="47.49706" lon="-0.61001">
        <ele>14</ele>
        <time>2015-09-01T08:37:41.000Z</time>
      </trkpt>
      <trkpt lat="47.49709" lon="-0.61004">
        <ele>15</ele>
        <time>2015-09-01T08:37:42.000Z</time>
      </trkpt>
      <trkpt lat="47.49712" lon="-0.61006">
        <ele>15</ele>
        <time>2015-09-01T08:37:43.000Z</time>
      </trkpt>
      <trkpt lat="47.49715" lon="-0.61008">
        <ele>16</ele>
        <time>2015-09-01T08:37:44.000Z</time>
      </trkpt>
      <trkpt lat="47.49716" lon="-0.61009">
        <ele>17</ele>
        <time>2015-09-01T08:37:45.000Z</time>
      </trkpt>
      <trkpt lat="47.49719" lon="-0.61008">
        <ele>19</ele>
        <time>2015-09-01T08:37:46.000Z</time>
      </trkpt>
      <trkpt lat="47.49721" lon="-0.61007">
        <ele>20</ele>
        <time>2015-09-01T08:37:47.000Z</time>
      </trkpt>
      <trkpt lat="47.49725" lon="-0.61005">
        <ele>21</ele>
        <time>2015-09-01T08:37:48.000Z</time>
      </trkpt>
      <trkpt lat="47.49729" lon="-0.61002">
        <ele>23</ele>
        <time>2015-09-01T08:37:49.000Z</time>
      </trkpt>
      <trkpt lat="47.49732" lon="-0.61">
        <ele>23</ele>
        <time>2015-09-01T08:37:50.000Z</time>
      </trkpt>
      <trkpt lat="47.49736" lon="-0.60999">
        <ele>24</ele>
        <time>2015-09-01T08:37:51.000Z</time>
      </trkpt>
      <trkpt lat="47.49739" lon="-0.60997">
        <ele>24</ele>
        <time>2015-09-01T08:37:52.000Z</time>
      </trkpt>
      <trkpt lat="47.49742" lon="-0.60995">
        <ele>24</ele>
        <time>2015-09-01T08:37:53.000Z</time>
      </trkpt>
      <trkpt lat="47.49745" lon="-0.60993">
        <ele>24</ele>
        <time>2015-09-01T08:37:54.000Z</time>
      </trkpt>
      <trkpt lat="47.49748" lon="-0.60991">
        <ele>24</ele>
        <time>2015-09-01T08:37:55.000Z</time>
      </trkpt>
      <trkpt lat="47.4975" lon="-0.60988">
        <ele>25</ele>
        <time>2015-09-01T08:37:56.000Z</time>
      </trkpt>
      <trkpt lat="47.49753" lon="-0.60984">
        <ele>25</ele>
        <time>2015-09-01T08:37:57.000Z</time>
      </trkpt>
      <trkpt lat="47.49757" lon="-0.60981">
        <ele>25</ele>
        <time>2015-09-01T08:37:58.000Z</time>
      </trkpt>
      <trkpt lat="47.4976" lon="-0.60978">
        <ele>25</ele>
        <time>2015-09-01T08:37:59.000Z</time>
      </trkpt>
      <trkpt lat="47.49763" lon="-0.60975">
        <ele>26</ele>
        <time>2015-09-01T08:38:00.000Z</time>
      </trkpt>
      <trkpt lat="47.49765" lon="-0.60971">
        <ele>26</ele>
        <time>2015-09-01T08:38:01.000Z</time>
      </trkpt>
      <trkpt lat="47.49767" lon="-0.60968">
        <ele>26</ele>
        <time>2015-09-01T08:38:02.000Z</time>
      </trkpt>
      <trkpt lat="47.49769" lon="-0.60965">
        <ele>26</ele>
        <time>2015-09-01T08:38:03.000Z</time>
      </trkpt>
      <trkpt lat="47.49771" lon="-0.60962">
        <ele>26</ele>
        <time>2015-09-01T08:38:04.000Z</time>
      </trkpt>
      <trkpt lat="47.49773" lon="-0.60959">
        <ele>26</ele>
        <time>2015-09-01T08:38:05.000Z</time>
      </trkpt>
      <trkpt lat="47.49775" lon="-0.60956">
        <ele>27</ele>
        <time>2015-09-01T08:38:06.000Z</time>
      </trkpt>
      <trkpt lat="47.49777" lon="-0.60953">
        <ele>27</ele>
        <time>2015-09-01T08:38:07.000Z</time>
      </trkpt>
      <trkpt lat="47.49778" lon="-0.6095">
        <ele>27</ele>
        <time>2015-09-01T08:38:08.000Z</time>
      </trkpt>
      <trkpt lat="47.4978" lon="-0.60947">
        <ele>27</ele>
        <time>2015-09-01T08:38:09.000Z</time>
      </trkpt>
      <trkpt lat="47.49782" lon="-0.60944">
        <ele>27</ele>
        <time>2015-09-01T08:38:10.000Z</time>
      </trkpt>
      <trkpt lat="47.49784" lon="-0.60941">
        <ele>28</ele>
        <time>2015-09-01T08:38:11.000Z</time>
      </trkpt>
      <trkpt lat="47.49786" lon="-0.60938">
        <ele>28</ele>
        <time>2015-09-01T08:38:12.000Z</time>
      </trkpt>
      <trkpt lat="47.49788" lon="-0.60935">
        <ele>28</ele>
        <time>2015-09-01T08:38:13.000Z</time>
      </trkpt>
      <trkpt lat="47.49789" lon="-0.60932">
        <ele>28</ele>
        <time>2015-09-01T08:38:14.000Z</time>
      </trkpt>
      <trkpt lat="47.49789" lon="-0.60929">
        <ele>29</ele>
        <time>2015-09-01T08:38:15.000Z</time>
      </trkpt>
      <trkpt lat="47.4979" lon="-0.60926">
        <ele>29</ele>
        <time>2015-09-01T08:38:16.000Z</time>
      </trkpt>
      <trkpt lat="47.49791" lon="-0.60924">
        <ele>29</ele>
        <time>2015-09-01T08:38:17.000Z</time>
      </trkpt>
      <trkpt lat="47.49793" lon="-0.60921">
        <ele>29</ele>
        <time>2015-09-01T08:38:18.000Z</time>
      </trkpt>
      <trkpt lat="47.49796" lon="-0.60918">
        <ele>30</ele>
        <time>2015-09-01T08:38:19.000Z</time>
      </trkpt>
      <trkpt lat="47.49798" lon="-0.60915">
        <ele>30</ele>
        <time>2015-09-01T08:38:20.000Z</time>
      </trkpt>
      <trkpt lat="47.49801" lon="-0.60911">
        <ele>30</ele>
        <time>2015-09-01T08:38:21.000Z</time>
      </trkpt>
      <trkpt lat="47.49802" lon="-0.60908">
        <ele>31</ele>
        <time>2015-09-01T08:38:22.000Z</time>
      </trkpt>
      <trkpt lat="47.49804" lon="-0.60905">
        <ele>30</ele>
        <time>2015-09-01T08:38:23.000Z</time>
      </trkpt>
      <trkpt lat="47.49806" lon="-0.60902">
        <ele>30</ele>
        <time>2015-09-01T08:38:24.000Z</time>
      </trkpt>
      <trkpt lat="47.49808" lon="-0.60899">
        <ele>29</ele>
        <time>2015-09-01T08:38:25.000Z</time>
      </trkpt>
      <trkpt lat="47.49809" lon="-0.60896">
        <ele>29</ele>
        <time>2015-09-01T08:38:26.000Z</time>
      </trkpt>
      <trkpt lat="47.4981" lon="-0.60892">
        <ele>28</ele>
        <time>2015-09-01T08:38:27.000Z</time>
      </trkpt>
      <trkpt lat="47.49812" lon="-0.60889">
        <ele>28</ele>
        <time>2015-09-01T08:38:28.000Z</time>
      </trkpt>
      <trkpt lat="47.49813" lon="-0.60886">
        <ele>28</ele>
        <time>2015-09-01T08:38:29.000Z</time>
      </trkpt>
      <trkpt lat="47.49815" lon="-0.60883">
        <ele>27</ele>
        <time>2015-09-01T08:38:30.000Z</time>
      </trkpt>
      <trkpt lat="47.49817" lon="-0.6088">
        <ele>27</ele>
        <time>2015-09-01T08:38:31.000Z</time>
      </trkpt>
      <trkpt lat="47.49819" lon="-0.60877">
        <ele>27</ele>
        <time>2015-09-01T08:38:32.000Z</time>
      </trkpt>
      <trkpt lat="47.49822" lon="-0.60873">
        <ele>27</ele>
        <time>2015-09-01T08:38:33.000Z</time>
      </trkpt>
      <trkpt lat="47.49824" lon="-0.6087">
        <ele>27</ele>
        <time>2015-09-01T08:38:34.000Z</time>
      </trkpt>
      <trkpt lat="47.49827" lon="-0.60867">
        <ele>27</ele>
        <time>2015-09-01T08:38:35.000Z</time>
      </trkpt>
      <trkpt lat="47.4983" lon="-0.60864">
        <ele>28</ele>
        <time>2015-09-01T08:38:36.000Z</time>
      </trkpt>
      <trkpt lat="47.49833" lon="-0.60861">
        <ele>28</ele>
        <time>2015-09-01T08:38:37.000Z</time>
      </trkpt>
      <trkpt lat="47.49836" lon="-0.6086">
        <ele>28</ele>
        <time>2015-09-01T08:38:38.000Z</time>
      </trkpt>
      <trkpt lat="47.49838" lon="-0.60859">
        <ele>28</ele>
        <time>2015-09-01T08:38:39.000Z</time>
      </trkpt>
      <trkpt lat="47.4984" lon="-0.6086">
        <ele>28</ele>
        <time>2015-09-01T08:38:40.000Z</time>
      </trkpt>
      <trkpt lat="47.49842" lon="-0.60862">
        <ele>29</ele>
        <time>2015-09-01T08:38:41.000Z</time>
      </trkpt>
      <trkpt lat="47.49843" lon="-0.60863">
        <ele>29</ele>
        <time>2015-09-01T08:38:42.000Z</time>
      </trkpt>
      <trkpt lat="47.49845" lon="-0.60864">
        <ele>29</ele>
        <time>2015-09-01T08:38:43.000Z</time>
      </trkpt>
      <trkpt lat="47.49847" lon="-0.60865">
        <ele>29</ele>
        <time>2015-09-01T08:38:44.000Z</time>
      </trkpt>
      <trkpt lat="47.49848" lon="-0.60866">
        <ele>30</ele>
        <time>2015-09-01T08:38:45.000Z</time>
      </trkpt>
      <trkpt lat="47.49849" lon="-0.60869">
        <ele>30</ele>
        <time>2015-09-01T08:38:46.000Z</time>
      </trkpt>
      <trkpt lat="47.49851" lon="-0.60871">
        <ele>30</ele>
        <time>2015-09-01T08:38:47.000Z</time>
      </trkpt>
      <trkpt lat="47.49851" lon="-0.60873">
        <ele>31</ele>
        <time>2015-09-01T08:38:48.000Z</time>
      </trkpt>
      <trkpt lat="47.49852" lon="-0.60874">
        <ele>31</ele>
        <time>2015-09-01T08:38:49.000Z</time>
      </trkpt>
      <trkpt lat="47.49853" lon="-0.60874">
        <ele>32</ele>
        <time>2015-09-01T08:38:50.000Z</time>
      </trkpt>
      <trkpt lat="47.49854" lon="-0.60874">
        <ele>32</ele>
        <time>2015-09-01T08:38:51.000Z</time>
      </trkpt>
      <trkpt lat="47.49856" lon="-0.60874">
        <ele>33</ele>
        <time>2015-09-01T08:38:52.000Z</time>
      </trkpt>
      <trkpt lat="47.49858" lon="-0.60873">
        <ele>33</ele>
        <time>2015-09-01T08:38:53.000Z</time>
      </trkpt>
      <trkpt lat="47.4986" lon="-0.60872">
        <ele>34</ele>
        <time>2015-09-01T08:38:54.000Z</time>
      </trkpt>
      <trkpt lat="47.49863" lon="-0.60871">
        <ele>35</ele>
        <time>2015-09-01T08:38:55.000Z</time>
      </trkpt>
      <trkpt lat="47.49865" lon="-0.60869">
        <ele>36</ele>
        <time>2015-09-01T08:38:56.000Z</time>
      </trkpt>
      <trkpt lat="47.49868" lon="-0.60866">
        <ele>36</ele>
        <time>2015-09-01T08:38:57.000Z</time>
      </trkpt>
      <trkpt lat="47.4987" lon="-0.60863">
        <ele>36</ele>
        <time>2015-09-01T08:38:58.000Z</time>
      </trkpt>
      <trkpt lat="47.49872" lon="-0.6086">
        <ele>36</ele>
        <time>2015-09-01T08:38:59.000Z</time>
      </trkpt>
      <trkpt lat="47.49874" lon="-0.60857">
        <ele>36</ele>
        <time>2015-09-01T08:39:00.000Z</time>
      </trkpt>
      <trkpt lat="47.49875" lon="-0.60853">
        <ele>37</ele>
        <time>2015-09-01T08:39:01.000Z</time>
      </trkpt>
      <trkpt lat="47.49877" lon="-0.6085">
        <ele>36</ele>
        <time>2015-09-01T08:39:02.000Z</time>
      </trkpt>
      <trkpt lat="47.49878" lon="-0.60846">
        <ele>37</ele>
        <time>2015-09-01T08:39:03.000Z</time>
      </trkpt>
      <trkpt lat="47.4988" lon="-0.60843">
        <ele>37</ele>
        <time>2015-09-01T08:39:04.000Z</time>
      </trkpt>
      <trkpt lat="47.49881" lon="-0.60839">
        <ele>36</ele>
        <time>2015-09-01T08:39:05.000Z</time>
      </trkpt>
      <trkpt lat="47.49882" lon="-0.60835">
        <ele>35</ele>
        <time>2015-09-01T08:39:06.000Z</time>
      </trkpt>
      <trkpt lat="47.49883" lon="-0.6083">
        <ele>35</ele>
        <time>2015-09-01T08:39:07.000Z</time>
      </trkpt>
      <trkpt lat="47.49883" lon="-0.60826">
        <ele>34</ele>
        <time>2015-09-01T08:39:08.000Z</time>
      </trkpt>
      <trkpt lat="47.49884" lon="-0.60821">
        <ele>34</ele>
        <time>2015-09-01T08:39:09.000Z</time>
      </trkpt>
      <trkpt lat="47.49885" lon="-0.60817">
        <ele>35</ele>
        <time>2015-09-01T08:39:10.000Z</time>
      </trkpt>
      <trkpt lat="47.49887" lon="-0.60812">
        <ele>35</ele>
        <time>2015-09-01T08:39:11.000Z</time>
      </trkpt>
      <trkpt lat="47.49889" lon="-0.60808">
        <ele>35</ele>
        <time>2015-09-01T08:39:12.000Z</time>
      </trkpt>
      <trkpt lat="47.49891" lon="-0.60804">
        <ele>35</ele>
        <time>2015-09-01T08:39:13.000Z</time>
      </trkpt>
      <trkpt lat="47.49893" lon="-0.60801">
        <ele>35</ele>
        <time>2015-09-01T08:39:14.000Z</time>
      </trkpt>
      <trkpt lat="47.49895" lon="-0.60797">
        <ele>35</ele>
        <time>2015-09-01T08:39:15.000Z</time>
      </trkpt>
      <trkpt lat="47.49897" lon="-0.60793">
        <ele>35</ele>
        <time>2015-09-01T08:39:16.000Z</time>
      </trkpt>
      <trkpt lat="47.49898" lon="-0.6079">
        <ele>35</ele>
        <time>2015-09-01T08:39:17.000Z</time>
      </trkpt>
      <trkpt lat="47.499" lon="-0.60787">
        <ele>35</ele>
        <time>2015-09-01T08:39:18.000Z</time>
      </trkpt>
      <trkpt lat="47.49902" lon="-0.60785">
        <ele>35</ele>
        <time>2015-09-01T08:39:19.000Z</time>
      </trkpt>
      <trkpt lat="47.49904" lon="-0.60783">
        <ele>35</ele>
        <time>2015-09-01T08:39:20.000Z</time>
      </trkpt>
      <trkpt lat="47.49906" lon="-0.60782">
        <ele>34</ele>
        <time>2015-09-01T08:39:21.000Z</time>
      </trkpt>
      <trkpt lat="47.49908" lon="-0.60781">
        <ele>34</ele>
        <time>2015-09-01T08:39:22.000Z</time>
      </trkpt>
      <trkpt lat="47.49909" lon="-0.6078">
        <ele>34</ele>
        <time>2015-09-01T08:39:23.000Z</time>
      </trkpt>
      <trkpt lat="47.49911" lon="-0.6078">
        <ele>33</ele>
        <time>2015-09-01T08:39:24.000Z</time>
      </trkpt>
      <trkpt lat="47.49912" lon="-0.60779">
        <ele>33</ele>
        <time>2015-09-01T08:39:25.000Z</time>
      </trkpt>
      <trkpt lat="47.49913" lon="-0.60778">
        <ele>33</ele>
        <time>2015-09-01T08:39:26.000Z</time>
      </trkpt>
      <trkpt lat="47.49915" lon="-0.60778">
        <ele>33</ele>
        <time>2015-09-01T08:39:27.000Z</time>
      </trkpt>
      <trkpt lat="47.49916" lon="-0.60777">
        <ele>32</ele>
        <time>2015-09-01T08:39:28.000Z</time>
      </trkpt>
      <trkpt lat="47.49917" lon="-0.60776">
        <ele>32</ele>
        <time>2015-09-01T08:39:29.000Z</time>
      </trkpt>
      <trkpt lat="47.4992" lon="-0.60775">
        <ele>33</ele>
        <time>2015-09-01T08:39:30.000Z</time>
      </trkpt>
      <trkpt lat="47.49923" lon="-0.60773">
        <ele>33</ele>
        <time>2015-09-01T08:39:31.000Z</time>
      </trkpt>
      <trkpt lat="47.49927" lon="-0.60771">
        <ele>33</ele>
        <time>2015-09-01T08:39:32.000Z</time>
      </trkpt>
      <trkpt lat="47.49931" lon="-0.60769">
        <ele>33</ele>
        <time>2015-09-01T08:39:33.000Z</time>
      </trkpt>
      <trkpt lat="47.49934" lon="-0.60767">
        <ele>33</ele>
        <time>2015-09-01T08:39:34.000Z</time>
      </trkpt>
      <trkpt lat="47.49937" lon="-0.60765">
        <ele>33</ele>
        <time>2015-09-01T08:39:35.000Z</time>
      </trkpt>
      <trkpt lat="47.4994" lon="-0.60763">
        <ele>34</ele>
        <time>2015-09-01T08:39:36.000Z</time>
      </trkpt>
      <trkpt lat="47.49944" lon="-0.60761">
        <ele>33</ele>
        <time>2015-09-01T08:39:37.000Z</time>
      </trkpt>
      <trkpt lat="47.49948" lon="-0.60759">
        <ele>33</ele>
        <time>2015-09-01T08:39:38.000Z</time>
      </trkpt>
      <trkpt lat="47.49951" lon="-0.60757">
        <ele>33</ele>
        <time>2015-09-01T08:39:39.000Z</time>
      </trkpt>
      <trkpt lat="47.49954" lon="-0.60755">
        <ele>32</ele>
        <time>2015-09-01T08:39:40.000Z</time>
      </trkpt>
      <trkpt lat="47.49956" lon="-0.60753">
        <ele>32</ele>
        <time>2015-09-01T08:39:41.000Z</time>
      </trkpt>
      <trkpt lat="47.49959" lon="-0.60751">
        <ele>32</ele>
        <time>2015-09-01T08:39:42.000Z</time>
      </trkpt>
      <trkpt lat="47.49962" lon="-0.60749">
        <ele>33</ele>
        <time>2015-09-01T08:39:43.000Z</time>
      </trkpt>
      <trkpt lat="47.49964" lon="-0.60747">
        <ele>33</ele>
        <time>2015-09-01T08:39:44.000Z</time>
      </trkpt>
      <trkpt lat="47.49967" lon="-0.60745">
        <ele>33</ele>
        <time>2015-09-01T08:39:45.000Z</time>
      </trkpt>
      <trkpt lat="47.4997" lon="-0.60742">
        <ele>32</ele>
        <time>2015-09-01T08:39:46.000Z</time>
      </trkpt>
      <trkpt lat="47.49972" lon="-0.6074">
        <ele>32</ele>
        <time>2015-09-01T08:39:47.000Z</time>
      </trkpt>
      <trkpt lat="47.49974" lon="-0.60738">
        <ele>32</ele>
        <time>2015-09-01T08:39:48.000Z</time>
      </trkpt>
      <trkpt lat="47.49977" lon="-0.60735">
        <ele>32</ele>
        <time>2015-09-01T08:39:49.000Z</time>
      </trkpt>
      <trkpt lat="47.49979" lon="-0.60731">
        <ele>33</ele>
        <time>2015-09-01T08:39:50.000Z</time>
      </trkpt>
      <trkpt lat="47.49981" lon="-0.60728">
        <ele>33</ele>
        <time>2015-09-01T08:39:51.000Z</time>
      </trkpt>
      <trkpt lat="47.49983" lon="-0.60724">
        <ele>34</ele>
        <time>2015-09-01T08:39:52.000Z</time>
      </trkpt>
      <trkpt lat="47.49984" lon="-0.6072">
        <ele>33</ele>
        <time>2015-09-01T08:39:53.000Z</time>
      </trkpt>
      <trkpt lat="47.49985" lon="-0.60716">
        <ele>33</ele>
        <time>2015-09-01T08:39:54.000Z</time>
      </trkpt>
      <trkpt lat="47.49986" lon="-0.60712">
        <ele>34</ele>
        <time>2015-09-01T08:39:55.000Z</time>
      </trkpt>
      <trkpt lat="47.49987" lon="-0.60707">
        <ele>34</ele>
        <time>2015-09-01T08:39:56.000Z</time>
      </trkpt>
      <trkpt lat="47.49988" lon="-0.60703">
        <ele>33</ele>
        <time>2015-09-01T08:39:57.000Z</time>
      </trkpt>
      <trkpt lat="47.49989" lon="-0.60699">
        <ele>33</ele>
        <time>2015-09-01T08:39:58.000Z</time>
      </trkpt>
      <trkpt lat="47.49989" lon="-0.60694">
        <ele>33</ele>
        <time>2015-09-01T08:39:59.000Z</time>
      </trkpt>
      <trkpt lat="47.4999" lon="-0.6069">
        <ele>33</ele>
        <time>2015-09-01T08:40:00.000Z</time>
      </trkpt>
      <trkpt lat="47.49991" lon="-0.60686">
        <ele>33</ele>
        <time>2015-09-01T08:40:01.000Z</time>
      </trkpt>
      <trkpt lat="47.49991" lon="-0.60682">
        <ele>33</ele>
        <time>2015-09-01T08:40:02.000Z</time>
      </trkpt>
      <trkpt lat="47.49992" lon="-0.60678">
        <ele>34</ele>
        <time>2015-09-01T08:40:03.000Z</time>
      </trkpt>
      <trkpt lat="47.49993" lon="-0.60674">
        <ele>34</ele>
        <time>2015-09-01T08:40:04.000Z</time>
      </trkpt>
      <trkpt lat="47.49995" lon="-0.60671">
        <ele>35</ele>
        <time>2015-09-01T08:40:05.000Z</time>
      </trkpt>
      <trkpt lat="47.49996" lon="-0.60667">
        <ele>36</ele>
        <time>2015-09-01T08:40:06.000Z</time>
      </trkpt>
      <trkpt lat="47.49997" lon="-0.60663">
        <ele>37</ele>
        <time>2015-09-01T08:40:07.000Z</time>
      </trkpt>
      <trkpt lat="47.49998" lon="-0.60659">
        <ele>38</ele>
        <time>2015-09-01T08:40:08.000Z</time>
      </trkpt>
      <trkpt lat="47.49999" lon="-0.60655">
        <ele>38</ele>
        <time>2015-09-01T08:40:09.000Z</time>
      </trkpt>
      <trkpt lat="47.5" lon="-0.60651">
        <ele>39</ele>
        <time>2015-09-01T08:40:10.000Z</time>
      </trkpt>
      <trkpt lat="47.50001" lon="-0.60646">
        <ele>39</ele>
        <time>2015-09-01T08:40:11.000Z</time>
      </trkpt>
      <trkpt lat="47.50002" lon="-0.60642">
        <ele>39</ele>
        <time>2015-09-01T08:40:12.000Z</time>
      </trkpt>
      <trkpt lat="47.50003" lon="-0.60637">
        <ele>40</ele>
        <time>2015-09-01T08:40:13.000Z</time>
      </trkpt>
      <trkpt lat="47.50004" lon="-0.60633">
        <ele>40</ele>
        <time>2015-09-01T08:40:14.000Z</time>
      </trkpt>
      <trkpt lat="47.50005" lon="-0.60629">
        <ele>40</ele>
        <time>2015-09-01T08:40:15.000Z</time>
      </trkpt>
      <trkpt lat="47.50006" lon="-0.60624">
        <ele>40</ele>
        <time>2015-09-01T08:40:16.000Z</time>
      </trkpt>
      <trkpt lat="47.50007" lon="-0.6062">
        <ele>41</ele>
        <time>2015-09-01T08:40:17.000Z</time>
      </trkpt>
      <trkpt lat="47.50008" lon="-0.60616">
        <ele>41</ele>
        <time>2015-09-01T08:40:18.000Z</time>
      </trkpt>
      <trkpt lat="47.50009" lon="-0.60611">
        <ele>41</ele>
        <time>2015-09-01T08:40:19.000Z</time>
      </trkpt>
      <trkpt lat="47.50009" lon="-0.60607">
        <ele>41</ele>
        <time>2015-09-01T08:40:20.000Z</time>
      </trkpt>
      <trkpt lat="47.5001" lon="-0.60603">
        <ele>41</ele>
        <time>2015-09-01T08:40:21.000Z</time>
      </trkpt>
      <trkpt lat="47.5001" lon="-0.60599">
        <ele>42</ele>
        <time>2015-09-01T08:40:22.000Z</time>
      </trkpt>
      <trkpt lat="47.50011" lon="-0.60595">
        <ele>42</ele>
        <time>2015-09-01T08:40:23.000Z</time>
      </trkpt>
      <trkpt lat="47.50011" lon="-0.60591">
        <ele>42</ele>
        <time>2015-09-01T08:40:24.000Z</time>
      </trkpt>
      <trkpt lat="47.50011" lon="-0.60587">
        <ele>43</ele>
        <time>2015-09-01T08:40:25.000Z</time>
      </trkpt>
      <trkpt lat="47.50012" lon="-0.60582">
        <ele>43</ele>
        <time>2015-09-01T08:40:26.000Z</time>
      </trkpt>
      <trkpt lat="47.50013" lon="-0.60577">
        <ele>43</ele>
        <time>2015-09-01T08:40:27.000Z</time>
      </trkpt>
      <trkpt lat="47.50014" lon="-0.60573">
        <ele>44</ele>
        <time>2015-09-01T08:40:28.000Z</time>
      </trkpt>
      <trkpt lat="47.50014" lon="-0.60568">
        <ele>44</ele>
        <time>2015-09-01T08:40:29.000Z</time>
      </trkpt>
      <trkpt lat="47.50015" lon="-0.60563">
        <ele>43</ele>
        <time>2015-09-01T08:40:30.000Z</time>
      </trkpt>
      <trkpt lat="47.50016" lon="-0.60559">
        <ele>43</ele>
        <time>2015-09-01T08:40:31.000Z</time>
      </trkpt>
      <trkpt lat="47.50016" lon="-0.60554">
        <ele>42</ele>
        <time>2015-09-01T08:40:32.000Z</time>
      </trkpt>
      <trkpt lat="47.50016" lon="-0.60549">
        <ele>41</ele>
        <time>2015-09-01T08:40:33.000Z</time>
      </trkpt>
      <trkpt lat="47.50016" lon="-0.60545">
        <ele>41</ele>
        <time>2015-09-01T08:40:34.000Z</time>
      </trkpt>
      <trkpt lat="47.50017" lon="-0.60541">
        <ele>41</ele>
        <time>2015-09-01T08:40:35.000Z</time>
      </trkpt>
      <trkpt lat="47.50018" lon="-0.60536">
        <ele>41</ele>
        <time>2015-09-01T08:40:36.000Z</time>
      </trkpt>
      <trkpt lat="47.50019" lon="-0.60532">
        <ele>42</ele>
        <time>2015-09-01T08:40:37.000Z</time>
      </trkpt>
      <trkpt lat="47.50021" lon="-0.60528">
        <ele>42</ele>
        <time>2015-09-01T08:40:38.000Z</time>
      </trkpt>
      <trkpt lat="47.50022" lon="-0.60524">
        <ele>43</ele>
        <time>2015-09-01T08:40:39.000Z</time>
      </trkpt>
      <trkpt lat="47.50022" lon="-0.60521">
        <ele>44</ele>
        <time>2015-09-01T08:40:40.000Z</time>
      </trkpt>
      <trkpt lat="47.50022" lon="-0.60518">
        <ele>44</ele>
        <time>2015-09-01T08:40:41.000Z</time>
      </trkpt>
      <trkpt lat="47.50022" lon="-0.60516">
        <ele>47</ele>
        <time>2015-09-01T08:40:42.000Z</time>
      </trkpt>
      <trkpt lat="47.50022" lon="-0.60515">
        <ele>46</ele>
        <time>2015-09-01T08:40:43.000Z</time>
      </trkpt>
      <trkpt lat="47.50022" lon="-0.60515">
        <ele>46</ele>
        <time>2015-09-01T08:40:44.000Z</time>
      </trkpt>
      <trkpt lat="47.50023" lon="-0.60513">
        <ele>47</ele>
        <time>2015-09-01T08:40:45.000Z</time>
      </trkpt>
      <trkpt lat="47.50024" lon="-0.6051">
        <ele>49</ele>
        <time>2015-09-01T08:40:46.000Z</time>
      </trkpt>
      <trkpt lat="47.50026" lon="-0.60506">
        <ele>50</ele>
        <time>2015-09-01T08:40:47.000Z</time>
      </trkpt>
      <trkpt lat="47.50026" lon="-0.60502">
        <ele>50</ele>
        <time>2015-09-01T08:40:48.000Z</time>
      </trkpt>
      <trkpt lat="47.50027" lon="-0.60497">
        <ele>50</ele>
        <time>2015-09-01T08:40:49.000Z</time>
      </trkpt>
      <trkpt lat="47.50028" lon="-0.60493">
        <ele>51</ele>
        <time>2015-09-01T08:40:50.000Z</time>
      </trkpt>
      <trkpt lat="47.50029" lon="-0.60489">
        <ele>51</ele>
        <time>2015-09-01T08:40:51.000Z</time>
      </trkpt>
      <trkpt lat="47.5003" lon="-0.60485">
        <ele>51</ele>
        <time>2015-09-01T08:40:52.000Z</time>
      </trkpt>
      <trkpt lat="47.5003" lon="-0.6048">
        <ele>50</ele>
        <time>2015-09-01T08:40:53.000Z</time>
      </trkpt>
      <trkpt lat="47.5003" lon="-0.60476">
        <ele>50</ele>
        <time>2015-09-01T08:40:54.000Z</time>
      </trkpt>
      <trkpt lat="47.5003" lon="-0.60472">
        <ele>47</ele>
        <time>2015-09-01T08:40:55.000Z</time>
      </trkpt>
      <trkpt lat="47.50029" lon="-0.60468">
        <ele>46</ele>
        <time>2015-09-01T08:40:56.000Z</time>
      </trkpt>
      <trkpt lat="47.50029" lon="-0.60464">
        <ele>45</ele>
        <time>2015-09-01T08:40:57.000Z</time>
      </trkpt>
      <trkpt lat="47.50029" lon="-0.60461">
        <ele>44</ele>
        <time>2015-09-01T08:40:58.000Z</time>
      </trkpt>
      <trkpt lat="47.50029" lon="-0.60459">
        <ele>42</ele>
        <time>2015-09-01T08:40:59.000Z</time>
      </trkpt>
      <trkpt lat="47.50029" lon="-0.60458">
        <ele>41</ele>
        <time>2015-09-01T08:41:00.000Z</time>
      </trkpt>
      <trkpt lat="47.5003" lon="-0.60457">
        <ele>39</ele>
        <time>2015-09-01T08:41:01.000Z</time>
      </trkpt>
      <trkpt lat="47.5003" lon="-0.60457">
        <ele>35</ele>
        <time>2015-09-01T08:41:02.000Z</time>
      </trkpt>
      <trkpt lat="47.5003" lon="-0.60458">
        <ele>33</ele>
        <time>2015-09-01T08:41:03.000Z</time>
      </trkpt>
      <trkpt lat="47.50031" lon="-0.60459">
        <ele>31</ele>
        <time>2015-09-01T08:41:04.000Z</time>
      </trkpt>
      <trkpt lat="47.50032" lon="-0.6046">
        <ele>30</ele>
        <time>2015-09-01T08:41:05.000Z</time>
      </trkpt>
      <trkpt lat="47.50033" lon="-0.6046">
        <ele>28</ele>
        <time>2015-09-01T08:41:06.000Z</time>
      </trkpt>
      <trkpt lat="47.50034" lon="-0.60461">
        <ele>26</ele>
        <time>2015-09-01T08:41:07.000Z</time>
      </trkpt>
      <trkpt lat="47.50036" lon="-0.60461">
        <ele>25</ele>
        <time>2015-09-01T08:41:08.000Z</time>
      </trkpt>
      <trkpt lat="47.50037" lon="-0.60461">
        <ele>24</ele>
        <time>2015-09-01T08:41:09.000Z</time>
      </trkpt>
      <trkpt lat="47.50039" lon="-0.60462">
        <ele>23</ele>
        <time>2015-09-01T08:41:10.000Z</time>
      </trkpt>
      <trkpt lat="47.50042" lon="-0.60463">
        <ele>22</ele>
        <time>2015-09-01T08:41:11.000Z</time>
      </trkpt>
      <trkpt lat="47.50044" lon="-0.60464">
        <ele>23</ele>
        <time>2015-09-01T08:41:12.000Z</time>
      </trkpt>
      <trkpt lat="47.50047" lon="-0.60465">
        <ele>24</ele>
        <time>2015-09-01T08:41:13.000Z</time>
      </trkpt>
      <trkpt lat="47.5005" lon="-0.60466">
        <ele>24</ele>
        <time>2015-09-01T08:41:14.000Z</time>
      </trkpt>
      <trkpt lat="47.50053" lon="-0.60467">
        <ele>23</ele>
        <time>2015-09-01T08:41:15.000Z</time>
      </trkpt>
      <trkpt lat="47.50055" lon="-0.60468">
        <ele>23</ele>
        <time>2015-09-01T08:41:16.000Z</time>
      </trkpt>
      <trkpt lat="47.50058" lon="-0.60469">
        <ele>24</ele>
        <time>2015-09-01T08:41:17.000Z</time>
      </trkpt>
      <trkpt lat="47.50061" lon="-0.6047">
        <ele>23</ele>
        <time>2015-09-01T08:41:18.000Z</time>
      </trkpt>
      <trkpt lat="47.50064" lon="-0.60471">
        <ele>23</ele>
        <time>2015-09-01T08:41:19.000Z</time>
      </trkpt>
      <trkpt lat="47.50066" lon="-0.60473">
        <ele>23</ele>
        <time>2015-09-01T08:41:20.000Z</time>
      </trkpt>
      <trkpt lat="47.50069" lon="-0.60474">
        <ele>22</ele>
        <time>2015-09-01T08:41:21.000Z</time>
      </trkpt>
      <trkpt lat="47.50071" lon="-0.60475">
        <ele>21</ele>
        <time>2015-09-01T08:41:22.000Z</time>
      </trkpt>
      <trkpt lat="47.50074" lon="-0.60477">
        <ele>19</ele>
        <time>2015-09-01T08:41:23.000Z</time>
      </trkpt>
      <trkpt lat="47.50076" lon="-0.60478">
        <ele>19</ele>
        <time>2015-09-01T08:41:24.000Z</time>
      </trkpt>
      <trkpt lat="47.50078" lon="-0.60479">
        <ele>18</ele>
        <time>2015-09-01T08:41:25.000Z</time>
      </trkpt>
      <trkpt lat="47.5008" lon="-0.60481">
        <ele>18</ele>
        <time>2015-09-01T08:41:26.000Z</time>
      </trkpt>
      <trkpt lat="47.50082" lon="-0.60483">
        <ele>17</ele>
        <time>2015-09-01T08:41:27.000Z</time>
      </trkpt>
      <trkpt lat="47.50086" lon="-0.60485">
        <ele>17</ele>
        <time>2015-09-01T08:41:28.000Z</time>
      </trkpt>
      <trkpt lat="47.50089" lon="-0.60487">
        <ele>18</ele>
        <time>2015-09-01T08:41:29.000Z</time>
      </trkpt>
      <trkpt lat="47.50093" lon="-0.60488">
        <ele>18</ele>
        <time>2015-09-01T08:41:30.000Z</time>
      </trkpt>
      <trkpt lat="47.50096" lon="-0.6049">
        <ele>19</ele>
        <time>2015-09-01T08:41:31.000Z</time>
      </trkpt>
      <trkpt lat="47.501" lon="-0.60492">
        <ele>19</ele>
        <time>2015-09-01T08:41:32.000Z</time>
      </trkpt>
      <trkpt lat="47.50103" lon="-0.60494">
        <ele>18</ele>
        <time>2015-09-01T08:41:33.000Z</time>
      </trkpt>
      <trkpt lat="47.50105" lon="-0.60496">
        <ele>18</ele>
        <time>2015-09-01T08:41:34.000Z</time>
      </trkpt>
      <trkpt lat="47.50107" lon="-0.60497">
        <ele>18</ele>
        <time>2015-09-01T08:41:35.000Z</time>
      </trkpt>
      <trkpt lat="47.50109" lon="-0.60499">
        <ele>17</ele>
        <time>2015-09-01T08:41:36.000Z</time>
      </trkpt>
      <trkpt lat="47.5011" lon="-0.60501">
        <ele>18</ele>
        <time>2015-09-01T08:41:37.000Z</time>
      </trkpt>
      <trkpt lat="47.50113" lon="-0.60504">
        <ele>19</ele>
        <time>2015-09-01T08:41:38.000Z</time>
      </trkpt>
      <trkpt lat="47.50115" lon="-0.60506">
        <ele>20</ele>
        <time>2015-09-01T08:41:39.000Z</time>
      </trkpt>
      <trkpt lat="47.50116" lon="-0.60509">
        <ele>19</ele>
        <time>2015-09-01T08:41:40.000Z</time>
      </trkpt>
      <trkpt lat="47.50117" lon="-0.60511">
        <ele>19</ele>
        <time>2015-09-01T08:41:41.000Z</time>
      </trkpt>
      <trkpt lat="47.50119" lon="-0.60512">
        <ele>18</ele>
        <time>2015-09-01T08:41:42.000Z</time>
      </trkpt>
      <trkpt lat="47.50122" lon="-0.60513">
        <ele>18</ele>
        <time>2015-09-01T08:41:43.000Z</time>
      </trkpt>
      <trkpt lat="47.50125" lon="-0.60514">
        <ele>18</ele>
        <time>2015-09-01T08:41:44.000Z</time>
      </trkpt>
      <trkpt lat="47.50129" lon="-0.60515">
        <ele>19</ele>
        <time>2015-09-01T08:41:45.000Z</time>
      </trkpt>
      <trkpt lat="47.50132" lon="-0.60516">
        <ele>19</ele>
        <time>2015-09-01T08:41:46.000Z</time>
      </trkpt>
      <trkpt lat="47.50135" lon="-0.60516">
        <ele>20</ele>
        <time>2015-09-01T08:41:47.000Z</time>
      </trkpt>
      <trkpt lat="47.50138" lon="-0.60516">
        <ele>20</ele>
        <time>2015-09-01T08:41:48.000Z</time>
      </trkpt>
      <trkpt lat="47.5014" lon="-0.60516">
        <ele>21</ele>
        <time>2015-09-01T08:41:49.000Z</time>
      </trkpt>
      <trkpt lat="47.50143" lon="-0.60515">
        <ele>22</ele>
        <time>2015-09-01T08:41:50.000Z</time>
      </trkpt>
      <trkpt lat="47.50146" lon="-0.60514">
        <ele>22</ele>
        <time>2015-09-01T08:41:51.000Z</time>
      </trkpt>
      <trkpt lat="47.50148" lon="-0.60513">
        <ele>22</ele>
        <time>2015-09-01T08:41:52.000Z</time>
      </trkpt>
      <trkpt lat="47.50151" lon="-0.60512">
        <ele>23</ele>
        <time>2015-09-01T08:41:53.000Z</time>
      </trkpt>
      <trkpt lat="47.50153" lon="-0.60511">
        <ele>22</ele>
        <time>2015-09-01T08:41:54.000Z</time>
      </trkpt>
      <trkpt lat="47.50156" lon="-0.60509">
        <ele>22</ele>
        <time>2015-09-01T08:41:55.000Z</time>
      </trkpt>
      <trkpt lat="47.50159" lon="-0.60509">
        <ele>22</ele>
        <time>2015-09-01T08:41:56.000Z</time>
      </trkpt>
      <trkpt lat="47.50162" lon="-0.60507">
        <ele>22</ele>
        <time>2015-09-01T08:41:57.000Z</time>
      </trkpt>
      <trkpt lat="47.50165" lon="-0.60506">
        <ele>22</ele>
        <time>2015-09-01T08:41:58.000Z</time>
      </trkpt>
      <trkpt lat="47.50168" lon="-0.60504">
        <ele>24</ele>
        <time>2015-09-01T08:41:59.000Z</time>
      </trkpt>
      <trkpt lat="47.50171" lon="-0.60502">
        <ele>24</ele>
        <time>2015-09-01T08:42:00.000Z</time>
      </trkpt>
      <trkpt lat="47.50174" lon="-0.60501">
        <ele>26</ele>
        <time>2015-09-01T08:42:01.000Z</time>
      </trkpt>
      <trkpt lat="47.50178" lon="-0.605">
        <ele>27</ele>
        <time>2015-09-01T08:42:02.000Z</time>
      </trkpt>
      <trkpt lat="47.50182" lon="-0.60499">
        <ele>28</ele>
        <time>2015-09-01T08:42:03.000Z</time>
      </trkpt>
      <trkpt lat="47.50186" lon="-0.60497">
        <ele>28</ele>
        <time>2015-09-01T08:42:04.000Z</time>
      </trkpt>
      <trkpt lat="47.5019" lon="-0.60496">
        <ele>29</ele>
        <time>2015-09-01T08:42:05.000Z</time>
      </trkpt>
      <trkpt lat="47.50193" lon="-0.60495">
        <ele>30</ele>
        <time>2015-09-01T08:42:06.000Z</time>
      </trkpt>
      <trkpt lat="47.50196" lon="-0.60493">
        <ele>29</ele>
        <time>2015-09-01T08:42:07.000Z</time>
      </trkpt>
      <trkpt lat="47.50198" lon="-0.60492">
        <ele>29</ele>
        <time>2015-09-01T08:42:08.000Z</time>
      </trkpt>
      <trkpt lat="47.50201" lon="-0.60491">
        <ele>29</ele>
        <time>2015-09-01T08:42:09.000Z</time>
      </trkpt>
      <trkpt lat="47.50204" lon="-0.60489">
        <ele>31</ele>
        <time>2015-09-01T08:42:10.000Z</time>
      </trkpt>
      <trkpt lat="47.50207" lon="-0.60487">
        <ele>31</ele>
        <time>2015-09-01T08:42:11.000Z</time>
      </trkpt>
      <trkpt lat="47.5021" lon="-0.60486">
        <ele>31</ele>
        <time>2015-09-01T08:42:12.000Z</time>
      </trkpt>
      <trkpt lat="47.50212" lon="-0.60485">
        <ele>32</ele>
        <time>2015-09-01T08:42:13.000Z</time>
      </trkpt>
      <trkpt lat="47.50214" lon="-0.60484">
        <ele>32</ele>
        <time>2015-09-01T08:42:14.000Z</time>
      </trkpt>
      <trkpt lat="47.50216" lon="-0.60482">
        <ele>33</ele>
        <time>2015-09-01T08:42:15.000Z</time>
      </trkpt>
      <trkpt lat="47.5022" lon="-0.6048">
        <ele>33</ele>
        <time>2015-09-01T08:42:16.000Z</time>
      </trkpt>
      <trkpt lat="47.50224" lon="-0.60478">
        <ele>34</ele>
        <time>2015-09-01T08:42:17.000Z</time>
      </trkpt>
      <trkpt lat="47.50228" lon="-0.60476">
        <ele>34</ele>
        <time>2015-09-01T08:42:18.000Z</time>
      </trkpt>
      <trkpt lat="47.50232" lon="-0.60474">
        <ele>34</ele>
        <time>2015-09-01T08:42:19.000Z</time>
      </trkpt>
      <trkpt lat="47.50235" lon="-0.60473">
        <ele>35</ele>
        <time>2015-09-01T08:42:20.000Z</time>
      </trkpt>
      <trkpt lat="47.50238" lon="-0.60471">
        <ele>34</ele>
        <time>2015-09-01T08:42:21.000Z</time>
      </trkpt>
      <trkpt lat="47.50241" lon="-0.60469">
        <ele>34</ele>
        <time>2015-09-01T08:42:22.000Z</time>
      </trkpt>
      <trkpt lat="47.50243" lon="-0.60468">
        <ele>35</ele>
        <time>2015-09-01T08:42:23.000Z</time>
      </trkpt>
      <trkpt lat="47.50246" lon="-0.60467">
        <ele>35</ele>
        <time>2015-09-01T08:42:24.000Z</time>
      </trkpt>
      <trkpt lat="47.50248" lon="-0.60466">
        <ele>35</ele>
        <time>2015-09-01T08:42:25.000Z</time>
      </trkpt>
      <trkpt lat="47.50251" lon="-0.60466">
        <ele>36</ele>
        <time>2015-09-01T08:42:26.000Z</time>
      </trkpt>
      <trkpt lat="47.50254" lon="-0.60466">
        <ele>37</ele>
        <time>2015-09-01T08:42:27.000Z</time>
      </trkpt>
      <trkpt lat="47.50259" lon="-0.60465">
        <ele>38</ele>
        <time>2015-09-01T08:42:28.000Z</time>
      </trkpt>
      <trkpt lat="47.50263" lon="-0.60463">
        <ele>38</ele>
        <time>2015-09-01T08:42:29.000Z</time>
      </trkpt>
      <trkpt lat="47.50268" lon="-0.60462">
        <ele>38</ele>
        <time>2015-09-01T08:42:30.000Z</time>
      </trkpt>
      <trkpt lat="47.50271" lon="-0.60461">
        <ele>38</ele>
        <time>2015-09-01T08:42:31.000Z</time>
      </trkpt>
      <trkpt lat="47.50273" lon="-0.6046">
        <ele>37</ele>
        <time>2015-09-01T08:42:32.000Z</time>
      </trkpt>
      <trkpt lat="47.50276" lon="-0.6046">
        <ele>37</ele>
        <time>2015-09-01T08:42:33.000Z</time>
      </trkpt>
      <trkpt lat="47.50278" lon="-0.60459">
        <ele>38</ele>
        <time>2015-09-01T08:42:34.000Z</time>
      </trkpt>
      <trkpt lat="47.50281" lon="-0.60458">
        <ele>38</ele>
        <time>2015-09-01T08:42:35.000Z</time>
      </trkpt>
      <trkpt lat="47.50282" lon="-0.60455">
        <ele>39</ele>
        <time>2015-09-01T08:42:36.000Z</time>
      </trkpt>
      <trkpt lat="47.50283" lon="-0.60451">
        <ele>38</ele>
        <time>2015-09-01T08:42:37.000Z</time>
      </trkpt>
      <trkpt lat="47.50283" lon="-0.60447">
        <ele>38</ele>
        <time>2015-09-01T08:42:38.000Z</time>
      </trkpt>
      <trkpt lat="47.50283" lon="-0.60443">
        <ele>38</ele>
        <time>2015-09-01T08:42:39.000Z</time>
      </trkpt>
      <trkpt lat="47.50283" lon="-0.60439">
        <ele>37</ele>
        <time>2015-09-01T08:42:40.000Z</time>
      </trkpt>
      <trkpt lat="47.50284" lon="-0.60435">
        <ele>37</ele>
        <time>2015-09-01T08:42:41.000Z</time>
      </trkpt>
      <trkpt lat="47.50285" lon="-0.60432">
        <ele>37</ele>
        <time>2015-09-01T08:42:42.000Z</time>
      </trkpt>
      <trkpt lat="47.50287" lon="-0.60429">
        <ele>37</ele>
        <time>2015-09-01T08:42:43.000Z</time>
      </trkpt>
      <trkpt lat="47.50289" lon="-0.60426">
        <ele>37</ele>
        <time>2015-09-01T08:42:44.000Z</time>
      </trkpt>
      <trkpt lat="47.50291" lon="-0.60424">
        <ele>37</ele>
        <time>2015-09-01T08:42:45.000Z</time>
      </trkpt>
      <trkpt lat="47.50293" lon="-0.60423">
        <ele>37</ele>
        <time>2015-09-01T08:42:46.000Z</time>
      </trkpt>
      <trkpt lat="47.50295" lon="-0.60422">
        <ele>37</ele>
        <time>2015-09-01T08:42:47.000Z</time>
      </trkpt>
      <trkpt lat="47.50297" lon="-0.60421">
        <ele>37</ele>
        <time>2015-09-01T08:42:48.000Z</time>
      </trkpt>
      <trkpt lat="47.503" lon="-0.6042">
        <ele>37</ele>
        <time>2015-09-01T08:42:49.000Z</time>
      </trkpt>
      <trkpt lat="47.50303" lon="-0.60419">
        <ele>37</ele>
        <time>2015-09-01T08:42:50.000Z</time>
      </trkpt>
      <trkpt lat="47.50305" lon="-0.60417">
        <ele>37</ele>
        <time>2015-09-01T08:42:51.000Z</time>
      </trkpt>
      <trkpt lat="47.50307" lon="-0.60416">
        <ele>37</ele>
        <time>2015-09-01T08:42:52.000Z</time>
      </trkpt>
      <trkpt lat="47.5031" lon="-0.60415">
        <ele>37</ele>
        <time>2015-09-01T08:42:53.000Z</time>
      </trkpt>
      <trkpt lat="47.50312" lon="-0.60415">
        <ele>37</ele>
        <time>2015-09-01T08:42:54.000Z</time>
      </trkpt>
      <trkpt lat="47.50314" lon="-0.60415">
        <ele>37</ele>
        <time>2015-09-01T08:42:55.000Z</time>
      </trkpt>
      <trkpt lat="47.50315" lon="-0.60415">
        <ele>37</ele>
        <time>2015-09-01T08:42:56.000Z</time>
      </trkpt>
      <trkpt lat="47.50317" lon="-0.60416">
        <ele>37</ele>
        <time>2015-09-01T08:42:57.000Z</time>
      </trkpt>
      <trkpt lat="47.5032" lon="-0.60417">
        <ele>37</ele>
        <time>2015-09-01T08:42:58.000Z</time>
      </trkpt>
      <trkpt lat="47.50323" lon="-0.60418">
        <ele>37</ele>
        <time>2015-09-01T08:42:59.000Z</time>
      </trkpt>
      <trkpt lat="47.50326" lon="-0.60418">
        <ele>37</ele>
        <time>2015-09-01T08:43:00.000Z</time>
      </trkpt>
      <trkpt lat="47.50328" lon="-0.60419">
        <ele>38</ele>
        <time>2015-09-01T08:43:01.000Z</time>
      </trkpt>
      <trkpt lat="47.50329" lon="-0.6042">
        <ele>38</ele>
        <time>2015-09-01T08:43:02.000Z</time>
      </trkpt>
      <trkpt lat="47.50331" lon="-0.6042">
        <ele>38</ele>
        <time>2015-09-01T08:43:03.000Z</time>
      </trkpt>
      <trkpt lat="47.50334" lon="-0.60421">
        <ele>38</ele>
        <time>2015-09-01T08:43:04.000Z</time>
      </trkpt>
      <trkpt lat="47.50336" lon="-0.60421">
        <ele>38</ele>
        <time>2015-09-01T08:43:05.000Z</time>
      </trkpt>
      <trkpt lat="47.50337" lon="-0.60422">
        <ele>38</ele>
        <time>2015-09-01T08:43:06.000Z</time>
      </trkpt>
      <trkpt lat="47.50339" lon="-0.60423">
        <ele>38</ele>
        <time>2015-09-01T08:43:07.000Z</time>
      </trkpt>
      <trkpt lat="47.50341" lon="-0.60424">
        <ele>38</ele>
        <time>2015-09-01T08:43:08.000Z</time>
      </trkpt>
      <trkpt lat="47.50343" lon="-0.60426">
        <ele>38</ele>
        <time>2015-09-01T08:43:09.000Z</time>
      </trkpt>
      <trkpt lat="47.50345" lon="-0.60428">
        <ele>38</ele>
        <time>2015-09-01T08:43:10.000Z</time>
      </trkpt>
      <trkpt lat="47.50346" lon="-0.60429">
        <ele>38</ele>
        <time>2015-09-01T08:43:11.000Z</time>
      </trkpt>
      <trkpt lat="47.50347" lon="-0.60431">
        <ele>39</ele>
        <time>2015-09-01T08:43:12.000Z</time>
      </trkpt>
      <trkpt lat="47.50348" lon="-0.60433">
        <ele>39</ele>
        <time>2015-09-01T08:43:13.000Z</time>
      </trkpt>
      <trkpt lat="47.50349" lon="-0.60435">
        <ele>39</ele>
        <time>2015-09-01T08:43:14.000Z</time>
      </trkpt>
      <trkpt lat="47.50351" lon="-0.60437">
        <ele>39</ele>
        <time>2015-09-01T08:43:15.000Z</time>
      </trkpt>
      <trkpt lat="47.50352" lon="-0.60439">
        <ele>39</ele>
        <time>2015-09-01T08:43:16.000Z</time>
      </trkpt>
      <trkpt lat="47.50354" lon="-0.60441">
        <ele>39</ele>
        <time>2015-09-01T08:43:17.000Z</time>
      </trkpt>
      <trkpt lat="47.50356" lon="-0.60444">
        <ele>39</ele>
        <time>2015-09-01T08:43:18.000Z</time>
      </trkpt>
      <trkpt lat="47.50358" lon="-0.60446">
        <ele>40</ele>
        <time>2015-09-01T08:43:19.000Z</time>
      </trkpt>
      <trkpt lat="47.50359" lon="-0.60449">
        <ele>40</ele>
        <time>2015-09-01T08:43:20.000Z</time>
      </trkpt>
      <trkpt lat="47.50361" lon="-0.60451">
        <ele>40</ele>
        <time>2015-09-01T08:43:21.000Z</time>
      </trkpt>
      <trkpt lat="47.50364" lon="-0.60454">
        <ele>39</ele>
        <time>2015-09-01T08:43:22.000Z</time>
      </trkpt>
      <trkpt lat="47.50367" lon="-0.60456">
        <ele>39</ele>
        <time>2015-09-01T08:43:23.000Z</time>
      </trkpt>
      <trkpt lat="47.50369" lon="-0.60459">
        <ele>38</ele>
        <time>2015-09-01T08:43:24.000Z</time>
      </trkpt>
      <trkpt lat="47.50372" lon="-0.60461">
        <ele>38</ele>
        <time>2015-09-01T08:43:25.000Z</time>
      </trkpt>
      <trkpt lat="47.50375" lon="-0.60463">
        <ele>38</ele>
        <time>2015-09-01T08:43:26.000Z</time>
      </trkpt>
      <trkpt lat="47.50379" lon="-0.60465">
        <ele>38</ele>
        <time>2015-09-01T08:43:27.000Z</time>
      </trkpt>
      <trkpt lat="47.50383" lon="-0.60466">
        <ele>37</ele>
        <time>2015-09-01T08:43:28.000Z</time>
      </trkpt>
      <trkpt lat="47.50386" lon="-0.60468">
        <ele>37</ele>
        <time>2015-09-01T08:43:29.000Z</time>
      </trkpt>
      <trkpt lat="47.5039" lon="-0.60469">
        <ele>37</ele>
        <time>2015-09-01T08:43:30.000Z</time>
      </trkpt>
      <trkpt lat="47.50393" lon="-0.6047">
        <ele>37</ele>
        <time>2015-09-01T08:43:31.000Z</time>
      </trkpt>
      <trkpt lat="47.50396" lon="-0.60471">
        <ele>37</ele>
        <time>2015-09-01T08:43:32.000Z</time>
      </trkpt>
      <trkpt lat="47.504" lon="-0.60472">
        <ele>37</ele>
        <time>2015-09-01T08:43:33.000Z</time>
      </trkpt>
      <trkpt lat="47.50405" lon="-0.60473">
        <ele>37</ele>
        <time>2015-09-01T08:43:34.000Z</time>
      </trkpt>
      <trkpt lat="47.50409" lon="-0.60474">
        <ele>37</ele>
        <time>2015-09-01T08:43:35.000Z</time>
      </trkpt>
      <trkpt lat="47.50413" lon="-0.60474">
        <ele>38</ele>
        <time>2015-09-01T08:43:36.000Z</time>
      </trkpt>
      <trkpt lat="47.50417" lon="-0.60475">
        <ele>38</ele>
        <time>2015-09-01T08:43:37.000Z</time>
      </trkpt>
      <trkpt lat="47.50421" lon="-0.60475">
        <ele>38</ele>
        <time>2015-09-01T08:43:38.000Z</time>
      </trkpt>
      <trkpt lat="47.50424" lon="-0.60475">
        <ele>38</ele>
        <time>2015-09-01T08:43:39.000Z</time>
      </trkpt>
      <trkpt lat="47.50427" lon="-0.60476">
        <ele>38</ele>
        <time>2015-09-01T08:43:40.000Z</time>
      </trkpt>
      <trkpt lat="47.5043" lon="-0.60477">
        <ele>36</ele>
        <time>2015-09-01T08:43:41.000Z</time>
      </trkpt>
      <trkpt lat="47.50433" lon="-0.6048">
        <ele>33</ele>
        <time>2015-09-01T08:43:42.000Z</time>
      </trkpt>
      <trkpt lat="47.50435" lon="-0.60484">
        <ele>35</ele>
        <time>2015-09-01T08:43:43.000Z</time>
      </trkpt>
      <trkpt lat="47.50438" lon="-0.60487">
        <ele>36</ele>
        <time>2015-09-01T08:43:44.000Z</time>
      </trkpt>
      <trkpt lat="47.50441" lon="-0.60491">
        <ele>37</ele>
        <time>2015-09-01T08:43:45.000Z</time>
      </trkpt>
      <trkpt lat="47.50443" lon="-0.60494">
        <ele>36</ele>
        <time>2015-09-01T08:43:46.000Z</time>
      </trkpt>
      <trkpt lat="47.50445" lon="-0.60498">
        <ele>35</ele>
        <time>2015-09-01T08:43:47.000Z</time>
      </trkpt>
      <trkpt lat="47.50447" lon="-0.60501">
        <ele>35</ele>
        <time>2015-09-01T08:43:48.000Z</time>
      </trkpt>
      <trkpt lat="47.50448" lon="-0.60504">
        <ele>34</ele>
        <time>2015-09-01T08:43:49.000Z</time>
      </trkpt>
      <trkpt lat="47.5045" lon="-0.60508">
        <ele>34</ele>
        <time>2015-09-01T08:43:50.000Z</time>
      </trkpt>
      <trkpt lat="47.50452" lon="-0.60511">
        <ele>32</ele>
        <time>2015-09-01T08:43:51.000Z</time>
      </trkpt>
      <trkpt lat="47.50453" lon="-0.60514">
        <ele>33</ele>
        <time>2015-09-01T08:43:52.000Z</time>
      </trkpt>
      <trkpt lat="47.50453" lon="-0.60517">
        <ele>33</ele>
        <time>2015-09-01T08:43:53.000Z</time>
      </trkpt>
      <trkpt lat="47.50452" lon="-0.60521">
        <ele>33</ele>
        <time>2015-09-01T08:43:54.000Z</time>
      </trkpt>
      <trkpt lat="47.50451" lon="-0.60525">
        <ele>34</ele>
        <time>2015-09-01T08:43:55.000Z</time>
      </trkpt>
      <trkpt lat="47.5045" lon="-0.60529">
        <ele>35</ele>
        <time>2015-09-01T08:43:56.000Z</time>
      </trkpt>
      <trkpt lat="47.50451" lon="-0.60531">
        <ele>35</ele>
        <time>2015-09-01T08:43:57.000Z</time>
      </trkpt>
      <trkpt lat="47.50451" lon="-0.60534">
        <ele>36</ele>
        <time>2015-09-01T08:43:58.000Z</time>
      </trkpt>
      <trkpt lat="47.50452" lon="-0.60537">
        <ele>35</ele>
        <time>2015-09-01T08:43:59.000Z</time>
      </trkpt>
      <trkpt lat="47.50453" lon="-0.6054">
        <ele>34</ele>
        <time>2015-09-01T08:44:00.000Z</time>
      </trkpt>
      <trkpt lat="47.50453" lon="-0.60543">
        <ele>34</ele>
        <time>2015-09-01T08:44:01.000Z</time>
      </trkpt>
      <trkpt lat="47.50454" lon="-0.60548">
        <ele>33</ele>
        <time>2015-09-01T08:44:02.000Z</time>
      </trkpt>
      <trkpt lat="47.50454" lon="-0.60552">
        <ele>33</ele>
        <time>2015-09-01T08:44:03.000Z</time>
      </trkpt>
      <trkpt lat="47.50454" lon="-0.60556">
        <ele>33</ele>
        <time>2015-09-01T08:44:04.000Z</time>
      </trkpt>
      <trkpt lat="47.50453" lon="-0.60561">
        <ele>34</ele>
        <time>2015-09-01T08:44:05.000Z</time>
      </trkpt>
      <trkpt lat="47.50453" lon="-0.60565">
        <ele>33</ele>
        <time>2015-09-01T08:44:06.000Z</time>
      </trkpt>
      <trkpt lat="47.50453" lon="-0.60568">
        <ele>33</ele>
        <time>2015-09-01T08:44:07.000Z</time>
      </trkpt>
      <trkpt lat="47.50453" lon="-0.60572">
        <ele>33</ele>
        <time>2015-09-01T08:44:08.000Z</time>
      </trkpt>
      <trkpt lat="47.50453" lon="-0.60576">
        <ele>34</ele>
        <time>2015-09-01T08:44:09.000Z</time>
      </trkpt>
      <trkpt lat="47.50452" lon="-0.60581">
        <ele>33</ele>
        <time>2015-09-01T08:44:10.000Z</time>
      </trkpt>
      <trkpt lat="47.50452" lon="-0.60585">
        <ele>34</ele>
        <time>2015-09-01T08:44:11.000Z</time>
      </trkpt>
      <trkpt lat="47.50451" lon="-0.60589">
        <ele>33</ele>
        <time>2015-09-01T08:44:12.000Z</time>
      </trkpt>
      <trkpt lat="47.50451" lon="-0.60593">
        <ele>32</ele>
        <time>2015-09-01T08:44:13.000Z</time>
      </trkpt>
      <trkpt lat="47.5045" lon="-0.60597">
        <ele>31</ele>
        <time>2015-09-01T08:44:14.000Z</time>
      </trkpt>
      <trkpt lat="47.50449" lon="-0.60602">
        <ele>30</ele>
        <time>2015-09-01T08:44:15.000Z</time>
      </trkpt>
      <trkpt lat="47.50449" lon="-0.60605">
        <ele>31</ele>
        <time>2015-09-01T08:44:16.000Z</time>
      </trkpt>
      <trkpt lat="47.5045" lon="-0.6061">
        <ele>31</ele>
        <time>2015-09-01T08:44:17.000Z</time>
      </trkpt>
      <trkpt lat="47.5045" lon="-0.60614">
        <ele>31</ele>
        <time>2015-09-01T08:44:18.000Z</time>
      </trkpt>
      <trkpt lat="47.50451" lon="-0.60619">
        <ele>31</ele>
        <time>2015-09-01T08:44:19.000Z</time>
      </trkpt>
      <trkpt lat="47.50451" lon="-0.60624">
        <ele>31</ele>
        <time>2015-09-01T08:44:20.000Z</time>
      </trkpt>
      <trkpt lat="47.50452" lon="-0.60628">
        <ele>32</ele>
        <time>2015-09-01T08:44:21.000Z</time>
      </trkpt>
      <trkpt lat="47.50453" lon="-0.60633">
        <ele>33</ele>
        <time>2015-09-01T08:44:22.000Z</time>
      </trkpt>
      <trkpt lat="47.50455" lon="-0.60638">
        <ele>34</ele>
        <time>2015-09-01T08:44:23.000Z</time>
      </trkpt>
      <trkpt lat="47.50457" lon="-0.60642">
        <ele>36</ele>
        <time>2015-09-01T08:44:24.000Z</time>
      </trkpt>
      <trkpt lat="47.50458" lon="-0.60647">
        <ele>36</ele>
        <time>2015-09-01T08:44:25.000Z</time>
      </trkpt>
      <trkpt lat="47.50459" lon="-0.60651">
        <ele>36</ele>
        <time>2015-09-01T08:44:26.000Z</time>
      </trkpt>
      <trkpt lat="47.5046" lon="-0.60656">
        <ele>36</ele>
        <time>2015-09-01T08:44:27.000Z</time>
      </trkpt>
      <trkpt lat="47.5046" lon="-0.6066">
        <ele>36</ele>
        <time>2015-09-01T08:44:28.000Z</time>
      </trkpt>
      <trkpt lat="47.50461" lon="-0.60664">
        <ele>36</ele>
        <time>2015-09-01T08:44:29.000Z</time>
      </trkpt>
      <trkpt lat="47.50462" lon="-0.60668">
        <ele>35</ele>
        <time>2015-09-01T08:44:30.000Z</time>
      </trkpt>
      <trkpt lat="47.50463" lon="-0.60672">
        <ele>36</ele>
        <time>2015-09-01T08:44:31.000Z</time>
      </trkpt>
      <trkpt lat="47.50465" lon="-0.60675">
        <ele>36</ele>
        <time>2015-09-01T08:44:32.000Z</time>
      </trkpt>
      <trkpt lat="47.50466" lon="-0.60679">
        <ele>36</ele>
        <time>2015-09-01T08:44:33.000Z</time>
      </trkpt>
      <trkpt lat="47.50467" lon="-0.60683">
        <ele>36</ele>
        <time>2015-09-01T08:44:34.000Z</time>
      </trkpt>
      <trkpt lat="47.50469" lon="-0.60687">
        <ele>37</ele>
        <time>2015-09-01T08:44:35.000Z</time>
      </trkpt>
      <trkpt lat="47.5047" lon="-0.60691">
        <ele>37</ele>
        <time>2015-09-01T08:44:36.000Z</time>
      </trkpt>
      <trkpt lat="47.50471" lon="-0.60695">
        <ele>37</ele>
        <time>2015-09-01T08:44:37.000Z</time>
      </trkpt>
      <trkpt lat="47.50471" lon="-0.60699">
        <ele>38</ele>
        <time>2015-09-01T08:44:38.000Z</time>
      </trkpt>
      <trkpt lat="47.50472" lon="-0.60702">
        <ele>37</ele>
        <time>2015-09-01T08:44:39.000Z</time>
      </trkpt>
      <trkpt lat="47.50474" lon="-0.60705">
        <ele>37</ele>
        <time>2015-09-01T08:44:40.000Z</time>
      </trkpt>
      <trkpt lat="47.50475" lon="-0.60709">
        <ele>36</ele>
        <time>2015-09-01T08:44:41.000Z</time>
      </trkpt>
      <trkpt lat="47.50477" lon="-0.60712">
        <ele>35</ele>
        <time>2015-09-01T08:44:42.000Z</time>
      </trkpt>
      <trkpt lat="47.50477" lon="-0.60716">
        <ele>34</ele>
        <time>2015-09-01T08:44:43.000Z</time>
      </trkpt>
      <trkpt lat="47.50478" lon="-0.6072">
        <ele>34</ele>
        <time>2015-09-01T08:44:44.000Z</time>
      </trkpt>
      <trkpt lat="47.50478" lon="-0.60723">
        <ele>33</ele>
        <time>2015-09-01T08:44:45.000Z</time>
      </trkpt>
      <trkpt lat="47.50479" lon="-0.60727">
        <ele>33</ele>
        <time>2015-09-01T08:44:46.000Z</time>
      </trkpt>
      <trkpt lat="47.5048" lon="-0.6073">
        <ele>33</ele>
        <time>2015-09-01T08:44:47.000Z</time>
      </trkpt>
      <trkpt lat="47.50481" lon="-0.60734">
        <ele>32</ele>
        <time>2015-09-01T08:44:48.000Z</time>
      </trkpt>
      <trkpt lat="47.50482" lon="-0.60738">
        <ele>32</ele>
        <time>2015-09-01T08:44:49.000Z</time>
      </trkpt>
      <trkpt lat="47.50483" lon="-0.60741">
        <ele>33</ele>
        <time>2015-09-01T08:44:50.000Z</time>
      </trkpt>
      <trkpt lat="47.50485" lon="-0.60745">
        <ele>33</ele>
        <time>2015-09-01T08:44:51.000Z</time>
      </trkpt>
      <trkpt lat="47.50487" lon="-0.60748">
        <ele>33</ele>
        <time>2015-09-01T08:44:52.000Z</time>
      </trkpt>
      <trkpt lat="47.50489" lon="-0.60752">
        <ele>34</ele>
        <time>2015-09-01T08:44:53.000Z</time>
      </trkpt>
      <trkpt lat="47.5049" lon="-0.60755">
        <ele>33</ele>
        <time>2015-09-01T08:44:54.000Z</time>
      </trkpt>
      <trkpt lat="47.50491" lon="-0.60759">
        <ele>33</ele>
        <time>2015-09-01T08:44:55.000Z</time>
      </trkpt>
      <trkpt lat="47.50492" lon="-0.60762">
        <ele>33</ele>
        <time>2015-09-01T08:44:56.000Z</time>
      </trkpt>
      <trkpt lat="47.50492" lon="-0.60766">
        <ele>33</ele>
        <time>2015-09-01T08:44:57.000Z</time>
      </trkpt>
      <trkpt lat="47.50493" lon="-0.60769">
        <ele>33</ele>
        <time>2015-09-01T08:44:58.000Z</time>
      </trkpt>
      <trkpt lat="47.50494" lon="-0.60773">
        <ele>34</ele>
        <time>2015-09-01T08:44:59.000Z</time>
      </trkpt>
      <trkpt lat="47.50496" lon="-0.60777">
        <ele>35</ele>
        <time>2015-09-01T08:45:00.000Z</time>
      </trkpt>
      <trkpt lat="47.50498" lon="-0.6078">
        <ele>35</ele>
        <time>2015-09-01T08:45:01.000Z</time>
      </trkpt>
      <trkpt lat="47.505" lon="-0.60784">
        <ele>35</ele>
        <time>2015-09-01T08:45:02.000Z</time>
      </trkpt>
      <trkpt lat="47.50501" lon="-0.60787">
        <ele>35</ele>
        <time>2015-09-01T08:45:03.000Z</time>
      </trkpt>
      <trkpt lat="47.50503" lon="-0.6079">
        <ele>34</ele>
        <time>2015-09-01T08:45:04.000Z</time>
      </trkpt>
      <trkpt lat="47.50505" lon="-0.60792">
        <ele>34</ele>
        <time>2015-09-01T08:45:05.000Z</time>
      </trkpt>
      <trkpt lat="47.50507" lon="-0.60794">
        <ele>34</ele>
        <time>2015-09-01T08:45:06.000Z</time>
      </trkpt>
      <trkpt lat="47.50509" lon="-0.60796">
        <ele>34</ele>
        <time>2015-09-01T08:45:07.000Z</time>
      </trkpt>
      <trkpt lat="47.5051" lon="-0.60799">
        <ele>34</ele>
        <time>2015-09-01T08:45:08.000Z</time>
      </trkpt>
      <trkpt lat="47.50512" lon="-0.60801">
        <ele>34</ele>
        <time>2015-09-01T08:45:09.000Z</time>
      </trkpt>
      <trkpt lat="47.50513" lon="-0.60803">
        <ele>34</ele>
        <time>2015-09-01T08:45:10.000Z</time>
      </trkpt>
      <trkpt lat="47.50515" lon="-0.60804">
        <ele>34</ele>
        <time>2015-09-01T08:45:11.000Z</time>
      </trkpt>
      <trkpt lat="47.50517" lon="-0.60806">
        <ele>35</ele>
        <time>2015-09-01T08:45:12.000Z</time>
      </trkpt>
      <trkpt lat="47.50519" lon="-0.60807">
        <ele>36</ele>
        <time>2015-09-01T08:45:13.000Z</time>
      </trkpt>
      <trkpt lat="47.50522" lon="-0.60807">
        <ele>37</ele>
        <time>2015-09-01T08:45:14.000Z</time>
      </trkpt>
      <trkpt lat="47.50525" lon="-0.60809">
        <ele>38</ele>
        <time>2015-09-01T08:45:15.000Z</time>
      </trkpt>
      <trkpt lat="47.50529" lon="-0.60809">
        <ele>38</ele>
        <time>2015-09-01T08:45:16.000Z</time>
      </trkpt>
      <trkpt lat="47.50532" lon="-0.6081">
        <ele>38</ele>
        <time>2015-09-01T08:45:17.000Z</time>
      </trkpt>
      <trkpt lat="47.50535" lon="-0.60811">
        <ele>39</ele>
        <time>2015-09-01T08:45:18.000Z</time>
      </trkpt>
      <trkpt lat="47.50538" lon="-0.60811">
        <ele>39</ele>
        <time>2015-09-01T08:45:19.000Z</time>
      </trkpt>
      <trkpt lat="47.50541" lon="-0.60812">
        <ele>40</ele>
        <time>2015-09-01T08:45:20.000Z</time>
      </trkpt>
      <trkpt lat="47.50544" lon="-0.60812">
        <ele>40</ele>
        <time>2015-09-01T08:45:21.000Z</time>
      </trkpt>
      <trkpt lat="47.50547" lon="-0.60812">
        <ele>40</ele>
        <time>2015-09-01T08:45:22.000Z</time>
      </trkpt>
      <trkpt lat="47.50551" lon="-0.60813">
        <ele>41</ele>
        <time>2015-09-01T08:45:23.000Z</time>
      </trkpt>
      <trkpt lat="47.50554" lon="-0.60813">
        <ele>41</ele>
        <time>2015-09-01T08:45:24.000Z</time>
      </trkpt>
      <trkpt lat="47.50558" lon="-0.60813">
        <ele>42</ele>
        <time>2015-09-01T08:45:25.000Z</time>
      </trkpt>
      <trkpt lat="47.50562" lon="-0.60813">
        <ele>43</ele>
        <time>2015-09-01T08:45:26.000Z</time>
      </trkpt>
      <trkpt lat="47.50566" lon="-0.60813">
        <ele>44</ele>
        <time>2015-09-01T08:45:27.000Z</time>
      </trkpt>
      <trkpt lat="47.5057" lon="-0.60813">
        <ele>44</ele>
        <time>2015-09-01T08:45:28.000Z</time>
      </trkpt>
      <trkpt lat="47.50574" lon="-0.60813">
        <ele>46</ele>
        <time>2015-09-01T08:45:29.000Z</time>
      </trkpt>
      <trkpt lat="47.50578" lon="-0.60812">
        <ele>46</ele>
        <time>2015-09-01T08:45:30.000Z</time>
      </trkpt>
      <trkpt lat="47.50581" lon="-0.60811">
        <ele>46</ele>
        <time>2015-09-01T08:45:31.000Z</time>
      </trkpt>
      <trkpt lat="47.50584" lon="-0.6081">
        <ele>46</ele>
        <time>2015-09-01T08:45:32.000Z</time>
      </trkpt>
      <trkpt lat="47.50586" lon="-0.6081">
        <ele>46</ele>
        <time>2015-09-01T08:45:33.000Z</time>
      </trkpt>
      <trkpt lat="47.50588" lon="-0.60809">
        <ele>47</ele>
        <time>2015-09-01T08:45:34.000Z</time>
      </trkpt>
      <trkpt lat="47.50591" lon="-0.60808">
        <ele>47</ele>
        <time>2015-09-01T08:45:35.000Z</time>
      </trkpt>
      <trkpt lat="47.50593" lon="-0.60807">
        <ele>47</ele>
        <time>2015-09-01T08:45:36.000Z</time>
      </trkpt>
      <trkpt lat="47.50596" lon="-0.60806">
        <ele>47</ele>
        <time>2015-09-01T08:45:37.000Z</time>
      </trkpt>
      <trkpt lat="47.50598" lon="-0.60806">
        <ele>47</ele>
        <time>2015-09-01T08:45:38.000Z</time>
      </trkpt>
      <trkpt lat="47.506" lon="-0.60806">
        <ele>48</ele>
        <time>2015-09-01T08:45:39.000Z</time>
      </trkpt>
      <trkpt lat="47.50602" lon="-0.60806">
        <ele>47</ele>
        <time>2015-09-01T08:45:40.000Z</time>
      </trkpt>
      <trkpt lat="47.50605" lon="-0.60807">
        <ele>47</ele>
        <time>2015-09-01T08:45:41.000Z</time>
      </trkpt>
      <trkpt lat="47.50607" lon="-0.60808">
        <ele>47</ele>
        <time>2015-09-01T08:45:42.000Z</time>
      </trkpt>
      <trkpt lat="47.5061" lon="-0.60809">
        <ele>46</ele>
        <time>2015-09-01T08:45:43.000Z</time>
      </trkpt>
      <trkpt lat="47.50613" lon="-0.6081">
        <ele>45</ele>
        <time>2015-09-01T08:45:44.000Z</time>
      </trkpt>
      <trkpt lat="47.50615" lon="-0.60812">
        <ele>45</ele>
        <time>2015-09-01T08:45:45.000Z</time>
      </trkpt>
      <trkpt lat="47.50618" lon="-0.60814">
        <ele>45</ele>
        <time>2015-09-01T08:45:46.000Z</time>
      </trkpt>
      <trkpt lat="47.5062" lon="-0.60815">
        <ele>43</ele>
        <time>2015-09-01T08:45:47.000Z</time>
      </trkpt>
      <trkpt lat="47.50622" lon="-0.60816">
        <ele>43</ele>
        <time>2015-09-01T08:45:48.000Z</time>
      </trkpt>
      <trkpt lat="47.50624" lon="-0.60817">
        <ele>43</ele>
        <time>2015-09-01T08:45:49.000Z</time>
      </trkpt>
      <trkpt lat="47.50626" lon="-0.60818">
        <ele>42</ele>
        <time>2015-09-01T08:45:50.000Z</time>
      </trkpt>
      <trkpt lat="47.50629" lon="-0.60818">
        <ele>42</ele>
        <time>2015-09-01T08:45:51.000Z</time>
      </trkpt>
      <trkpt lat="47.50632" lon="-0.60819">
        <ele>42</ele>
        <time>2015-09-01T08:45:52.000Z</time>
      </trkpt>
      <trkpt lat="47.50634" lon="-0.6082">
        <ele>41</ele>
        <time>2015-09-01T08:45:53.000Z</time>
      </trkpt>
      <trkpt lat="47.50636" lon="-0.6082">
        <ele>41</ele>
        <time>2015-09-01T08:45:54.000Z</time>
      </trkpt>
      <trkpt lat="47.50639" lon="-0.6082">
        <ele>42</ele>
        <time>2015-09-01T08:45:55.000Z</time>
      </trkpt>
      <trkpt lat="47.50643" lon="-0.6082">
        <ele>43</ele>
        <time>2015-09-01T08:45:56.000Z</time>
      </trkpt>
      <trkpt lat="47.50647" lon="-0.60821">
        <ele>43</ele>
        <time>2015-09-01T08:45:57.000Z</time>
      </trkpt>
      <trkpt lat="47.5065" lon="-0.60821">
        <ele>42</ele>
        <time>2015-09-01T08:45:58.000Z</time>
      </trkpt>
      <trkpt lat="47.50652" lon="-0.60821">
        <ele>42</ele>
        <time>2015-09-01T08:45:59.000Z</time>
      </trkpt>
      <trkpt lat="47.50654" lon="-0.60821">
        <ele>41</ele>
        <time>2015-09-01T08:46:00.000Z</time>
      </trkpt>
      <trkpt lat="47.50657" lon="-0.60821">
        <ele>41</ele>
        <time>2015-09-01T08:46:01.000Z</time>
      </trkpt>
      <trkpt lat="47.50659" lon="-0.6082">
        <ele>42</ele>
        <time>2015-09-01T08:46:02.000Z</time>
      </trkpt>
      <trkpt lat="47.50662" lon="-0.6082">
        <ele>43</ele>
        <time>2015-09-01T08:46:03.000Z</time>
      </trkpt>
      <trkpt lat="47.50665" lon="-0.60819">
        <ele>42</ele>
        <time>2015-09-01T08:46:04.000Z</time>
      </trkpt>
      <trkpt lat="47.50668" lon="-0.60817">
        <ele>42</ele>
        <time>2015-09-01T08:46:05.000Z</time>
      </trkpt>
      <trkpt lat="47.5067" lon="-0.60815">
        <ele>42</ele>
        <time>2015-09-01T08:46:06.000Z</time>
      </trkpt>
      <trkpt lat="47.50673" lon="-0.60814">
        <ele>42</ele>
        <time>2015-09-01T08:46:07.000Z</time>
      </trkpt>
      <trkpt lat="47.50676" lon="-0.60812">
        <ele>42</ele>
        <time>2015-09-01T08:46:08.000Z</time>
      </trkpt>
      <trkpt lat="47.50679" lon="-0.60811">
        <ele>42</ele>
        <time>2015-09-01T08:46:09.000Z</time>
      </trkpt>
      <trkpt lat="47.50683" lon="-0.60809">
        <ele>42</ele>
        <time>2015-09-01T08:46:10.000Z</time>
      </trkpt>
      <trkpt lat="47.50686" lon="-0.60807">
        <ele>42</ele>
        <time>2015-09-01T08:46:11.000Z</time>
      </trkpt>
      <trkpt lat="47.50689" lon="-0.60805">
        <ele>43</ele>
        <time>2015-09-01T08:46:12.000Z</time>
      </trkpt>
      <trkpt lat="47.50693" lon="-0.60804">
        <ele>45</ele>
        <time>2015-09-01T08:46:13.000Z</time>
      </trkpt>
      <trkpt lat="47.50697" lon="-0.60802">
        <ele>45</ele>
        <time>2015-09-01T08:46:14.000Z</time>
      </trkpt>
      <trkpt lat="47.50701" lon="-0.608">
        <ele>45</ele>
        <time>2015-09-01T08:46:15.000Z</time>
      </trkpt>
      <trkpt lat="47.50704" lon="-0.60799">
        <ele>45</ele>
        <time>2015-09-01T08:46:16.000Z</time>
      </trkpt>
      <trkpt lat="47.50707" lon="-0.60797">
        <ele>45</ele>
        <time>2015-09-01T08:46:17.000Z</time>
      </trkpt>
      <trkpt lat="47.5071" lon="-0.60795">
        <ele>46</ele>
        <time>2015-09-01T08:46:18.000Z</time>
      </trkpt>
      <trkpt lat="47.50713" lon="-0.60794">
        <ele>45</ele>
        <time>2015-09-01T08:46:19.000Z</time>
      </trkpt>
      <trkpt lat="47.50716" lon="-0.60793">
        <ele>46</ele>
        <time>2015-09-01T08:46:20.000Z</time>
      </trkpt>
      <trkpt lat="47.50719" lon="-0.60791">
        <ele>46</ele>
        <time>2015-09-01T08:46:21.000Z</time>
      </trkpt>
      <trkpt lat="47.50722" lon="-0.6079">
        <ele>46</ele>
        <time>2015-09-01T08:46:22.000Z</time>
      </trkpt>
      <trkpt lat="47.50725" lon="-0.60788">
        <ele>45</ele>
        <time>2015-09-01T08:46:23.000Z</time>
      </trkpt>
      <trkpt lat="47.50727" lon="-0.60786">
        <ele>45</ele>
        <time>2015-09-01T08:46:24.000Z</time>
      </trkpt>
      <trkpt lat="47.50729" lon="-0.60784">
        <ele>46</ele>
        <time>2015-09-01T08:46:25.000Z</time>
      </trkpt>
      <trkpt lat="47.50732" lon="-0.60782">
        <ele>46</ele>
        <time>2015-09-01T08:46:26.000Z</time>
      </trkpt>
      <trkpt lat="47.50734" lon="-0.6078">
        <ele>46</ele>
        <time>2015-09-01T08:46:27.000Z</time>
      </trkpt>
      <trkpt lat="47.50737" lon="-0.60778">
        <ele>46</ele>
        <time>2015-09-01T08:46:28.000Z</time>
      </trkpt>
      <trkpt lat="47.5074" lon="-0.60776">
        <ele>46</ele>
        <time>2015-09-01T08:46:29.000Z</time>
      </trkpt>
      <trkpt lat="47.50743" lon="-0.60774">
        <ele>46</ele>
        <time>2015-09-01T08:46:30.000Z</time>
      </trkpt>
      <trkpt lat="47.50746" lon="-0.60772">
        <ele>46</ele>
        <time>2015-09-01T08:46:31.000Z</time>
      </trkpt>
      <trkpt lat="47.50748" lon="-0.6077">
        <ele>47</ele>
        <time>2015-09-01T08:46:32.000Z</time>
      </trkpt>
      <trkpt lat="47.50751" lon="-0.60768">
        <ele>47</ele>
        <time>2015-09-01T08:46:33.000Z</time>
      </trkpt>
      <trkpt lat="47.50754" lon="-0.60767">
        <ele>47</ele>
        <time>2015-09-01T08:46:34.000Z</time>
      </trkpt>
      <trkpt lat="47.50756" lon="-0.60765">
        <ele>47</ele>
        <time>2015-09-01T08:46:35.000Z</time>
      </trkpt>
      <trkpt lat="47.5076" lon="-0.60763">
        <ele>49</ele>
        <time>2015-09-01T08:46:36.000Z</time>
      </trkpt>
      <trkpt lat="47.50765" lon="-0.60761">
        <ele>51</ele>
        <time>2015-09-01T08:46:37.000Z</time>
      </trkpt>
      <trkpt lat="47.50769" lon="-0.60759">
        <ele>52</ele>
        <time>2015-09-01T08:46:38.000Z</time>
      </trkpt>
      <trkpt lat="47.50773" lon="-0.60756">
        <ele>51</ele>
        <time>2015-09-01T08:46:39.000Z</time>
      </trkpt>
      <trkpt lat="47.50776" lon="-0.60754">
        <ele>52</ele>
        <time>2015-09-01T08:46:40.000Z</time>
      </trkpt>
      <trkpt lat="47.50779" lon="-0.60751">
        <ele>51</ele>
        <time>2015-09-01T08:46:41.000Z</time>
      </trkpt>
      <trkpt lat="47.50781" lon="-0.60749">
        <ele>52</ele>
        <time>2015-09-01T08:46:42.000Z</time>
      </trkpt>
      <trkpt lat="47.50784" lon="-0.60746">
        <ele>52</ele>
        <time>2015-09-01T08:46:43.000Z</time>
      </trkpt>
      <trkpt lat="47.50787" lon="-0.60744">
        <ele>52</ele>
        <time>2015-09-01T08:46:44.000Z</time>
      </trkpt>
      <trkpt lat="47.50789" lon="-0.60741">
        <ele>52</ele>
        <time>2015-09-01T08:46:45.000Z</time>
      </trkpt>
      <trkpt lat="47.50791" lon="-0.60738">
        <ele>52</ele>
        <time>2015-09-01T08:46:46.000Z</time>
      </trkpt>
      <trkpt lat="47.50793" lon="-0.60735">
        <ele>52</ele>
        <time>2015-09-01T08:46:47.000Z</time>
      </trkpt>
      <trkpt lat="47.50795" lon="-0.60731">
        <ele>52</ele>
        <time>2015-09-01T08:46:48.000Z</time>
      </trkpt>
      <trkpt lat="47.50797" lon="-0.60728">
        <ele>52</ele>
        <time>2015-09-01T08:46:49.000Z</time>
      </trkpt>
      <trkpt lat="47.50799" lon="-0.60725">
        <ele>53</ele>
        <time>2015-09-01T08:46:50.000Z</time>
      </trkpt>
      <trkpt lat="47.50802" lon="-0.60722">
        <ele>53</ele>
        <time>2015-09-01T08:46:51.000Z</time>
      </trkpt>
      <trkpt lat="47.50804" lon="-0.60719">
        <ele>54</ele>
        <time>2015-09-01T08:46:52.000Z</time>
      </trkpt>
      <trkpt lat="47.50807" lon="-0.60716">
        <ele>54</ele>
        <time>2015-09-01T08:46:53.000Z</time>
      </trkpt>
      <trkpt lat="47.50809" lon="-0.60713">
        <ele>55</ele>
        <time>2015-09-01T08:46:54.000Z</time>
      </trkpt>
      <trkpt lat="47.50812" lon="-0.6071">
        <ele>54</ele>
        <time>2015-09-01T08:46:55.000Z</time>
      </trkpt>
      <trkpt lat="47.50814" lon="-0.60708">
        <ele>56</ele>
        <time>2015-09-01T08:46:56.000Z</time>
      </trkpt>
      <trkpt lat="47.50816" lon="-0.60705">
        <ele>56</ele>
        <time>2015-09-01T08:46:57.000Z</time>
      </trkpt>
      <trkpt lat="47.50819" lon="-0.60702">
        <ele>56</ele>
        <time>2015-09-01T08:46:58.000Z</time>
      </trkpt>
      <trkpt lat="47.50819" lon="-0.60699">
        <ele>53</ele>
        <time>2015-09-01T08:46:59.000Z</time>
      </trkpt>
      <trkpt lat="47.5082" lon="-0.60695">
        <ele>52</ele>
        <time>2015-09-01T08:47:00.000Z</time>
      </trkpt>
      <trkpt lat="47.5082" lon="-0.60692">
        <ele>52</ele>
        <time>2015-09-01T08:47:01.000Z</time>
      </trkpt>
      <trkpt lat="47.50821" lon="-0.60689">
        <ele>51</ele>
        <time>2015-09-01T08:47:02.000Z</time>
      </trkpt>
      <trkpt lat="47.50823" lon="-0.60686">
        <ele>51</ele>
        <time>2015-09-01T08:47:03.000Z</time>
      </trkpt>
      <trkpt lat="47.50825" lon="-0.60684">
        <ele>50</ele>
        <time>2015-09-01T08:47:04.000Z</time>
      </trkpt>
      <trkpt lat="47.50827" lon="-0.60682">
        <ele>50</ele>
        <time>2015-09-01T08:47:05.000Z</time>
      </trkpt>
      <trkpt lat="47.50829" lon="-0.6068">
        <ele>50</ele>
        <time>2015-09-01T08:47:06.000Z</time>
      </trkpt>
      <trkpt lat="47.50831" lon="-0.60678">
        <ele>51</ele>
        <time>2015-09-01T08:47:07.000Z</time>
      </trkpt>
      <trkpt lat="47.50834" lon="-0.60676">
        <ele>51</ele>
        <time>2015-09-01T08:47:08.000Z</time>
      </trkpt>
      <trkpt lat="47.50836" lon="-0.60675">
        <ele>51</ele>
        <time>2015-09-01T08:47:09.000Z</time>
      </trkpt>
      <trkpt lat="47.50838" lon="-0.60675">
        <ele>50</ele>
        <time>2015-09-01T08:47:10.000Z</time>
      </trkpt>
      <trkpt lat="47.50841" lon="-0.60675">
        <ele>50</ele>
        <time>2015-09-01T08:47:11.000Z</time>
      </trkpt>
      <trkpt lat="47.50843" lon="-0.60675">
        <ele>50</ele>
        <time>2015-09-01T08:47:12.000Z</time>
      </trkpt>
      <trkpt lat="47.50845" lon="-0.60675">
        <ele>50</ele>
        <time>2015-09-01T08:47:13.000Z</time>
      </trkpt>
      <trkpt lat="47.50847" lon="-0.60676">
        <ele>50</ele>
        <time>2015-09-01T08:47:14.000Z</time>
      </trkpt>
      <trkpt lat="47.5085" lon="-0.60676">
        <ele>49</ele>
        <time>2015-09-01T08:47:15.000Z</time>
      </trkpt>
      <trkpt lat="47.50852" lon="-0.60675">
        <ele>49</ele>
        <time>2015-09-01T08:47:16.000Z</time>
      </trkpt>
      <trkpt lat="47.50854" lon="-0.60675">
        <ele>48</ele>
        <time>2015-09-01T08:47:17.000Z</time>
      </trkpt>
      <trkpt lat="47.50855" lon="-0.60674">
        <ele>48</ele>
        <time>2015-09-01T08:47:18.000Z</time>
      </trkpt>
      <trkpt lat="47.50857" lon="-0.60672">
        <ele>48</ele>
        <time>2015-09-01T08:47:19.000Z</time>
      </trkpt>
      <trkpt lat="47.50861" lon="-0.6067">
        <ele>49</ele>
        <time>2015-09-01T08:47:20.000Z</time>
      </trkpt>
      <trkpt lat="47.50864" lon="-0.60667">
        <ele>49</ele>
        <time>2015-09-01T08:47:21.000Z</time>
      </trkpt>
      <trkpt lat="47.50867" lon="-0.60664">
        <ele>49</ele>
        <time>2015-09-01T08:47:22.000Z</time>
      </trkpt>
      <trkpt lat="47.5087" lon="-0.60662">
        <ele>49</ele>
        <time>2015-09-01T08:47:23.000Z</time>
      </trkpt>
      <trkpt lat="47.50873" lon="-0.60659">
        <ele>49</ele>
        <time>2015-09-01T08:47:24.000Z</time>
      </trkpt>
      <trkpt lat="47.50876" lon="-0.60657">
        <ele>49</ele>
        <time>2015-09-01T08:47:25.000Z</time>
      </trkpt>
      <trkpt lat="47.50878" lon="-0.60654">
        <ele>50</ele>
        <time>2015-09-01T08:47:26.000Z</time>
      </trkpt>
      <trkpt lat="47.5088" lon="-0.60652">
        <ele>49</ele>
        <time>2015-09-01T08:47:27.000Z</time>
      </trkpt>
      <trkpt lat="47.50882" lon="-0.60649">
        <ele>47</ele>
        <time>2015-09-01T08:47:28.000Z</time>
      </trkpt>
      <trkpt lat="47.50884" lon="-0.60646">
        <ele>47</ele>
        <time>2015-09-01T08:47:29.000Z</time>
      </trkpt>
      <trkpt lat="47.50887" lon="-0.60644">
        <ele>47</ele>
        <time>2015-09-01T08:47:30.000Z</time>
      </trkpt>
      <trkpt lat="47.50889" lon="-0.60641">
        <ele>47</ele>
        <time>2015-09-01T08:47:31.000Z</time>
      </trkpt>
      <trkpt lat="47.50891" lon="-0.60639">
        <ele>47</ele>
        <time>2015-09-01T08:47:32.000Z</time>
      </trkpt>
      <trkpt lat="47.50893" lon="-0.60636">
        <ele>46</ele>
        <time>2015-09-01T08:47:33.000Z</time>
      </trkpt>
      <trkpt lat="47.50896" lon="-0.60634">
        <ele>47</ele>
        <time>2015-09-01T08:47:34.000Z</time>
      </trkpt>
      <trkpt lat="47.50898" lon="-0.60631">
        <ele>47</ele>
        <time>2015-09-01T08:47:35.000Z</time>
      </trkpt>
      <trkpt lat="47.50901" lon="-0.60628">
        <ele>47</ele>
        <time>2015-09-01T08:47:36.000Z</time>
      </trkpt>
      <trkpt lat="47.50903" lon="-0.60626">
        <ele>47</ele>
        <time>2015-09-01T08:47:37.000Z</time>
      </trkpt>
      <trkpt lat="47.50906" lon="-0.60623">
        <ele>47</ele>
        <time>2015-09-01T08:47:38.000Z</time>
      </trkpt>
      <trkpt lat="47.50909" lon="-0.60621">
        <ele>48</ele>
        <time>2015-09-01T08:47:39.000Z</time>
      </trkpt>
      <trkpt lat="47.50912" lon="-0.60618">
        <ele>48</ele>
        <time>2015-09-01T08:47:40.000Z</time>
      </trkpt>
      <trkpt lat="47.50914" lon="-0.60615">
        <ele>47</ele>
        <time>2015-09-01T08:47:41.000Z</time>
      </trkpt>
      <trkpt lat="47.50917" lon="-0.60613">
        <ele>47</ele>
        <time>2015-09-01T08:47:42.000Z</time>
      </trkpt>
      <trkpt lat="47.50919" lon="-0.6061">
        <ele>47</ele>
        <time>2015-09-01T08:47:43.000Z</time>
      </trkpt>
      <trkpt lat="47.50921" lon="-0.60607">
        <ele>48</ele>
        <time>2015-09-01T08:47:44.000Z</time>
      </trkpt>
      <trkpt lat="47.50924" lon="-0.60604">
        <ele>48</ele>
        <time>2015-09-01T08:47:45.000Z</time>
      </trkpt>
      <trkpt lat="47.50927" lon="-0.60601">
        <ele>49</ele>
        <time>2015-09-01T08:47:46.000Z</time>
      </trkpt>
      <trkpt lat="47.5093" lon="-0.60599">
        <ele>49</ele>
        <time>2015-09-01T08:47:47.000Z</time>
      </trkpt>
      <trkpt lat="47.50932" lon="-0.60596">
        <ele>48</ele>
        <time>2015-09-01T08:47:48.000Z</time>
      </trkpt>
      <trkpt lat="47.50935" lon="-0.60593">
        <ele>48</ele>
        <time>2015-09-01T08:47:49.000Z</time>
      </trkpt>
      <trkpt lat="47.50937" lon="-0.6059">
        <ele>47</ele>
        <time>2015-09-01T08:47:50.000Z</time>
      </trkpt>
      <trkpt lat="47.50938" lon="-0.60587">
        <ele>46</ele>
        <time>2015-09-01T08:47:51.000Z</time>
      </trkpt>
      <trkpt lat="47.5094" lon="-0.60584">
        <ele>45</ele>
        <time>2015-09-01T08:47:52.000Z</time>
      </trkpt>
      <trkpt lat="47.50941" lon="-0.60581">
        <ele>46</ele>
        <time>2015-09-01T08:47:53.000Z</time>
      </trkpt>
      <trkpt lat="47.50944" lon="-0.60579">
        <ele>46</ele>
        <time>2015-09-01T08:47:54.000Z</time>
      </trkpt>
      <trkpt lat="47.50946" lon="-0.60576">
        <ele>46</ele>
        <time>2015-09-01T08:47:55.000Z</time>
      </trkpt>
      <trkpt lat="47.50948" lon="-0.60573">
        <ele>46</ele>
        <time>2015-09-01T08:47:56.000Z</time>
      </trkpt>
      <trkpt lat="47.50951" lon="-0.60571">
        <ele>46</ele>
        <time>2015-09-01T08:47:57.000Z</time>
      </trkpt>
      <trkpt lat="47.50953" lon="-0.60569">
        <ele>46</ele>
        <time>2015-09-01T08:47:58.000Z</time>
      </trkpt>
      <trkpt lat="47.50956" lon="-0.60566">
        <ele>47</ele>
        <time>2015-09-01T08:47:59.000Z</time>
      </trkpt>
      <trkpt lat="47.50959" lon="-0.60564">
        <ele>47</ele>
        <time>2015-09-01T08:48:00.000Z</time>
      </trkpt>
      <trkpt lat="47.50963" lon="-0.60561">
        <ele>47</ele>
        <time>2015-09-01T08:48:01.000Z</time>
      </trkpt>
      <trkpt lat="47.50966" lon="-0.60558">
        <ele>47</ele>
        <time>2015-09-01T08:48:02.000Z</time>
      </trkpt>
      <trkpt lat="47.50968" lon="-0.60556">
        <ele>47</ele>
        <time>2015-09-01T08:48:03.000Z</time>
      </trkpt>
      <trkpt lat="47.50971" lon="-0.60553">
        <ele>48</ele>
        <time>2015-09-01T08:48:04.000Z</time>
      </trkpt>
      <trkpt lat="47.50975" lon="-0.60551">
        <ele>49</ele>
        <time>2015-09-01T08:48:05.000Z</time>
      </trkpt>
      <trkpt lat="47.50978" lon="-0.60549">
        <ele>50</ele>
        <time>2015-09-01T08:48:06.000Z</time>
      </trkpt>
      <trkpt lat="47.50981" lon="-0.60546">
        <ele>50</ele>
        <time>2015-09-01T08:48:07.000Z</time>
      </trkpt>
      <trkpt lat="47.50983" lon="-0.60544">
        <ele>50</ele>
        <time>2015-09-01T08:48:08.000Z</time>
      </trkpt>
      <trkpt lat="47.50986" lon="-0.60541">
        <ele>50</ele>
        <time>2015-09-01T08:48:09.000Z</time>
      </trkpt>
      <trkpt lat="47.50988" lon="-0.60538">
        <ele>50</ele>
        <time>2015-09-01T08:48:10.000Z</time>
      </trkpt>
      <trkpt lat="47.50991" lon="-0.60536">
        <ele>51</ele>
        <time>2015-09-01T08:48:11.000Z</time>
      </trkpt>
      <trkpt lat="47.50994" lon="-0.60533">
        <ele>51</ele>
        <time>2015-09-01T08:48:12.000Z</time>
      </trkpt>
      <trkpt lat="47.50996" lon="-0.60531">
        <ele>51</ele>
        <time>2015-09-01T08:48:13.000Z</time>
      </trkpt>
      <trkpt lat="47.50999" lon="-0.60528">
        <ele>51</ele>
        <time>2015-09-01T08:48:14.000Z</time>
      </trkpt>
      <trkpt lat="47.51001" lon="-0.60525">
        <ele>52</ele>
        <time>2015-09-01T08:48:15.000Z</time>
      </trkpt>
      <trkpt lat="47.51004" lon="-0.60523">
        <ele>52</ele>
        <time>2015-09-01T08:48:16.000Z</time>
      </trkpt>
      <trkpt lat="47.51007" lon="-0.6052">
        <ele>53</ele>
        <time>2015-09-01T08:48:17.000Z</time>
      </trkpt>
      <trkpt lat="47.5101" lon="-0.60518">
        <ele>54</ele>
        <time>2015-09-01T08:48:18.000Z</time>
      </trkpt>
      <trkpt lat="47.51013" lon="-0.60515">
        <ele>54</ele>
        <time>2015-09-01T08:48:19.000Z</time>
      </trkpt>
      <trkpt lat="47.51016" lon="-0.60513">
        <ele>53</ele>
        <time>2015-09-01T08:48:20.000Z</time>
      </trkpt>
      <trkpt lat="47.51018" lon="-0.6051">
        <ele>53</ele>
        <time>2015-09-01T08:48:21.000Z</time>
      </trkpt>
      <trkpt lat="47.5102" lon="-0.60507">
        <ele>53</ele>
        <time>2015-09-01T08:48:22.000Z</time>
      </trkpt>
      <trkpt lat="47.51022" lon="-0.60504">
        <ele>53</ele>
        <time>2015-09-01T08:48:23.000Z</time>
      </trkpt>
      <trkpt lat="47.51024" lon="-0.60501">
        <ele>54</ele>
        <time>2015-09-01T08:48:24.000Z</time>
      </trkpt>
      <trkpt lat="47.51027" lon="-0.60499">
        <ele>54</ele>
        <time>2015-09-01T08:48:25.000Z</time>
      </trkpt>
      <trkpt lat="47.5103" lon="-0.60496">
        <ele>55</ele>
        <time>2015-09-01T08:48:26.000Z</time>
      </trkpt>
      <trkpt lat="47.51033" lon="-0.60493">
        <ele>56</ele>
        <time>2015-09-01T08:48:27.000Z</time>
      </trkpt>
      <trkpt lat="47.51035" lon="-0.60489">
        <ele>56</ele>
        <time>2015-09-01T08:48:28.000Z</time>
      </trkpt>
      <trkpt lat="47.51037" lon="-0.60486">
        <ele>57</ele>
        <time>2015-09-01T08:48:29.000Z</time>
      </trkpt>
      <trkpt lat="47.5104" lon="-0.60482">
        <ele>56</ele>
        <time>2015-09-01T08:48:30.000Z</time>
      </trkpt>
      <trkpt lat="47.51043" lon="-0.60478">
        <ele>56</ele>
        <time>2015-09-01T08:48:31.000Z</time>
      </trkpt>
      <trkpt lat="47.51045" lon="-0.60475">
        <ele>56</ele>
        <time>2015-09-01T08:48:32.000Z</time>
      </trkpt>
      <trkpt lat="47.51045" lon="-0.60471">
        <ele>54</ele>
        <time>2015-09-01T08:48:33.000Z</time>
      </trkpt>
      <trkpt lat="47.51046" lon="-0.60467">
        <ele>54</ele>
        <time>2015-09-01T08:48:34.000Z</time>
      </trkpt>
      <trkpt lat="47.51046" lon="-0.60463">
        <ele>53</ele>
        <time>2015-09-01T08:48:35.000Z</time>
      </trkpt>
      <trkpt lat="47.51047" lon="-0.60459">
        <ele>52</ele>
        <time>2015-09-01T08:48:36.000Z</time>
      </trkpt>
      <trkpt lat="47.51048" lon="-0.60455">
        <ele>52</ele>
        <time>2015-09-01T08:48:37.000Z</time>
      </trkpt>
      <trkpt lat="47.51049" lon="-0.60451">
        <ele>52</ele>
        <time>2015-09-01T08:48:38.000Z</time>
      </trkpt>
      <trkpt lat="47.5105" lon="-0.60447">
        <ele>51</ele>
        <time>2015-09-01T08:48:39.000Z</time>
      </trkpt>
      <trkpt lat="47.51051" lon="-0.60444">
        <ele>50</ele>
        <time>2015-09-01T08:48:40.000Z</time>
      </trkpt>
      <trkpt lat="47.51053" lon="-0.6044">
        <ele>50</ele>
        <time>2015-09-01T08:48:41.000Z</time>
      </trkpt>
      <trkpt lat="47.51053" lon="-0.60436">
        <ele>49</ele>
        <time>2015-09-01T08:48:42.000Z</time>
      </trkpt>
      <trkpt lat="47.51054" lon="-0.60432">
        <ele>49</ele>
        <time>2015-09-01T08:48:43.000Z</time>
      </trkpt>
      <trkpt lat="47.51055" lon="-0.60428">
        <ele>48</ele>
        <time>2015-09-01T08:48:44.000Z</time>
      </trkpt>
      <trkpt lat="47.51055" lon="-0.60424">
        <ele>48</ele>
        <time>2015-09-01T08:48:45.000Z</time>
      </trkpt>
      <trkpt lat="47.51056" lon="-0.6042">
        <ele>47</ele>
        <time>2015-09-01T08:48:46.000Z</time>
      </trkpt>
      <trkpt lat="47.51057" lon="-0.60416">
        <ele>47</ele>
        <time>2015-09-01T08:48:47.000Z</time>
      </trkpt>
      <trkpt lat="47.51058" lon="-0.60412">
        <ele>46</ele>
        <time>2015-09-01T08:48:48.000Z</time>
      </trkpt>
      <trkpt lat="47.51058" lon="-0.60408">
        <ele>46</ele>
        <time>2015-09-01T08:48:49.000Z</time>
      </trkpt>
      <trkpt lat="47.51059" lon="-0.60404">
        <ele>46</ele>
        <time>2015-09-01T08:48:50.000Z</time>
      </trkpt>
      <trkpt lat="47.51059" lon="-0.604">
        <ele>44</ele>
        <time>2015-09-01T08:48:51.000Z</time>
      </trkpt>
      <trkpt lat="47.51058" lon="-0.60395">
        <ele>44</ele>
        <time>2015-09-01T08:48:52.000Z</time>
      </trkpt>
      <trkpt lat="47.51057" lon="-0.6039">
        <ele>43</ele>
        <time>2015-09-01T08:48:53.000Z</time>
      </trkpt>
      <trkpt lat="47.51057" lon="-0.60386">
        <ele>43</ele>
        <time>2015-09-01T08:48:54.000Z</time>
      </trkpt>
      <trkpt lat="47.51057" lon="-0.60381">
        <ele>43</ele>
        <time>2015-09-01T08:48:55.000Z</time>
      </trkpt>
      <trkpt lat="47.51056" lon="-0.60377">
        <ele>43</ele>
        <time>2015-09-01T08:48:56.000Z</time>
      </trkpt>
      <trkpt lat="47.51056" lon="-0.60373">
        <ele>43</ele>
        <time>2015-09-01T08:48:57.000Z</time>
      </trkpt>
      <trkpt lat="47.51057" lon="-0.60368">
        <ele>43</ele>
        <time>2015-09-01T08:48:58.000Z</time>
      </trkpt>
      <trkpt lat="47.51057" lon="-0.60364">
        <ele>43</ele>
        <time>2015-09-01T08:48:59.000Z</time>
      </trkpt>
      <trkpt lat="47.51059" lon="-0.6036">
        <ele>43</ele>
        <time>2015-09-01T08:49:00.000Z</time>
      </trkpt>
      <trkpt lat="47.5106" lon="-0.60357">
        <ele>43</ele>
        <time>2015-09-01T08:49:01.000Z</time>
      </trkpt>
      <trkpt lat="47.51062" lon="-0.60354">
        <ele>43</ele>
        <time>2015-09-01T08:49:02.000Z</time>
      </trkpt>
      <trkpt lat="47.51063" lon="-0.60351">
        <ele>43</ele>
        <time>2015-09-01T08:49:03.000Z</time>
      </trkpt>
      <trkpt lat="47.51064" lon="-0.6035">
        <ele>42</ele>
        <time>2015-09-01T08:49:04.000Z</time>
      </trkpt>
      <trkpt lat="47.51065" lon="-0.60349">
        <ele>42</ele>
        <time>2015-09-01T08:49:05.000Z</time>
      </trkpt>
      <trkpt lat="47.51067" lon="-0.60349">
        <ele>41</ele>
        <time>2015-09-01T08:49:06.000Z</time>
      </trkpt>
      <trkpt lat="47.51069" lon="-0.60348">
        <ele>41</ele>
        <time>2015-09-01T08:49:07.000Z</time>
      </trkpt>
      <trkpt lat="47.51071" lon="-0.60346">
        <ele>41</ele>
        <time>2015-09-01T08:49:08.000Z</time>
      </trkpt>
      <trkpt lat="47.51074" lon="-0.60343">
        <ele>41</ele>
        <time>2015-09-01T08:49:09.000Z</time>
      </trkpt>
      <trkpt lat="47.51077" lon="-0.6034">
        <ele>41</ele>
        <time>2015-09-01T08:49:10.000Z</time>
      </trkpt>
      <trkpt lat="47.5108" lon="-0.60337">
        <ele>41</ele>
        <time>2015-09-01T08:49:11.000Z</time>
      </trkpt>
      <trkpt lat="47.51082" lon="-0.60334">
        <ele>41</ele>
        <time>2015-09-01T08:49:12.000Z</time>
      </trkpt>
      <trkpt lat="47.51084" lon="-0.60332">
        <ele>42</ele>
        <time>2015-09-01T08:49:13.000Z</time>
      </trkpt>
      <trkpt lat="47.51087" lon="-0.60329">
        <ele>42</ele>
        <time>2015-09-01T08:49:14.000Z</time>
      </trkpt>
      <trkpt lat="47.51089" lon="-0.60326">
        <ele>42</ele>
        <time>2015-09-01T08:49:15.000Z</time>
      </trkpt>
      <trkpt lat="47.51092" lon="-0.60324">
        <ele>42</ele>
        <time>2015-09-01T08:49:16.000Z</time>
      </trkpt>
      <trkpt lat="47.51095" lon="-0.60321">
        <ele>42</ele>
        <time>2015-09-01T08:49:17.000Z</time>
      </trkpt>
      <trkpt lat="47.51098" lon="-0.60319">
        <ele>44</ele>
        <time>2015-09-01T08:49:18.000Z</time>
      </trkpt>
      <trkpt lat="47.51101" lon="-0.60316">
        <ele>44</ele>
        <time>2015-09-01T08:49:19.000Z</time>
      </trkpt>
      <trkpt lat="47.51104" lon="-0.60313">
        <ele>45</ele>
        <time>2015-09-01T08:49:20.000Z</time>
      </trkpt>
      <trkpt lat="47.51107" lon="-0.60311">
        <ele>46</ele>
        <time>2015-09-01T08:49:21.000Z</time>
      </trkpt>
      <trkpt lat="47.5111" lon="-0.60308">
        <ele>47</ele>
        <time>2015-09-01T08:49:22.000Z</time>
      </trkpt>
      <trkpt lat="47.51112" lon="-0.60305">
        <ele>47</ele>
        <time>2015-09-01T08:49:23.000Z</time>
      </trkpt>
      <trkpt lat="47.51115" lon="-0.60302">
        <ele>47</ele>
        <time>2015-09-01T08:49:24.000Z</time>
      </trkpt>
      <trkpt lat="47.51117" lon="-0.60299">
        <ele>48</ele>
        <time>2015-09-01T08:49:25.000Z</time>
      </trkpt>
      <trkpt lat="47.51119" lon="-0.60296">
        <ele>49</ele>
        <time>2015-09-01T08:49:26.000Z</time>
      </trkpt>
      <trkpt lat="47.51122" lon="-0.60292">
        <ele>50</ele>
        <time>2015-09-01T08:49:27.000Z</time>
      </trkpt>
      <trkpt lat="47.51124" lon="-0.60289">
        <ele>51</ele>
        <time>2015-09-01T08:49:28.000Z</time>
      </trkpt>
      <trkpt lat="47.51126" lon="-0.60286">
        <ele>51</ele>
        <time>2015-09-01T08:49:29.000Z</time>
      </trkpt>
      <trkpt lat="47.51128" lon="-0.60283">
        <ele>51</ele>
        <time>2015-09-01T08:49:30.000Z</time>
      </trkpt>
      <trkpt lat="47.5113" lon="-0.60279">
        <ele>51</ele>
        <time>2015-09-01T08:49:31.000Z</time>
      </trkpt>
      <trkpt lat="47.51132" lon="-0.60276">
        <ele>51</ele>
        <time>2015-09-01T08:49:32.000Z</time>
      </trkpt>
      <trkpt lat="47.51134" lon="-0.60273">
        <ele>51</ele>
        <time>2015-09-01T08:49:33.000Z</time>
      </trkpt>
      <trkpt lat="47.51134" lon="-0.60269">
        <ele>48</ele>
        <time>2015-09-01T08:49:34.000Z</time>
      </trkpt>
      <trkpt lat="47.51135" lon="-0.60265">
        <ele>48</ele>
        <time>2015-09-01T08:49:35.000Z</time>
      </trkpt>
      <trkpt lat="47.51135" lon="-0.60261">
        <ele>48</ele>
        <time>2015-09-01T08:49:36.000Z</time>
      </trkpt>
      <trkpt lat="47.51136" lon="-0.60257">
        <ele>48</ele>
        <time>2015-09-01T08:49:37.000Z</time>
      </trkpt>
      <trkpt lat="47.51138" lon="-0.60254">
        <ele>49</ele>
        <time>2015-09-01T08:49:38.000Z</time>
      </trkpt>
      <trkpt lat="47.51139" lon="-0.60249">
        <ele>49</ele>
        <time>2015-09-01T08:49:39.000Z</time>
      </trkpt>
      <trkpt lat="47.5114" lon="-0.60245">
        <ele>49</ele>
        <time>2015-09-01T08:49:40.000Z</time>
      </trkpt>
      <trkpt lat="47.51141" lon="-0.60241">
        <ele>50</ele>
        <time>2015-09-01T08:49:41.000Z</time>
      </trkpt>
      <trkpt lat="47.51143" lon="-0.60237">
        <ele>50</ele>
        <time>2015-09-01T08:49:42.000Z</time>
      </trkpt>
      <trkpt lat="47.51144" lon="-0.60233">
        <ele>50</ele>
        <time>2015-09-01T08:49:43.000Z</time>
      </trkpt>
      <trkpt lat="47.51145" lon="-0.60228">
        <ele>50</ele>
        <time>2015-09-01T08:49:44.000Z</time>
      </trkpt>
      <trkpt lat="47.51146" lon="-0.60224">
        <ele>50</ele>
        <time>2015-09-01T08:49:45.000Z</time>
      </trkpt>
      <trkpt lat="47.51147" lon="-0.6022">
        <ele>50</ele>
        <time>2015-09-01T08:49:46.000Z</time>
      </trkpt>
      <trkpt lat="47.51148" lon="-0.60216">
        <ele>50</ele>
        <time>2015-09-01T08:49:47.000Z</time>
      </trkpt>
      <trkpt lat="47.51148" lon="-0.60212">
        <ele>50</ele>
        <time>2015-09-01T08:49:48.000Z</time>
      </trkpt>
      <trkpt lat="47.51149" lon="-0.60207">
        <ele>51</ele>
        <time>2015-09-01T08:49:49.000Z</time>
      </trkpt>
      <trkpt lat="47.5115" lon="-0.60203">
        <ele>50</ele>
        <time>2015-09-01T08:49:50.000Z</time>
      </trkpt>
      <trkpt lat="47.5115" lon="-0.60198">
        <ele>51</ele>
        <time>2015-09-01T08:49:51.000Z</time>
      </trkpt>
      <trkpt lat="47.5115" lon="-0.60194">
        <ele>51</ele>
        <time>2015-09-01T08:49:52.000Z</time>
      </trkpt>
      <trkpt lat="47.51151" lon="-0.60189">
        <ele>51</ele>
        <time>2015-09-01T08:49:53.000Z</time>
      </trkpt>
      <trkpt lat="47.51151" lon="-0.60185">
        <ele>51</ele>
        <time>2015-09-01T08:49:54.000Z</time>
      </trkpt>
      <trkpt lat="47.51151" lon="-0.60181">
        <ele>51</ele>
        <time>2015-09-01T08:49:55.000Z</time>
      </trkpt>
      <trkpt lat="47.51151" lon="-0.60176">
        <ele>51</ele>
        <time>2015-09-01T08:49:56.000Z</time>
      </trkpt>
      <trkpt lat="47.51151" lon="-0.60171">
        <ele>51</ele>
        <time>2015-09-01T08:49:57.000Z</time>
      </trkpt>
      <trkpt lat="47.51151" lon="-0.60167">
        <ele>51</ele>
        <time>2015-09-01T08:49:58.000Z</time>
      </trkpt>
      <trkpt lat="47.5115" lon="-0.60162">
        <ele>51</ele>
        <time>2015-09-01T08:49:59.000Z</time>
      </trkpt>
      <trkpt lat="47.5115" lon="-0.60158">
        <ele>51</ele>
        <time>2015-09-01T08:50:00.000Z</time>
      </trkpt>
      <trkpt lat="47.5115" lon="-0.60154">
        <ele>51</ele>
        <time>2015-09-01T08:50:01.000Z</time>
      </trkpt>
      <trkpt lat="47.5115" lon="-0.60149">
        <ele>49</ele>
        <time>2015-09-01T08:50:02.000Z</time>
      </trkpt>
      <trkpt lat="47.51149" lon="-0.60145">
        <ele>50</ele>
        <time>2015-09-01T08:50:03.000Z</time>
      </trkpt>
      <trkpt lat="47.51148" lon="-0.60141">
        <ele>49</ele>
        <time>2015-09-01T08:50:04.000Z</time>
      </trkpt>
      <trkpt lat="47.51148" lon="-0.60137">
        <ele>49</ele>
        <time>2015-09-01T08:50:05.000Z</time>
      </trkpt>
      <trkpt lat="47.51147" lon="-0.60133">
        <ele>49</ele>
        <time>2015-09-01T08:50:06.000Z</time>
      </trkpt>
      <trkpt lat="47.51146" lon="-0.60128">
        <ele>49</ele>
        <time>2015-09-01T08:50:07.000Z</time>
      </trkpt>
      <trkpt lat="47.51146" lon="-0.60124">
        <ele>48</ele>
        <time>2015-09-01T08:50:08.000Z</time>
      </trkpt>
      <trkpt lat="47.51146" lon="-0.6012">
        <ele>49</ele>
        <time>2015-09-01T08:50:09.000Z</time>
      </trkpt>
      <trkpt lat="47.51145" lon="-0.60115">
        <ele>48</ele>
        <time>2015-09-01T08:50:10.000Z</time>
      </trkpt>
      <trkpt lat="47.51145" lon="-0.60111">
        <ele>49</ele>
        <time>2015-09-01T08:50:11.000Z</time>
      </trkpt>
      <trkpt lat="47.51144" lon="-0.60106">
        <ele>49</ele>
        <time>2015-09-01T08:50:12.000Z</time>
      </trkpt>
      <trkpt lat="47.51144" lon="-0.60102">
        <ele>49</ele>
        <time>2015-09-01T08:50:13.000Z</time>
      </trkpt>
      <trkpt lat="47.51143" lon="-0.60098">
        <ele>49</ele>
        <time>2015-09-01T08:50:14.000Z</time>
      </trkpt>
      <trkpt lat="47.51142" lon="-0.60093">
        <ele>49</ele>
        <time>2015-09-01T08:50:15.000Z</time>
      </trkpt>
      <trkpt lat="47.51141" lon="-0.60089">
        <ele>50</ele>
        <time>2015-09-01T08:50:16.000Z</time>
      </trkpt>
      <trkpt lat="47.51141" lon="-0.60084">
        <ele>50</ele>
        <time>2015-09-01T08:50:17.000Z</time>
      </trkpt>
      <trkpt lat="47.5114" lon="-0.6008">
        <ele>50</ele>
        <time>2015-09-01T08:50:18.000Z</time>
      </trkpt>
      <trkpt lat="47.51139" lon="-0.60076">
        <ele>50</ele>
        <time>2015-09-01T08:50:19.000Z</time>
      </trkpt>
      <trkpt lat="47.51138" lon="-0.60071">
        <ele>49</ele>
        <time>2015-09-01T08:50:20.000Z</time>
      </trkpt>
      <trkpt lat="47.51137" lon="-0.60067">
        <ele>49</ele>
        <time>2015-09-01T08:50:21.000Z</time>
      </trkpt>
      <trkpt lat="47.51136" lon="-0.60063">
        <ele>50</ele>
        <time>2015-09-01T08:50:22.000Z</time>
      </trkpt>
      <trkpt lat="47.51136" lon="-0.60059">
        <ele>49</ele>
        <time>2015-09-01T08:50:23.000Z</time>
      </trkpt>
      <trkpt lat="47.51135" lon="-0.60054">
        <ele>50</ele>
        <time>2015-09-01T08:50:24.000Z</time>
      </trkpt>
      <trkpt lat="47.51134" lon="-0.6005">
        <ele>50</ele>
        <time>2015-09-01T08:50:25.000Z</time>
      </trkpt>
      <trkpt lat="47.51134" lon="-0.60045">
        <ele>51</ele>
        <time>2015-09-01T08:50:26.000Z</time>
      </trkpt>
      <trkpt lat="47.51133" lon="-0.60041">
        <ele>51</ele>
        <time>2015-09-01T08:50:27.000Z</time>
      </trkpt>
      <trkpt lat="47.51132" lon="-0.60036">
        <ele>51</ele>
        <time>2015-09-01T08:50:28.000Z</time>
      </trkpt>
      <trkpt lat="47.51131" lon="-0.60032">
        <ele>50</ele>
        <time>2015-09-01T08:50:29.000Z</time>
      </trkpt>
      <trkpt lat="47.5113" lon="-0.60028">
        <ele>50</ele>
        <time>2015-09-01T08:50:30.000Z</time>
      </trkpt>
      <trkpt lat="47.51129" lon="-0.60024">
        <ele>51</ele>
        <time>2015-09-01T08:50:31.000Z</time>
      </trkpt>
      <trkpt lat="47.51129" lon="-0.60019">
        <ele>51</ele>
        <time>2015-09-01T08:50:32.000Z</time>
      </trkpt>
      <trkpt lat="47.51128" lon="-0.60015">
        <ele>51</ele>
        <time>2015-09-01T08:50:33.000Z</time>
      </trkpt>
      <trkpt lat="47.51128" lon="-0.6001">
        <ele>51</ele>
        <time>2015-09-01T08:50:34.000Z</time>
      </trkpt>
      <trkpt lat="47.51127" lon="-0.60006">
        <ele>51</ele>
        <time>2015-09-01T08:50:35.000Z</time>
      </trkpt>
      <trkpt lat="47.51126" lon="-0.60002">
        <ele>51</ele>
        <time>2015-09-01T08:50:36.000Z</time>
      </trkpt>
      <trkpt lat="47.51126" lon="-0.59997">
        <ele>52</ele>
        <time>2015-09-01T08:50:37.000Z</time>
      </trkpt>
      <trkpt lat="47.51125" lon="-0.59993">
        <ele>52</ele>
        <time>2015-09-01T08:50:38.000Z</time>
      </trkpt>
      <trkpt lat="47.51124" lon="-0.59989">
        <ele>52</ele>
        <time>2015-09-01T08:50:39.000Z</time>
      </trkpt>
      <trkpt lat="47.51123" lon="-0.59984">
        <ele>51</ele>
        <time>2015-09-01T08:50:40.000Z</time>
      </trkpt>
      <trkpt lat="47.51122" lon="-0.5998">
        <ele>51</ele>
        <time>2015-09-01T08:50:41.000Z</time>
      </trkpt>
      <trkpt lat="47.51122" lon="-0.59976">
        <ele>51</ele>
        <time>2015-09-01T08:50:42.000Z</time>
      </trkpt>
      <trkpt lat="47.51122" lon="-0.59971">
        <ele>51</ele>
        <time>2015-09-01T08:50:43.000Z</time>
      </trkpt>
      <trkpt lat="47.51122" lon="-0.59967">
        <ele>52</ele>
        <time>2015-09-01T08:50:44.000Z</time>
      </trkpt>
      <trkpt lat="47.51122" lon="-0.59963">
        <ele>52</ele>
        <time>2015-09-01T08:50:45.000Z</time>
      </trkpt>
      <trkpt lat="47.51122" lon="-0.5996">
        <ele>52</ele>
        <time>2015-09-01T08:50:46.000Z</time>
      </trkpt>
      <trkpt lat="47.51122" lon="-0.59955">
        <ele>52</ele>
        <time>2015-09-01T08:50:47.000Z</time>
      </trkpt>
      <trkpt lat="47.51122" lon="-0.59951">
        <ele>52</ele>
        <time>2015-09-01T08:50:48.000Z</time>
      </trkpt>
      <trkpt lat="47.51122" lon="-0.59947">
        <ele>52</ele>
        <time>2015-09-01T08:50:49.000Z</time>
      </trkpt>
      <trkpt lat="47.51122" lon="-0.59943">
        <ele>52</ele>
        <time>2015-09-01T08:50:50.000Z</time>
      </trkpt>
      <trkpt lat="47.51122" lon="-0.59939">
        <ele>52</ele>
        <time>2015-09-01T08:50:51.000Z</time>
      </trkpt>
      <trkpt lat="47.51122" lon="-0.59934">
        <ele>52</ele>
        <time>2015-09-01T08:50:52.000Z</time>
      </trkpt>
      <trkpt lat="47.51122" lon="-0.5993">
        <ele>53</ele>
        <time>2015-09-01T08:50:53.000Z</time>
      </trkpt>
      <trkpt lat="47.51123" lon="-0.59926">
        <ele>53</ele>
        <time>2015-09-01T08:50:54.000Z</time>
      </trkpt>
      <trkpt lat="47.51123" lon="-0.59922">
        <ele>52</ele>
        <time>2015-09-01T08:50:55.000Z</time>
      </trkpt>
      <trkpt lat="47.51123" lon="-0.59919">
        <ele>52</ele>
        <time>2015-09-01T08:50:56.000Z</time>
      </trkpt>
      <trkpt lat="47.51124" lon="-0.59914">
        <ele>52</ele>
        <time>2015-09-01T08:50:57.000Z</time>
      </trkpt>
      <trkpt lat="47.51125" lon="-0.5991">
        <ele>52</ele>
        <time>2015-09-01T08:50:58.000Z</time>
      </trkpt>
      <trkpt lat="47.51126" lon="-0.59906">
        <ele>52</ele>
        <time>2015-09-01T08:50:59.000Z</time>
      </trkpt>
      <trkpt lat="47.51127" lon="-0.59902">
        <ele>52</ele>
        <time>2015-09-01T08:51:00.000Z</time>
      </trkpt>
      <trkpt lat="47.51129" lon="-0.59898">
        <ele>52</ele>
        <time>2015-09-01T08:51:01.000Z</time>
      </trkpt>
      <trkpt lat="47.51131" lon="-0.59894">
        <ele>53</ele>
        <time>2015-09-01T08:51:02.000Z</time>
      </trkpt>
      <trkpt lat="47.51132" lon="-0.5989">
        <ele>53</ele>
        <time>2015-09-01T08:51:03.000Z</time>
      </trkpt>
      <trkpt lat="47.51135" lon="-0.59886">
        <ele>53</ele>
        <time>2015-09-01T08:51:04.000Z</time>
      </trkpt>
      <trkpt lat="47.51137" lon="-0.59882">
        <ele>52</ele>
        <time>2015-09-01T08:51:05.000Z</time>
      </trkpt>
      <trkpt lat="47.51139" lon="-0.59878">
        <ele>53</ele>
        <time>2015-09-01T08:51:06.000Z</time>
      </trkpt>
      <trkpt lat="47.5114" lon="-0.59875">
        <ele>53</ele>
        <time>2015-09-01T08:51:07.000Z</time>
      </trkpt>
      <trkpt lat="47.51142" lon="-0.59872">
        <ele>53</ele>
        <time>2015-09-01T08:51:08.000Z</time>
      </trkpt>
      <trkpt lat="47.51143" lon="-0.59868">
        <ele>53</ele>
        <time>2015-09-01T08:51:09.000Z</time>
      </trkpt>
      <trkpt lat="47.51145" lon="-0.59865">
        <ele>53</ele>
        <time>2015-09-01T08:51:10.000Z</time>
      </trkpt>
      <trkpt lat="47.51146" lon="-0.59862">
        <ele>53</ele>
        <time>2015-09-01T08:51:11.000Z</time>
      </trkpt>
      <trkpt lat="47.51148" lon="-0.59859">
        <ele>53</ele>
        <time>2015-09-01T08:51:12.000Z</time>
      </trkpt>
      <trkpt lat="47.5115" lon="-0.59857">
        <ele>53</ele>
        <time>2015-09-01T08:51:13.000Z</time>
      </trkpt>
      <trkpt lat="47.51152" lon="-0.59854">
        <ele>53</ele>
        <time>2015-09-01T08:51:14.000Z</time>
      </trkpt>
      <trkpt lat="47.51154" lon="-0.59851">
        <ele>53</ele>
        <time>2015-09-01T08:51:15.000Z</time>
      </trkpt>
      <trkpt lat="47.51156" lon="-0.59849">
        <ele>53</ele>
        <time>2015-09-01T08:51:16.000Z</time>
      </trkpt>
      <trkpt lat="47.51158" lon="-0.59846">
        <ele>52</ele>
        <time>2015-09-01T08:51:17.000Z</time>
      </trkpt>
      <trkpt lat="47.51161" lon="-0.59843">
        <ele>53</ele>
        <time>2015-09-01T08:51:18.000Z</time>
      </trkpt>
      <trkpt lat="47.51164" lon="-0.5984">
        <ele>54</ele>
        <time>2015-09-01T08:51:19.000Z</time>
      </trkpt>
      <trkpt lat="47.51168" lon="-0.59837">
        <ele>55</ele>
        <time>2015-09-01T08:51:20.000Z</time>
      </trkpt>
      <trkpt lat="47.5117" lon="-0.59834">
        <ele>54</ele>
        <time>2015-09-01T08:51:21.000Z</time>
      </trkpt>
      <trkpt lat="47.51172" lon="-0.59831">
        <ele>54</ele>
        <time>2015-09-01T08:51:22.000Z</time>
      </trkpt>
      <trkpt lat="47.51175" lon="-0.59828">
        <ele>54</ele>
        <time>2015-09-01T08:51:23.000Z</time>
      </trkpt>
      <trkpt lat="47.51177" lon="-0.59825">
        <ele>54</ele>
        <time>2015-09-01T08:51:24.000Z</time>
      </trkpt>
      <trkpt lat="47.51179" lon="-0.59823">
        <ele>54</ele>
        <time>2015-09-01T08:51:25.000Z</time>
      </trkpt>
      <trkpt lat="47.51182" lon="-0.59821">
        <ele>54</ele>
        <time>2015-09-01T08:51:26.000Z</time>
      </trkpt>
      <trkpt lat="47.51185" lon="-0.59818">
        <ele>55</ele>
        <time>2015-09-01T08:51:27.000Z</time>
      </trkpt>
      <trkpt lat="47.51187" lon="-0.59816">
        <ele>55</ele>
        <time>2015-09-01T08:51:28.000Z</time>
      </trkpt>
      <trkpt lat="47.5119" lon="-0.59814">
        <ele>56</ele>
        <time>2015-09-01T08:51:29.000Z</time>
      </trkpt>
      <trkpt lat="47.51192" lon="-0.59812">
        <ele>55</ele>
        <time>2015-09-01T08:51:30.000Z</time>
      </trkpt>
      <trkpt lat="47.51195" lon="-0.5981">
        <ele>54</ele>
        <time>2015-09-01T08:51:31.000Z</time>
      </trkpt>
      <trkpt lat="47.51197" lon="-0.59808">
        <ele>55</ele>
        <time>2015-09-01T08:51:32.000Z</time>
      </trkpt>
      <trkpt lat="47.51199" lon="-0.59806">
        <ele>55</ele>
        <time>2015-09-01T08:51:33.000Z</time>
      </trkpt>
      <trkpt lat="47.51202" lon="-0.59804">
        <ele>55</ele>
        <time>2015-09-01T08:51:34.000Z</time>
      </trkpt>
      <trkpt lat="47.51204" lon="-0.59802">
        <ele>54</ele>
        <time>2015-09-01T08:51:35.000Z</time>
      </trkpt>
      <trkpt lat="47.51207" lon="-0.59801">
        <ele>54</ele>
        <time>2015-09-01T08:51:36.000Z</time>
      </trkpt>
      <trkpt lat="47.51209" lon="-0.59799">
        <ele>54</ele>
        <time>2015-09-01T08:51:37.000Z</time>
      </trkpt>
      <trkpt lat="47.51212" lon="-0.59797">
        <ele>55</ele>
        <time>2015-09-01T08:51:38.000Z</time>
      </trkpt>
      <trkpt lat="47.51214" lon="-0.59795">
        <ele>54</ele>
        <time>2015-09-01T08:51:39.000Z</time>
      </trkpt>
      <trkpt lat="47.51216" lon="-0.59791">
        <ele>53</ele>
        <time>2015-09-01T08:51:40.000Z</time>
      </trkpt>
      <trkpt lat="47.51217" lon="-0.59788">
        <ele>52</ele>
        <time>2015-09-01T08:51:41.000Z</time>
      </trkpt>
      <trkpt lat="47.51218" lon="-0.59784">
        <ele>52</ele>
        <time>2015-09-01T08:51:42.000Z</time>
      </trkpt>
      <trkpt lat="47.51219" lon="-0.5978">
        <ele>53</ele>
        <time>2015-09-01T08:51:43.000Z</time>
      </trkpt>
      <trkpt lat="47.5122" lon="-0.59776">
        <ele>53</ele>
        <time>2015-09-01T08:51:44.000Z</time>
      </trkpt>
      <trkpt lat="47.51221" lon="-0.59772">
        <ele>53</ele>
        <time>2015-09-01T08:51:45.000Z</time>
      </trkpt>
      <trkpt lat="47.51222" lon="-0.59769">
        <ele>54</ele>
        <time>2015-09-01T08:51:46.000Z</time>
      </trkpt>
      <trkpt lat="47.51222" lon="-0.59765">
        <ele>53</ele>
        <time>2015-09-01T08:51:47.000Z</time>
      </trkpt>
      <trkpt lat="47.51224" lon="-0.59761">
        <ele>53</ele>
        <time>2015-09-01T08:51:48.000Z</time>
      </trkpt>
      <trkpt lat="47.51225" lon="-0.59757">
        <ele>53</ele>
        <time>2015-09-01T08:51:49.000Z</time>
      </trkpt>
      <trkpt lat="47.51227" lon="-0.59754">
        <ele>53</ele>
        <time>2015-09-01T08:51:50.000Z</time>
      </trkpt>
      <trkpt lat="47.51229" lon="-0.59751">
        <ele>53</ele>
        <time>2015-09-01T08:51:51.000Z</time>
      </trkpt>
      <trkpt lat="47.5123" lon="-0.59748">
        <ele>54</ele>
        <time>2015-09-01T08:51:52.000Z</time>
      </trkpt>
      <trkpt lat="47.51232" lon="-0.59745">
        <ele>54</ele>
        <time>2015-09-01T08:51:53.000Z</time>
      </trkpt>
      <trkpt lat="47.51234" lon="-0.59742">
        <ele>53</ele>
        <time>2015-09-01T08:51:54.000Z</time>
      </trkpt>
      <trkpt lat="47.51236" lon="-0.59739">
        <ele>53</ele>
        <time>2015-09-01T08:51:55.000Z</time>
      </trkpt>
      <trkpt lat="47.51237" lon="-0.59736">
        <ele>53</ele>
        <time>2015-09-01T08:51:56.000Z</time>
      </trkpt>
      <trkpt lat="47.51239" lon="-0.59733">
        <ele>53</ele>
        <time>2015-09-01T08:51:57.000Z</time>
      </trkpt>
      <trkpt lat="47.5124" lon="-0.5973">
        <ele>52</ele>
        <time>2015-09-01T08:51:58.000Z</time>
      </trkpt>
      <trkpt lat="47.51242" lon="-0.59727">
        <ele>53</ele>
        <time>2015-09-01T08:51:59.000Z</time>
      </trkpt>
      <trkpt lat="47.51243" lon="-0.59725">
        <ele>53</ele>
        <time>2015-09-01T08:52:00.000Z</time>
      </trkpt>
      <trkpt lat="47.51245" lon="-0.59723">
        <ele>52</ele>
        <time>2015-09-01T08:52:01.000Z</time>
      </trkpt>
      <trkpt lat="47.51246" lon="-0.59722">
        <ele>52</ele>
        <time>2015-09-01T08:52:02.000Z</time>
      </trkpt>
      <trkpt lat="47.51248" lon="-0.59721">
        <ele>52</ele>
        <time>2015-09-01T08:52:03.000Z</time>
      </trkpt>
      <trkpt lat="47.5125" lon="-0.59719">
        <ele>52</ele>
        <time>2015-09-01T08:52:04.000Z</time>
      </trkpt>
      <trkpt lat="47.51254" lon="-0.59715">
        <ele>52</ele>
        <time>2015-09-01T08:52:05.000Z</time>
      </trkpt>
      <trkpt lat="47.51257" lon="-0.59711">
        <ele>51</ele>
        <time>2015-09-01T08:52:06.000Z</time>
      </trkpt>
      <trkpt lat="47.51258" lon="-0.59706">
        <ele>50</ele>
        <time>2015-09-01T08:52:07.000Z</time>
      </trkpt>
      <trkpt lat="47.51258" lon="-0.59702">
        <ele>50</ele>
        <time>2015-09-01T08:52:08.000Z</time>
      </trkpt>
      <trkpt lat="47.51259" lon="-0.59698">
        <ele>49</ele>
        <time>2015-09-01T08:52:09.000Z</time>
      </trkpt>
      <trkpt lat="47.51258" lon="-0.59694">
        <ele>50</ele>
        <time>2015-09-01T08:52:10.000Z</time>
      </trkpt>
      <trkpt lat="47.51256" lon="-0.5969">
        <ele>50</ele>
        <time>2015-09-01T08:52:11.000Z</time>
      </trkpt>
      <trkpt lat="47.51254" lon="-0.59687">
        <ele>49</ele>
        <time>2015-09-01T08:52:12.000Z</time>
      </trkpt>
      <trkpt lat="47.51252" lon="-0.59683">
        <ele>50</ele>
        <time>2015-09-01T08:52:13.000Z</time>
      </trkpt>
      <trkpt lat="47.5125" lon="-0.59678">
        <ele>50</ele>
        <time>2015-09-01T08:52:14.000Z</time>
      </trkpt>
      <trkpt lat="47.51248" lon="-0.59674">
        <ele>51</ele>
        <time>2015-09-01T08:52:15.000Z</time>
      </trkpt>
      <trkpt lat="47.51247" lon="-0.5967">
        <ele>51</ele>
        <time>2015-09-01T08:52:16.000Z</time>
      </trkpt>
      <trkpt lat="47.51245" lon="-0.59666">
        <ele>51</ele>
        <time>2015-09-01T08:52:17.000Z</time>
      </trkpt>
      <trkpt lat="47.51244" lon="-0.59662">
        <ele>52</ele>
        <time>2015-09-01T08:52:18.000Z</time>
      </trkpt>
      <trkpt lat="47.51243" lon="-0.59658">
        <ele>52</ele>
        <time>2015-09-01T08:52:19.000Z</time>
      </trkpt>
      <trkpt lat="47.51242" lon="-0.59654">
        <ele>52</ele>
        <time>2015-09-01T08:52:20.000Z</time>
      </trkpt>
      <trkpt lat="47.5124" lon="-0.5965">
        <ele>52</ele>
        <time>2015-09-01T08:52:21.000Z</time>
      </trkpt>
      <trkpt lat="47.51239" lon="-0.59646">
        <ele>52</ele>
        <time>2015-09-01T08:52:22.000Z</time>
      </trkpt>
      <trkpt lat="47.51238" lon="-0.59642">
        <ele>52</ele>
        <time>2015-09-01T08:52:23.000Z</time>
      </trkpt>
      <trkpt lat="47.51238" lon="-0.59638">
        <ele>53</ele>
        <time>2015-09-01T08:52:24.000Z</time>
      </trkpt>
      <trkpt lat="47.51237" lon="-0.59633">
        <ele>52</ele>
        <time>2015-09-01T08:52:25.000Z</time>
      </trkpt>
      <trkpt lat="47.51237" lon="-0.59629">
        <ele>53</ele>
        <time>2015-09-01T08:52:26.000Z</time>
      </trkpt>
      <trkpt lat="47.51236" lon="-0.59624">
        <ele>53</ele>
        <time>2015-09-01T08:52:27.000Z</time>
      </trkpt>
      <trkpt lat="47.51236" lon="-0.59619">
        <ele>53</ele>
        <time>2015-09-01T08:52:28.000Z</time>
      </trkpt>
      <trkpt lat="47.51235" lon="-0.59615">
        <ele>53</ele>
        <time>2015-09-01T08:52:29.000Z</time>
      </trkpt>
      <trkpt lat="47.51234" lon="-0.5961">
        <ele>53</ele>
        <time>2015-09-01T08:52:30.000Z</time>
      </trkpt>
      <trkpt lat="47.51234" lon="-0.59606">
        <ele>53</ele>
        <time>2015-09-01T08:52:31.000Z</time>
      </trkpt>
      <trkpt lat="47.51233" lon="-0.59602">
        <ele>53</ele>
        <time>2015-09-01T08:52:32.000Z</time>
      </trkpt>
      <trkpt lat="47.51233" lon="-0.59598">
        <ele>53</ele>
        <time>2015-09-01T08:52:33.000Z</time>
      </trkpt>
      <trkpt lat="47.51234" lon="-0.59594">
        <ele>52</ele>
        <time>2015-09-01T08:52:34.000Z</time>
      </trkpt>
      <trkpt lat="47.51234" lon="-0.59591">
        <ele>52</ele>
        <time>2015-09-01T08:52:35.000Z</time>
      </trkpt>
      <trkpt lat="47.51234" lon="-0.59589">
        <ele>51</ele>
        <time>2015-09-01T08:52:36.000Z</time>
      </trkpt>
      <trkpt lat="47.51236" lon="-0.59587">
        <ele>51</ele>
        <time>2015-09-01T08:52:37.000Z</time>
      </trkpt>
      <trkpt lat="47.51239" lon="-0.59585">
        <ele>51</ele>
        <time>2015-09-01T08:52:38.000Z</time>
      </trkpt>
      <trkpt lat="47.51242" lon="-0.59582">
        <ele>51</ele>
        <time>2015-09-01T08:52:39.000Z</time>
      </trkpt>
      <trkpt lat="47.51245" lon="-0.59579">
        <ele>50</ele>
        <time>2015-09-01T08:52:40.000Z</time>
      </trkpt>
      <trkpt lat="47.51247" lon="-0.59577">
        <ele>50</ele>
        <time>2015-09-01T08:52:41.000Z</time>
      </trkpt>
      <trkpt lat="47.5125" lon="-0.59574">
        <ele>49</ele>
        <time>2015-09-01T08:52:42.000Z</time>
      </trkpt>
      <trkpt lat="47.51252" lon="-0.59571">
        <ele>48</ele>
        <time>2015-09-01T08:52:43.000Z</time>
      </trkpt>
      <trkpt lat="47.51255" lon="-0.59568">
        <ele>47</ele>
        <time>2015-09-01T08:52:44.000Z</time>
      </trkpt>
      <trkpt lat="47.51257" lon="-0.59566">
        <ele>47</ele>
        <time>2015-09-01T08:52:45.000Z</time>
      </trkpt>
      <trkpt lat="47.5126" lon="-0.59563">
        <ele>46</ele>
        <time>2015-09-01T08:52:46.000Z</time>
      </trkpt>
      <trkpt lat="47.51262" lon="-0.59561">
        <ele>46</ele>
        <time>2015-09-01T08:52:47.000Z</time>
      </trkpt>
      <trkpt lat="47.51264" lon="-0.59558">
        <ele>45</ele>
        <time>2015-09-01T08:52:48.000Z</time>
      </trkpt>
      <trkpt lat="47.51267" lon="-0.59557">
        <ele>45</ele>
        <time>2015-09-01T08:52:49.000Z</time>
      </trkpt>
      <trkpt lat="47.51269" lon="-0.59555">
        <ele>44</ele>
        <time>2015-09-01T08:52:50.000Z</time>
      </trkpt>
      <trkpt lat="47.51272" lon="-0.59553">
        <ele>44</ele>
        <time>2015-09-01T08:52:51.000Z</time>
      </trkpt>
      <trkpt lat="47.51276" lon="-0.59551">
        <ele>42</ele>
        <time>2015-09-01T08:52:52.000Z</time>
      </trkpt>
      <trkpt lat="47.51279" lon="-0.59549">
        <ele>43</ele>
        <time>2015-09-01T08:52:53.000Z</time>
      </trkpt>
      <trkpt lat="47.51283" lon="-0.59548">
        <ele>43</ele>
        <time>2015-09-01T08:52:54.000Z</time>
      </trkpt>
      <trkpt lat="47.51287" lon="-0.59546">
        <ele>43</ele>
        <time>2015-09-01T08:52:55.000Z</time>
      </trkpt>
      <trkpt lat="47.51291" lon="-0.59544">
        <ele>42</ele>
        <time>2015-09-01T08:52:56.000Z</time>
      </trkpt>
      <trkpt lat="47.51294" lon="-0.59541">
        <ele>42</ele>
        <time>2015-09-01T08:52:57.000Z</time>
      </trkpt>
      <trkpt lat="47.51298" lon="-0.59539">
        <ele>42</ele>
        <time>2015-09-01T08:52:58.000Z</time>
      </trkpt>
      <trkpt lat="47.51301" lon="-0.59537">
        <ele>42</ele>
        <time>2015-09-01T08:52:59.000Z</time>
      </trkpt>
      <trkpt lat="47.51305" lon="-0.59535">
        <ele>43</ele>
        <time>2015-09-01T08:53:00.000Z</time>
      </trkpt>
      <trkpt lat="47.51309" lon="-0.59532">
        <ele>45</ele>
        <time>2015-09-01T08:53:01.000Z</time>
      </trkpt>
      <trkpt lat="47.51313" lon="-0.5953">
        <ele>45</ele>
        <time>2015-09-01T08:53:02.000Z</time>
      </trkpt>
      <trkpt lat="47.51316" lon="-0.59527">
        <ele>45</ele>
        <time>2015-09-01T08:53:03.000Z</time>
      </trkpt>
      <trkpt lat="47.51319" lon="-0.59524">
        <ele>46</ele>
        <time>2015-09-01T08:53:04.000Z</time>
      </trkpt>
      <trkpt lat="47.51322" lon="-0.59522">
        <ele>46</ele>
        <time>2015-09-01T08:53:05.000Z</time>
      </trkpt>
      <trkpt lat="47.51325" lon="-0.5952">
        <ele>46</ele>
        <time>2015-09-01T08:53:06.000Z</time>
      </trkpt>
      <trkpt lat="47.51328" lon="-0.59518">
        <ele>47</ele>
        <time>2015-09-01T08:53:07.000Z</time>
      </trkpt>
      <trkpt lat="47.51332" lon="-0.59516">
        <ele>48</ele>
        <time>2015-09-01T08:53:08.000Z</time>
      </trkpt>
      <trkpt lat="47.51335" lon="-0.59513">
        <ele>48</ele>
        <time>2015-09-01T08:53:09.000Z</time>
      </trkpt>
      <trkpt lat="47.51338" lon="-0.59511">
        <ele>48</ele>
        <time>2015-09-01T08:53:10.000Z</time>
      </trkpt>
      <trkpt lat="47.51341" lon="-0.59509">
        <ele>48</ele>
        <time>2015-09-01T08:53:11.000Z</time>
      </trkpt>
      <trkpt lat="47.51345" lon="-0.59507">
        <ele>48</ele>
        <time>2015-09-01T08:53:12.000Z</time>
      </trkpt>
      <trkpt lat="47.51348" lon="-0.59504">
        <ele>49</ele>
        <time>2015-09-01T08:53:13.000Z</time>
      </trkpt>
      <trkpt lat="47.51351" lon="-0.59502">
        <ele>50</ele>
        <time>2015-09-01T08:53:14.000Z</time>
      </trkpt>
      <trkpt lat="47.51354" lon="-0.595">
        <ele>50</ele>
        <time>2015-09-01T08:53:15.000Z</time>
      </trkpt>
      <trkpt lat="47.51358" lon="-0.59498">
        <ele>49</ele>
        <time>2015-09-01T08:53:16.000Z</time>
      </trkpt>
      <trkpt lat="47.51361" lon="-0.59495">
        <ele>49</ele>
        <time>2015-09-01T08:53:17.000Z</time>
      </trkpt>
      <trkpt lat="47.51364" lon="-0.59493">
        <ele>49</ele>
        <time>2015-09-01T08:53:18.000Z</time>
      </trkpt>
      <trkpt lat="47.51367" lon="-0.59491">
        <ele>49</ele>
        <time>2015-09-01T08:53:19.000Z</time>
      </trkpt>
      <trkpt lat="47.51371" lon="-0.59489">
        <ele>50</ele>
        <time>2015-09-01T08:53:20.000Z</time>
      </trkpt>
      <trkpt lat="47.51374" lon="-0.59487">
        <ele>51</ele>
        <time>2015-09-01T08:53:21.000Z</time>
      </trkpt>
      <trkpt lat="47.51378" lon="-0.59486">
        <ele>51</ele>
        <time>2015-09-01T08:53:22.000Z</time>
      </trkpt>
      <trkpt lat="47.51381" lon="-0.59484">
        <ele>52</ele>
        <time>2015-09-01T08:53:23.000Z</time>
      </trkpt>
      <trkpt lat="47.51385" lon="-0.59482">
        <ele>52</ele>
        <time>2015-09-01T08:53:24.000Z</time>
      </trkpt>
      <trkpt lat="47.51388" lon="-0.5948">
        <ele>52</ele>
        <time>2015-09-01T08:53:25.000Z</time>
      </trkpt>
      <trkpt lat="47.51391" lon="-0.59478">
        <ele>52</ele>
        <time>2015-09-01T08:53:26.000Z</time>
      </trkpt>
      <trkpt lat="47.51393" lon="-0.59475">
        <ele>51</ele>
        <time>2015-09-01T08:53:27.000Z</time>
      </trkpt>
      <trkpt lat="47.51395" lon="-0.59472">
        <ele>50</ele>
        <time>2015-09-01T08:53:28.000Z</time>
      </trkpt>
      <trkpt lat="47.51397" lon="-0.59469">
        <ele>50</ele>
        <time>2015-09-01T08:53:29.000Z</time>
      </trkpt>
      <trkpt lat="47.514" lon="-0.59467">
        <ele>50</ele>
        <time>2015-09-01T08:53:30.000Z</time>
      </trkpt>
      <trkpt lat="47.51403" lon="-0.59465">
        <ele>50</ele>
        <time>2015-09-01T08:53:31.000Z</time>
      </trkpt>
      <trkpt lat="47.51405" lon="-0.59463">
        <ele>50</ele>
        <time>2015-09-01T08:53:32.000Z</time>
      </trkpt>
      <trkpt lat="47.51408" lon="-0.5946">
        <ele>50</ele>
        <time>2015-09-01T08:53:33.000Z</time>
      </trkpt>
      <trkpt lat="47.51411" lon="-0.59458">
        <ele>50</ele>
        <time>2015-09-01T08:53:34.000Z</time>
      </trkpt>
      <trkpt lat="47.51413" lon="-0.59456">
        <ele>50</ele>
        <time>2015-09-01T08:53:35.000Z</time>
      </trkpt>
      <trkpt lat="47.51416" lon="-0.59453">
        <ele>51</ele>
        <time>2015-09-01T08:53:36.000Z</time>
      </trkpt>
      <trkpt lat="47.51419" lon="-0.59451">
        <ele>51</ele>
        <time>2015-09-01T08:53:37.000Z</time>
      </trkpt>
      <trkpt lat="47.51422" lon="-0.59449">
        <ele>51</ele>
        <time>2015-09-01T08:53:38.000Z</time>
      </trkpt>
      <trkpt lat="47.51425" lon="-0.59446">
        <ele>51</ele>
        <time>2015-09-01T08:53:39.000Z</time>
      </trkpt>
      <trkpt lat="47.51428" lon="-0.59444">
        <ele>51</ele>
        <time>2015-09-01T08:53:40.000Z</time>
      </trkpt>
      <trkpt lat="47.51431" lon="-0.59441">
        <ele>51</ele>
        <time>2015-09-01T08:53:41.000Z</time>
      </trkpt>
      <trkpt lat="47.51435" lon="-0.59439">
        <ele>52</ele>
        <time>2015-09-01T08:53:42.000Z</time>
      </trkpt>
      <trkpt lat="47.51438" lon="-0.59437">
        <ele>52</ele>
        <time>2015-09-01T08:53:43.000Z</time>
      </trkpt>
      <trkpt lat="47.51441" lon="-0.59434">
        <ele>52</ele>
        <time>2015-09-01T08:53:44.000Z</time>
      </trkpt>
      <trkpt lat="47.51444" lon="-0.59432">
        <ele>52</ele>
        <time>2015-09-01T08:53:45.000Z</time>
      </trkpt>
      <trkpt lat="47.51447" lon="-0.5943">
        <ele>52</ele>
        <time>2015-09-01T08:53:46.000Z</time>
      </trkpt>
      <trkpt lat="47.5145" lon="-0.59427">
        <ele>52</ele>
        <time>2015-09-01T08:53:47.000Z</time>
      </trkpt>
      <trkpt lat="47.51453" lon="-0.59425">
        <ele>52</ele>
        <time>2015-09-01T08:53:48.000Z</time>
      </trkpt>
      <trkpt lat="47.51456" lon="-0.59423">
        <ele>51</ele>
        <time>2015-09-01T08:53:49.000Z</time>
      </trkpt>
      <trkpt lat="47.51458" lon="-0.5942">
        <ele>51</ele>
        <time>2015-09-01T08:53:50.000Z</time>
      </trkpt>
      <trkpt lat="47.51461" lon="-0.59418">
        <ele>52</ele>
        <time>2015-09-01T08:53:51.000Z</time>
      </trkpt>
      <trkpt lat="47.51464" lon="-0.59416">
        <ele>51</ele>
        <time>2015-09-01T08:53:52.000Z</time>
      </trkpt>
      <trkpt lat="47.51467" lon="-0.59415">
        <ele>51</ele>
        <time>2015-09-01T08:53:53.000Z</time>
      </trkpt>
      <trkpt lat="47.5147" lon="-0.59413">
        <ele>50</ele>
        <time>2015-09-01T08:53:54.000Z</time>
      </trkpt>
      <trkpt lat="47.51472" lon="-0.5941">
        <ele>51</ele>
        <time>2015-09-01T08:53:55.000Z</time>
      </trkpt>
      <trkpt lat="47.51475" lon="-0.59408">
        <ele>51</ele>
        <time>2015-09-01T08:53:56.000Z</time>
      </trkpt>
      <trkpt lat="47.51478" lon="-0.59406">
        <ele>51</ele>
        <time>2015-09-01T08:53:57.000Z</time>
      </trkpt>
      <trkpt lat="47.5148" lon="-0.59403">
        <ele>50</ele>
        <time>2015-09-01T08:53:58.000Z</time>
      </trkpt>
      <trkpt lat="47.51483" lon="-0.59401">
        <ele>51</ele>
        <time>2015-09-01T08:53:59.000Z</time>
      </trkpt>
      <trkpt lat="47.51485" lon="-0.59398">
        <ele>52</ele>
        <time>2015-09-01T08:54:00.000Z</time>
      </trkpt>
      <trkpt lat="47.51488" lon="-0.59395">
        <ele>52</ele>
        <time>2015-09-01T08:54:01.000Z</time>
      </trkpt>
      <trkpt lat="47.51491" lon="-0.59392">
        <ele>52</ele>
        <time>2015-09-01T08:54:02.000Z</time>
      </trkpt>
      <trkpt lat="47.51493" lon="-0.5939">
        <ele>52</ele>
        <time>2015-09-01T08:54:03.000Z</time>
      </trkpt>
      <trkpt lat="47.51496" lon="-0.59387">
        <ele>52</ele>
        <time>2015-09-01T08:54:04.000Z</time>
      </trkpt>
      <trkpt lat="47.51499" lon="-0.59385">
        <ele>53</ele>
        <time>2015-09-01T08:54:05.000Z</time>
      </trkpt>
      <trkpt lat="47.51502" lon="-0.59382">
        <ele>54</ele>
        <time>2015-09-01T08:54:06.000Z</time>
      </trkpt>
      <trkpt lat="47.51505" lon="-0.5938">
        <ele>54</ele>
        <time>2015-09-01T08:54:07.000Z</time>
      </trkpt>
      <trkpt lat="47.51507" lon="-0.59377">
        <ele>54</ele>
        <time>2015-09-01T08:54:08.000Z</time>
      </trkpt>
      <trkpt lat="47.5151" lon="-0.59375">
        <ele>54</ele>
        <time>2015-09-01T08:54:09.000Z</time>
      </trkpt>
      <trkpt lat="47.51512" lon="-0.59372">
        <ele>54</ele>
        <time>2015-09-01T08:54:10.000Z</time>
      </trkpt>
      <trkpt lat="47.51515" lon="-0.5937">
        <ele>55</ele>
        <time>2015-09-01T08:54:11.000Z</time>
      </trkpt>
      <trkpt lat="47.51517" lon="-0.59367">
        <ele>55</ele>
        <time>2015-09-01T08:54:12.000Z</time>
      </trkpt>
      <trkpt lat="47.5152" lon="-0.59365">
        <ele>55</ele>
        <time>2015-09-01T08:54:13.000Z</time>
      </trkpt>
      <trkpt lat="47.51523" lon="-0.59362">
        <ele>55</ele>
        <time>2015-09-01T08:54:14.000Z</time>
      </trkpt>
      <trkpt lat="47.51525" lon="-0.5936">
        <ele>55</ele>
        <time>2015-09-01T08:54:15.000Z</time>
      </trkpt>
      <trkpt lat="47.51528" lon="-0.59358">
        <ele>55</ele>
        <time>2015-09-01T08:54:16.000Z</time>
      </trkpt>
      <trkpt lat="47.51531" lon="-0.59355">
        <ele>56</ele>
        <time>2015-09-01T08:54:17.000Z</time>
      </trkpt>
      <trkpt lat="47.51533" lon="-0.59353">
        <ele>56</ele>
        <time>2015-09-01T08:54:18.000Z</time>
      </trkpt>
      <trkpt lat="47.51536" lon="-0.5935">
        <ele>56</ele>
        <time>2015-09-01T08:54:19.000Z</time>
      </trkpt>
      <trkpt lat="47.51539" lon="-0.59348">
        <ele>56</ele>
        <time>2015-09-01T08:54:20.000Z</time>
      </trkpt>
      <trkpt lat="47.51542" lon="-0.59346">
        <ele>57</ele>
        <time>2015-09-01T08:54:21.000Z</time>
      </trkpt>
      <trkpt lat="47.51545" lon="-0.59344">
        <ele>57</ele>
        <time>2015-09-01T08:54:22.000Z</time>
      </trkpt>
      <trkpt lat="47.51548" lon="-0.59342">
        <ele>58</ele>
        <time>2015-09-01T08:54:23.000Z</time>
      </trkpt>
      <trkpt lat="47.51551" lon="-0.5934">
        <ele>58</ele>
        <time>2015-09-01T08:54:24.000Z</time>
      </trkpt>
      <trkpt lat="47.51553" lon="-0.59338">
        <ele>58</ele>
        <time>2015-09-01T08:54:25.000Z</time>
      </trkpt>
      <trkpt lat="47.51556" lon="-0.59335">
        <ele>57</ele>
        <time>2015-09-01T08:54:26.000Z</time>
      </trkpt>
      <trkpt lat="47.51559" lon="-0.59333">
        <ele>57</ele>
        <time>2015-09-01T08:54:27.000Z</time>
      </trkpt>
      <trkpt lat="47.51561" lon="-0.59331">
        <ele>57</ele>
        <time>2015-09-01T08:54:28.000Z</time>
      </trkpt>
      <trkpt lat="47.51565" lon="-0.59329">
        <ele>58</ele>
        <time>2015-09-01T08:54:29.000Z</time>
      </trkpt>
      <trkpt lat="47.51568" lon="-0.59327">
        <ele>58</ele>
        <time>2015-09-01T08:54:30.000Z</time>
      </trkpt>
      <trkpt lat="47.51571" lon="-0.59324">
        <ele>58</ele>
        <time>2015-09-01T08:54:31.000Z</time>
      </trkpt>
      <trkpt lat="47.51573" lon="-0.59322">
        <ele>58</ele>
        <time>2015-09-01T08:54:32.000Z</time>
      </trkpt>
      <trkpt lat="47.51576" lon="-0.5932">
        <ele>58</ele>
        <time>2015-09-01T08:54:33.000Z</time>
      </trkpt>
      <trkpt lat="47.51579" lon="-0.59317">
        <ele>59</ele>
        <time>2015-09-01T08:54:34.000Z</time>
      </trkpt>
      <trkpt lat="47.51582" lon="-0.59315">
        <ele>58</ele>
        <time>2015-09-01T08:54:35.000Z</time>
      </trkpt>
      <trkpt lat="47.51584" lon="-0.59312">
        <ele>58</ele>
        <time>2015-09-01T08:54:36.000Z</time>
      </trkpt>
      <trkpt lat="47.51587" lon="-0.59309">
        <ele>58</ele>
        <time>2015-09-01T08:54:37.000Z</time>
      </trkpt>
      <trkpt lat="47.51589" lon="-0.59306">
        <ele>58</ele>
        <time>2015-09-01T08:54:38.000Z</time>
      </trkpt>
      <trkpt lat="47.51591" lon="-0.59304">
        <ele>57</ele>
        <time>2015-09-01T08:54:39.000Z</time>
      </trkpt>
      <trkpt lat="47.51594" lon="-0.59301">
        <ele>57</ele>
        <time>2015-09-01T08:54:40.000Z</time>
      </trkpt>
      <trkpt lat="47.51597" lon="-0.59299">
        <ele>57</ele>
        <time>2015-09-01T08:54:41.000Z</time>
      </trkpt>
      <trkpt lat="47.516" lon="-0.59297">
        <ele>57</ele>
        <time>2015-09-01T08:54:42.000Z</time>
      </trkpt>
      <trkpt lat="47.51603" lon="-0.59295">
        <ele>58</ele>
        <time>2015-09-01T08:54:43.000Z</time>
      </trkpt>
      <trkpt lat="47.51606" lon="-0.59292">
        <ele>58</ele>
        <time>2015-09-01T08:54:44.000Z</time>
      </trkpt>
      <trkpt lat="47.51609" lon="-0.5929">
        <ele>57</ele>
        <time>2015-09-01T08:54:45.000Z</time>
      </trkpt>
      <trkpt lat="47.51612" lon="-0.59288">
        <ele>58</ele>
        <time>2015-09-01T08:54:46.000Z</time>
      </trkpt>
      <trkpt lat="47.51615" lon="-0.59286">
        <ele>59</ele>
        <time>2015-09-01T08:54:47.000Z</time>
      </trkpt>
      <trkpt lat="47.51619" lon="-0.59284">
        <ele>59</ele>
        <time>2015-09-01T08:54:48.000Z</time>
      </trkpt>
      <trkpt lat="47.51623" lon="-0.59282">
        <ele>60</ele>
        <time>2015-09-01T08:54:49.000Z</time>
      </trkpt>
      <trkpt lat="47.51626" lon="-0.59279">
        <ele>60</ele>
        <time>2015-09-01T08:54:50.000Z</time>
      </trkpt>
      <trkpt lat="47.51628" lon="-0.59277">
        <ele>60</ele>
        <time>2015-09-01T08:54:51.000Z</time>
      </trkpt>
      <trkpt lat="47.51631" lon="-0.59275">
        <ele>60</ele>
        <time>2015-09-01T08:54:52.000Z</time>
      </trkpt>
      <trkpt lat="47.51634" lon="-0.59272">
        <ele>60</ele>
        <time>2015-09-01T08:54:53.000Z</time>
      </trkpt>
      <trkpt lat="47.51636" lon="-0.5927">
        <ele>59</ele>
        <time>2015-09-01T08:54:54.000Z</time>
      </trkpt>
      <trkpt lat="47.51638" lon="-0.59267">
        <ele>57</ele>
        <time>2015-09-01T08:54:55.000Z</time>
      </trkpt>
      <trkpt lat="47.5164" lon="-0.59264">
        <ele>57</ele>
        <time>2015-09-01T08:54:56.000Z</time>
      </trkpt>
      <trkpt lat="47.51642" lon="-0.59261">
        <ele>56</ele>
        <time>2015-09-01T08:54:57.000Z</time>
      </trkpt>
      <trkpt lat="47.51644" lon="-0.59258">
        <ele>55</ele>
        <time>2015-09-01T08:54:58.000Z</time>
      </trkpt>
      <trkpt lat="47.51646" lon="-0.59255">
        <ele>55</ele>
        <time>2015-09-01T08:54:59.000Z</time>
      </trkpt>
      <trkpt lat="47.51648" lon="-0.59252">
        <ele>54</ele>
        <time>2015-09-01T08:55:00.000Z</time>
      </trkpt>
      <trkpt lat="47.51651" lon="-0.5925">
        <ele>53</ele>
        <time>2015-09-01T08:55:01.000Z</time>
      </trkpt>
      <trkpt lat="47.51654" lon="-0.59247">
        <ele>53</ele>
        <time>2015-09-01T08:55:02.000Z</time>
      </trkpt>
      <trkpt lat="47.51656" lon="-0.59245">
        <ele>53</ele>
        <time>2015-09-01T08:55:03.000Z</time>
      </trkpt>
      <trkpt lat="47.51658" lon="-0.59242">
        <ele>53</ele>
        <time>2015-09-01T08:55:04.000Z</time>
      </trkpt>
      <trkpt lat="47.51661" lon="-0.59239">
        <ele>53</ele>
        <time>2015-09-01T08:55:05.000Z</time>
      </trkpt>
      <trkpt lat="47.51664" lon="-0.59236">
        <ele>52</ele>
        <time>2015-09-01T08:55:06.000Z</time>
      </trkpt>
      <trkpt lat="47.51667" lon="-0.59234">
        <ele>52</ele>
        <time>2015-09-01T08:55:07.000Z</time>
      </trkpt>
      <trkpt lat="47.51669" lon="-0.59231">
        <ele>51</ele>
        <time>2015-09-01T08:55:08.000Z</time>
      </trkpt>
      <trkpt lat="47.51672" lon="-0.59228">
        <ele>52</ele>
        <time>2015-09-01T08:55:09.000Z</time>
      </trkpt>
      <trkpt lat="47.51675" lon="-0.59225">
        <ele>52</ele>
        <time>2015-09-01T08:55:10.000Z</time>
      </trkpt>
      <trkpt lat="47.51677" lon="-0.59222">
        <ele>51</ele>
        <time>2015-09-01T08:55:11.000Z</time>
      </trkpt>
      <trkpt lat="47.5168" lon="-0.59219">
        <ele>49</ele>
        <time>2015-09-01T08:55:12.000Z</time>
      </trkpt>
      <trkpt lat="47.51681" lon="-0.59216">
        <ele>48</ele>
        <time>2015-09-01T08:55:13.000Z</time>
      </trkpt>
      <trkpt lat="47.51682" lon="-0.59213">
        <ele>48</ele>
        <time>2015-09-01T08:55:14.000Z</time>
      </trkpt>
      <trkpt lat="47.51684" lon="-0.59209">
        <ele>47</ele>
        <time>2015-09-01T08:55:15.000Z</time>
      </trkpt>
      <trkpt lat="47.51686" lon="-0.59206">
        <ele>47</ele>
        <time>2015-09-01T08:55:16.000Z</time>
      </trkpt>
      <trkpt lat="47.51688" lon="-0.59203">
        <ele>46</ele>
        <time>2015-09-01T08:55:17.000Z</time>
      </trkpt>
      <trkpt lat="47.5169" lon="-0.592">
        <ele>45</ele>
        <time>2015-09-01T08:55:18.000Z</time>
      </trkpt>
      <trkpt lat="47.51693" lon="-0.59197">
        <ele>46</ele>
        <time>2015-09-01T08:55:19.000Z</time>
      </trkpt>
      <trkpt lat="47.51695" lon="-0.59194">
        <ele>46</ele>
        <time>2015-09-01T08:55:20.000Z</time>
      </trkpt>
      <trkpt lat="47.51697" lon="-0.5919">
        <ele>46</ele>
        <time>2015-09-01T08:55:21.000Z</time>
      </trkpt>
      <trkpt lat="47.51698" lon="-0.59185">
        <ele>46</ele>
        <time>2015-09-01T08:55:22.000Z</time>
      </trkpt>
      <trkpt lat="47.51698" lon="-0.59181">
        <ele>47</ele>
        <time>2015-09-01T08:55:23.000Z</time>
      </trkpt>
      <trkpt lat="47.51698" lon="-0.59177">
        <ele>48</ele>
        <time>2015-09-01T08:55:24.000Z</time>
      </trkpt>
      <trkpt lat="47.51698" lon="-0.59174">
        <ele>48</ele>
        <time>2015-09-01T08:55:25.000Z</time>
      </trkpt>
      <trkpt lat="47.51698" lon="-0.5917">
        <ele>49</ele>
        <time>2015-09-01T08:55:26.000Z</time>
      </trkpt>
      <trkpt lat="47.51699" lon="-0.59167">
        <ele>50</ele>
        <time>2015-09-01T08:55:27.000Z</time>
      </trkpt>
      <trkpt lat="47.51699" lon="-0.59165">
        <ele>49</ele>
        <time>2015-09-01T08:55:28.000Z</time>
      </trkpt>
      <trkpt lat="47.51699" lon="-0.59162">
        <ele>50</ele>
        <time>2015-09-01T08:55:29.000Z</time>
      </trkpt>
      <trkpt lat="47.51699" lon="-0.59159">
        <ele>50</ele>
        <time>2015-09-01T08:55:30.000Z</time>
      </trkpt>
      <trkpt lat="47.51699" lon="-0.59157">
        <ele>51</ele>
        <time>2015-09-01T08:55:31.000Z</time>
      </trkpt>
      <trkpt lat="47.51699" lon="-0.59154">
        <ele>52</ele>
        <time>2015-09-01T08:55:32.000Z</time>
      </trkpt>
      <trkpt lat="47.51699" lon="-0.59151">
        <ele>52</ele>
        <time>2015-09-01T08:55:33.000Z</time>
      </trkpt>
      <trkpt lat="47.51698" lon="-0.59148">
        <ele>52</ele>
        <time>2015-09-01T08:55:34.000Z</time>
      </trkpt>
      <trkpt lat="47.51697" lon="-0.59145">
        <ele>50</ele>
        <time>2015-09-01T08:55:35.000Z</time>
      </trkpt>
      <trkpt lat="47.51695" lon="-0.59142">
        <ele>49</ele>
        <time>2015-09-01T08:55:36.000Z</time>
      </trkpt>
      <trkpt lat="47.51693" lon="-0.59139">
        <ele>48</ele>
        <time>2015-09-01T08:55:37.000Z</time>
      </trkpt>
      <trkpt lat="47.5169" lon="-0.59136">
        <ele>48</ele>
        <time>2015-09-01T08:55:38.000Z</time>
      </trkpt>
      <trkpt lat="47.51688" lon="-0.59133">
        <ele>48</ele>
        <time>2015-09-01T08:55:39.000Z</time>
      </trkpt>
      <trkpt lat="47.51685" lon="-0.59129">
        <ele>48</ele>
        <time>2015-09-01T08:55:40.000Z</time>
      </trkpt>
      <trkpt lat="47.51683" lon="-0.59125">
        <ele>49</ele>
        <time>2015-09-01T08:55:41.000Z</time>
      </trkpt>
      <trkpt lat="47.51681" lon="-0.59121">
        <ele>50</ele>
        <time>2015-09-01T08:55:42.000Z</time>
      </trkpt>
      <trkpt lat="47.51678" lon="-0.59116">
        <ele>48</ele>
        <time>2015-09-01T08:55:43.000Z</time>
      </trkpt>
      <trkpt lat="47.51676" lon="-0.59111">
        <ele>49</ele>
        <time>2015-09-01T08:55:44.000Z</time>
      </trkpt>
      <trkpt lat="47.51674" lon="-0.59106">
        <ele>49</ele>
        <time>2015-09-01T08:55:45.000Z</time>
      </trkpt>
      <trkpt lat="47.51673" lon="-0.59101">
        <ele>49</ele>
        <time>2015-09-01T08:55:46.000Z</time>
      </trkpt>
      <trkpt lat="47.51672" lon="-0.59096">
        <ele>49</ele>
        <time>2015-09-01T08:55:47.000Z</time>
      </trkpt>
      <trkpt lat="47.5167" lon="-0.59092">
        <ele>49</ele>
        <time>2015-09-01T08:55:48.000Z</time>
      </trkpt>
      <trkpt lat="47.51668" lon="-0.59088">
        <ele>49</ele>
        <time>2015-09-01T08:55:49.000Z</time>
      </trkpt>
      <trkpt lat="47.51666" lon="-0.59083">
        <ele>51</ele>
        <time>2015-09-01T08:55:50.000Z</time>
      </trkpt>
      <trkpt lat="47.51665" lon="-0.59078">
        <ele>51</ele>
        <time>2015-09-01T08:55:51.000Z</time>
      </trkpt>
      <trkpt lat="47.51664" lon="-0.59073">
        <ele>52</ele>
        <time>2015-09-01T08:55:52.000Z</time>
      </trkpt>
      <trkpt lat="47.51663" lon="-0.59068">
        <ele>52</ele>
        <time>2015-09-01T08:55:53.000Z</time>
      </trkpt>
      <trkpt lat="47.51662" lon="-0.59064">
        <ele>51</ele>
        <time>2015-09-01T08:55:54.000Z</time>
      </trkpt>
      <trkpt lat="47.5166" lon="-0.5906">
        <ele>48</ele>
        <time>2015-09-01T08:55:55.000Z</time>
      </trkpt>
      <trkpt lat="47.51658" lon="-0.59056">
        <ele>48</ele>
        <time>2015-09-01T08:55:56.000Z</time>
      </trkpt>
      <trkpt lat="47.51657" lon="-0.59052">
        <ele>48</ele>
        <time>2015-09-01T08:55:57.000Z</time>
      </trkpt>
      <trkpt lat="47.51656" lon="-0.59048">
        <ele>48</ele>
        <time>2015-09-01T08:55:58.000Z</time>
      </trkpt>
      <trkpt lat="47.51654" lon="-0.59044">
        <ele>47</ele>
        <time>2015-09-01T08:55:59.000Z</time>
      </trkpt>
      <trkpt lat="47.51653" lon="-0.5904">
        <ele>48</ele>
        <time>2015-09-01T08:56:00.000Z</time>
      </trkpt>
      <trkpt lat="47.51652" lon="-0.59035">
        <ele>50</ele>
        <time>2015-09-01T08:56:01.000Z</time>
      </trkpt>
      <trkpt lat="47.51651" lon="-0.5903">
        <ele>50</ele>
        <time>2015-09-01T08:56:02.000Z</time>
      </trkpt>
      <trkpt lat="47.51649" lon="-0.59025">
        <ele>50</ele>
        <time>2015-09-01T08:56:03.000Z</time>
      </trkpt>
      <trkpt lat="47.51648" lon="-0.5902">
        <ele>49</ele>
        <time>2015-09-01T08:56:04.000Z</time>
      </trkpt>
      <trkpt lat="47.51646" lon="-0.59015">
        <ele>50</ele>
        <time>2015-09-01T08:56:05.000Z</time>
      </trkpt>
      <trkpt lat="47.51645" lon="-0.59011">
        <ele>50</ele>
        <time>2015-09-01T08:56:06.000Z</time>
      </trkpt>
      <trkpt lat="47.51644" lon="-0.59006">
        <ele>50</ele>
        <time>2015-09-01T08:56:07.000Z</time>
      </trkpt>
      <trkpt lat="47.51642" lon="-0.59002">
        <ele>50</ele>
        <time>2015-09-01T08:56:08.000Z</time>
      </trkpt>
      <trkpt lat="47.5164" lon="-0.58997">
        <ele>50</ele>
        <time>2015-09-01T08:56:09.000Z</time>
      </trkpt>
      <trkpt lat="47.51638" lon="-0.58993">
        <ele>50</ele>
        <time>2015-09-01T08:56:10.000Z</time>
      </trkpt>
      <trkpt lat="47.51637" lon="-0.58989">
        <ele>49</ele>
        <time>2015-09-01T08:56:11.000Z</time>
      </trkpt>
      <trkpt lat="47.51635" lon="-0.58984">
        <ele>48</ele>
        <time>2015-09-01T08:56:12.000Z</time>
      </trkpt>
      <trkpt lat="47.51633" lon="-0.5898">
        <ele>47</ele>
        <time>2015-09-01T08:56:13.000Z</time>
      </trkpt>
      <trkpt lat="47.51631" lon="-0.58975">
        <ele>47</ele>
        <time>2015-09-01T08:56:14.000Z</time>
      </trkpt>
      <trkpt lat="47.5163" lon="-0.5897">
        <ele>47</ele>
        <time>2015-09-01T08:56:15.000Z</time>
      </trkpt>
      <trkpt lat="47.5163" lon="-0.58965">
        <ele>47</ele>
        <time>2015-09-01T08:56:16.000Z</time>
      </trkpt>
      <trkpt lat="47.5163" lon="-0.58959">
        <ele>47</ele>
        <time>2015-09-01T08:56:17.000Z</time>
      </trkpt>
      <trkpt lat="47.51629" lon="-0.58955">
        <ele>47</ele>
        <time>2015-09-01T08:56:18.000Z</time>
      </trkpt>
      <trkpt lat="47.51629" lon="-0.5895">
        <ele>47</ele>
        <time>2015-09-01T08:56:19.000Z</time>
      </trkpt>
      <trkpt lat="47.51628" lon="-0.58945">
        <ele>47</ele>
        <time>2015-09-01T08:56:20.000Z</time>
      </trkpt>
      <trkpt lat="47.51627" lon="-0.58941">
        <ele>46</ele>
        <time>2015-09-01T08:56:21.000Z</time>
      </trkpt>
      <trkpt lat="47.51626" lon="-0.58936">
        <ele>46</ele>
        <time>2015-09-01T08:56:22.000Z</time>
      </trkpt>
      <trkpt lat="47.51625" lon="-0.58931">
        <ele>45</ele>
        <time>2015-09-01T08:56:23.000Z</time>
      </trkpt>
      <trkpt lat="47.51625" lon="-0.58927">
        <ele>45</ele>
        <time>2015-09-01T08:56:24.000Z</time>
      </trkpt>
      <trkpt lat="47.51624" lon="-0.58922">
        <ele>45</ele>
        <time>2015-09-01T08:56:25.000Z</time>
      </trkpt>
      <trkpt lat="47.51623" lon="-0.58918">
        <ele>44</ele>
        <time>2015-09-01T08:56:26.000Z</time>
      </trkpt>
      <trkpt lat="47.51623" lon="-0.58913">
        <ele>44</ele>
        <time>2015-09-01T08:56:27.000Z</time>
      </trkpt>
      <trkpt lat="47.51622" lon="-0.58909">
        <ele>43</ele>
        <time>2015-09-01T08:56:28.000Z</time>
      </trkpt>
      <trkpt lat="47.51622" lon="-0.58904">
        <ele>43</ele>
        <time>2015-09-01T08:56:29.000Z</time>
      </trkpt>
      <trkpt lat="47.51621" lon="-0.58899">
        <ele>44</ele>
        <time>2015-09-01T08:56:30.000Z</time>
      </trkpt>
      <trkpt lat="47.51621" lon="-0.58894">
        <ele>44</ele>
        <time>2015-09-01T08:56:31.000Z</time>
      </trkpt>
      <trkpt lat="47.5162" lon="-0.58889">
        <ele>45</ele>
        <time>2015-09-01T08:56:32.000Z</time>
      </trkpt>
      <trkpt lat="47.51619" lon="-0.58884">
        <ele>45</ele>
        <time>2015-09-01T08:56:33.000Z</time>
      </trkpt>
      <trkpt lat="47.51617" lon="-0.5888">
        <ele>45</ele>
        <time>2015-09-01T08:56:34.000Z</time>
      </trkpt>
      <trkpt lat="47.51617" lon="-0.58875">
        <ele>46</ele>
        <time>2015-09-01T08:56:35.000Z</time>
      </trkpt>
      <trkpt lat="47.51616" lon="-0.58871">
        <ele>46</ele>
        <time>2015-09-01T08:56:36.000Z</time>
      </trkpt>
      <trkpt lat="47.51615" lon="-0.58867">
        <ele>46</ele>
        <time>2015-09-01T08:56:37.000Z</time>
      </trkpt>
      <trkpt lat="47.51615" lon="-0.58863">
        <ele>46</ele>
        <time>2015-09-01T08:56:38.000Z</time>
      </trkpt>
      <trkpt lat="47.51614" lon="-0.58858">
        <ele>46</ele>
        <time>2015-09-01T08:56:39.000Z</time>
      </trkpt>
      <trkpt lat="47.51615" lon="-0.58854">
        <ele>46</ele>
        <time>2015-09-01T08:56:40.000Z</time>
      </trkpt>
      <trkpt lat="47.51616" lon="-0.58849">
        <ele>46</ele>
        <time>2015-09-01T08:56:41.000Z</time>
      </trkpt>
      <trkpt lat="47.51616" lon="-0.58845">
        <ele>45</ele>
        <time>2015-09-01T08:56:42.000Z</time>
      </trkpt>
      <trkpt lat="47.51616" lon="-0.58841">
        <ele>45</ele>
        <time>2015-09-01T08:56:43.000Z</time>
      </trkpt>
      <trkpt lat="47.51616" lon="-0.58837">
        <ele>45</ele>
        <time>2015-09-01T08:56:44.000Z</time>
      </trkpt>
      <trkpt lat="47.51615" lon="-0.58833">
        <ele>45</ele>
        <time>2015-09-01T08:56:45.000Z</time>
      </trkpt>
      <trkpt lat="47.51615" lon="-0.58828">
        <ele>46</ele>
        <time>2015-09-01T08:56:46.000Z</time>
      </trkpt>
      <trkpt lat="47.51615" lon="-0.58823">
        <ele>46</ele>
        <time>2015-09-01T08:56:47.000Z</time>
      </trkpt>
      <trkpt lat="47.51614" lon="-0.58819">
        <ele>46</ele>
        <time>2015-09-01T08:56:48.000Z</time>
      </trkpt>
      <trkpt lat="47.51614" lon="-0.58814">
        <ele>46</ele>
        <time>2015-09-01T08:56:49.000Z</time>
      </trkpt>
      <trkpt lat="47.51613" lon="-0.5881">
        <ele>46</ele>
        <time>2015-09-01T08:56:50.000Z</time>
      </trkpt>
      <trkpt lat="47.51613" lon="-0.58805">
        <ele>47</ele>
        <time>2015-09-01T08:56:51.000Z</time>
      </trkpt>
      <trkpt lat="47.51613" lon="-0.58801">
        <ele>46</ele>
        <time>2015-09-01T08:56:52.000Z</time>
      </trkpt>
      <trkpt lat="47.51613" lon="-0.58796">
        <ele>45</ele>
        <time>2015-09-01T08:56:53.000Z</time>
      </trkpt>
      <trkpt lat="47.51612" lon="-0.58791">
        <ele>45</ele>
        <time>2015-09-01T08:56:54.000Z</time>
      </trkpt>
      <trkpt lat="47.51611" lon="-0.58787">
        <ele>44</ele>
        <time>2015-09-01T08:56:55.000Z</time>
      </trkpt>
      <trkpt lat="47.51611" lon="-0.58782">
        <ele>44</ele>
        <time>2015-09-01T08:56:56.000Z</time>
      </trkpt>
      <trkpt lat="47.5161" lon="-0.58778">
        <ele>43</ele>
        <time>2015-09-01T08:56:57.000Z</time>
      </trkpt>
      <trkpt lat="47.5161" lon="-0.58773">
        <ele>41</ele>
        <time>2015-09-01T08:56:58.000Z</time>
      </trkpt>
      <trkpt lat="47.51609" lon="-0.58769">
        <ele>41</ele>
        <time>2015-09-01T08:56:59.000Z</time>
      </trkpt>
      <trkpt lat="47.51608" lon="-0.58765">
        <ele>39</ele>
        <time>2015-09-01T08:57:00.000Z</time>
      </trkpt>
      <trkpt lat="47.51607" lon="-0.58761">
        <ele>38</ele>
        <time>2015-09-01T08:57:01.000Z</time>
      </trkpt>
      <trkpt lat="47.51606" lon="-0.58756">
        <ele>38</ele>
        <time>2015-09-01T08:57:02.000Z</time>
      </trkpt>
      <trkpt lat="47.51604" lon="-0.58751">
        <ele>37</ele>
        <time>2015-09-01T08:57:03.000Z</time>
      </trkpt>
      <trkpt lat="47.51603" lon="-0.58747">
        <ele>37</ele>
        <time>2015-09-01T08:57:04.000Z</time>
      </trkpt>
      <trkpt lat="47.51602" lon="-0.58743">
        <ele>37</ele>
        <time>2015-09-01T08:57:05.000Z</time>
      </trkpt>
      <trkpt lat="47.51601" lon="-0.58739">
        <ele>37</ele>
        <time>2015-09-01T08:57:06.000Z</time>
      </trkpt>
      <trkpt lat="47.516" lon="-0.58736">
        <ele>36</ele>
        <time>2015-09-01T08:57:07.000Z</time>
      </trkpt>
      <trkpt lat="47.51598" lon="-0.58733">
        <ele>36</ele>
        <time>2015-09-01T08:57:08.000Z</time>
      </trkpt>
      <trkpt lat="47.51596" lon="-0.58731">
        <ele>35</ele>
        <time>2015-09-01T08:57:09.000Z</time>
      </trkpt>
      <trkpt lat="47.51594" lon="-0.58728">
        <ele>34</ele>
        <time>2015-09-01T08:57:10.000Z</time>
      </trkpt>
      <trkpt lat="47.51592" lon="-0.58726">
        <ele>34</ele>
        <time>2015-09-01T08:57:11.000Z</time>
      </trkpt>
      <trkpt lat="47.5159" lon="-0.58724">
        <ele>33</ele>
        <time>2015-09-01T08:57:12.000Z</time>
      </trkpt>
      <trkpt lat="47.51588" lon="-0.58722">
        <ele>31</ele>
        <time>2015-09-01T08:57:13.000Z</time>
      </trkpt>
      <trkpt lat="47.51587" lon="-0.58721">
        <ele>31</ele>
        <time>2015-09-01T08:57:14.000Z</time>
      </trkpt>
      <trkpt lat="47.51583" lon="-0.5872">
        <ele>31</ele>
        <time>2015-09-01T08:57:15.000Z</time>
      </trkpt>
      <trkpt lat="47.51579" lon="-0.58719">
        <ele>31</ele>
        <time>2015-09-01T08:57:16.000Z</time>
      </trkpt>
      <trkpt lat="47.51576" lon="-0.58718">
        <ele>30</ele>
        <time>2015-09-01T08:57:17.000Z</time>
      </trkpt>
      <trkpt lat="47.51573" lon="-0.58717">
        <ele>30</ele>
        <time>2015-09-01T08:57:18.000Z</time>
      </trkpt>
      <trkpt lat="47.5157" lon="-0.58715">
        <ele>29</ele>
        <time>2015-09-01T08:57:19.000Z</time>
      </trkpt>
      <trkpt lat="47.51568" lon="-0.58714">
        <ele>29</ele>
        <time>2015-09-01T08:57:20.000Z</time>
      </trkpt>
      <trkpt lat="47.51565" lon="-0.58712">
        <ele>28</ele>
        <time>2015-09-01T08:57:21.000Z</time>
      </trkpt>
      <trkpt lat="47.51562" lon="-0.5871">
        <ele>27</ele>
        <time>2015-09-01T08:57:22.000Z</time>
      </trkpt>
      <trkpt lat="47.5156" lon="-0.58708">
        <ele>26</ele>
        <time>2015-09-01T08:57:23.000Z</time>
      </trkpt>
      <trkpt lat="47.51558" lon="-0.58706">
        <ele>26</ele>
        <time>2015-09-01T08:57:24.000Z</time>
      </trkpt>
      <trkpt lat="47.51556" lon="-0.58704">
        <ele>26</ele>
        <time>2015-09-01T08:57:25.000Z</time>
      </trkpt>
      <trkpt lat="47.51553" lon="-0.58702">
        <ele>26</ele>
        <time>2015-09-01T08:57:26.000Z</time>
      </trkpt>
      <trkpt lat="47.51551" lon="-0.587">
        <ele>26</ele>
        <time>2015-09-01T08:57:27.000Z</time>
      </trkpt>
      <trkpt lat="47.51549" lon="-0.58697">
        <ele>26</ele>
        <time>2015-09-01T08:57:28.000Z</time>
      </trkpt>
      <trkpt lat="47.51544" lon="-0.58695">
        <ele>27</ele>
        <time>2015-09-01T08:57:29.000Z</time>
      </trkpt>
      <trkpt lat="47.51539" lon="-0.58693">
        <ele>27</ele>
        <time>2015-09-01T08:57:30.000Z</time>
      </trkpt>
      <trkpt lat="47.51534" lon="-0.5869">
        <ele>27</ele>
        <time>2015-09-01T08:57:31.000Z</time>
      </trkpt>
      <trkpt lat="47.51531" lon="-0.58688">
        <ele>28</ele>
        <time>2015-09-01T08:57:32.000Z</time>
      </trkpt>
      <trkpt lat="47.51528" lon="-0.58685">
        <ele>28</ele>
        <time>2015-09-01T08:57:33.000Z</time>
      </trkpt>
      <trkpt lat="47.51525" lon="-0.58682">
        <ele>28</ele>
        <time>2015-09-01T08:57:34.000Z</time>
      </trkpt>
      <trkpt lat="47.51522" lon="-0.58679">
        <ele>28</ele>
        <time>2015-09-01T08:57:35.000Z</time>
      </trkpt>
      <trkpt lat="47.51519" lon="-0.58677">
        <ele>28</ele>
        <time>2015-09-01T08:57:36.000Z</time>
      </trkpt>
      <trkpt lat="47.51517" lon="-0.58675">
        <ele>29</ele>
        <time>2015-09-01T08:57:37.000Z</time>
      </trkpt>
      <trkpt lat="47.51514" lon="-0.58673">
        <ele>29</ele>
        <time>2015-09-01T08:57:38.000Z</time>
      </trkpt>
      <trkpt lat="47.51511" lon="-0.58671">
        <ele>28</ele>
        <time>2015-09-01T08:57:39.000Z</time>
      </trkpt>
      <trkpt lat="47.51508" lon="-0.58668">
        <ele>27</ele>
        <time>2015-09-01T08:57:40.000Z</time>
      </trkpt>
      <trkpt lat="47.51506" lon="-0.58666">
        <ele>27</ele>
        <time>2015-09-01T08:57:41.000Z</time>
      </trkpt>
      <trkpt lat="47.51503" lon="-0.58665">
        <ele>27</ele>
        <time>2015-09-01T08:57:42.000Z</time>
      </trkpt>
      <trkpt lat="47.51499" lon="-0.58663">
        <ele>26</ele>
        <time>2015-09-01T08:57:43.000Z</time>
      </trkpt>
      <trkpt lat="47.51495" lon="-0.58661">
        <ele>27</ele>
        <time>2015-09-01T08:57:44.000Z</time>
      </trkpt>
      <trkpt lat="47.51491" lon="-0.58659">
        <ele>26</ele>
        <time>2015-09-01T08:57:45.000Z</time>
      </trkpt>
      <trkpt lat="47.51488" lon="-0.58658">
        <ele>26</ele>
        <time>2015-09-01T08:57:46.000Z</time>
      </trkpt>
      <trkpt lat="47.51485" lon="-0.58656">
        <ele>26</ele>
        <time>2015-09-01T08:57:47.000Z</time>
      </trkpt>
      <trkpt lat="47.51482" lon="-0.58653">
        <ele>26</ele>
        <time>2015-09-01T08:57:48.000Z</time>
      </trkpt>
      <trkpt lat="47.51479" lon="-0.58651">
        <ele>27</ele>
        <time>2015-09-01T08:57:49.000Z</time>
      </trkpt>
      <trkpt lat="47.51476" lon="-0.58649">
        <ele>26</ele>
        <time>2015-09-01T08:57:50.000Z</time>
      </trkpt>
      <trkpt lat="47.51472" lon="-0.58646">
        <ele>27</ele>
        <time>2015-09-01T08:57:51.000Z</time>
      </trkpt>
      <trkpt lat="47.51469" lon="-0.58644">
        <ele>27</ele>
        <time>2015-09-01T08:57:52.000Z</time>
      </trkpt>
      <trkpt lat="47.51466" lon="-0.58642">
        <ele>27</ele>
        <time>2015-09-01T08:57:53.000Z</time>
      </trkpt>
      <trkpt lat="47.51463" lon="-0.58641">
        <ele>27</ele>
        <time>2015-09-01T08:57:54.000Z</time>
      </trkpt>
      <trkpt lat="47.5146" lon="-0.5864">
        <ele>25</ele>
        <time>2015-09-01T08:57:55.000Z</time>
      </trkpt>
      <trkpt lat="47.51457" lon="-0.58638">
        <ele>25</ele>
        <time>2015-09-01T08:57:56.000Z</time>
      </trkpt>
      <trkpt lat="47.51454" lon="-0.58636">
        <ele>25</ele>
        <time>2015-09-01T08:57:57.000Z</time>
      </trkpt>
      <trkpt lat="47.51451" lon="-0.58634">
        <ele>25</ele>
        <time>2015-09-01T08:57:58.000Z</time>
      </trkpt>
      <trkpt lat="47.51449" lon="-0.5863">
        <ele>26</ele>
        <time>2015-09-01T08:57:59.000Z</time>
      </trkpt>
      <trkpt lat="47.51446" lon="-0.58626">
        <ele>26</ele>
        <time>2015-09-01T08:58:00.000Z</time>
      </trkpt>
      <trkpt lat="47.51443" lon="-0.58623">
        <ele>25</ele>
        <time>2015-09-01T08:58:01.000Z</time>
      </trkpt>
      <trkpt lat="47.5144" lon="-0.5862">
        <ele>25</ele>
        <time>2015-09-01T08:58:02.000Z</time>
      </trkpt>
      <trkpt lat="47.51438" lon="-0.58616">
        <ele>25</ele>
        <time>2015-09-01T08:58:03.000Z</time>
      </trkpt>
      <trkpt lat="47.51436" lon="-0.58612">
        <ele>26</ele>
        <time>2015-09-01T08:58:04.000Z</time>
      </trkpt>
      <trkpt lat="47.51434" lon="-0.58608">
        <ele>26</ele>
        <time>2015-09-01T08:58:05.000Z</time>
      </trkpt>
      <trkpt lat="47.51432" lon="-0.58603">
        <ele>28</ele>
        <time>2015-09-01T08:58:06.000Z</time>
      </trkpt>
      <trkpt lat="47.5143" lon="-0.58598">
        <ele>28</ele>
        <time>2015-09-01T08:58:07.000Z</time>
      </trkpt>
      <trkpt lat="47.51429" lon="-0.58593">
        <ele>29</ele>
        <time>2015-09-01T08:58:08.000Z</time>
      </trkpt>
      <trkpt lat="47.51427" lon="-0.58588">
        <ele>30</ele>
        <time>2015-09-01T08:58:09.000Z</time>
      </trkpt>
      <trkpt lat="47.51425" lon="-0.58583">
        <ele>30</ele>
        <time>2015-09-01T08:58:10.000Z</time>
      </trkpt>
      <trkpt lat="47.51423" lon="-0.58579">
        <ele>30</ele>
        <time>2015-09-01T08:58:11.000Z</time>
      </trkpt>
      <trkpt lat="47.51421" lon="-0.58575">
        <ele>30</ele>
        <time>2015-09-01T08:58:12.000Z</time>
      </trkpt>
      <trkpt lat="47.51419" lon="-0.58571">
        <ele>30</ele>
        <time>2015-09-01T08:58:13.000Z</time>
      </trkpt>
      <trkpt lat="47.51417" lon="-0.58567">
        <ele>31</ele>
        <time>2015-09-01T08:58:14.000Z</time>
      </trkpt>
      <trkpt lat="47.51415" lon="-0.58563">
        <ele>31</ele>
        <time>2015-09-01T08:58:15.000Z</time>
      </trkpt>
      <trkpt lat="47.51413" lon="-0.58559">
        <ele>31</ele>
        <time>2015-09-01T08:58:16.000Z</time>
      </trkpt>
      <trkpt lat="47.51412" lon="-0.58554">
        <ele>32</ele>
        <time>2015-09-01T08:58:17.000Z</time>
      </trkpt>
      <trkpt lat="47.5141" lon="-0.5855">
        <ele>32</ele>
        <time>2015-09-01T08:58:18.000Z</time>
      </trkpt>
      <trkpt lat="47.51408" lon="-0.58545">
        <ele>32</ele>
        <time>2015-09-01T08:58:19.000Z</time>
      </trkpt>
      <trkpt lat="47.51407" lon="-0.58541">
        <ele>33</ele>
        <time>2015-09-01T08:58:20.000Z</time>
      </trkpt>
      <trkpt lat="47.51406" lon="-0.58536">
        <ele>33</ele>
        <time>2015-09-01T08:58:21.000Z</time>
      </trkpt>
      <trkpt lat="47.51404" lon="-0.58532">
        <ele>34</ele>
        <time>2015-09-01T08:58:22.000Z</time>
      </trkpt>
      <trkpt lat="47.51403" lon="-0.58528">
        <ele>34</ele>
        <time>2015-09-01T08:58:23.000Z</time>
      </trkpt>
      <trkpt lat="47.51402" lon="-0.58524">
        <ele>34</ele>
        <time>2015-09-01T08:58:24.000Z</time>
      </trkpt>
      <trkpt lat="47.51402" lon="-0.5852">
        <ele>34</ele>
        <time>2015-09-01T08:58:25.000Z</time>
      </trkpt>
      <trkpt lat="47.51401" lon="-0.58516">
        <ele>34</ele>
        <time>2015-09-01T08:58:26.000Z</time>
      </trkpt>
      <trkpt lat="47.51401" lon="-0.58511">
        <ele>35</ele>
        <time>2015-09-01T08:58:27.000Z</time>
      </trkpt>
      <trkpt lat="47.514" lon="-0.58507">
        <ele>35</ele>
        <time>2015-09-01T08:58:28.000Z</time>
      </trkpt>
      <trkpt lat="47.51399" lon="-0.58502">
        <ele>35</ele>
        <time>2015-09-01T08:58:29.000Z</time>
      </trkpt>
      <trkpt lat="47.51399" lon="-0.58498">
        <ele>35</ele>
        <time>2015-09-01T08:58:30.000Z</time>
      </trkpt>
      <trkpt lat="47.51397" lon="-0.58493">
        <ele>35</ele>
        <time>2015-09-01T08:58:31.000Z</time>
      </trkpt>
      <trkpt lat="47.51396" lon="-0.58489">
        <ele>35</ele>
        <time>2015-09-01T08:58:32.000Z</time>
      </trkpt>
      <trkpt lat="47.51395" lon="-0.58485">
        <ele>35</ele>
        <time>2015-09-01T08:58:33.000Z</time>
      </trkpt>
      <trkpt lat="47.51394" lon="-0.58481">
        <ele>35</ele>
        <time>2015-09-01T08:58:34.000Z</time>
      </trkpt>
      <trkpt lat="47.51393" lon="-0.58476">
        <ele>35</ele>
        <time>2015-09-01T08:58:35.000Z</time>
      </trkpt>
      <trkpt lat="47.51392" lon="-0.58472">
        <ele>35</ele>
        <time>2015-09-01T08:58:36.000Z</time>
      </trkpt>
      <trkpt lat="47.51391" lon="-0.58468">
        <ele>35</ele>
        <time>2015-09-01T08:58:37.000Z</time>
      </trkpt>
      <trkpt lat="47.51389" lon="-0.58464">
        <ele>36</ele>
        <time>2015-09-01T08:58:38.000Z</time>
      </trkpt>
      <trkpt lat="47.51388" lon="-0.58459">
        <ele>36</ele>
        <time>2015-09-01T08:58:39.000Z</time>
      </trkpt>
      <trkpt lat="47.51386" lon="-0.58455">
        <ele>36</ele>
        <time>2015-09-01T08:58:40.000Z</time>
      </trkpt>
      <trkpt lat="47.51385" lon="-0.58451">
        <ele>36</ele>
        <time>2015-09-01T08:58:41.000Z</time>
      </trkpt>
      <trkpt lat="47.51383" lon="-0.58448">
        <ele>35</ele>
        <time>2015-09-01T08:58:42.000Z</time>
      </trkpt>
      <trkpt lat="47.51382" lon="-0.58444">
        <ele>35</ele>
        <time>2015-09-01T08:58:43.000Z</time>
      </trkpt>
      <trkpt lat="47.5138" lon="-0.5844">
        <ele>35</ele>
        <time>2015-09-01T08:58:44.000Z</time>
      </trkpt>
      <trkpt lat="47.51378" lon="-0.58437">
        <ele>35</ele>
        <time>2015-09-01T08:58:45.000Z</time>
      </trkpt>
      <trkpt lat="47.51377" lon="-0.58433">
        <ele>34</ele>
        <time>2015-09-01T08:58:46.000Z</time>
      </trkpt>
      <trkpt lat="47.51375" lon="-0.5843">
        <ele>35</ele>
        <time>2015-09-01T08:58:47.000Z</time>
      </trkpt>
      <trkpt lat="47.51373" lon="-0.58427">
        <ele>35</ele>
        <time>2015-09-01T08:58:48.000Z</time>
      </trkpt>
      <trkpt lat="47.51371" lon="-0.58423">
        <ele>34</ele>
        <time>2015-09-01T08:58:49.000Z</time>
      </trkpt>
      <trkpt lat="47.51369" lon="-0.5842">
        <ele>34</ele>
        <time>2015-09-01T08:58:50.000Z</time>
      </trkpt>
      <trkpt lat="47.51367" lon="-0.58417">
        <ele>35</ele>
        <time>2015-09-01T08:58:51.000Z</time>
      </trkpt>
      <trkpt lat="47.51365" lon="-0.58413">
        <ele>35</ele>
        <time>2015-09-01T08:58:52.000Z</time>
      </trkpt>
      <trkpt lat="47.51363" lon="-0.58409">
        <ele>36</ele>
        <time>2015-09-01T08:58:53.000Z</time>
      </trkpt>
      <trkpt lat="47.51362" lon="-0.58406">
        <ele>36</ele>
        <time>2015-09-01T08:58:54.000Z</time>
      </trkpt>
      <trkpt lat="47.5136" lon="-0.58402">
        <ele>37</ele>
        <time>2015-09-01T08:58:55.000Z</time>
      </trkpt>
      <trkpt lat="47.51358" lon="-0.58399">
        <ele>37</ele>
        <time>2015-09-01T08:58:56.000Z</time>
      </trkpt>
      <trkpt lat="47.51356" lon="-0.58395">
        <ele>37</ele>
        <time>2015-09-01T08:58:57.000Z</time>
      </trkpt>
      <trkpt lat="47.51354" lon="-0.58391">
        <ele>38</ele>
        <time>2015-09-01T08:58:58.000Z</time>
      </trkpt>
      <trkpt lat="47.51352" lon="-0.58387">
        <ele>38</ele>
        <time>2015-09-01T08:58:59.000Z</time>
      </trkpt>
      <trkpt lat="47.5135" lon="-0.58383">
        <ele>38</ele>
        <time>2015-09-01T08:59:00.000Z</time>
      </trkpt>
      <trkpt lat="47.51348" lon="-0.58379">
        <ele>38</ele>
        <time>2015-09-01T08:59:01.000Z</time>
      </trkpt>
      <trkpt lat="47.51346" lon="-0.58376">
        <ele>39</ele>
        <time>2015-09-01T08:59:02.000Z</time>
      </trkpt>
      <trkpt lat="47.51344" lon="-0.58372">
        <ele>39</ele>
        <time>2015-09-01T08:59:03.000Z</time>
      </trkpt>
      <trkpt lat="47.51342" lon="-0.58368">
        <ele>39</ele>
        <time>2015-09-01T08:59:04.000Z</time>
      </trkpt>
      <trkpt lat="47.5134" lon="-0.58365">
        <ele>39</ele>
        <time>2015-09-01T08:59:05.000Z</time>
      </trkpt>
      <trkpt lat="47.51338" lon="-0.58362">
        <ele>39</ele>
        <time>2015-09-01T08:59:06.000Z</time>
      </trkpt>
      <trkpt lat="47.51337" lon="-0.58358">
        <ele>39</ele>
        <time>2015-09-01T08:59:07.000Z</time>
      </trkpt>
      <trkpt lat="47.51335" lon="-0.58354">
        <ele>39</ele>
        <time>2015-09-01T08:59:08.000Z</time>
      </trkpt>
      <trkpt lat="47.51333" lon="-0.58351">
        <ele>39</ele>
        <time>2015-09-01T08:59:09.000Z</time>
      </trkpt>
      <trkpt lat="47.51331" lon="-0.58347">
        <ele>39</ele>
        <time>2015-09-01T08:59:10.000Z</time>
      </trkpt>
      <trkpt lat="47.5133" lon="-0.58344">
        <ele>40</ele>
        <time>2015-09-01T08:59:11.000Z</time>
      </trkpt>
      <trkpt lat="47.51328" lon="-0.58341">
        <ele>40</ele>
        <time>2015-09-01T08:59:12.000Z</time>
      </trkpt>
      <trkpt lat="47.51326" lon="-0.58338">
        <ele>41</ele>
        <time>2015-09-01T08:59:13.000Z</time>
      </trkpt>
      <trkpt lat="47.51324" lon="-0.58335">
        <ele>41</ele>
        <time>2015-09-01T08:59:14.000Z</time>
      </trkpt>
      <trkpt lat="47.51323" lon="-0.58332">
        <ele>41</ele>
        <time>2015-09-01T08:59:15.000Z</time>
      </trkpt>
      <trkpt lat="47.5132" lon="-0.58329">
        <ele>41</ele>
        <time>2015-09-01T08:59:16.000Z</time>
      </trkpt>
      <trkpt lat="47.51319" lon="-0.58327">
        <ele>41</ele>
        <time>2015-09-01T08:59:17.000Z</time>
      </trkpt>
      <trkpt lat="47.51317" lon="-0.58325">
        <ele>41</ele>
        <time>2015-09-01T08:59:18.000Z</time>
      </trkpt>
      <trkpt lat="47.51316" lon="-0.58323">
        <ele>41</ele>
        <time>2015-09-01T08:59:19.000Z</time>
      </trkpt>
      <trkpt lat="47.51314" lon="-0.58322">
        <ele>42</ele>
        <time>2015-09-01T08:59:20.000Z</time>
      </trkpt>
      <trkpt lat="47.51311" lon="-0.5832">
        <ele>42</ele>
        <time>2015-09-01T08:59:21.000Z</time>
      </trkpt>
      <trkpt lat="47.51308" lon="-0.58319">
        <ele>42</ele>
        <time>2015-09-01T08:59:22.000Z</time>
      </trkpt>
      <trkpt lat="47.51305" lon="-0.58317">
        <ele>42</ele>
        <time>2015-09-01T08:59:23.000Z</time>
      </trkpt>
      <trkpt lat="47.51302" lon="-0.58315">
        <ele>43</ele>
        <time>2015-09-01T08:59:24.000Z</time>
      </trkpt>
      <trkpt lat="47.51298" lon="-0.58313">
        <ele>44</ele>
        <time>2015-09-01T08:59:25.000Z</time>
      </trkpt>
      <trkpt lat="47.51294" lon="-0.58313">
        <ele>44</ele>
        <time>2015-09-01T08:59:26.000Z</time>
      </trkpt>
      <trkpt lat="47.5129" lon="-0.58312">
        <ele>44</ele>
        <time>2015-09-01T08:59:27.000Z</time>
      </trkpt>
      <trkpt lat="47.51286" lon="-0.58311">
        <ele>45</ele>
        <time>2015-09-01T08:59:28.000Z</time>
      </trkpt>
      <trkpt lat="47.51283" lon="-0.5831">
        <ele>44</ele>
        <time>2015-09-01T08:59:29.000Z</time>
      </trkpt>
      <trkpt lat="47.5128" lon="-0.58309">
        <ele>45</ele>
        <time>2015-09-01T08:59:30.000Z</time>
      </trkpt>
      <trkpt lat="47.51277" lon="-0.58309">
        <ele>44</ele>
        <time>2015-09-01T08:59:31.000Z</time>
      </trkpt>
      <trkpt lat="47.51274" lon="-0.58308">
        <ele>45</ele>
        <time>2015-09-01T08:59:32.000Z</time>
      </trkpt>
      <trkpt lat="47.51271" lon="-0.58307">
        <ele>44</ele>
        <time>2015-09-01T08:59:33.000Z</time>
      </trkpt>
      <trkpt lat="47.51268" lon="-0.58307">
        <ele>44</ele>
        <time>2015-09-01T08:59:34.000Z</time>
      </trkpt>
      <trkpt lat="47.51265" lon="-0.58307">
        <ele>44</ele>
        <time>2015-09-01T08:59:35.000Z</time>
      </trkpt>
      <trkpt lat="47.51263" lon="-0.58306">
        <ele>45</ele>
        <time>2015-09-01T08:59:36.000Z</time>
      </trkpt>
      <trkpt lat="47.5126" lon="-0.58305">
        <ele>44</ele>
        <time>2015-09-01T08:59:37.000Z</time>
      </trkpt>
      <trkpt lat="47.51257" lon="-0.58304">
        <ele>45</ele>
        <time>2015-09-01T08:59:38.000Z</time>
      </trkpt>
      <trkpt lat="47.51255" lon="-0.58303">
        <ele>45</ele>
        <time>2015-09-01T08:59:39.000Z</time>
      </trkpt>
      <trkpt lat="47.51252" lon="-0.58303">
        <ele>45</ele>
        <time>2015-09-01T08:59:40.000Z</time>
      </trkpt>
      <trkpt lat="47.5125" lon="-0.58302">
        <ele>45</ele>
        <time>2015-09-01T08:59:41.000Z</time>
      </trkpt>
      <trkpt lat="47.51247" lon="-0.58302">
        <ele>45</ele>
        <time>2015-09-01T08:59:42.000Z</time>
      </trkpt>
      <trkpt lat="47.51244" lon="-0.58301">
        <ele>45</ele>
        <time>2015-09-01T08:59:43.000Z</time>
      </trkpt>
      <trkpt lat="47.51242" lon="-0.58301">
        <ele>44</ele>
        <time>2015-09-01T08:59:44.000Z</time>
      </trkpt>
      <trkpt lat="47.51239" lon="-0.58301">
        <ele>44</ele>
        <time>2015-09-01T08:59:45.000Z</time>
      </trkpt>
      <trkpt lat="47.51236" lon="-0.583">
        <ele>44</ele>
        <time>2015-09-01T08:59:46.000Z</time>
      </trkpt>
      <trkpt lat="47.51233" lon="-0.58298">
        <ele>44</ele>
        <time>2015-09-01T08:59:47.000Z</time>
      </trkpt>
      <trkpt lat="47.51231" lon="-0.58296">
        <ele>44</ele>
        <time>2015-09-01T08:59:48.000Z</time>
      </trkpt>
      <trkpt lat="47.51228" lon="-0.58293">
        <ele>44</ele>
        <time>2015-09-01T08:59:49.000Z</time>
      </trkpt>
      <trkpt lat="47.51225" lon="-0.58291">
        <ele>45</ele>
        <time>2015-09-01T08:59:50.000Z</time>
      </trkpt>
      <trkpt lat="47.51223" lon="-0.58289">
        <ele>45</ele>
        <time>2015-09-01T08:59:51.000Z</time>
      </trkpt>
      <trkpt lat="47.5122" lon="-0.58287">
        <ele>45</ele>
        <time>2015-09-01T08:59:52.000Z</time>
      </trkpt>
      <trkpt lat="47.51218" lon="-0.58285">
        <ele>45</ele>
        <time>2015-09-01T08:59:53.000Z</time>
      </trkpt>
      <trkpt lat="47.51215" lon="-0.58283">
        <ele>45</ele>
        <time>2015-09-01T08:59:54.000Z</time>
      </trkpt>
      <trkpt lat="47.51212" lon="-0.58281">
        <ele>45</ele>
        <time>2015-09-01T08:59:55.000Z</time>
      </trkpt>
      <trkpt lat="47.5121" lon="-0.5828">
        <ele>45</ele>
        <time>2015-09-01T08:59:56.000Z</time>
      </trkpt>
      <trkpt lat="47.51207" lon="-0.58278">
        <ele>45</ele>
        <time>2015-09-01T08:59:57.000Z</time>
      </trkpt>
      <trkpt lat="47.51205" lon="-0.58276">
        <ele>45</ele>
        <time>2015-09-01T08:59:58.000Z</time>
      </trkpt>
      <trkpt lat="47.51203" lon="-0.58275">
        <ele>45</ele>
        <time>2015-09-01T08:59:59.000Z</time>
      </trkpt>
      <trkpt lat="47.51201" lon="-0.58273">
        <ele>45</ele>
        <time>2015-09-01T09:00:00.000Z</time>
      </trkpt>
      <trkpt lat="47.51199" lon="-0.58272">
        <ele>45</ele>
        <time>2015-09-01T09:00:01.000Z</time>
      </trkpt>
      <trkpt lat="47.51197" lon="-0.58271">
        <ele>45</ele>
        <time>2015-09-01T09:00:02.000Z</time>
      </trkpt>
      <trkpt lat="47.51195" lon="-0.5827">
        <ele>45</ele>
        <time>2015-09-01T09:00:03.000Z</time>
      </trkpt>
      <trkpt lat="47.51192" lon="-0.5827">
        <ele>45</ele>
        <time>2015-09-01T09:00:04.000Z</time>
      </trkpt>
      <trkpt lat="47.51189" lon="-0.58269">
        <ele>46</ele>
        <time>2015-09-01T09:00:05.000Z</time>
      </trkpt>
      <trkpt lat="47.51185" lon="-0.58269">
        <ele>47</ele>
        <time>2015-09-01T09:00:06.000Z</time>
      </trkpt>
      <trkpt lat="47.51182" lon="-0.58269">
        <ele>47</ele>
        <time>2015-09-01T09:00:07.000Z</time>
      </trkpt>
      <trkpt lat="47.51177" lon="-0.58269">
        <ele>47</ele>
        <time>2015-09-01T09:00:08.000Z</time>
      </trkpt>
      <trkpt lat="47.51173" lon="-0.5827">
        <ele>47</ele>
        <time>2015-09-01T09:00:09.000Z</time>
      </trkpt>
      <trkpt lat="47.5117" lon="-0.5827">
        <ele>48</ele>
        <time>2015-09-01T09:00:10.000Z</time>
      </trkpt>
      <trkpt lat="47.51166" lon="-0.5827">
        <ele>48</ele>
        <time>2015-09-01T09:00:11.000Z</time>
      </trkpt>
      <trkpt lat="47.51163" lon="-0.5827">
        <ele>47</ele>
        <time>2015-09-01T09:00:12.000Z</time>
      </trkpt>
      <trkpt lat="47.5116" lon="-0.5827">
        <ele>47</ele>
        <time>2015-09-01T09:00:13.000Z</time>
      </trkpt>
      <trkpt lat="47.51157" lon="-0.58271">
        <ele>48</ele>
        <time>2015-09-01T09:00:14.000Z</time>
      </trkpt>
      <trkpt lat="47.51154" lon="-0.58271">
        <ele>47</ele>
        <time>2015-09-01T09:00:15.000Z</time>
      </trkpt>
      <trkpt lat="47.51151" lon="-0.58271">
        <ele>47</ele>
        <time>2015-09-01T09:00:16.000Z</time>
      </trkpt>
      <trkpt lat="47.51148" lon="-0.58271">
        <ele>46</ele>
        <time>2015-09-01T09:00:17.000Z</time>
      </trkpt>
      <trkpt lat="47.51145" lon="-0.58271">
        <ele>45</ele>
        <time>2015-09-01T09:00:18.000Z</time>
      </trkpt>
      <trkpt lat="47.51141" lon="-0.58271">
        <ele>45</ele>
        <time>2015-09-01T09:00:19.000Z</time>
      </trkpt>
      <trkpt lat="47.51138" lon="-0.5827">
        <ele>45</ele>
        <time>2015-09-01T09:00:20.000Z</time>
      </trkpt>
      <trkpt lat="47.51135" lon="-0.58269">
        <ele>44</ele>
        <time>2015-09-01T09:00:21.000Z</time>
      </trkpt>
      <trkpt lat="47.51132" lon="-0.58268">
        <ele>43</ele>
        <time>2015-09-01T09:00:22.000Z</time>
      </trkpt>
      <trkpt lat="47.51129" lon="-0.58266">
        <ele>41</ele>
        <time>2015-09-01T09:00:23.000Z</time>
      </trkpt>
      <trkpt lat="47.51126" lon="-0.58265">
        <ele>41</ele>
        <time>2015-09-01T09:00:24.000Z</time>
      </trkpt>
      <trkpt lat="47.51123" lon="-0.58262">
        <ele>41</ele>
        <time>2015-09-01T09:00:25.000Z</time>
      </trkpt>
      <trkpt lat="47.5112" lon="-0.58259">
        <ele>41</ele>
        <time>2015-09-01T09:00:26.000Z</time>
      </trkpt>
      <trkpt lat="47.51118" lon="-0.58256">
        <ele>40</ele>
        <time>2015-09-01T09:00:27.000Z</time>
      </trkpt>
      <trkpt lat="47.51115" lon="-0.58253">
        <ele>39</ele>
        <time>2015-09-01T09:00:28.000Z</time>
      </trkpt>
      <trkpt lat="47.51112" lon="-0.58251">
        <ele>39</ele>
        <time>2015-09-01T09:00:29.000Z</time>
      </trkpt>
      <trkpt lat="47.51109" lon="-0.58249">
        <ele>40</ele>
        <time>2015-09-01T09:00:30.000Z</time>
      </trkpt>
      <trkpt lat="47.51106" lon="-0.58246">
        <ele>39</ele>
        <time>2015-09-01T09:00:31.000Z</time>
      </trkpt>
      <trkpt lat="47.51103" lon="-0.58243">
        <ele>38</ele>
        <time>2015-09-01T09:00:32.000Z</time>
      </trkpt>
      <trkpt lat="47.511" lon="-0.58242">
        <ele>38</ele>
        <time>2015-09-01T09:00:33.000Z</time>
      </trkpt>
      <trkpt lat="47.51097" lon="-0.5824">
        <ele>36</ele>
        <time>2015-09-01T09:00:34.000Z</time>
      </trkpt>
      <trkpt lat="47.51094" lon="-0.58239">
        <ele>35</ele>
        <time>2015-09-01T09:00:35.000Z</time>
      </trkpt>
      <trkpt lat="47.51091" lon="-0.58238">
        <ele>35</ele>
        <time>2015-09-01T09:00:36.000Z</time>
      </trkpt>
      <trkpt lat="47.51088" lon="-0.58237">
        <ele>34</ele>
        <time>2015-09-01T09:00:37.000Z</time>
      </trkpt>
      <trkpt lat="47.51085" lon="-0.58235">
        <ele>34</ele>
        <time>2015-09-01T09:00:38.000Z</time>
      </trkpt>
      <trkpt lat="47.51082" lon="-0.58233">
        <ele>34</ele>
        <time>2015-09-01T09:00:39.000Z</time>
      </trkpt>
      <trkpt lat="47.51079" lon="-0.58231">
        <ele>33</ele>
        <time>2015-09-01T09:00:40.000Z</time>
      </trkpt>
      <trkpt lat="47.51076" lon="-0.58229">
        <ele>33</ele>
        <time>2015-09-01T09:00:41.000Z</time>
      </trkpt>
      <trkpt lat="47.51072" lon="-0.58227">
        <ele>32</ele>
        <time>2015-09-01T09:00:42.000Z</time>
      </trkpt>
      <trkpt lat="47.51069" lon="-0.58226">
        <ele>32</ele>
        <time>2015-09-01T09:00:43.000Z</time>
      </trkpt>
      <trkpt lat="47.51066" lon="-0.58224">
        <ele>33</ele>
        <time>2015-09-01T09:00:44.000Z</time>
      </trkpt>
      <trkpt lat="47.51063" lon="-0.58221">
        <ele>33</ele>
        <time>2015-09-01T09:00:45.000Z</time>
      </trkpt>
      <trkpt lat="47.51061" lon="-0.58219">
        <ele>34</ele>
        <time>2015-09-01T09:00:46.000Z</time>
      </trkpt>
      <trkpt lat="47.51059" lon="-0.58217">
        <ele>34</ele>
        <time>2015-09-01T09:00:47.000Z</time>
      </trkpt>
      <trkpt lat="47.51056" lon="-0.58215">
        <ele>33</ele>
        <time>2015-09-01T09:00:48.000Z</time>
      </trkpt>
      <trkpt lat="47.51053" lon="-0.58213">
        <ele>33</ele>
        <time>2015-09-01T09:00:49.000Z</time>
      </trkpt>
      <trkpt lat="47.51051" lon="-0.58211">
        <ele>33</ele>
        <time>2015-09-01T09:00:50.000Z</time>
      </trkpt>
      <trkpt lat="47.51049" lon="-0.58208">
        <ele>33</ele>
        <time>2015-09-01T09:00:51.000Z</time>
      </trkpt>
      <trkpt lat="47.51046" lon="-0.58205">
        <ele>33</ele>
        <time>2015-09-01T09:00:52.000Z</time>
      </trkpt>
      <trkpt lat="47.51044" lon="-0.58203">
        <ele>33</ele>
        <time>2015-09-01T09:00:53.000Z</time>
      </trkpt>
      <trkpt lat="47.51041" lon="-0.58201">
        <ele>33</ele>
        <time>2015-09-01T09:00:54.000Z</time>
      </trkpt>
      <trkpt lat="47.51039" lon="-0.58198">
        <ele>33</ele>
        <time>2015-09-01T09:00:55.000Z</time>
      </trkpt>
      <trkpt lat="47.51036" lon="-0.58196">
        <ele>33</ele>
        <time>2015-09-01T09:00:56.000Z</time>
      </trkpt>
      <trkpt lat="47.51033" lon="-0.58193">
        <ele>32</ele>
        <time>2015-09-01T09:00:57.000Z</time>
      </trkpt>
      <trkpt lat="47.5103" lon="-0.58191">
        <ele>32</ele>
        <time>2015-09-01T09:00:58.000Z</time>
      </trkpt>
      <trkpt lat="47.51028" lon="-0.58189">
        <ele>31</ele>
        <time>2015-09-01T09:00:59.000Z</time>
      </trkpt>
      <trkpt lat="47.51025" lon="-0.58187">
        <ele>31</ele>
        <time>2015-09-01T09:01:00.000Z</time>
      </trkpt>
      <trkpt lat="47.51022" lon="-0.58185">
        <ele>30</ele>
        <time>2015-09-01T09:01:01.000Z</time>
      </trkpt>
      <trkpt lat="47.5102" lon="-0.58182">
        <ele>31</ele>
        <time>2015-09-01T09:01:02.000Z</time>
      </trkpt>
      <trkpt lat="47.51017" lon="-0.58181">
        <ele>30</ele>
        <time>2015-09-01T09:01:03.000Z</time>
      </trkpt>
      <trkpt lat="47.51014" lon="-0.58179">
        <ele>30</ele>
        <time>2015-09-01T09:01:04.000Z</time>
      </trkpt>
      <trkpt lat="47.51011" lon="-0.58177">
        <ele>30</ele>
        <time>2015-09-01T09:01:05.000Z</time>
      </trkpt>
      <trkpt lat="47.51008" lon="-0.58175">
        <ele>29</ele>
        <time>2015-09-01T09:01:06.000Z</time>
      </trkpt>
      <trkpt lat="47.51004" lon="-0.58173">
        <ele>30</ele>
        <time>2015-09-01T09:01:07.000Z</time>
      </trkpt>
      <trkpt lat="47.51" lon="-0.58171">
        <ele>30</ele>
        <time>2015-09-01T09:01:08.000Z</time>
      </trkpt>
      <trkpt lat="47.50997" lon="-0.58168">
        <ele>31</ele>
        <time>2015-09-01T09:01:09.000Z</time>
      </trkpt>
      <trkpt lat="47.50995" lon="-0.58166">
        <ele>31</ele>
        <time>2015-09-01T09:01:10.000Z</time>
      </trkpt>
      <trkpt lat="47.50992" lon="-0.58163">
        <ele>31</ele>
        <time>2015-09-01T09:01:11.000Z</time>
      </trkpt>
      <trkpt lat="47.5099" lon="-0.58161">
        <ele>31</ele>
        <time>2015-09-01T09:01:12.000Z</time>
      </trkpt>
      <trkpt lat="47.50987" lon="-0.58159">
        <ele>31</ele>
        <time>2015-09-01T09:01:13.000Z</time>
      </trkpt>
      <trkpt lat="47.50985" lon="-0.58156">
        <ele>31</ele>
        <time>2015-09-01T09:01:14.000Z</time>
      </trkpt>
      <trkpt lat="47.50983" lon="-0.58153">
        <ele>31</ele>
        <time>2015-09-01T09:01:15.000Z</time>
      </trkpt>
      <trkpt lat="47.50981" lon="-0.58151">
        <ele>31</ele>
        <time>2015-09-01T09:01:16.000Z</time>
      </trkpt>
      <trkpt lat="47.50979" lon="-0.58147">
        <ele>31</ele>
        <time>2015-09-01T09:01:17.000Z</time>
      </trkpt>
      <trkpt lat="47.50976" lon="-0.58144">
        <ele>32</ele>
        <time>2015-09-01T09:01:18.000Z</time>
      </trkpt>
      <trkpt lat="47.50973" lon="-0.5814">
        <ele>33</ele>
        <time>2015-09-01T09:01:19.000Z</time>
      </trkpt>
      <trkpt lat="47.50969" lon="-0.58137">
        <ele>34</ele>
        <time>2015-09-01T09:01:20.000Z</time>
      </trkpt>
      <trkpt lat="47.50965" lon="-0.58135">
        <ele>36</ele>
        <time>2015-09-01T09:01:21.000Z</time>
      </trkpt>
      <trkpt lat="47.50961" lon="-0.58134">
        <ele>36</ele>
        <time>2015-09-01T09:01:22.000Z</time>
      </trkpt>
      <trkpt lat="47.50958" lon="-0.58133">
        <ele>36</ele>
        <time>2015-09-01T09:01:23.000Z</time>
      </trkpt>
      <trkpt lat="47.50955" lon="-0.58132">
        <ele>37</ele>
        <time>2015-09-01T09:01:24.000Z</time>
      </trkpt>
      <trkpt lat="47.50952" lon="-0.58131">
        <ele>37</ele>
        <time>2015-09-01T09:01:25.000Z</time>
      </trkpt>
      <trkpt lat="47.50948" lon="-0.58129">
        <ele>37</ele>
        <time>2015-09-01T09:01:26.000Z</time>
      </trkpt>
      <trkpt lat="47.50945" lon="-0.58128">
        <ele>37</ele>
        <time>2015-09-01T09:01:27.000Z</time>
      </trkpt>
      <trkpt lat="47.50942" lon="-0.58126">
        <ele>37</ele>
        <time>2015-09-01T09:01:28.000Z</time>
      </trkpt>
      <trkpt lat="47.50939" lon="-0.58124">
        <ele>37</ele>
        <time>2015-09-01T09:01:29.000Z</time>
      </trkpt>
      <trkpt lat="47.50935" lon="-0.58122">
        <ele>37</ele>
        <time>2015-09-01T09:01:30.000Z</time>
      </trkpt>
      <trkpt lat="47.50932" lon="-0.5812">
        <ele>36</ele>
        <time>2015-09-01T09:01:31.000Z</time>
      </trkpt>
      <trkpt lat="47.50929" lon="-0.58119">
        <ele>36</ele>
        <time>2015-09-01T09:01:32.000Z</time>
      </trkpt>
      <trkpt lat="47.50926" lon="-0.58117">
        <ele>36</ele>
        <time>2015-09-01T09:01:33.000Z</time>
      </trkpt>
      <trkpt lat="47.50923" lon="-0.58116">
        <ele>36</ele>
        <time>2015-09-01T09:01:34.000Z</time>
      </trkpt>
      <trkpt lat="47.5092" lon="-0.58115">
        <ele>36</ele>
        <time>2015-09-01T09:01:35.000Z</time>
      </trkpt>
      <trkpt lat="47.50916" lon="-0.58114">
        <ele>36</ele>
        <time>2015-09-01T09:01:36.000Z</time>
      </trkpt>
      <trkpt lat="47.50913" lon="-0.58113">
        <ele>36</ele>
        <time>2015-09-01T09:01:37.000Z</time>
      </trkpt>
      <trkpt lat="47.50911" lon="-0.58112">
        <ele>35</ele>
        <time>2015-09-01T09:01:38.000Z</time>
      </trkpt>
      <trkpt lat="47.50908" lon="-0.58112">
        <ele>36</ele>
        <time>2015-09-01T09:01:39.000Z</time>
      </trkpt>
      <trkpt lat="47.50905" lon="-0.58112">
        <ele>35</ele>
        <time>2015-09-01T09:01:40.000Z</time>
      </trkpt>
      <trkpt lat="47.50902" lon="-0.58112">
        <ele>35</ele>
        <time>2015-09-01T09:01:41.000Z</time>
      </trkpt>
      <trkpt lat="47.50899" lon="-0.58111">
        <ele>34</ele>
        <time>2015-09-01T09:01:42.000Z</time>
      </trkpt>
      <trkpt lat="47.50896" lon="-0.58111">
        <ele>34</ele>
        <time>2015-09-01T09:01:43.000Z</time>
      </trkpt>
      <trkpt lat="47.50894" lon="-0.58109">
        <ele>34</ele>
        <time>2015-09-01T09:01:44.000Z</time>
      </trkpt>
      <trkpt lat="47.50891" lon="-0.58108">
        <ele>34</ele>
        <time>2015-09-01T09:01:45.000Z</time>
      </trkpt>
      <trkpt lat="47.50888" lon="-0.58106">
        <ele>35</ele>
        <time>2015-09-01T09:01:46.000Z</time>
      </trkpt>
      <trkpt lat="47.50885" lon="-0.58104">
        <ele>35</ele>
        <time>2015-09-01T09:01:47.000Z</time>
      </trkpt>
      <trkpt lat="47.50882" lon="-0.58103">
        <ele>35</ele>
        <time>2015-09-01T09:01:48.000Z</time>
      </trkpt>
      <trkpt lat="47.50879" lon="-0.58102">
        <ele>34</ele>
        <time>2015-09-01T09:01:49.000Z</time>
      </trkpt>
      <trkpt lat="47.50876" lon="-0.58101">
        <ele>35</ele>
        <time>2015-09-01T09:01:50.000Z</time>
      </trkpt>
      <trkpt lat="47.50873" lon="-0.58099">
        <ele>34</ele>
        <time>2015-09-01T09:01:51.000Z</time>
      </trkpt>
      <trkpt lat="47.5087" lon="-0.58097">
        <ele>34</ele>
        <time>2015-09-01T09:01:52.000Z</time>
      </trkpt>
      <trkpt lat="47.50867" lon="-0.58095">
        <ele>33</ele>
        <time>2015-09-01T09:01:53.000Z</time>
      </trkpt>
      <trkpt lat="47.50864" lon="-0.58092">
        <ele>33</ele>
        <time>2015-09-01T09:01:54.000Z</time>
      </trkpt>
      <trkpt lat="47.50861" lon="-0.58089">
        <ele>33</ele>
        <time>2015-09-01T09:01:55.000Z</time>
      </trkpt>
      <trkpt lat="47.50859" lon="-0.58085">
        <ele>33</ele>
        <time>2015-09-01T09:01:56.000Z</time>
      </trkpt>
      <trkpt lat="47.50856" lon="-0.5808">
        <ele>33</ele>
        <time>2015-09-01T09:01:57.000Z</time>
      </trkpt>
      <trkpt lat="47.50854" lon="-0.58074">
        <ele>35</ele>
        <time>2015-09-01T09:01:58.000Z</time>
      </trkpt>
      <trkpt lat="47.50853" lon="-0.58067">
        <ele>35</ele>
        <time>2015-09-01T09:01:59.000Z</time>
      </trkpt>
      <trkpt lat="47.50852" lon="-0.5806">
        <ele>35</ele>
        <time>2015-09-01T09:02:00.000Z</time>
      </trkpt>
      <trkpt lat="47.50849" lon="-0.58055">
        <ele>35</ele>
        <time>2015-09-01T09:02:01.000Z</time>
      </trkpt>
      <trkpt lat="47.50847" lon="-0.58052">
        <ele>34</ele>
        <time>2015-09-01T09:02:02.000Z</time>
      </trkpt>
      <trkpt lat="47.50844" lon="-0.58048">
        <ele>33</ele>
        <time>2015-09-01T09:02:03.000Z</time>
      </trkpt>
      <trkpt lat="47.50844" lon="-0.58043">
        <ele>34</ele>
        <time>2015-09-01T09:02:04.000Z</time>
      </trkpt>
      <trkpt lat="47.50846" lon="-0.58036">
        <ele>34</ele>
        <time>2015-09-01T09:02:05.000Z</time>
      </trkpt>
      <trkpt lat="47.5085" lon="-0.58029">
        <ele>34</ele>
        <time>2015-09-01T09:02:06.000Z</time>
      </trkpt>
      <trkpt lat="47.50852" lon="-0.58024">
        <ele>34</ele>
        <time>2015-09-01T09:02:07.000Z</time>
      </trkpt>
      <trkpt lat="47.50853" lon="-0.58019">
        <ele>33</ele>
        <time>2015-09-01T09:02:08.000Z</time>
      </trkpt>
      <trkpt lat="47.50855" lon="-0.58015">
        <ele>33</ele>
        <time>2015-09-01T09:02:09.000Z</time>
      </trkpt>
      <trkpt lat="47.50856" lon="-0.5801">
        <ele>33</ele>
        <time>2015-09-01T09:02:10.000Z</time>
      </trkpt>
      <trkpt lat="47.50856" lon="-0.58006">
        <ele>33</ele>
        <time>2015-09-01T09:02:11.000Z</time>
      </trkpt>
      <trkpt lat="47.50857" lon="-0.58001">
        <ele>33</ele>
        <time>2015-09-01T09:02:12.000Z</time>
      </trkpt>
      <trkpt lat="47.50859" lon="-0.57996">
        <ele>33</ele>
        <time>2015-09-01T09:02:13.000Z</time>
      </trkpt>
      <trkpt lat="47.5086" lon="-0.57991">
        <ele>33</ele>
        <time>2015-09-01T09:02:14.000Z</time>
      </trkpt>
      <trkpt lat="47.50861" lon="-0.57987">
        <ele>33</ele>
        <time>2015-09-01T09:02:15.000Z</time>
      </trkpt>
      <trkpt lat="47.50863" lon="-0.57982">
        <ele>32</ele>
        <time>2015-09-01T09:02:16.000Z</time>
      </trkpt>
      <trkpt lat="47.50864" lon="-0.57978">
        <ele>32</ele>
        <time>2015-09-01T09:02:17.000Z</time>
      </trkpt>
      <trkpt lat="47.50866" lon="-0.57973">
        <ele>31</ele>
        <time>2015-09-01T09:02:18.000Z</time>
      </trkpt>
      <trkpt lat="47.50867" lon="-0.57969">
        <ele>31</ele>
        <time>2015-09-01T09:02:19.000Z</time>
      </trkpt>
      <trkpt lat="47.50869" lon="-0.57964">
        <ele>31</ele>
        <time>2015-09-01T09:02:20.000Z</time>
      </trkpt>
      <trkpt lat="47.50871" lon="-0.5796">
        <ele>31</ele>
        <time>2015-09-01T09:02:21.000Z</time>
      </trkpt>
      <trkpt lat="47.50872" lon="-0.57956">
        <ele>31</ele>
        <time>2015-09-01T09:02:22.000Z</time>
      </trkpt>
      <trkpt lat="47.50874" lon="-0.57951">
        <ele>32</ele>
        <time>2015-09-01T09:02:23.000Z</time>
      </trkpt>
      <trkpt lat="47.50875" lon="-0.57946">
        <ele>31</ele>
        <time>2015-09-01T09:02:24.000Z</time>
      </trkpt>
      <trkpt lat="47.50875" lon="-0.57942">
        <ele>31</ele>
        <time>2015-09-01T09:02:25.000Z</time>
      </trkpt>
      <trkpt lat="47.50874" lon="-0.57937">
        <ele>31</ele>
        <time>2015-09-01T09:02:26.000Z</time>
      </trkpt>
      <trkpt lat="47.50872" lon="-0.57933">
        <ele>31</ele>
        <time>2015-09-01T09:02:27.000Z</time>
      </trkpt>
      <trkpt lat="47.50871" lon="-0.57928">
        <ele>30</ele>
        <time>2015-09-01T09:02:28.000Z</time>
      </trkpt>
      <trkpt lat="47.5087" lon="-0.57923">
        <ele>30</ele>
        <time>2015-09-01T09:02:29.000Z</time>
      </trkpt>
      <trkpt lat="47.5087" lon="-0.57919">
        <ele>30</ele>
        <time>2015-09-01T09:02:30.000Z</time>
      </trkpt>
      <trkpt lat="47.50869" lon="-0.57914">
        <ele>28</ele>
        <time>2015-09-01T09:02:31.000Z</time>
      </trkpt>
      <trkpt lat="47.50868" lon="-0.5791">
        <ele>28</ele>
        <time>2015-09-01T09:02:32.000Z</time>
      </trkpt>
      <trkpt lat="47.50867" lon="-0.57905">
        <ele>28</ele>
        <time>2015-09-01T09:02:33.000Z</time>
      </trkpt>
      <trkpt lat="47.50865" lon="-0.57901">
        <ele>27</ele>
        <time>2015-09-01T09:02:34.000Z</time>
      </trkpt>
      <trkpt lat="47.50862" lon="-0.57897">
        <ele>28</ele>
        <time>2015-09-01T09:02:35.000Z</time>
      </trkpt>
      <trkpt lat="47.5086" lon="-0.57893">
        <ele>28</ele>
        <time>2015-09-01T09:02:36.000Z</time>
      </trkpt>
      <trkpt lat="47.50857" lon="-0.57888">
        <ele>27</ele>
        <time>2015-09-01T09:02:37.000Z</time>
      </trkpt>
      <trkpt lat="47.50856" lon="-0.57883">
        <ele>27</ele>
        <time>2015-09-01T09:02:38.000Z</time>
      </trkpt>
      <trkpt lat="47.50854" lon="-0.57879">
        <ele>27</ele>
        <time>2015-09-01T09:02:39.000Z</time>
      </trkpt>
      <trkpt lat="47.50852" lon="-0.57874">
        <ele>27</ele>
        <time>2015-09-01T09:02:40.000Z</time>
      </trkpt>
      <trkpt lat="47.5085" lon="-0.5787">
        <ele>27</ele>
        <time>2015-09-01T09:02:41.000Z</time>
      </trkpt>
      <trkpt lat="47.50848" lon="-0.57867">
        <ele>27</ele>
        <time>2015-09-01T09:02:42.000Z</time>
      </trkpt>
      <trkpt lat="47.50847" lon="-0.57863">
        <ele>27</ele>
        <time>2015-09-01T09:02:43.000Z</time>
      </trkpt>
      <trkpt lat="47.50845" lon="-0.57859">
        <ele>27</ele>
        <time>2015-09-01T09:02:44.000Z</time>
      </trkpt>
      <trkpt lat="47.50843" lon="-0.57855">
        <ele>28</ele>
        <time>2015-09-01T09:02:45.000Z</time>
      </trkpt>
      <trkpt lat="47.50841" lon="-0.57852">
        <ele>28</ele>
        <time>2015-09-01T09:02:46.000Z</time>
      </trkpt>
      <trkpt lat="47.50839" lon="-0.57848">
        <ele>28</ele>
        <time>2015-09-01T09:02:47.000Z</time>
      </trkpt>
      <trkpt lat="47.50837" lon="-0.57844">
        <ele>28</ele>
        <time>2015-09-01T09:02:48.000Z</time>
      </trkpt>
      <trkpt lat="47.50835" lon="-0.57841">
        <ele>28</ele>
        <time>2015-09-01T09:02:49.000Z</time>
      </trkpt>
      <trkpt lat="47.50833" lon="-0.57837">
        <ele>28</ele>
        <time>2015-09-01T09:02:50.000Z</time>
      </trkpt>
      <trkpt lat="47.50831" lon="-0.57833">
        <ele>27</ele>
        <time>2015-09-01T09:02:51.000Z</time>
      </trkpt>
      <trkpt lat="47.50828" lon="-0.5783">
        <ele>27</ele>
        <time>2015-09-01T09:02:52.000Z</time>
      </trkpt>
      <trkpt lat="47.50826" lon="-0.57826">
        <ele>27</ele>
        <time>2015-09-01T09:02:53.000Z</time>
      </trkpt>
      <trkpt lat="47.50824" lon="-0.57822">
        <ele>27</ele>
        <time>2015-09-01T09:02:54.000Z</time>
      </trkpt>
      <trkpt lat="47.50822" lon="-0.57818">
        <ele>27</ele>
        <time>2015-09-01T09:02:55.000Z</time>
      </trkpt>
      <trkpt lat="47.5082" lon="-0.57814">
        <ele>27</ele>
        <time>2015-09-01T09:02:56.000Z</time>
      </trkpt>
      <trkpt lat="47.50818" lon="-0.57811">
        <ele>27</ele>
        <time>2015-09-01T09:02:57.000Z</time>
      </trkpt>
      <trkpt lat="47.50816" lon="-0.57807">
        <ele>27</ele>
        <time>2015-09-01T09:02:58.000Z</time>
      </trkpt>
      <trkpt lat="47.50814" lon="-0.57802">
        <ele>27</ele>
        <time>2015-09-01T09:02:59.000Z</time>
      </trkpt>
      <trkpt lat="47.50813" lon="-0.57798">
        <ele>26</ele>
        <time>2015-09-01T09:03:00.000Z</time>
      </trkpt>
      <trkpt lat="47.50811" lon="-0.57794">
        <ele>27</ele>
        <time>2015-09-01T09:03:01.000Z</time>
      </trkpt>
      <trkpt lat="47.5081" lon="-0.5779">
        <ele>27</ele>
        <time>2015-09-01T09:03:02.000Z</time>
      </trkpt>
      <trkpt lat="47.50808" lon="-0.57786">
        <ele>28</ele>
        <time>2015-09-01T09:03:03.000Z</time>
      </trkpt>
      <trkpt lat="47.50806" lon="-0.57782">
        <ele>28</ele>
        <time>2015-09-01T09:03:04.000Z</time>
      </trkpt>
      <trkpt lat="47.50804" lon="-0.57779">
        <ele>28</ele>
        <time>2015-09-01T09:03:05.000Z</time>
      </trkpt>
      <trkpt lat="47.50802" lon="-0.57776">
        <ele>28</ele>
        <time>2015-09-01T09:03:06.000Z</time>
      </trkpt>
      <trkpt lat="47.508" lon="-0.57773">
        <ele>28</ele>
        <time>2015-09-01T09:03:07.000Z</time>
      </trkpt>
      <trkpt lat="47.50798" lon="-0.57769">
        <ele>28</ele>
        <time>2015-09-01T09:03:08.000Z</time>
      </trkpt>
      <trkpt lat="47.50796" lon="-0.57765">
        <ele>28</ele>
        <time>2015-09-01T09:03:09.000Z</time>
      </trkpt>
      <trkpt lat="47.50794" lon="-0.57761">
        <ele>28</ele>
        <time>2015-09-01T09:03:10.000Z</time>
      </trkpt>
      <trkpt lat="47.50791" lon="-0.57758">
        <ele>28</ele>
        <time>2015-09-01T09:03:11.000Z</time>
      </trkpt>
      <trkpt lat="47.50789" lon="-0.57753">
        <ele>27</ele>
        <time>2015-09-01T09:03:12.000Z</time>
      </trkpt>
      <trkpt lat="47.50787" lon="-0.57749">
        <ele>28</ele>
        <time>2015-09-01T09:03:13.000Z</time>
      </trkpt>
      <trkpt lat="47.50786" lon="-0.57745">
        <ele>28</ele>
        <time>2015-09-01T09:03:14.000Z</time>
      </trkpt>
      <trkpt lat="47.50784" lon="-0.57741">
        <ele>29</ele>
        <time>2015-09-01T09:03:15.000Z</time>
      </trkpt>
      <trkpt lat="47.50783" lon="-0.57736">
        <ele>29</ele>
        <time>2015-09-01T09:03:16.000Z</time>
      </trkpt>
      <trkpt lat="47.50781" lon="-0.57732">
        <ele>30</ele>
        <time>2015-09-01T09:03:17.000Z</time>
      </trkpt>
      <trkpt lat="47.50779" lon="-0.57728">
        <ele>31</ele>
        <time>2015-09-01T09:03:18.000Z</time>
      </trkpt>
      <trkpt lat="47.50777" lon="-0.57724">
        <ele>29</ele>
        <time>2015-09-01T09:03:19.000Z</time>
      </trkpt>
      <trkpt lat="47.50775" lon="-0.5772">
        <ele>29</ele>
        <time>2015-09-01T09:03:20.000Z</time>
      </trkpt>
      <trkpt lat="47.50773" lon="-0.57717">
        <ele>29</ele>
        <time>2015-09-01T09:03:21.000Z</time>
      </trkpt>
      <trkpt lat="47.50772" lon="-0.57713">
        <ele>29</ele>
        <time>2015-09-01T09:03:22.000Z</time>
      </trkpt>
      <trkpt lat="47.50771" lon="-0.57709">
        <ele>29</ele>
        <time>2015-09-01T09:03:23.000Z</time>
      </trkpt>
      <trkpt lat="47.5077" lon="-0.57706">
        <ele>28</ele>
        <time>2015-09-01T09:03:24.000Z</time>
      </trkpt>
      <trkpt lat="47.50769" lon="-0.57702">
        <ele>28</ele>
        <time>2015-09-01T09:03:25.000Z</time>
      </trkpt>
      <trkpt lat="47.50769" lon="-0.57698">
        <ele>28</ele>
        <time>2015-09-01T09:03:26.000Z</time>
      </trkpt>
      <trkpt lat="47.50768" lon="-0.57694">
        <ele>29</ele>
        <time>2015-09-01T09:03:27.000Z</time>
      </trkpt>
      <trkpt lat="47.50767" lon="-0.57689">
        <ele>31</ele>
        <time>2015-09-01T09:03:28.000Z</time>
      </trkpt>
      <trkpt lat="47.50765" lon="-0.57683">
        <ele>31</ele>
        <time>2015-09-01T09:03:29.000Z</time>
      </trkpt>
      <trkpt lat="47.50763" lon="-0.57678">
        <ele>30</ele>
        <time>2015-09-01T09:03:30.000Z</time>
      </trkpt>
      <trkpt lat="47.50761" lon="-0.57674">
        <ele>30</ele>
        <time>2015-09-01T09:03:31.000Z</time>
      </trkpt>
      <trkpt lat="47.50759" lon="-0.57669">
        <ele>29</ele>
        <time>2015-09-01T09:03:32.000Z</time>
      </trkpt>
      <trkpt lat="47.50756" lon="-0.57665">
        <ele>29</ele>
        <time>2015-09-01T09:03:33.000Z</time>
      </trkpt>
      <trkpt lat="47.50753" lon="-0.57661">
        <ele>29</ele>
        <time>2015-09-01T09:03:34.000Z</time>
      </trkpt>
      <trkpt lat="47.50751" lon="-0.57656">
        <ele>28</ele>
        <time>2015-09-01T09:03:35.000Z</time>
      </trkpt>
      <trkpt lat="47.50749" lon="-0.57652">
        <ele>28</ele>
        <time>2015-09-01T09:03:36.000Z</time>
      </trkpt>
      <trkpt lat="47.50747" lon="-0.57648">
        <ele>28</ele>
        <time>2015-09-01T09:03:37.000Z</time>
      </trkpt>
      <trkpt lat="47.50746" lon="-0.57644">
        <ele>28</ele>
        <time>2015-09-01T09:03:38.000Z</time>
      </trkpt>
      <trkpt lat="47.50744" lon="-0.57639">
        <ele>28</ele>
        <time>2015-09-01T09:03:39.000Z</time>
      </trkpt>
      <trkpt lat="47.50742" lon="-0.57635">
        <ele>28</ele>
        <time>2015-09-01T09:03:40.000Z</time>
      </trkpt>
      <trkpt lat="47.5074" lon="-0.57631">
        <ele>28</ele>
        <time>2015-09-01T09:03:41.000Z</time>
      </trkpt>
      <trkpt lat="47.50738" lon="-0.57627">
        <ele>28</ele>
        <time>2015-09-01T09:03:42.000Z</time>
      </trkpt>
      <trkpt lat="47.50737" lon="-0.57623">
        <ele>29</ele>
        <time>2015-09-01T09:03:43.000Z</time>
      </trkpt>
      <trkpt lat="47.50735" lon="-0.57619">
        <ele>29</ele>
        <time>2015-09-01T09:03:44.000Z</time>
      </trkpt>
      <trkpt lat="47.50733" lon="-0.57615">
        <ele>29</ele>
        <time>2015-09-01T09:03:45.000Z</time>
      </trkpt>
      <trkpt lat="47.50731" lon="-0.57611">
        <ele>29</ele>
        <time>2015-09-01T09:03:46.000Z</time>
      </trkpt>
      <trkpt lat="47.5073" lon="-0.57607">
        <ele>29</ele>
        <time>2015-09-01T09:03:47.000Z</time>
      </trkpt>
      <trkpt lat="47.50728" lon="-0.57603">
        <ele>29</ele>
        <time>2015-09-01T09:03:48.000Z</time>
      </trkpt>
      <trkpt lat="47.50726" lon="-0.57599">
        <ele>28</ele>
        <time>2015-09-01T09:03:49.000Z</time>
      </trkpt>
      <trkpt lat="47.50724" lon="-0.57595">
        <ele>28</ele>
        <time>2015-09-01T09:03:50.000Z</time>
      </trkpt>
      <trkpt lat="47.50723" lon="-0.57591">
        <ele>29</ele>
        <time>2015-09-01T09:03:51.000Z</time>
      </trkpt>
      <trkpt lat="47.50721" lon="-0.57587">
        <ele>29</ele>
        <time>2015-09-01T09:03:52.000Z</time>
      </trkpt>
      <trkpt lat="47.50719" lon="-0.57583">
        <ele>28</ele>
        <time>2015-09-01T09:03:53.000Z</time>
      </trkpt>
      <trkpt lat="47.50717" lon="-0.5758">
        <ele>28</ele>
        <time>2015-09-01T09:03:54.000Z</time>
      </trkpt>
      <trkpt lat="47.50715" lon="-0.57576">
        <ele>28</ele>
        <time>2015-09-01T09:03:55.000Z</time>
      </trkpt>
      <trkpt lat="47.50713" lon="-0.57573">
        <ele>28</ele>
        <time>2015-09-01T09:03:56.000Z</time>
      </trkpt>
      <trkpt lat="47.50711" lon="-0.57569">
        <ele>30</ele>
        <time>2015-09-01T09:03:57.000Z</time>
      </trkpt>
      <trkpt lat="47.5071" lon="-0.57565">
        <ele>31</ele>
        <time>2015-09-01T09:03:58.000Z</time>
      </trkpt>
      <trkpt lat="47.50709" lon="-0.57561">
        <ele>31</ele>
        <time>2015-09-01T09:03:59.000Z</time>
      </trkpt>
      <trkpt lat="47.50706" lon="-0.57557">
        <ele>30</ele>
        <time>2015-09-01T09:04:00.000Z</time>
      </trkpt>
      <trkpt lat="47.50704" lon="-0.57554">
        <ele>29</ele>
        <time>2015-09-01T09:04:01.000Z</time>
      </trkpt>
      <trkpt lat="47.50702" lon="-0.5755">
        <ele>29</ele>
        <time>2015-09-01T09:04:02.000Z</time>
      </trkpt>
      <trkpt lat="47.507" lon="-0.57547">
        <ele>29</ele>
        <time>2015-09-01T09:04:03.000Z</time>
      </trkpt>
      <trkpt lat="47.50698" lon="-0.57543">
        <ele>29</ele>
        <time>2015-09-01T09:04:04.000Z</time>
      </trkpt>
      <trkpt lat="47.50696" lon="-0.57539">
        <ele>29</ele>
        <time>2015-09-01T09:04:05.000Z</time>
      </trkpt>
      <trkpt lat="47.50695" lon="-0.57536">
        <ele>28</ele>
        <time>2015-09-01T09:04:06.000Z</time>
      </trkpt>
      <trkpt lat="47.50693" lon="-0.57532">
        <ele>28</ele>
        <time>2015-09-01T09:04:07.000Z</time>
      </trkpt>
      <trkpt lat="47.50691" lon="-0.57529">
        <ele>27</ele>
        <time>2015-09-01T09:04:08.000Z</time>
      </trkpt>
      <trkpt lat="47.50688" lon="-0.57525">
        <ele>27</ele>
        <time>2015-09-01T09:04:09.000Z</time>
      </trkpt>
      <trkpt lat="47.50686" lon="-0.57521">
        <ele>27</ele>
        <time>2015-09-01T09:04:10.000Z</time>
      </trkpt>
      <trkpt lat="47.50685" lon="-0.57517">
        <ele>27</ele>
        <time>2015-09-01T09:04:11.000Z</time>
      </trkpt>
      <trkpt lat="47.50684" lon="-0.57513">
        <ele>27</ele>
        <time>2015-09-01T09:04:12.000Z</time>
      </trkpt>
      <trkpt lat="47.50682" lon="-0.57509">
        <ele>25</ele>
        <time>2015-09-01T09:04:13.000Z</time>
      </trkpt>
      <trkpt lat="47.50679" lon="-0.57505">
        <ele>24</ele>
        <time>2015-09-01T09:04:14.000Z</time>
      </trkpt>
      <trkpt lat="47.50677" lon="-0.57502">
        <ele>23</ele>
        <time>2015-09-01T09:04:15.000Z</time>
      </trkpt>
      <trkpt lat="47.50674" lon="-0.57499">
        <ele>23</ele>
        <time>2015-09-01T09:04:16.000Z</time>
      </trkpt>
      <trkpt lat="47.50672" lon="-0.57496">
        <ele>24</ele>
        <time>2015-09-01T09:04:17.000Z</time>
      </trkpt>
      <trkpt lat="47.50669" lon="-0.57492">
        <ele>23</ele>
        <time>2015-09-01T09:04:18.000Z</time>
      </trkpt>
      <trkpt lat="47.50667" lon="-0.57488">
        <ele>23</ele>
        <time>2015-09-01T09:04:19.000Z</time>
      </trkpt>
      <trkpt lat="47.50664" lon="-0.57485">
        <ele>23</ele>
        <time>2015-09-01T09:04:20.000Z</time>
      </trkpt>
      <trkpt lat="47.50662" lon="-0.57481">
        <ele>23</ele>
        <time>2015-09-01T09:04:21.000Z</time>
      </trkpt>
      <trkpt lat="47.5066" lon="-0.57478">
        <ele>22</ele>
        <time>2015-09-01T09:04:22.000Z</time>
      </trkpt>
      <trkpt lat="47.50658" lon="-0.57474">
        <ele>22</ele>
        <time>2015-09-01T09:04:23.000Z</time>
      </trkpt>
      <trkpt lat="47.50656" lon="-0.57471">
        <ele>22</ele>
        <time>2015-09-01T09:04:24.000Z</time>
      </trkpt>
      <trkpt lat="47.50653" lon="-0.57467">
        <ele>21</ele>
        <time>2015-09-01T09:04:25.000Z</time>
      </trkpt>
      <trkpt lat="47.50651" lon="-0.57464">
        <ele>21</ele>
        <time>2015-09-01T09:04:26.000Z</time>
      </trkpt>
      <trkpt lat="47.50649" lon="-0.5746">
        <ele>21</ele>
        <time>2015-09-01T09:04:27.000Z</time>
      </trkpt>
      <trkpt lat="47.50647" lon="-0.57457">
        <ele>21</ele>
        <time>2015-09-01T09:04:28.000Z</time>
      </trkpt>
      <trkpt lat="47.50645" lon="-0.57453">
        <ele>21</ele>
        <time>2015-09-01T09:04:29.000Z</time>
      </trkpt>
      <trkpt lat="47.50643" lon="-0.57449">
        <ele>22</ele>
        <time>2015-09-01T09:04:30.000Z</time>
      </trkpt>
      <trkpt lat="47.50641" lon="-0.57445">
        <ele>22</ele>
        <time>2015-09-01T09:04:31.000Z</time>
      </trkpt>
      <trkpt lat="47.50639" lon="-0.57441">
        <ele>21</ele>
        <time>2015-09-01T09:04:32.000Z</time>
      </trkpt>
      <trkpt lat="47.50637" lon="-0.57437">
        <ele>21</ele>
        <time>2015-09-01T09:04:33.000Z</time>
      </trkpt>
      <trkpt lat="47.50635" lon="-0.57433">
        <ele>22</ele>
        <time>2015-09-01T09:04:34.000Z</time>
      </trkpt>
      <trkpt lat="47.50633" lon="-0.57429">
        <ele>22</ele>
        <time>2015-09-01T09:04:35.000Z</time>
      </trkpt>
      <trkpt lat="47.50631" lon="-0.57425">
        <ele>23</ele>
        <time>2015-09-01T09:04:36.000Z</time>
      </trkpt>
      <trkpt lat="47.5063" lon="-0.5742">
        <ele>22</ele>
        <time>2015-09-01T09:04:37.000Z</time>
      </trkpt>
      <trkpt lat="47.50628" lon="-0.57417">
        <ele>22</ele>
        <time>2015-09-01T09:04:38.000Z</time>
      </trkpt>
      <trkpt lat="47.50626" lon="-0.57413">
        <ele>22</ele>
        <time>2015-09-01T09:04:39.000Z</time>
      </trkpt>
      <trkpt lat="47.50624" lon="-0.57409">
        <ele>22</ele>
        <time>2015-09-01T09:04:40.000Z</time>
      </trkpt>
      <trkpt lat="47.50623" lon="-0.57404">
        <ele>23</ele>
        <time>2015-09-01T09:04:41.000Z</time>
      </trkpt>
      <trkpt lat="47.50621" lon="-0.574">
        <ele>23</ele>
        <time>2015-09-01T09:04:42.000Z</time>
      </trkpt>
      <trkpt lat="47.50619" lon="-0.57395">
        <ele>23</ele>
        <time>2015-09-01T09:04:43.000Z</time>
      </trkpt>
      <trkpt lat="47.50618" lon="-0.57391">
        <ele>23</ele>
        <time>2015-09-01T09:04:44.000Z</time>
      </trkpt>
      <trkpt lat="47.50616" lon="-0.57387">
        <ele>24</ele>
        <time>2015-09-01T09:04:45.000Z</time>
      </trkpt>
      <trkpt lat="47.50614" lon="-0.57383">
        <ele>23</ele>
        <time>2015-09-01T09:04:46.000Z</time>
      </trkpt>
      <trkpt lat="47.50613" lon="-0.57379">
        <ele>24</ele>
        <time>2015-09-01T09:04:47.000Z</time>
      </trkpt>
      <trkpt lat="47.50611" lon="-0.57375">
        <ele>24</ele>
        <time>2015-09-01T09:04:48.000Z</time>
      </trkpt>
      <trkpt lat="47.5061" lon="-0.5737">
        <ele>25</ele>
        <time>2015-09-01T09:04:49.000Z</time>
      </trkpt>
      <trkpt lat="47.50608" lon="-0.57366">
        <ele>24</ele>
        <time>2015-09-01T09:04:50.000Z</time>
      </trkpt>
      <trkpt lat="47.50606" lon="-0.57361">
        <ele>25</ele>
        <time>2015-09-01T09:04:51.000Z</time>
      </trkpt>
      <trkpt lat="47.50605" lon="-0.57356">
        <ele>25</ele>
        <time>2015-09-01T09:04:52.000Z</time>
      </trkpt>
      <trkpt lat="47.50603" lon="-0.57352">
        <ele>24</ele>
        <time>2015-09-01T09:04:53.000Z</time>
      </trkpt>
      <trkpt lat="47.50601" lon="-0.57348">
        <ele>24</ele>
        <time>2015-09-01T09:04:54.000Z</time>
      </trkpt>
      <trkpt lat="47.50599" lon="-0.57343">
        <ele>25</ele>
        <time>2015-09-01T09:04:55.000Z</time>
      </trkpt>
      <trkpt lat="47.50598" lon="-0.57339">
        <ele>25</ele>
        <time>2015-09-01T09:04:56.000Z</time>
      </trkpt>
      <trkpt lat="47.50596" lon="-0.57335">
        <ele>25</ele>
        <time>2015-09-01T09:04:57.000Z</time>
      </trkpt>
      <trkpt lat="47.50594" lon="-0.57331">
        <ele>25</ele>
        <time>2015-09-01T09:04:58.000Z</time>
      </trkpt>
      <trkpt lat="47.50592" lon="-0.57327">
        <ele>25</ele>
        <time>2015-09-01T09:04:59.000Z</time>
      </trkpt>
      <trkpt lat="47.5059" lon="-0.57323">
        <ele>25</ele>
        <time>2015-09-01T09:05:00.000Z</time>
      </trkpt>
      <trkpt lat="47.50589" lon="-0.5732">
        <ele>25</ele>
        <time>2015-09-01T09:05:01.000Z</time>
      </trkpt>
      <trkpt lat="47.50587" lon="-0.57315">
        <ele>26</ele>
        <time>2015-09-01T09:05:02.000Z</time>
      </trkpt>
      <trkpt lat="47.50585" lon="-0.57311">
        <ele>26</ele>
        <time>2015-09-01T09:05:03.000Z</time>
      </trkpt>
      <trkpt lat="47.50584" lon="-0.57307">
        <ele>26</ele>
        <time>2015-09-01T09:05:04.000Z</time>
      </trkpt>
      <trkpt lat="47.50583" lon="-0.57303">
        <ele>27</ele>
        <time>2015-09-01T09:05:05.000Z</time>
      </trkpt>
      <trkpt lat="47.50581" lon="-0.57298">
        <ele>27</ele>
        <time>2015-09-01T09:05:06.000Z</time>
      </trkpt>
      <trkpt lat="47.5058" lon="-0.57294">
        <ele>27</ele>
        <time>2015-09-01T09:05:07.000Z</time>
      </trkpt>
      <trkpt lat="47.50578" lon="-0.5729">
        <ele>28</ele>
        <time>2015-09-01T09:05:08.000Z</time>
      </trkpt>
      <trkpt lat="47.50576" lon="-0.57286">
        <ele>29</ele>
        <time>2015-09-01T09:05:09.000Z</time>
      </trkpt>
      <trkpt lat="47.50574" lon="-0.57282">
        <ele>29</ele>
        <time>2015-09-01T09:05:10.000Z</time>
      </trkpt>
      <trkpt lat="47.50572" lon="-0.57278">
        <ele>28</ele>
        <time>2015-09-01T09:05:11.000Z</time>
      </trkpt>
      <trkpt lat="47.5057" lon="-0.57274">
        <ele>27</ele>
        <time>2015-09-01T09:05:12.000Z</time>
      </trkpt>
      <trkpt lat="47.50569" lon="-0.5727">
        <ele>28</ele>
        <time>2015-09-01T09:05:13.000Z</time>
      </trkpt>
      <trkpt lat="47.50567" lon="-0.57267">
        <ele>27</ele>
        <time>2015-09-01T09:05:14.000Z</time>
      </trkpt>
      <trkpt lat="47.50565" lon="-0.57264">
        <ele>27</ele>
        <time>2015-09-01T09:05:15.000Z</time>
      </trkpt>
      <trkpt lat="47.50563" lon="-0.57261">
        <ele>28</ele>
        <time>2015-09-01T09:05:16.000Z</time>
      </trkpt>
      <trkpt lat="47.50561" lon="-0.57257">
        <ele>27</ele>
        <time>2015-09-01T09:05:17.000Z</time>
      </trkpt>
      <trkpt lat="47.50559" lon="-0.57254">
        <ele>26</ele>
        <time>2015-09-01T09:05:18.000Z</time>
      </trkpt>
      <trkpt lat="47.50557" lon="-0.5725">
        <ele>26</ele>
        <time>2015-09-01T09:05:19.000Z</time>
      </trkpt>
      <trkpt lat="47.50555" lon="-0.57247">
        <ele>25</ele>
        <time>2015-09-01T09:05:20.000Z</time>
      </trkpt>
      <trkpt lat="47.50552" lon="-0.57244">
        <ele>23</ele>
        <time>2015-09-01T09:05:21.000Z</time>
      </trkpt>
      <trkpt lat="47.5055" lon="-0.57241">
        <ele>22</ele>
        <time>2015-09-01T09:05:22.000Z</time>
      </trkpt>
      <trkpt lat="47.50548" lon="-0.57237">
        <ele>22</ele>
        <time>2015-09-01T09:05:23.000Z</time>
      </trkpt>
      <trkpt lat="47.50547" lon="-0.57234">
        <ele>21</ele>
        <time>2015-09-01T09:05:24.000Z</time>
      </trkpt>
      <trkpt lat="47.50545" lon="-0.5723">
        <ele>20</ele>
        <time>2015-09-01T09:05:25.000Z</time>
      </trkpt>
      <trkpt lat="47.50543" lon="-0.57227">
        <ele>19</ele>
        <time>2015-09-01T09:05:26.000Z</time>
      </trkpt>
      <trkpt lat="47.50541" lon="-0.57223">
        <ele>19</ele>
        <time>2015-09-01T09:05:27.000Z</time>
      </trkpt>
      <trkpt lat="47.50539" lon="-0.5722">
        <ele>20</ele>
        <time>2015-09-01T09:05:28.000Z</time>
      </trkpt>
      <trkpt lat="47.50538" lon="-0.57217">
        <ele>20</ele>
        <time>2015-09-01T09:05:29.000Z</time>
      </trkpt>
      <trkpt lat="47.50536" lon="-0.57215">
        <ele>20</ele>
        <time>2015-09-01T09:05:30.000Z</time>
      </trkpt>
      <trkpt lat="47.50534" lon="-0.57212">
        <ele>20</ele>
        <time>2015-09-01T09:05:31.000Z</time>
      </trkpt>
      <trkpt lat="47.50533" lon="-0.57209">
        <ele>21</ele>
        <time>2015-09-01T09:05:32.000Z</time>
      </trkpt>
      <trkpt lat="47.50532" lon="-0.57205">
        <ele>22</ele>
        <time>2015-09-01T09:05:33.000Z</time>
      </trkpt>
      <trkpt lat="47.50531" lon="-0.57201">
        <ele>22</ele>
        <time>2015-09-01T09:05:34.000Z</time>
      </trkpt>
      <trkpt lat="47.5053" lon="-0.57198">
        <ele>22</ele>
        <time>2015-09-01T09:05:35.000Z</time>
      </trkpt>
      <trkpt lat="47.50528" lon="-0.57195">
        <ele>22</ele>
        <time>2015-09-01T09:05:36.000Z</time>
      </trkpt>
      <trkpt lat="47.50527" lon="-0.57192">
        <ele>22</ele>
        <time>2015-09-01T09:05:37.000Z</time>
      </trkpt>
      <trkpt lat="47.50525" lon="-0.57188">
        <ele>22</ele>
        <time>2015-09-01T09:05:38.000Z</time>
      </trkpt>
      <trkpt lat="47.50522" lon="-0.57184">
        <ele>19</ele>
        <time>2015-09-01T09:05:39.000Z</time>
      </trkpt>
      <trkpt lat="47.50519" lon="-0.57181">
        <ele>19</ele>
        <time>2015-09-01T09:05:40.000Z</time>
      </trkpt>
      <trkpt lat="47.50516" lon="-0.57177">
        <ele>19</ele>
        <time>2015-09-01T09:05:41.000Z</time>
      </trkpt>
      <trkpt lat="47.50514" lon="-0.57173">
        <ele>19</ele>
        <time>2015-09-01T09:05:42.000Z</time>
      </trkpt>
      <trkpt lat="47.50513" lon="-0.5717">
        <ele>18</ele>
        <time>2015-09-01T09:05:43.000Z</time>
      </trkpt>
      <trkpt lat="47.50511" lon="-0.57167">
        <ele>18</ele>
        <time>2015-09-01T09:05:44.000Z</time>
      </trkpt>
      <trkpt lat="47.50509" lon="-0.57163">
        <ele>18</ele>
        <time>2015-09-01T09:05:45.000Z</time>
      </trkpt>
      <trkpt lat="47.50507" lon="-0.57159">
        <ele>19</ele>
        <time>2015-09-01T09:05:46.000Z</time>
      </trkpt>
      <trkpt lat="47.50505" lon="-0.57155">
        <ele>19</ele>
        <time>2015-09-01T09:05:47.000Z</time>
      </trkpt>
      <trkpt lat="47.50503" lon="-0.57151">
        <ele>19</ele>
        <time>2015-09-01T09:05:48.000Z</time>
      </trkpt>
      <trkpt lat="47.50501" lon="-0.57147">
        <ele>18</ele>
        <time>2015-09-01T09:05:49.000Z</time>
      </trkpt>
      <trkpt lat="47.50499" lon="-0.57142">
        <ele>19</ele>
        <time>2015-09-01T09:05:50.000Z</time>
      </trkpt>
      <trkpt lat="47.50497" lon="-0.57137">
        <ele>18</ele>
        <time>2015-09-01T09:05:51.000Z</time>
      </trkpt>
      <trkpt lat="47.50495" lon="-0.57133">
        <ele>18</ele>
        <time>2015-09-01T09:05:52.000Z</time>
      </trkpt>
      <trkpt lat="47.50493" lon="-0.57128">
        <ele>19</ele>
        <time>2015-09-01T09:05:53.000Z</time>
      </trkpt>
      <trkpt lat="47.50491" lon="-0.57123">
        <ele>20</ele>
        <time>2015-09-01T09:05:54.000Z</time>
      </trkpt>
      <trkpt lat="47.50489" lon="-0.57118">
        <ele>20</ele>
        <time>2015-09-01T09:05:55.000Z</time>
      </trkpt>
      <trkpt lat="47.50488" lon="-0.57113">
        <ele>21</ele>
        <time>2015-09-01T09:05:56.000Z</time>
      </trkpt>
      <trkpt lat="47.50486" lon="-0.57108">
        <ele>21</ele>
        <time>2015-09-01T09:05:57.000Z</time>
      </trkpt>
      <trkpt lat="47.50485" lon="-0.57104">
        <ele>21</ele>
        <time>2015-09-01T09:05:58.000Z</time>
      </trkpt>
      <trkpt lat="47.50483" lon="-0.571">
        <ele>21</ele>
        <time>2015-09-01T09:05:59.000Z</time>
      </trkpt>
      <trkpt lat="47.50481" lon="-0.57096">
        <ele>21</ele>
        <time>2015-09-01T09:06:00.000Z</time>
      </trkpt>
      <trkpt lat="47.50479" lon="-0.57092">
        <ele>21</ele>
        <time>2015-09-01T09:06:01.000Z</time>
      </trkpt>
      <trkpt lat="47.50477" lon="-0.57088">
        <ele>21</ele>
        <time>2015-09-01T09:06:02.000Z</time>
      </trkpt>
      <trkpt lat="47.50474" lon="-0.57084">
        <ele>22</ele>
        <time>2015-09-01T09:06:03.000Z</time>
      </trkpt>
      <trkpt lat="47.50472" lon="-0.5708">
        <ele>22</ele>
        <time>2015-09-01T09:06:04.000Z</time>
      </trkpt>
      <trkpt lat="47.5047" lon="-0.57076">
        <ele>22</ele>
        <time>2015-09-01T09:06:05.000Z</time>
      </trkpt>
      <trkpt lat="47.50468" lon="-0.57072">
        <ele>23</ele>
        <time>2015-09-01T09:06:06.000Z</time>
      </trkpt>
      <trkpt lat="47.50466" lon="-0.57068">
        <ele>23</ele>
        <time>2015-09-01T09:06:07.000Z</time>
      </trkpt>
      <trkpt lat="47.50465" lon="-0.57064">
        <ele>23</ele>
        <time>2015-09-01T09:06:08.000Z</time>
      </trkpt>
      <trkpt lat="47.50463" lon="-0.57061">
        <ele>22</ele>
        <time>2015-09-01T09:06:09.000Z</time>
      </trkpt>
      <trkpt lat="47.50461" lon="-0.57058">
        <ele>22</ele>
        <time>2015-09-01T09:06:10.000Z</time>
      </trkpt>
      <trkpt lat="47.50459" lon="-0.57055">
        <ele>22</ele>
        <time>2015-09-01T09:06:11.000Z</time>
      </trkpt>
      <trkpt lat="47.50457" lon="-0.57053">
        <ele>22</ele>
        <time>2015-09-01T09:06:12.000Z</time>
      </trkpt>
      <trkpt lat="47.50454" lon="-0.57051">
        <ele>22</ele>
        <time>2015-09-01T09:06:13.000Z</time>
      </trkpt>
      <trkpt lat="47.50451" lon="-0.5705">
        <ele>23</ele>
        <time>2015-09-01T09:06:14.000Z</time>
      </trkpt>
      <trkpt lat="47.50447" lon="-0.5705">
        <ele>22</ele>
        <time>2015-09-01T09:06:15.000Z</time>
      </trkpt>
      <trkpt lat="47.50444" lon="-0.57051">
        <ele>22</ele>
        <time>2015-09-01T09:06:16.000Z</time>
      </trkpt>
      <trkpt lat="47.50442" lon="-0.57053">
        <ele>22</ele>
        <time>2015-09-01T09:06:17.000Z</time>
      </trkpt>
      <trkpt lat="47.50439" lon="-0.57054">
        <ele>22</ele>
        <time>2015-09-01T09:06:18.000Z</time>
      </trkpt>
      <trkpt lat="47.50436" lon="-0.57055">
        <ele>23</ele>
        <time>2015-09-01T09:06:19.000Z</time>
      </trkpt>
      <trkpt lat="47.50434" lon="-0.57056">
        <ele>22</ele>
        <time>2015-09-01T09:06:20.000Z</time>
      </trkpt>
      <trkpt lat="47.50431" lon="-0.57057">
        <ele>23</ele>
        <time>2015-09-01T09:06:21.000Z</time>
      </trkpt>
      <trkpt lat="47.50429" lon="-0.57058">
        <ele>23</ele>
        <time>2015-09-01T09:06:22.000Z</time>
      </trkpt>
      <trkpt lat="47.50426" lon="-0.57059">
        <ele>23</ele>
        <time>2015-09-01T09:06:23.000Z</time>
      </trkpt>
      <trkpt lat="47.50424" lon="-0.5706">
        <ele>23</ele>
        <time>2015-09-01T09:06:24.000Z</time>
      </trkpt>
      <trkpt lat="47.50421" lon="-0.57062">
        <ele>23</ele>
        <time>2015-09-01T09:06:25.000Z</time>
      </trkpt>
      <trkpt lat="47.50419" lon="-0.57064">
        <ele>23</ele>
        <time>2015-09-01T09:06:26.000Z</time>
      </trkpt>
      <trkpt lat="47.50417" lon="-0.57066">
        <ele>23</ele>
        <time>2015-09-01T09:06:27.000Z</time>
      </trkpt>
      <trkpt lat="47.50415" lon="-0.57069">
        <ele>24</ele>
        <time>2015-09-01T09:06:28.000Z</time>
      </trkpt>
      <trkpt lat="47.50413" lon="-0.57071">
        <ele>24</ele>
        <time>2015-09-01T09:06:29.000Z</time>
      </trkpt>
      <trkpt lat="47.50411" lon="-0.57074">
        <ele>24</ele>
        <time>2015-09-01T09:06:30.000Z</time>
      </trkpt>
      <trkpt lat="47.50408" lon="-0.57076">
        <ele>24</ele>
        <time>2015-09-01T09:06:31.000Z</time>
      </trkpt>
      <trkpt lat="47.50406" lon="-0.57078">
        <ele>24</ele>
        <time>2015-09-01T09:06:32.000Z</time>
      </trkpt>
      <trkpt lat="47.50404" lon="-0.5708">
        <ele>26</ele>
        <time>2015-09-01T09:06:33.000Z</time>
      </trkpt>
      <trkpt lat="47.50403" lon="-0.57082">
        <ele>26</ele>
        <time>2015-09-01T09:06:34.000Z</time>
      </trkpt>
      <trkpt lat="47.50401" lon="-0.57085">
        <ele>26</ele>
        <time>2015-09-01T09:06:35.000Z</time>
      </trkpt>
      <trkpt lat="47.50399" lon="-0.57088">
        <ele>27</ele>
        <time>2015-09-01T09:06:36.000Z</time>
      </trkpt>
      <trkpt lat="47.50397" lon="-0.5709">
        <ele>27</ele>
        <time>2015-09-01T09:06:37.000Z</time>
      </trkpt>
      <trkpt lat="47.50394" lon="-0.57093">
        <ele>27</ele>
        <time>2015-09-01T09:06:38.000Z</time>
      </trkpt>
      <trkpt lat="47.50392" lon="-0.57095">
        <ele>28</ele>
        <time>2015-09-01T09:06:39.000Z</time>
      </trkpt>
      <trkpt lat="47.5039" lon="-0.57097">
        <ele>28</ele>
        <time>2015-09-01T09:06:40.000Z</time>
      </trkpt>
      <trkpt lat="47.50388" lon="-0.571">
        <ele>28</ele>
        <time>2015-09-01T09:06:41.000Z</time>
      </trkpt>
      <trkpt lat="47.50386" lon="-0.57103">
        <ele>29</ele>
        <time>2015-09-01T09:06:42.000Z</time>
      </trkpt>
      <trkpt lat="47.50385" lon="-0.57107">
        <ele>29</ele>
        <time>2015-09-01T09:06:43.000Z</time>
      </trkpt>
      <trkpt lat="47.50384" lon="-0.57111">
        <ele>29</ele>
        <time>2015-09-01T09:06:44.000Z</time>
      </trkpt>
      <trkpt lat="47.50383" lon="-0.57115">
        <ele>29</ele>
        <time>2015-09-01T09:06:45.000Z</time>
      </trkpt>
      <trkpt lat="47.50382" lon="-0.57119">
        <ele>28</ele>
        <time>2015-09-01T09:06:46.000Z</time>
      </trkpt>
      <trkpt lat="47.50381" lon="-0.57123">
        <ele>28</ele>
        <time>2015-09-01T09:06:47.000Z</time>
      </trkpt>
      <trkpt lat="47.5038" lon="-0.57126">
        <ele>28</ele>
        <time>2015-09-01T09:06:48.000Z</time>
      </trkpt>
      <trkpt lat="47.5038" lon="-0.5713">
        <ele>30</ele>
        <time>2015-09-01T09:06:49.000Z</time>
      </trkpt>
      <trkpt lat="47.50379" lon="-0.57134">
        <ele>31</ele>
        <time>2015-09-01T09:06:50.000Z</time>
      </trkpt>
      <trkpt lat="47.50379" lon="-0.57138">
        <ele>32</ele>
        <time>2015-09-01T09:06:51.000Z</time>
      </trkpt>
      <trkpt lat="47.50379" lon="-0.57142">
        <ele>33</ele>
        <time>2015-09-01T09:06:52.000Z</time>
      </trkpt>
      <trkpt lat="47.5038" lon="-0.57146">
        <ele>32</ele>
        <time>2015-09-01T09:06:53.000Z</time>
      </trkpt>
      <trkpt lat="47.50379" lon="-0.5715">
        <ele>32</ele>
        <time>2015-09-01T09:06:54.000Z</time>
      </trkpt>
      <trkpt lat="47.50378" lon="-0.57153">
        <ele>32</ele>
        <time>2015-09-01T09:06:55.000Z</time>
      </trkpt>
      <trkpt lat="47.50376" lon="-0.57157">
        <ele>32</ele>
        <time>2015-09-01T09:06:56.000Z</time>
      </trkpt>
      <trkpt lat="47.50375" lon="-0.57161">
        <ele>33</ele>
        <time>2015-09-01T09:06:57.000Z</time>
      </trkpt>
      <trkpt lat="47.50374" lon="-0.57165">
        <ele>32</ele>
        <time>2015-09-01T09:06:58.000Z</time>
      </trkpt>
      <trkpt lat="47.50374" lon="-0.5717">
        <ele>33</ele>
        <time>2015-09-01T09:06:59.000Z</time>
      </trkpt>
      <trkpt lat="47.50373" lon="-0.57174">
        <ele>33</ele>
        <time>2015-09-01T09:07:00.000Z</time>
      </trkpt>
      <trkpt lat="47.50373" lon="-0.57178">
        <ele>33</ele>
        <time>2015-09-01T09:07:01.000Z</time>
      </trkpt>
      <trkpt lat="47.50372" lon="-0.57183">
        <ele>34</ele>
        <time>2015-09-01T09:07:02.000Z</time>
      </trkpt>
      <trkpt lat="47.50371" lon="-0.57187">
        <ele>35</ele>
        <time>2015-09-01T09:07:03.000Z</time>
      </trkpt>
      <trkpt lat="47.5037" lon="-0.57191">
        <ele>36</ele>
        <time>2015-09-01T09:07:04.000Z</time>
      </trkpt>
      <trkpt lat="47.50369" lon="-0.57194">
        <ele>35</ele>
        <time>2015-09-01T09:07:05.000Z</time>
      </trkpt>
      <trkpt lat="47.50369" lon="-0.57198">
        <ele>37</ele>
        <time>2015-09-01T09:07:06.000Z</time>
      </trkpt>
      <trkpt lat="47.50369" lon="-0.57202">
        <ele>39</ele>
        <time>2015-09-01T09:07:07.000Z</time>
      </trkpt>
      <trkpt lat="47.50369" lon="-0.57206">
        <ele>39</ele>
        <time>2015-09-01T09:07:08.000Z</time>
      </trkpt>
      <trkpt lat="47.50369" lon="-0.5721">
        <ele>37</ele>
        <time>2015-09-01T09:07:09.000Z</time>
      </trkpt>
      <trkpt lat="47.50369" lon="-0.57215">
        <ele>37</ele>
        <time>2015-09-01T09:07:10.000Z</time>
      </trkpt>
      <trkpt lat="47.50368" lon="-0.5722">
        <ele>37</ele>
        <time>2015-09-01T09:07:11.000Z</time>
      </trkpt>
      <trkpt lat="47.50367" lon="-0.57225">
        <ele>36</ele>
        <time>2015-09-01T09:07:12.000Z</time>
      </trkpt>
      <trkpt lat="47.50366" lon="-0.57229">
        <ele>35</ele>
        <time>2015-09-01T09:07:13.000Z</time>
      </trkpt>
      <trkpt lat="47.50366" lon="-0.57234">
        <ele>33</ele>
        <time>2015-09-01T09:07:14.000Z</time>
      </trkpt>
      <trkpt lat="47.50366" lon="-0.57238">
        <ele>34</ele>
        <time>2015-09-01T09:07:15.000Z</time>
      </trkpt>
      <trkpt lat="47.50366" lon="-0.57242">
        <ele>33</ele>
        <time>2015-09-01T09:07:16.000Z</time>
      </trkpt>
      <trkpt lat="47.50366" lon="-0.57246">
        <ele>32</ele>
        <time>2015-09-01T09:07:17.000Z</time>
      </trkpt>
      <trkpt lat="47.50365" lon="-0.5725">
        <ele>31</ele>
        <time>2015-09-01T09:07:18.000Z</time>
      </trkpt>
      <trkpt lat="47.50364" lon="-0.57255">
        <ele>30</ele>
        <time>2015-09-01T09:07:19.000Z</time>
      </trkpt>
      <trkpt lat="47.50364" lon="-0.57259">
        <ele>31</ele>
        <time>2015-09-01T09:07:20.000Z</time>
      </trkpt>
      <trkpt lat="47.50364" lon="-0.57263">
        <ele>30</ele>
        <time>2015-09-01T09:07:21.000Z</time>
      </trkpt>
      <trkpt lat="47.50364" lon="-0.57267">
        <ele>30</ele>
        <time>2015-09-01T09:07:22.000Z</time>
      </trkpt>
      <trkpt lat="47.50363" lon="-0.57271">
        <ele>29</ele>
        <time>2015-09-01T09:07:23.000Z</time>
      </trkpt>
      <trkpt lat="47.50363" lon="-0.57275">
        <ele>29</ele>
        <time>2015-09-01T09:07:24.000Z</time>
      </trkpt>
      <trkpt lat="47.50363" lon="-0.5728">
        <ele>28</ele>
        <time>2015-09-01T09:07:25.000Z</time>
      </trkpt>
      <trkpt lat="47.50364" lon="-0.57284">
        <ele>28</ele>
        <time>2015-09-01T09:07:26.000Z</time>
      </trkpt>
      <trkpt lat="47.50365" lon="-0.5729">
        <ele>27</ele>
        <time>2015-09-01T09:07:27.000Z</time>
      </trkpt>
      <trkpt lat="47.50365" lon="-0.57295">
        <ele>27</ele>
        <time>2015-09-01T09:07:28.000Z</time>
      </trkpt>
      <trkpt lat="47.50365" lon="-0.573">
        <ele>26</ele>
        <time>2015-09-01T09:07:29.000Z</time>
      </trkpt>
      <trkpt lat="47.50366" lon="-0.57305">
        <ele>27</ele>
        <time>2015-09-01T09:07:30.000Z</time>
      </trkpt>
      <trkpt lat="47.50367" lon="-0.5731">
        <ele>28</ele>
        <time>2015-09-01T09:07:31.000Z</time>
      </trkpt>
      <trkpt lat="47.50369" lon="-0.57315">
        <ele>29</ele>
        <time>2015-09-01T09:07:32.000Z</time>
      </trkpt>
      <trkpt lat="47.5037" lon="-0.57321">
        <ele>30</ele>
        <time>2015-09-01T09:07:33.000Z</time>
      </trkpt>
      <trkpt lat="47.5037" lon="-0.57326">
        <ele>30</ele>
        <time>2015-09-01T09:07:34.000Z</time>
      </trkpt>
      <trkpt lat="47.50369" lon="-0.57331">
        <ele>31</ele>
        <time>2015-09-01T09:07:35.000Z</time>
      </trkpt>
      <trkpt lat="47.50368" lon="-0.57336">
        <ele>31</ele>
        <time>2015-09-01T09:07:36.000Z</time>
      </trkpt>
      <trkpt lat="47.50367" lon="-0.5734">
        <ele>31</ele>
        <time>2015-09-01T09:07:37.000Z</time>
      </trkpt>
      <trkpt lat="47.50366" lon="-0.57344">
        <ele>30</ele>
        <time>2015-09-01T09:07:38.000Z</time>
      </trkpt>
      <trkpt lat="47.50366" lon="-0.57348">
        <ele>30</ele>
        <time>2015-09-01T09:07:39.000Z</time>
      </trkpt>
      <trkpt lat="47.50366" lon="-0.57352">
        <ele>30</ele>
        <time>2015-09-01T09:07:40.000Z</time>
      </trkpt>
      <trkpt lat="47.50365" lon="-0.57356">
        <ele>29</ele>
        <time>2015-09-01T09:07:41.000Z</time>
      </trkpt>
      <trkpt lat="47.50365" lon="-0.57361">
        <ele>28</ele>
        <time>2015-09-01T09:07:42.000Z</time>
      </trkpt>
      <trkpt lat="47.50364" lon="-0.57366">
        <ele>25</ele>
        <time>2015-09-01T09:07:43.000Z</time>
      </trkpt>
      <trkpt lat="47.50363" lon="-0.5737">
        <ele>24</ele>
        <time>2015-09-01T09:07:44.000Z</time>
      </trkpt>
      <trkpt lat="47.50362" lon="-0.57375">
        <ele>23</ele>
        <time>2015-09-01T09:07:45.000Z</time>
      </trkpt>
      <trkpt lat="47.50361" lon="-0.57379">
        <ele>23</ele>
        <time>2015-09-01T09:07:46.000Z</time>
      </trkpt>
      <trkpt lat="47.5036" lon="-0.57384">
        <ele>23</ele>
        <time>2015-09-01T09:07:47.000Z</time>
      </trkpt>
      <trkpt lat="47.5036" lon="-0.57389">
        <ele>23</ele>
        <time>2015-09-01T09:07:48.000Z</time>
      </trkpt>
      <trkpt lat="47.5036" lon="-0.57394">
        <ele>22</ele>
        <time>2015-09-01T09:07:49.000Z</time>
      </trkpt>
      <trkpt lat="47.50361" lon="-0.574">
        <ele>24</ele>
        <time>2015-09-01T09:07:50.000Z</time>
      </trkpt>
      <trkpt lat="47.50362" lon="-0.57405">
        <ele>26</ele>
        <time>2015-09-01T09:07:51.000Z</time>
      </trkpt>
      <trkpt lat="47.50363" lon="-0.57411">
        <ele>27</ele>
        <time>2015-09-01T09:07:52.000Z</time>
      </trkpt>
      <trkpt lat="47.50364" lon="-0.57416">
        <ele>27</ele>
        <time>2015-09-01T09:07:53.000Z</time>
      </trkpt>
      <trkpt lat="47.50365" lon="-0.57421">
        <ele>28</ele>
        <time>2015-09-01T09:07:54.000Z</time>
      </trkpt>
      <trkpt lat="47.50367" lon="-0.57426">
        <ele>29</ele>
        <time>2015-09-01T09:07:55.000Z</time>
      </trkpt>
      <trkpt lat="47.50369" lon="-0.57431">
        <ele>33</ele>
        <time>2015-09-01T09:07:56.000Z</time>
      </trkpt>
      <trkpt lat="47.50372" lon="-0.57437">
        <ele>35</ele>
        <time>2015-09-01T09:07:57.000Z</time>
      </trkpt>
      <trkpt lat="47.50375" lon="-0.57442">
        <ele>37</ele>
        <time>2015-09-01T09:07:58.000Z</time>
      </trkpt>
      <trkpt lat="47.50377" lon="-0.57447">
        <ele>39</ele>
        <time>2015-09-01T09:07:59.000Z</time>
      </trkpt>
      <trkpt lat="47.50379" lon="-0.57452">
        <ele>40</ele>
        <time>2015-09-01T09:08:00.000Z</time>
      </trkpt>
      <trkpt lat="47.50381" lon="-0.57457">
        <ele>41</ele>
        <time>2015-09-01T09:08:01.000Z</time>
      </trkpt>
      <trkpt lat="47.50382" lon="-0.57461">
        <ele>42</ele>
        <time>2015-09-01T09:08:02.000Z</time>
      </trkpt>
      <trkpt lat="47.50383" lon="-0.57465">
        <ele>43</ele>
        <time>2015-09-01T09:08:03.000Z</time>
      </trkpt>
      <trkpt lat="47.50384" lon="-0.57469">
        <ele>43</ele>
        <time>2015-09-01T09:08:04.000Z</time>
      </trkpt>
      <trkpt lat="47.50385" lon="-0.57473">
        <ele>43</ele>
        <time>2015-09-01T09:08:05.000Z</time>
      </trkpt>
      <trkpt lat="47.50386" lon="-0.57477">
        <ele>43</ele>
        <time>2015-09-01T09:08:06.000Z</time>
      </trkpt>
      <trkpt lat="47.50388" lon="-0.57481">
        <ele>42</ele>
        <time>2015-09-01T09:08:07.000Z</time>
      </trkpt>
      <trkpt lat="47.50389" lon="-0.57484">
        <ele>41</ele>
        <time>2015-09-01T09:08:08.000Z</time>
      </trkpt>
      <trkpt lat="47.5039" lon="-0.57487">
        <ele>42</ele>
        <time>2015-09-01T09:08:09.000Z</time>
      </trkpt>
      <trkpt lat="47.50391" lon="-0.57489">
        <ele>42</ele>
        <time>2015-09-01T09:08:10.000Z</time>
      </trkpt>
      <trkpt lat="47.50392" lon="-0.57491">
        <ele>42</ele>
        <time>2015-09-01T09:08:11.000Z</time>
      </trkpt>
      <trkpt lat="47.50394" lon="-0.57493">
        <ele>43</ele>
        <time>2015-09-01T09:08:12.000Z</time>
      </trkpt>
      <trkpt lat="47.50395" lon="-0.57495">
        <ele>45</ele>
        <time>2015-09-01T09:08:13.000Z</time>
      </trkpt>
      <trkpt lat="47.50398" lon="-0.57496">
        <ele>46</ele>
        <time>2015-09-01T09:08:14.000Z</time>
      </trkpt>
      <trkpt lat="47.504" lon="-0.57497">
        <ele>46</ele>
        <time>2015-09-01T09:08:15.000Z</time>
      </trkpt>
      <trkpt lat="47.50403" lon="-0.57499">
        <ele>47</ele>
        <time>2015-09-01T09:08:16.000Z</time>
      </trkpt>
      <trkpt lat="47.50405" lon="-0.575">
        <ele>47</ele>
        <time>2015-09-01T09:08:17.000Z</time>
      </trkpt>
      <trkpt lat="47.50408" lon="-0.57502">
        <ele>46</ele>
        <time>2015-09-01T09:08:18.000Z</time>
      </trkpt>
      <trkpt lat="47.5041" lon="-0.57504">
        <ele>44</ele>
        <time>2015-09-01T09:08:19.000Z</time>
      </trkpt>
      <trkpt lat="47.50412" lon="-0.57507">
        <ele>44</ele>
        <time>2015-09-01T09:08:20.000Z</time>
      </trkpt>
      <trkpt lat="47.50414" lon="-0.5751">
        <ele>44</ele>
        <time>2015-09-01T09:08:21.000Z</time>
      </trkpt>
      <trkpt lat="47.50416" lon="-0.57512">
        <ele>43</ele>
        <time>2015-09-01T09:08:22.000Z</time>
      </trkpt>
      <trkpt lat="47.5042" lon="-0.57516">
        <ele>43</ele>
        <time>2015-09-01T09:08:23.000Z</time>
      </trkpt>
      <trkpt lat="47.50423" lon="-0.57519">
        <ele>43</ele>
        <time>2015-09-01T09:08:24.000Z</time>
      </trkpt>
      <trkpt lat="47.50426" lon="-0.57522">
        <ele>43</ele>
        <time>2015-09-01T09:08:25.000Z</time>
      </trkpt>
      <trkpt lat="47.50429" lon="-0.57525">
        <ele>42</ele>
        <time>2015-09-01T09:08:26.000Z</time>
      </trkpt>
      <trkpt lat="47.50431" lon="-0.57527">
        <ele>41</ele>
        <time>2015-09-01T09:08:27.000Z</time>
      </trkpt>
      <trkpt lat="47.50432" lon="-0.5753">
        <ele>41</ele>
        <time>2015-09-01T09:08:28.000Z</time>
      </trkpt>
      <trkpt lat="47.50434" lon="-0.57533">
        <ele>41</ele>
        <time>2015-09-01T09:08:29.000Z</time>
      </trkpt>
      <trkpt lat="47.50436" lon="-0.57536">
        <ele>40</ele>
        <time>2015-09-01T09:08:30.000Z</time>
      </trkpt>
      <trkpt lat="47.50438" lon="-0.5754">
        <ele>40</ele>
        <time>2015-09-01T09:08:31.000Z</time>
      </trkpt>
      <trkpt lat="47.5044" lon="-0.57544">
        <ele>39</ele>
        <time>2015-09-01T09:08:32.000Z</time>
      </trkpt>
      <trkpt lat="47.50442" lon="-0.57547">
        <ele>39</ele>
        <time>2015-09-01T09:08:33.000Z</time>
      </trkpt>
      <trkpt lat="47.50444" lon="-0.57551">
        <ele>40</ele>
        <time>2015-09-01T09:08:34.000Z</time>
      </trkpt>
      <trkpt lat="47.50445" lon="-0.57554">
        <ele>39</ele>
        <time>2015-09-01T09:08:35.000Z</time>
      </trkpt>
      <trkpt lat="47.50448" lon="-0.57558">
        <ele>39</ele>
        <time>2015-09-01T09:08:36.000Z</time>
      </trkpt>
      <trkpt lat="47.5045" lon="-0.57561">
        <ele>39</ele>
        <time>2015-09-01T09:08:37.000Z</time>
      </trkpt>
      <trkpt lat="47.50452" lon="-0.57564">
        <ele>39</ele>
        <time>2015-09-01T09:08:38.000Z</time>
      </trkpt>
      <trkpt lat="47.50454" lon="-0.57568">
        <ele>38</ele>
        <time>2015-09-01T09:08:39.000Z</time>
      </trkpt>
      <trkpt lat="47.50455" lon="-0.57571">
        <ele>38</ele>
        <time>2015-09-01T09:08:40.000Z</time>
      </trkpt>
      <trkpt lat="47.50457" lon="-0.57574">
        <ele>37</ele>
        <time>2015-09-01T09:08:41.000Z</time>
      </trkpt>
      <trkpt lat="47.50458" lon="-0.57577">
        <ele>37</ele>
        <time>2015-09-01T09:08:42.000Z</time>
      </trkpt>
      <trkpt lat="47.5046" lon="-0.5758">
        <ele>38</ele>
        <time>2015-09-01T09:08:43.000Z</time>
      </trkpt>
      <trkpt lat="47.50461" lon="-0.57583">
        <ele>38</ele>
        <time>2015-09-01T09:08:44.000Z</time>
      </trkpt>
      <trkpt lat="47.50463" lon="-0.57586">
        <ele>39</ele>
        <time>2015-09-01T09:08:45.000Z</time>
      </trkpt>
      <trkpt lat="47.50464" lon="-0.57589">
        <ele>39</ele>
        <time>2015-09-01T09:08:46.000Z</time>
      </trkpt>
      <trkpt lat="47.50466" lon="-0.57592">
        <ele>40</ele>
        <time>2015-09-01T09:08:47.000Z</time>
      </trkpt>
      <trkpt lat="47.50468" lon="-0.57594">
        <ele>40</ele>
        <time>2015-09-01T09:08:48.000Z</time>
      </trkpt>
      <trkpt lat="47.50469" lon="-0.57596">
        <ele>39</ele>
        <time>2015-09-01T09:08:49.000Z</time>
      </trkpt>
      <trkpt lat="47.5047" lon="-0.57599">
        <ele>38</ele>
        <time>2015-09-01T09:08:50.000Z</time>
      </trkpt>
      <trkpt lat="47.50471" lon="-0.57603">
        <ele>37</ele>
        <time>2015-09-01T09:08:51.000Z</time>
      </trkpt>
      <trkpt lat="47.50472" lon="-0.57606">
        <ele>37</ele>
        <time>2015-09-01T09:08:52.000Z</time>
      </trkpt>
      <trkpt lat="47.50474" lon="-0.57609">
        <ele>37</ele>
        <time>2015-09-01T09:08:53.000Z</time>
      </trkpt>
      <trkpt lat="47.50475" lon="-0.57611">
        <ele>36</ele>
        <time>2015-09-01T09:08:54.000Z</time>
      </trkpt>
      <trkpt lat="47.50477" lon="-0.57614">
        <ele>35</ele>
        <time>2015-09-01T09:08:55.000Z</time>
      </trkpt>
      <trkpt lat="47.50479" lon="-0.57617">
        <ele>37</ele>
        <time>2015-09-01T09:08:56.000Z</time>
      </trkpt>
      <trkpt lat="47.5048" lon="-0.57619">
        <ele>38</ele>
        <time>2015-09-01T09:08:57.000Z</time>
      </trkpt>
      <trkpt lat="47.50482" lon="-0.57622">
        <ele>38</ele>
        <time>2015-09-01T09:08:58.000Z</time>
      </trkpt>
      <trkpt lat="47.50484" lon="-0.57624">
        <ele>38</ele>
        <time>2015-09-01T09:08:59.000Z</time>
      </trkpt>
      <trkpt lat="47.50485" lon="-0.57627">
        <ele>38</ele>
        <time>2015-09-01T09:09:00.000Z</time>
      </trkpt>
      <trkpt lat="47.50487" lon="-0.57629">
        <ele>38</ele>
        <time>2015-09-01T09:09:01.000Z</time>
      </trkpt>
      <trkpt lat="47.50487" lon="-0.57631">
        <ele>36</ele>
        <time>2015-09-01T09:09:02.000Z</time>
      </trkpt>
      <trkpt lat="47.50487" lon="-0.57633">
        <ele>35</ele>
        <time>2015-09-01T09:09:03.000Z</time>
      </trkpt>
      <trkpt lat="47.50488" lon="-0.57633">
        <ele>40</ele>
        <time>2015-09-01T09:09:04.000Z</time>
      </trkpt>
      <trkpt lat="47.50489" lon="-0.57633">
        <ele>41</ele>
        <time>2015-09-01T09:09:05.000Z</time>
      </trkpt>
      <trkpt lat="47.50489" lon="-0.57632">
        <ele>42</ele>
        <time>2015-09-01T09:09:06.000Z</time>
      </trkpt>
      <trkpt lat="47.5049" lon="-0.57632">
        <ele>41</ele>
        <time>2015-09-01T09:09:07.000Z</time>
      </trkpt>
      <trkpt lat="47.5049" lon="-0.57632">
        <ele>42</ele>
        <time>2015-09-01T09:09:08.000Z</time>
      </trkpt>
      <trkpt lat="47.5049" lon="-0.57634">
        <ele>41</ele>
        <time>2015-09-01T09:09:09.000Z</time>
      </trkpt>
      <trkpt lat="47.50491" lon="-0.57636">
        <ele>42</ele>
        <time>2015-09-01T09:09:10.000Z</time>
      </trkpt>
      <trkpt lat="47.50491" lon="-0.57639">
        <ele>42</ele>
        <time>2015-09-01T09:09:11.000Z</time>
      </trkpt>
      <trkpt lat="47.50491" lon="-0.57642">
        <ele>42</ele>
        <time>2015-09-01T09:09:12.000Z</time>
      </trkpt>
      <trkpt lat="47.50492" lon="-0.57646">
        <ele>41</ele>
        <time>2015-09-01T09:09:13.000Z</time>
      </trkpt>
      <trkpt lat="47.50492" lon="-0.57649">
        <ele>42</ele>
        <time>2015-09-01T09:09:14.000Z</time>
      </trkpt>
      <trkpt lat="47.50493" lon="-0.57653">
        <ele>41</ele>
        <time>2015-09-01T09:09:15.000Z</time>
      </trkpt>
      <trkpt lat="47.50494" lon="-0.57657">
        <ele>41</ele>
        <time>2015-09-01T09:09:16.000Z</time>
      </trkpt>
      <trkpt lat="47.50495" lon="-0.5766">
        <ele>41</ele>
        <time>2015-09-01T09:09:17.000Z</time>
      </trkpt>
      <trkpt lat="47.50497" lon="-0.57664">
        <ele>41</ele>
        <time>2015-09-01T09:09:18.000Z</time>
      </trkpt>
      <trkpt lat="47.50498" lon="-0.57668">
        <ele>42</ele>
        <time>2015-09-01T09:09:19.000Z</time>
      </trkpt>
      <trkpt lat="47.50499" lon="-0.57672">
        <ele>42</ele>
        <time>2015-09-01T09:09:20.000Z</time>
      </trkpt>
      <trkpt lat="47.50501" lon="-0.57676">
        <ele>43</ele>
        <time>2015-09-01T09:09:21.000Z</time>
      </trkpt>
      <trkpt lat="47.50502" lon="-0.57679">
        <ele>43</ele>
        <time>2015-09-01T09:09:22.000Z</time>
      </trkpt>
      <trkpt lat="47.50503" lon="-0.57683">
        <ele>44</ele>
        <time>2015-09-01T09:09:23.000Z</time>
      </trkpt>
      <trkpt lat="47.50505" lon="-0.57687">
        <ele>44</ele>
        <time>2015-09-01T09:09:24.000Z</time>
      </trkpt>
      <trkpt lat="47.50506" lon="-0.57691">
        <ele>45</ele>
        <time>2015-09-01T09:09:25.000Z</time>
      </trkpt>
      <trkpt lat="47.50508" lon="-0.57695">
        <ele>46</ele>
        <time>2015-09-01T09:09:26.000Z</time>
      </trkpt>
      <trkpt lat="47.5051" lon="-0.57698">
        <ele>47</ele>
        <time>2015-09-01T09:09:27.000Z</time>
      </trkpt>
      <trkpt lat="47.50512" lon="-0.57701">
        <ele>47</ele>
        <time>2015-09-01T09:09:28.000Z</time>
      </trkpt>
      <trkpt lat="47.50514" lon="-0.57705">
        <ele>47</ele>
        <time>2015-09-01T09:09:29.000Z</time>
      </trkpt>
      <trkpt lat="47.50515" lon="-0.57709">
        <ele>48</ele>
        <time>2015-09-01T09:09:30.000Z</time>
      </trkpt>
      <trkpt lat="47.50516" lon="-0.57713">
        <ele>49</ele>
        <time>2015-09-01T09:09:31.000Z</time>
      </trkpt>
      <trkpt lat="47.50518" lon="-0.57717">
        <ele>49</ele>
        <time>2015-09-01T09:09:32.000Z</time>
      </trkpt>
      <trkpt lat="47.5052" lon="-0.5772">
        <ele>49</ele>
        <time>2015-09-01T09:09:33.000Z</time>
      </trkpt>
      <trkpt lat="47.50521" lon="-0.57724">
        <ele>50</ele>
        <time>2015-09-01T09:09:34.000Z</time>
      </trkpt>
      <trkpt lat="47.50521" lon="-0.57728">
        <ele>50</ele>
        <time>2015-09-01T09:09:35.000Z</time>
      </trkpt>
      <trkpt lat="47.50522" lon="-0.57732">
        <ele>50</ele>
        <time>2015-09-01T09:09:36.000Z</time>
      </trkpt>
      <trkpt lat="47.50523" lon="-0.57736">
        <ele>51</ele>
        <time>2015-09-01T09:09:37.000Z</time>
      </trkpt>
      <trkpt lat="47.50524" lon="-0.5774">
        <ele>50</ele>
        <time>2015-09-01T09:09:38.000Z</time>
      </trkpt>
      <trkpt lat="47.50524" lon="-0.57744">
        <ele>51</ele>
        <time>2015-09-01T09:09:39.000Z</time>
      </trkpt>
      <trkpt lat="47.50524" lon="-0.57749">
        <ele>51</ele>
        <time>2015-09-01T09:09:40.000Z</time>
      </trkpt>
      <trkpt lat="47.50523" lon="-0.57753">
        <ele>49</ele>
        <time>2015-09-01T09:09:41.000Z</time>
      </trkpt>
      <trkpt lat="47.50522" lon="-0.57757">
        <ele>49</ele>
        <time>2015-09-01T09:09:42.000Z</time>
      </trkpt>
      <trkpt lat="47.5052" lon="-0.57761">
        <ele>48</ele>
        <time>2015-09-01T09:09:43.000Z</time>
      </trkpt>
      <trkpt lat="47.50519" lon="-0.57765">
        <ele>47</ele>
        <time>2015-09-01T09:09:44.000Z</time>
      </trkpt>
      <trkpt lat="47.50517" lon="-0.57769">
        <ele>48</ele>
        <time>2015-09-01T09:09:45.000Z</time>
      </trkpt>
      <trkpt lat="47.50516" lon="-0.57772">
        <ele>48</ele>
        <time>2015-09-01T09:09:46.000Z</time>
      </trkpt>
      <trkpt lat="47.50515" lon="-0.57776">
        <ele>48</ele>
        <time>2015-09-01T09:09:47.000Z</time>
      </trkpt>
      <trkpt lat="47.50514" lon="-0.57779">
        <ele>49</ele>
        <time>2015-09-01T09:09:48.000Z</time>
      </trkpt>
      <trkpt lat="47.50512" lon="-0.57783">
        <ele>49</ele>
        <time>2015-09-01T09:09:49.000Z</time>
      </trkpt>
      <trkpt lat="47.50511" lon="-0.57786">
        <ele>49</ele>
        <time>2015-09-01T09:09:50.000Z</time>
      </trkpt>
      <trkpt lat="47.50509" lon="-0.57789">
        <ele>49</ele>
        <time>2015-09-01T09:09:51.000Z</time>
      </trkpt>
      <trkpt lat="47.50507" lon="-0.57792">
        <ele>50</ele>
        <time>2015-09-01T09:09:52.000Z</time>
      </trkpt>
      <trkpt lat="47.50505" lon="-0.57794">
        <ele>50</ele>
        <time>2015-09-01T09:09:53.000Z</time>
      </trkpt>
      <trkpt lat="47.50503" lon="-0.57797">
        <ele>50</ele>
        <time>2015-09-01T09:09:54.000Z</time>
      </trkpt>
      <trkpt lat="47.50501" lon="-0.57799">
        <ele>51</ele>
        <time>2015-09-01T09:09:55.000Z</time>
      </trkpt>
      <trkpt lat="47.50498" lon="-0.57802">
        <ele>51</ele>
        <time>2015-09-01T09:09:56.000Z</time>
      </trkpt>
      <trkpt lat="47.50496" lon="-0.57804">
        <ele>51</ele>
        <time>2015-09-01T09:09:57.000Z</time>
      </trkpt>
      <trkpt lat="47.50493" lon="-0.57806">
        <ele>52</ele>
        <time>2015-09-01T09:09:58.000Z</time>
      </trkpt>
      <trkpt lat="47.50491" lon="-0.57808">
        <ele>51</ele>
        <time>2015-09-01T09:09:59.000Z</time>
      </trkpt>
      <trkpt lat="47.50488" lon="-0.5781">
        <ele>51</ele>
        <time>2015-09-01T09:10:00.000Z</time>
      </trkpt>
      <trkpt lat="47.50486" lon="-0.57812">
        <ele>52</ele>
        <time>2015-09-01T09:10:01.000Z</time>
      </trkpt>
      <trkpt lat="47.50483" lon="-0.57814">
        <ele>52</ele>
        <time>2015-09-01T09:10:02.000Z</time>
      </trkpt>
      <trkpt lat="47.5048" lon="-0.57816">
        <ele>53</ele>
        <time>2015-09-01T09:10:03.000Z</time>
      </trkpt>
      <trkpt lat="47.50478" lon="-0.57817">
        <ele>53</ele>
        <time>2015-09-01T09:10:04.000Z</time>
      </trkpt>
      <trkpt lat="47.50476" lon="-0.57818">
        <ele>54</ele>
        <time>2015-09-01T09:10:05.000Z</time>
      </trkpt>
      <trkpt lat="47.50475" lon="-0.57817">
        <ele>54</ele>
        <time>2015-09-01T09:10:06.000Z</time>
      </trkpt>
      <trkpt lat="47.50473" lon="-0.57816">
        <ele>54</ele>
        <time>2015-09-01T09:10:07.000Z</time>
      </trkpt>
      <trkpt lat="47.50472" lon="-0.57814">
        <ele>55</ele>
        <time>2015-09-01T09:10:08.000Z</time>
      </trkpt>
      <trkpt lat="47.5047" lon="-0.57812">
        <ele>55</ele>
        <time>2015-09-01T09:10:09.000Z</time>
      </trkpt>
      <trkpt lat="47.50469" lon="-0.57809">
        <ele>55</ele>
        <time>2015-09-01T09:10:10.000Z</time>
      </trkpt>
      <trkpt lat="47.50467" lon="-0.57807">
        <ele>55</ele>
        <time>2015-09-01T09:10:11.000Z</time>
      </trkpt>
      <trkpt lat="47.50465" lon="-0.57805">
        <ele>56</ele>
        <time>2015-09-01T09:10:12.000Z</time>
      </trkpt>
      <trkpt lat="47.50462" lon="-0.57803">
        <ele>56</ele>
        <time>2015-09-01T09:10:13.000Z</time>
      </trkpt>
      <trkpt lat="47.5046" lon="-0.57801">
        <ele>57</ele>
        <time>2015-09-01T09:10:14.000Z</time>
      </trkpt>
      <trkpt lat="47.50458" lon="-0.57799">
        <ele>57</ele>
        <time>2015-09-01T09:10:15.000Z</time>
      </trkpt>
      <trkpt lat="47.50456" lon="-0.57795">
        <ele>57</ele>
        <time>2015-09-01T09:10:16.000Z</time>
      </trkpt>
      <trkpt lat="47.50454" lon="-0.57792">
        <ele>57</ele>
        <time>2015-09-01T09:10:17.000Z</time>
      </trkpt>
      <trkpt lat="47.50451" lon="-0.57789">
        <ele>58</ele>
        <time>2015-09-01T09:10:18.000Z</time>
      </trkpt>
      <trkpt lat="47.50449" lon="-0.57786">
        <ele>57</ele>
        <time>2015-09-01T09:10:19.000Z</time>
      </trkpt>
      <trkpt lat="47.50446" lon="-0.57782">
        <ele>57</ele>
        <time>2015-09-01T09:10:20.000Z</time>
      </trkpt>
      <trkpt lat="47.50444" lon="-0.57778">
        <ele>58</ele>
        <time>2015-09-01T09:10:21.000Z</time>
      </trkpt>
      <trkpt lat="47.50441" lon="-0.57775">
        <ele>58</ele>
        <time>2015-09-01T09:10:22.000Z</time>
      </trkpt>
      <trkpt lat="47.50439" lon="-0.57772">
        <ele>57</ele>
        <time>2015-09-01T09:10:23.000Z</time>
      </trkpt>
      <trkpt lat="47.50436" lon="-0.57769">
        <ele>58</ele>
        <time>2015-09-01T09:10:24.000Z</time>
      </trkpt>
      <trkpt lat="47.50434" lon="-0.57767">
        <ele>58</ele>
        <time>2015-09-01T09:10:25.000Z</time>
      </trkpt>
      <trkpt lat="47.50431" lon="-0.57764">
        <ele>58</ele>
        <time>2015-09-01T09:10:26.000Z</time>
      </trkpt>
      <trkpt lat="47.50429" lon="-0.57761">
        <ele>59</ele>
        <time>2015-09-01T09:10:27.000Z</time>
      </trkpt>
      <trkpt lat="47.50428" lon="-0.57757">
        <ele>59</ele>
        <time>2015-09-01T09:10:28.000Z</time>
      </trkpt>
      <trkpt lat="47.50426" lon="-0.57754">
        <ele>58</ele>
        <time>2015-09-01T09:10:29.000Z</time>
      </trkpt>
      <trkpt lat="47.50424" lon="-0.5775">
        <ele>58</ele>
        <time>2015-09-01T09:10:30.000Z</time>
      </trkpt>
      <trkpt lat="47.50422" lon="-0.57747">
        <ele>57</ele>
        <time>2015-09-01T09:10:31.000Z</time>
      </trkpt>
      <trkpt lat="47.5042" lon="-0.57743">
        <ele>57</ele>
        <time>2015-09-01T09:10:32.000Z</time>
      </trkpt>
      <trkpt lat="47.50418" lon="-0.57739">
        <ele>57</ele>
        <time>2015-09-01T09:10:33.000Z</time>
      </trkpt>
      <trkpt lat="47.50417" lon="-0.57735">
        <ele>58</ele>
        <time>2015-09-01T09:10:34.000Z</time>
      </trkpt>
      <trkpt lat="47.50415" lon="-0.57731">
        <ele>58</ele>
        <time>2015-09-01T09:10:35.000Z</time>
      </trkpt>
      <trkpt lat="47.50412" lon="-0.57727">
        <ele>58</ele>
        <time>2015-09-01T09:10:36.000Z</time>
      </trkpt>
      <trkpt lat="47.5041" lon="-0.57724">
        <ele>57</ele>
        <time>2015-09-01T09:10:37.000Z</time>
      </trkpt>
      <trkpt lat="47.50408" lon="-0.57721">
        <ele>57</ele>
        <time>2015-09-01T09:10:38.000Z</time>
      </trkpt>
      <trkpt lat="47.50406" lon="-0.57718">
        <ele>57</ele>
        <time>2015-09-01T09:10:39.000Z</time>
      </trkpt>
      <trkpt lat="47.50404" lon="-0.57714">
        <ele>57</ele>
        <time>2015-09-01T09:10:40.000Z</time>
      </trkpt>
      <trkpt lat="47.50402" lon="-0.57711">
        <ele>56</ele>
        <time>2015-09-01T09:10:41.000Z</time>
      </trkpt>
      <trkpt lat="47.504" lon="-0.57707">
        <ele>56</ele>
        <time>2015-09-01T09:10:42.000Z</time>
      </trkpt>
      <trkpt lat="47.50398" lon="-0.57704">
        <ele>55</ele>
        <time>2015-09-01T09:10:43.000Z</time>
      </trkpt>
      <trkpt lat="47.50395" lon="-0.57702">
        <ele>55</ele>
        <time>2015-09-01T09:10:44.000Z</time>
      </trkpt>
      <trkpt lat="47.50393" lon="-0.57701">
        <ele>55</ele>
        <time>2015-09-01T09:10:45.000Z</time>
      </trkpt>
      <trkpt lat="47.5039" lon="-0.57701">
        <ele>55</ele>
        <time>2015-09-01T09:10:46.000Z</time>
      </trkpt>
      <trkpt lat="47.50388" lon="-0.57701">
        <ele>54</ele>
        <time>2015-09-01T09:10:47.000Z</time>
      </trkpt>
      <trkpt lat="47.50386" lon="-0.57702">
        <ele>54</ele>
        <time>2015-09-01T09:10:48.000Z</time>
      </trkpt>
      <trkpt lat="47.50385" lon="-0.57704">
        <ele>53</ele>
        <time>2015-09-01T09:10:49.000Z</time>
      </trkpt>
      <trkpt lat="47.50384" lon="-0.57705">
        <ele>53</ele>
        <time>2015-09-01T09:10:50.000Z</time>
      </trkpt>
      <trkpt lat="47.50383" lon="-0.57707">
        <ele>53</ele>
        <time>2015-09-01T09:10:51.000Z</time>
      </trkpt>
      <trkpt lat="47.50381" lon="-0.57708">
        <ele>53</ele>
        <time>2015-09-01T09:10:52.000Z</time>
      </trkpt>
      <trkpt lat="47.5038" lon="-0.57709">
        <ele>53</ele>
        <time>2015-09-01T09:10:53.000Z</time>
      </trkpt>
      <trkpt lat="47.50378" lon="-0.57711">
        <ele>52</ele>
        <time>2015-09-01T09:10:54.000Z</time>
      </trkpt>
      <trkpt lat="47.50376" lon="-0.57712">
        <ele>51</ele>
        <time>2015-09-01T09:10:55.000Z</time>
      </trkpt>
      <trkpt lat="47.50374" lon="-0.57713">
        <ele>52</ele>
        <time>2015-09-01T09:10:56.000Z</time>
      </trkpt>
      <trkpt lat="47.50372" lon="-0.57713">
        <ele>52</ele>
        <time>2015-09-01T09:10:57.000Z</time>
      </trkpt>
      <trkpt lat="47.5037" lon="-0.57714">
        <ele>53</ele>
        <time>2015-09-01T09:10:58.000Z</time>
      </trkpt>
      <trkpt lat="47.50368" lon="-0.57714">
        <ele>52</ele>
        <time>2015-09-01T09:10:59.000Z</time>
      </trkpt>
      <trkpt lat="47.50365" lon="-0.57714">
        <ele>52</ele>
        <time>2015-09-01T09:11:00.000Z</time>
      </trkpt>
      <trkpt lat="47.50362" lon="-0.57714">
        <ele>49</ele>
        <time>2015-09-01T09:11:01.000Z</time>
      </trkpt>
      <trkpt lat="47.50357" lon="-0.57714">
        <ele>49</ele>
        <time>2015-09-01T09:11:02.000Z</time>
      </trkpt>
      <trkpt lat="47.50353" lon="-0.57714">
        <ele>49</ele>
        <time>2015-09-01T09:11:03.000Z</time>
      </trkpt>
      <trkpt lat="47.50349" lon="-0.57713">
        <ele>48</ele>
        <time>2015-09-01T09:11:04.000Z</time>
      </trkpt>
      <trkpt lat="47.50346" lon="-0.57712">
        <ele>48</ele>
        <time>2015-09-01T09:11:05.000Z</time>
      </trkpt>
      <trkpt lat="47.50343" lon="-0.5771">
        <ele>48</ele>
        <time>2015-09-01T09:11:06.000Z</time>
      </trkpt>
      <trkpt lat="47.50341" lon="-0.57707">
        <ele>49</ele>
        <time>2015-09-01T09:11:07.000Z</time>
      </trkpt>
      <trkpt lat="47.50338" lon="-0.57704">
        <ele>49</ele>
        <time>2015-09-01T09:11:08.000Z</time>
      </trkpt>
      <trkpt lat="47.50335" lon="-0.57702">
        <ele>49</ele>
        <time>2015-09-01T09:11:09.000Z</time>
      </trkpt>
      <trkpt lat="47.50332" lon="-0.57701">
        <ele>48</ele>
        <time>2015-09-01T09:11:10.000Z</time>
      </trkpt>
      <trkpt lat="47.50329" lon="-0.577">
        <ele>48</ele>
        <time>2015-09-01T09:11:11.000Z</time>
      </trkpt>
      <trkpt lat="47.50327" lon="-0.57699">
        <ele>48</ele>
        <time>2015-09-01T09:11:12.000Z</time>
      </trkpt>
      <trkpt lat="47.50325" lon="-0.57699">
        <ele>47</ele>
        <time>2015-09-01T09:11:13.000Z</time>
      </trkpt>
      <trkpt lat="47.50322" lon="-0.57699">
        <ele>47</ele>
        <time>2015-09-01T09:11:14.000Z</time>
      </trkpt>
      <trkpt lat="47.5032" lon="-0.57698">
        <ele>47</ele>
        <time>2015-09-01T09:11:15.000Z</time>
      </trkpt>
      <trkpt lat="47.50318" lon="-0.57696">
        <ele>48</ele>
        <time>2015-09-01T09:11:16.000Z</time>
      </trkpt>
      <trkpt lat="47.50316" lon="-0.57693">
        <ele>48</ele>
        <time>2015-09-01T09:11:17.000Z</time>
      </trkpt>
      <trkpt lat="47.50314" lon="-0.5769">
        <ele>49</ele>
        <time>2015-09-01T09:11:18.000Z</time>
      </trkpt>
      <trkpt lat="47.50313" lon="-0.57687">
        <ele>49</ele>
        <time>2015-09-01T09:11:19.000Z</time>
      </trkpt>
      <trkpt lat="47.50313" lon="-0.57684">
        <ele>49</ele>
        <time>2015-09-01T09:11:20.000Z</time>
      </trkpt>
      <trkpt lat="47.50312" lon="-0.5768">
        <ele>49</ele>
        <time>2015-09-01T09:11:21.000Z</time>
      </trkpt>
      <trkpt lat="47.50312" lon="-0.57676">
        <ele>49</ele>
        <time>2015-09-01T09:11:22.000Z</time>
      </trkpt>
      <trkpt lat="47.5031" lon="-0.57671">
        <ele>50</ele>
        <time>2015-09-01T09:11:23.000Z</time>
      </trkpt>
      <trkpt lat="47.50309" lon="-0.57666">
        <ele>51</ele>
        <time>2015-09-01T09:11:24.000Z</time>
      </trkpt>
      <trkpt lat="47.50309" lon="-0.57663">
        <ele>51</ele>
        <time>2015-09-01T09:11:25.000Z</time>
      </trkpt>
      <trkpt lat="47.50309" lon="-0.57659">
        <ele>52</ele>
        <time>2015-09-01T09:11:26.000Z</time>
      </trkpt>
      <trkpt lat="47.50308" lon="-0.57656">
        <ele>53</ele>
        <time>2015-09-01T09:11:27.000Z</time>
      </trkpt>
      <trkpt lat="47.50308" lon="-0.57653">
        <ele>52</ele>
        <time>2015-09-01T09:11:28.000Z</time>
      </trkpt>
      <trkpt lat="47.50308" lon="-0.57648">
        <ele>53</ele>
        <time>2015-09-01T09:11:29.000Z</time>
      </trkpt>
      <trkpt lat="47.50308" lon="-0.57644">
        <ele>52</ele>
        <time>2015-09-01T09:11:30.000Z</time>
      </trkpt>
      <trkpt lat="47.50307" lon="-0.5764">
        <ele>52</ele>
        <time>2015-09-01T09:11:31.000Z</time>
      </trkpt>
      <trkpt lat="47.50307" lon="-0.57636">
        <ele>52</ele>
        <time>2015-09-01T09:11:32.000Z</time>
      </trkpt>
      <trkpt lat="47.50307" lon="-0.57632">
        <ele>53</ele>
        <time>2015-09-01T09:11:33.000Z</time>
      </trkpt>
      <trkpt lat="47.50307" lon="-0.57628">
        <ele>53</ele>
        <time>2015-09-01T09:11:34.000Z</time>
      </trkpt>
      <trkpt lat="47.50307" lon="-0.57624">
        <ele>54</ele>
        <time>2015-09-01T09:11:35.000Z</time>
      </trkpt>
      <trkpt lat="47.50306" lon="-0.5762">
        <ele>54</ele>
        <time>2015-09-01T09:11:36.000Z</time>
      </trkpt>
      <trkpt lat="47.50305" lon="-0.57616">
        <ele>54</ele>
        <time>2015-09-01T09:11:37.000Z</time>
      </trkpt>
      <trkpt lat="47.50304" lon="-0.57611">
        <ele>54</ele>
        <time>2015-09-01T09:11:38.000Z</time>
      </trkpt>
      <trkpt lat="47.50303" lon="-0.57607">
        <ele>54</ele>
        <time>2015-09-01T09:11:39.000Z</time>
      </trkpt>
      <trkpt lat="47.50301" lon="-0.57604">
        <ele>54</ele>
        <time>2015-09-01T09:11:40.000Z</time>
      </trkpt>
      <trkpt lat="47.503" lon="-0.576">
        <ele>54</ele>
        <time>2015-09-01T09:11:41.000Z</time>
      </trkpt>
      <trkpt lat="47.50298" lon="-0.57597">
        <ele>54</ele>
        <time>2015-09-01T09:11:42.000Z</time>
      </trkpt>
      <trkpt lat="47.50297" lon="-0.57593">
        <ele>54</ele>
        <time>2015-09-01T09:11:43.000Z</time>
      </trkpt>
      <trkpt lat="47.50296" lon="-0.57589">
        <ele>54</ele>
        <time>2015-09-01T09:11:44.000Z</time>
      </trkpt>
      <trkpt lat="47.50294" lon="-0.57585">
        <ele>54</ele>
        <time>2015-09-01T09:11:45.000Z</time>
      </trkpt>
      <trkpt lat="47.50292" lon="-0.57581">
        <ele>54</ele>
        <time>2015-09-01T09:11:46.000Z</time>
      </trkpt>
      <trkpt lat="47.5029" lon="-0.57577">
        <ele>54</ele>
        <time>2015-09-01T09:11:47.000Z</time>
      </trkpt>
      <trkpt lat="47.50287" lon="-0.57574">
        <ele>54</ele>
        <time>2015-09-01T09:11:48.000Z</time>
      </trkpt>
      <trkpt lat="47.50285" lon="-0.57571">
        <ele>54</ele>
        <time>2015-09-01T09:11:49.000Z</time>
      </trkpt>
      <trkpt lat="47.50283" lon="-0.57569">
        <ele>54</ele>
        <time>2015-09-01T09:11:50.000Z</time>
      </trkpt>
      <trkpt lat="47.50281" lon="-0.57566">
        <ele>54</ele>
        <time>2015-09-01T09:11:51.000Z</time>
      </trkpt>
      <trkpt lat="47.50279" lon="-0.57563">
        <ele>54</ele>
        <time>2015-09-01T09:11:52.000Z</time>
      </trkpt>
      <trkpt lat="47.50277" lon="-0.57559">
        <ele>54</ele>
        <time>2015-09-01T09:11:53.000Z</time>
      </trkpt>
      <trkpt lat="47.50275" lon="-0.57555">
        <ele>55</ele>
        <time>2015-09-01T09:11:54.000Z</time>
      </trkpt>
      <trkpt lat="47.50273" lon="-0.5755">
        <ele>54</ele>
        <time>2015-09-01T09:11:55.000Z</time>
      </trkpt>
      <trkpt lat="47.5027" lon="-0.57546">
        <ele>55</ele>
        <time>2015-09-01T09:11:56.000Z</time>
      </trkpt>
      <trkpt lat="47.50268" lon="-0.57542">
        <ele>55</ele>
        <time>2015-09-01T09:11:57.000Z</time>
      </trkpt>
      <trkpt lat="47.50266" lon="-0.57539">
        <ele>55</ele>
        <time>2015-09-01T09:11:58.000Z</time>
      </trkpt>
      <trkpt lat="47.50264" lon="-0.57536">
        <ele>55</ele>
        <time>2015-09-01T09:11:59.000Z</time>
      </trkpt>
      <trkpt lat="47.50262" lon="-0.57532">
        <ele>56</ele>
        <time>2015-09-01T09:12:00.000Z</time>
      </trkpt>
      <trkpt lat="47.50261" lon="-0.57528">
        <ele>58</ele>
        <time>2015-09-01T09:12:01.000Z</time>
      </trkpt>
      <trkpt lat="47.50259" lon="-0.57524">
        <ele>58</ele>
        <time>2015-09-01T09:12:02.000Z</time>
      </trkpt>
      <trkpt lat="47.50258" lon="-0.5752">
        <ele>59</ele>
        <time>2015-09-01T09:12:03.000Z</time>
      </trkpt>
      <trkpt lat="47.50257" lon="-0.57516">
        <ele>59</ele>
        <time>2015-09-01T09:12:04.000Z</time>
      </trkpt>
      <trkpt lat="47.50256" lon="-0.57512">
        <ele>60</ele>
        <time>2015-09-01T09:12:05.000Z</time>
      </trkpt>
      <trkpt lat="47.50255" lon="-0.57508">
        <ele>60</ele>
        <time>2015-09-01T09:12:06.000Z</time>
      </trkpt>
      <trkpt lat="47.50254" lon="-0.57504">
        <ele>60</ele>
        <time>2015-09-01T09:12:07.000Z</time>
      </trkpt>
      <trkpt lat="47.50253" lon="-0.575">
        <ele>61</ele>
        <time>2015-09-01T09:12:08.000Z</time>
      </trkpt>
      <trkpt lat="47.50252" lon="-0.57495">
        <ele>61</ele>
        <time>2015-09-01T09:12:09.000Z</time>
      </trkpt>
      <trkpt lat="47.50251" lon="-0.57491">
        <ele>61</ele>
        <time>2015-09-01T09:12:10.000Z</time>
      </trkpt>
      <trkpt lat="47.50251" lon="-0.57487">
        <ele>61</ele>
        <time>2015-09-01T09:12:11.000Z</time>
      </trkpt>
      <trkpt lat="47.50251" lon="-0.57482">
        <ele>61</ele>
        <time>2015-09-01T09:12:12.000Z</time>
      </trkpt>
      <trkpt lat="47.50251" lon="-0.57478">
        <ele>61</ele>
        <time>2015-09-01T09:12:13.000Z</time>
      </trkpt>
      <trkpt lat="47.50251" lon="-0.57474">
        <ele>61</ele>
        <time>2015-09-01T09:12:14.000Z</time>
      </trkpt>
      <trkpt lat="47.5025" lon="-0.5747">
        <ele>59</ele>
        <time>2015-09-01T09:12:15.000Z</time>
      </trkpt>
      <trkpt lat="47.50248" lon="-0.57468">
        <ele>59</ele>
        <time>2015-09-01T09:12:16.000Z</time>
      </trkpt>
      <trkpt lat="47.50246" lon="-0.57466">
        <ele>60</ele>
        <time>2015-09-01T09:12:17.000Z</time>
      </trkpt>
      <trkpt lat="47.50243" lon="-0.57465">
        <ele>59</ele>
        <time>2015-09-01T09:12:18.000Z</time>
      </trkpt>
      <trkpt lat="47.5024" lon="-0.57464">
        <ele>59</ele>
        <time>2015-09-01T09:12:19.000Z</time>
      </trkpt>
      <trkpt lat="47.50238" lon="-0.57463">
        <ele>58</ele>
        <time>2015-09-01T09:12:20.000Z</time>
      </trkpt>
      <trkpt lat="47.50235" lon="-0.57461">
        <ele>59</ele>
        <time>2015-09-01T09:12:21.000Z</time>
      </trkpt>
      <trkpt lat="47.50233" lon="-0.57461">
        <ele>59</ele>
        <time>2015-09-01T09:12:22.000Z</time>
      </trkpt>
      <trkpt lat="47.5023" lon="-0.5746">
        <ele>59</ele>
        <time>2015-09-01T09:12:23.000Z</time>
      </trkpt>
      <trkpt lat="47.50228" lon="-0.5746">
        <ele>58</ele>
        <time>2015-09-01T09:12:24.000Z</time>
      </trkpt>
      <trkpt lat="47.50225" lon="-0.57459">
        <ele>57</ele>
        <time>2015-09-01T09:12:25.000Z</time>
      </trkpt>
      <trkpt lat="47.50221" lon="-0.57459">
        <ele>56</ele>
        <time>2015-09-01T09:12:26.000Z</time>
      </trkpt>
      <trkpt lat="47.50218" lon="-0.57458">
        <ele>56</ele>
        <time>2015-09-01T09:12:27.000Z</time>
      </trkpt>
      <trkpt lat="47.50216" lon="-0.57458">
        <ele>56</ele>
        <time>2015-09-01T09:12:28.000Z</time>
      </trkpt>
      <trkpt lat="47.50213" lon="-0.57457">
        <ele>56</ele>
        <time>2015-09-01T09:12:29.000Z</time>
      </trkpt>
      <trkpt lat="47.50211" lon="-0.57455">
        <ele>57</ele>
        <time>2015-09-01T09:12:30.000Z</time>
      </trkpt>
      <trkpt lat="47.50208" lon="-0.57454">
        <ele>58</ele>
        <time>2015-09-01T09:12:31.000Z</time>
      </trkpt>
      <trkpt lat="47.50206" lon="-0.57454">
        <ele>57</ele>
        <time>2015-09-01T09:12:32.000Z</time>
      </trkpt>
      <trkpt lat="47.50203" lon="-0.57454">
        <ele>57</ele>
        <time>2015-09-01T09:12:33.000Z</time>
      </trkpt>
      <trkpt lat="47.502" lon="-0.57453">
        <ele>57</ele>
        <time>2015-09-01T09:12:34.000Z</time>
      </trkpt>
      <trkpt lat="47.50197" lon="-0.57452">
        <ele>56</ele>
        <time>2015-09-01T09:12:35.000Z</time>
      </trkpt>
      <trkpt lat="47.50195" lon="-0.57451">
        <ele>57</ele>
        <time>2015-09-01T09:12:36.000Z</time>
      </trkpt>
      <trkpt lat="47.50192" lon="-0.5745">
        <ele>57</ele>
        <time>2015-09-01T09:12:37.000Z</time>
      </trkpt>
      <trkpt lat="47.50189" lon="-0.57449">
        <ele>56</ele>
        <time>2015-09-01T09:12:38.000Z</time>
      </trkpt>
      <trkpt lat="47.50185" lon="-0.57449">
        <ele>55</ele>
        <time>2015-09-01T09:12:39.000Z</time>
      </trkpt>
      <trkpt lat="47.50181" lon="-0.57449">
        <ele>55</ele>
        <time>2015-09-01T09:12:40.000Z</time>
      </trkpt>
      <trkpt lat="47.50177" lon="-0.5745">
        <ele>53</ele>
        <time>2015-09-01T09:12:41.000Z</time>
      </trkpt>
      <trkpt lat="47.50174" lon="-0.5745">
        <ele>53</ele>
        <time>2015-09-01T09:12:42.000Z</time>
      </trkpt>
      <trkpt lat="47.50171" lon="-0.5745">
        <ele>51</ele>
        <time>2015-09-01T09:12:43.000Z</time>
      </trkpt>
      <trkpt lat="47.50168" lon="-0.57451">
        <ele>51</ele>
        <time>2015-09-01T09:12:44.000Z</time>
      </trkpt>
      <trkpt lat="47.50164" lon="-0.57451">
        <ele>51</ele>
        <time>2015-09-01T09:12:45.000Z</time>
      </trkpt>
      <trkpt lat="47.50162" lon="-0.57451">
        <ele>50</ele>
        <time>2015-09-01T09:12:46.000Z</time>
      </trkpt>
      <trkpt lat="47.50159" lon="-0.5745">
        <ele>50</ele>
        <time>2015-09-01T09:12:47.000Z</time>
      </trkpt>
      <trkpt lat="47.50156" lon="-0.5745">
        <ele>50</ele>
        <time>2015-09-01T09:12:48.000Z</time>
      </trkpt>
      <trkpt lat="47.50153" lon="-0.57449">
        <ele>49</ele>
        <time>2015-09-01T09:12:49.000Z</time>
      </trkpt>
      <trkpt lat="47.5015" lon="-0.57449">
        <ele>49</ele>
        <time>2015-09-01T09:12:50.000Z</time>
      </trkpt>
      <trkpt lat="47.50147" lon="-0.57449">
        <ele>48</ele>
        <time>2015-09-01T09:12:51.000Z</time>
      </trkpt>
      <trkpt lat="47.50144" lon="-0.5745">
        <ele>48</ele>
        <time>2015-09-01T09:12:52.000Z</time>
      </trkpt>
      <trkpt lat="47.50141" lon="-0.5745">
        <ele>49</ele>
        <time>2015-09-01T09:12:53.000Z</time>
      </trkpt>
      <trkpt lat="47.50138" lon="-0.57449">
        <ele>49</ele>
        <time>2015-09-01T09:12:54.000Z</time>
      </trkpt>
      <trkpt lat="47.50136" lon="-0.57448">
        <ele>50</ele>
        <time>2015-09-01T09:12:55.000Z</time>
      </trkpt>
      <trkpt lat="47.50133" lon="-0.57446">
        <ele>49</ele>
        <time>2015-09-01T09:12:56.000Z</time>
      </trkpt>
      <trkpt lat="47.5013" lon="-0.57444">
        <ele>48</ele>
        <time>2015-09-01T09:12:57.000Z</time>
      </trkpt>
      <trkpt lat="47.50126" lon="-0.57442">
        <ele>48</ele>
        <time>2015-09-01T09:12:58.000Z</time>
      </trkpt>
      <trkpt lat="47.50124" lon="-0.57441">
        <ele>49</ele>
        <time>2015-09-01T09:12:59.000Z</time>
      </trkpt>
      <trkpt lat="47.50122" lon="-0.57439">
        <ele>48</ele>
        <time>2015-09-01T09:13:00.000Z</time>
      </trkpt>
      <trkpt lat="47.5012" lon="-0.57439">
        <ele>46</ele>
        <time>2015-09-01T09:13:01.000Z</time>
      </trkpt>
      <trkpt lat="47.50117" lon="-0.57439">
        <ele>46</ele>
        <time>2015-09-01T09:13:02.000Z</time>
      </trkpt>
      <trkpt lat="47.50115" lon="-0.57439">
        <ele>46</ele>
        <time>2015-09-01T09:13:03.000Z</time>
      </trkpt>
      <trkpt lat="47.50112" lon="-0.5744">
        <ele>46</ele>
        <time>2015-09-01T09:13:04.000Z</time>
      </trkpt>
      <trkpt lat="47.5011" lon="-0.57441">
        <ele>46</ele>
        <time>2015-09-01T09:13:05.000Z</time>
      </trkpt>
      <trkpt lat="47.50107" lon="-0.57442">
        <ele>46</ele>
        <time>2015-09-01T09:13:06.000Z</time>
      </trkpt>
      <trkpt lat="47.50105" lon="-0.57442">
        <ele>46</ele>
        <time>2015-09-01T09:13:07.000Z</time>
      </trkpt>
      <trkpt lat="47.50103" lon="-0.57443">
        <ele>46</ele>
        <time>2015-09-01T09:13:08.000Z</time>
      </trkpt>
      <trkpt lat="47.50101" lon="-0.57443">
        <ele>45</ele>
        <time>2015-09-01T09:13:09.000Z</time>
      </trkpt>
      <trkpt lat="47.50099" lon="-0.57443">
        <ele>45</ele>
        <time>2015-09-01T09:13:10.000Z</time>
      </trkpt>
      <trkpt lat="47.50097" lon="-0.57443">
        <ele>45</ele>
        <time>2015-09-01T09:13:11.000Z</time>
      </trkpt>
      <trkpt lat="47.50094" lon="-0.57443">
        <ele>45</ele>
        <time>2015-09-01T09:13:12.000Z</time>
      </trkpt>
      <trkpt lat="47.50092" lon="-0.57443">
        <ele>45</ele>
        <time>2015-09-01T09:13:13.000Z</time>
      </trkpt>
      <trkpt lat="47.50089" lon="-0.57443">
        <ele>45</ele>
        <time>2015-09-01T09:13:14.000Z</time>
      </trkpt>
      <trkpt lat="47.50087" lon="-0.57444">
        <ele>45</ele>
        <time>2015-09-01T09:13:15.000Z</time>
      </trkpt>
      <trkpt lat="47.50086" lon="-0.57446">
        <ele>44</ele>
        <time>2015-09-01T09:13:16.000Z</time>
      </trkpt>
      <trkpt lat="47.50084" lon="-0.57448">
        <ele>42</ele>
        <time>2015-09-01T09:13:17.000Z</time>
      </trkpt>
      <trkpt lat="47.50081" lon="-0.5745">
        <ele>40</ele>
        <time>2015-09-01T09:13:18.000Z</time>
      </trkpt>
      <trkpt lat="47.50079" lon="-0.57453">
        <ele>39</ele>
        <time>2015-09-01T09:13:19.000Z</time>
      </trkpt>
      <trkpt lat="47.50077" lon="-0.57455">
        <ele>39</ele>
        <time>2015-09-01T09:13:20.000Z</time>
      </trkpt>
      <trkpt lat="47.50075" lon="-0.57459">
        <ele>38</ele>
        <time>2015-09-01T09:13:21.000Z</time>
      </trkpt>
      <trkpt lat="47.50073" lon="-0.57462">
        <ele>36</ele>
        <time>2015-09-01T09:13:22.000Z</time>
      </trkpt>
      <trkpt lat="47.50072" lon="-0.57466">
        <ele>34</ele>
        <time>2015-09-01T09:13:23.000Z</time>
      </trkpt>
      <trkpt lat="47.50071" lon="-0.5747">
        <ele>32</ele>
        <time>2015-09-01T09:13:24.000Z</time>
      </trkpt>
      <trkpt lat="47.50071" lon="-0.57474">
        <ele>31</ele>
        <time>2015-09-01T09:13:25.000Z</time>
      </trkpt>
      <trkpt lat="47.50071" lon="-0.57477">
        <ele>30</ele>
        <time>2015-09-01T09:13:26.000Z</time>
      </trkpt>
      <trkpt lat="47.50072" lon="-0.5748">
        <ele>31</ele>
        <time>2015-09-01T09:13:27.000Z</time>
      </trkpt>
      <trkpt lat="47.50071" lon="-0.57484">
        <ele>30</ele>
        <time>2015-09-01T09:13:28.000Z</time>
      </trkpt>
      <trkpt lat="47.50071" lon="-0.57488">
        <ele>30</ele>
        <time>2015-09-01T09:13:29.000Z</time>
      </trkpt>
      <trkpt lat="47.5007" lon="-0.57492">
        <ele>29</ele>
        <time>2015-09-01T09:13:30.000Z</time>
      </trkpt>
      <trkpt lat="47.50069" lon="-0.57497">
        <ele>28</ele>
        <time>2015-09-01T09:13:31.000Z</time>
      </trkpt>
      <trkpt lat="47.50068" lon="-0.57502">
        <ele>29</ele>
        <time>2015-09-01T09:13:32.000Z</time>
      </trkpt>
      <trkpt lat="47.50067" lon="-0.57507">
        <ele>29</ele>
        <time>2015-09-01T09:13:33.000Z</time>
      </trkpt>
      <trkpt lat="47.50066" lon="-0.57512">
        <ele>30</ele>
        <time>2015-09-01T09:13:34.000Z</time>
      </trkpt>
      <trkpt lat="47.50065" lon="-0.57516">
        <ele>30</ele>
        <time>2015-09-01T09:13:35.000Z</time>
      </trkpt>
      <trkpt lat="47.50064" lon="-0.5752">
        <ele>32</ele>
        <time>2015-09-01T09:13:36.000Z</time>
      </trkpt>
      <trkpt lat="47.50064" lon="-0.57524">
        <ele>35</ele>
        <time>2015-09-01T09:13:37.000Z</time>
      </trkpt>
      <trkpt lat="47.50063" lon="-0.57528">
        <ele>37</ele>
        <time>2015-09-01T09:13:38.000Z</time>
      </trkpt>
      <trkpt lat="47.50063" lon="-0.57532">
        <ele>42</ele>
        <time>2015-09-01T09:13:39.000Z</time>
      </trkpt>
      <trkpt lat="47.50063" lon="-0.57535">
        <ele>44</ele>
        <time>2015-09-01T09:13:40.000Z</time>
      </trkpt>
      <trkpt lat="47.50062" lon="-0.57539">
        <ele>46</ele>
        <time>2015-09-01T09:13:41.000Z</time>
      </trkpt>
      <trkpt lat="47.50061" lon="-0.57543">
        <ele>47</ele>
        <time>2015-09-01T09:13:42.000Z</time>
      </trkpt>
      <trkpt lat="47.5006" lon="-0.57546">
        <ele>48</ele>
        <time>2015-09-01T09:13:43.000Z</time>
      </trkpt>
      <trkpt lat="47.50059" lon="-0.5755">
        <ele>49</ele>
        <time>2015-09-01T09:13:44.000Z</time>
      </trkpt>
      <trkpt lat="47.50057" lon="-0.57554">
        <ele>49</ele>
        <time>2015-09-01T09:13:45.000Z</time>
      </trkpt>
      <trkpt lat="47.50056" lon="-0.57558">
        <ele>49</ele>
        <time>2015-09-01T09:13:46.000Z</time>
      </trkpt>
      <trkpt lat="47.50055" lon="-0.57563">
        <ele>49</ele>
        <time>2015-09-01T09:13:47.000Z</time>
      </trkpt>
      <trkpt lat="47.50054" lon="-0.57568">
        <ele>48</ele>
        <time>2015-09-01T09:13:48.000Z</time>
      </trkpt>
      <trkpt lat="47.50053" lon="-0.57573">
        <ele>48</ele>
        <time>2015-09-01T09:13:49.000Z</time>
      </trkpt>
      <trkpt lat="47.50052" lon="-0.57577">
        <ele>48</ele>
        <time>2015-09-01T09:13:50.000Z</time>
      </trkpt>
      <trkpt lat="47.50051" lon="-0.57582">
        <ele>48</ele>
        <time>2015-09-01T09:13:51.000Z</time>
      </trkpt>
      <trkpt lat="47.50049" lon="-0.57587">
        <ele>48</ele>
        <time>2015-09-01T09:13:52.000Z</time>
      </trkpt>
      <trkpt lat="47.50048" lon="-0.57591">
        <ele>48</ele>
        <time>2015-09-01T09:13:53.000Z</time>
      </trkpt>
      <trkpt lat="47.50047" lon="-0.57595">
        <ele>48</ele>
        <time>2015-09-01T09:13:54.000Z</time>
      </trkpt>
      <trkpt lat="47.50045" lon="-0.57598">
        <ele>47</ele>
        <time>2015-09-01T09:13:55.000Z</time>
      </trkpt>
      <trkpt lat="47.50042" lon="-0.57601">
        <ele>48</ele>
        <time>2015-09-01T09:13:56.000Z</time>
      </trkpt>
      <trkpt lat="47.50039" lon="-0.57604">
        <ele>48</ele>
        <time>2015-09-01T09:13:57.000Z</time>
      </trkpt>
      <trkpt lat="47.50036" lon="-0.57607">
        <ele>48</ele>
        <time>2015-09-01T09:13:58.000Z</time>
      </trkpt>
      <trkpt lat="47.50033" lon="-0.5761">
        <ele>48</ele>
        <time>2015-09-01T09:13:59.000Z</time>
      </trkpt>
      <trkpt lat="47.5003" lon="-0.57612">
        <ele>48</ele>
        <time>2015-09-01T09:14:00.000Z</time>
      </trkpt>
      <trkpt lat="47.50027" lon="-0.57615">
        <ele>48</ele>
        <time>2015-09-01T09:14:01.000Z</time>
      </trkpt>
      <trkpt lat="47.50025" lon="-0.57617">
        <ele>49</ele>
        <time>2015-09-01T09:14:02.000Z</time>
      </trkpt>
      <trkpt lat="47.50022" lon="-0.5762">
        <ele>49</ele>
        <time>2015-09-01T09:14:03.000Z</time>
      </trkpt>
      <trkpt lat="47.5002" lon="-0.57623">
        <ele>49</ele>
        <time>2015-09-01T09:14:04.000Z</time>
      </trkpt>
      <trkpt lat="47.50019" lon="-0.57627">
        <ele>49</ele>
        <time>2015-09-01T09:14:05.000Z</time>
      </trkpt>
      <trkpt lat="47.50017" lon="-0.5763">
        <ele>49</ele>
        <time>2015-09-01T09:14:06.000Z</time>
      </trkpt>
      <trkpt lat="47.50016" lon="-0.57634">
        <ele>50</ele>
        <time>2015-09-01T09:14:07.000Z</time>
      </trkpt>
      <trkpt lat="47.50014" lon="-0.57638">
        <ele>50</ele>
        <time>2015-09-01T09:14:08.000Z</time>
      </trkpt>
      <trkpt lat="47.50013" lon="-0.57642">
        <ele>50</ele>
        <time>2015-09-01T09:14:09.000Z</time>
      </trkpt>
      <trkpt lat="47.50011" lon="-0.57645">
        <ele>50</ele>
        <time>2015-09-01T09:14:10.000Z</time>
      </trkpt>
      <trkpt lat="47.50009" lon="-0.57649">
        <ele>50</ele>
        <time>2015-09-01T09:14:11.000Z</time>
      </trkpt>
      <trkpt lat="47.50008" lon="-0.57653">
        <ele>50</ele>
        <time>2015-09-01T09:14:12.000Z</time>
      </trkpt>
      <trkpt lat="47.50006" lon="-0.57657">
        <ele>51</ele>
        <time>2015-09-01T09:14:13.000Z</time>
      </trkpt>
      <trkpt lat="47.50005" lon="-0.57661">
        <ele>51</ele>
        <time>2015-09-01T09:14:14.000Z</time>
      </trkpt>
      <trkpt lat="47.50003" lon="-0.57665">
        <ele>51</ele>
        <time>2015-09-01T09:14:15.000Z</time>
      </trkpt>
      <trkpt lat="47.50001" lon="-0.57668">
        <ele>51</ele>
        <time>2015-09-01T09:14:16.000Z</time>
      </trkpt>
      <trkpt lat="47.5" lon="-0.57672">
        <ele>51</ele>
        <time>2015-09-01T09:14:17.000Z</time>
      </trkpt>
      <trkpt lat="47.49998" lon="-0.57676">
        <ele>51</ele>
        <time>2015-09-01T09:14:18.000Z</time>
      </trkpt>
      <trkpt lat="47.49995" lon="-0.5768">
        <ele>51</ele>
        <time>2015-09-01T09:14:19.000Z</time>
      </trkpt>
      <trkpt lat="47.49993" lon="-0.57683">
        <ele>51</ele>
        <time>2015-09-01T09:14:20.000Z</time>
      </trkpt>
      <trkpt lat="47.49991" lon="-0.57686">
        <ele>51</ele>
        <time>2015-09-01T09:14:21.000Z</time>
      </trkpt>
      <trkpt lat="47.49989" lon="-0.57689">
        <ele>51</ele>
        <time>2015-09-01T09:14:22.000Z</time>
      </trkpt>
      <trkpt lat="47.49986" lon="-0.57691">
        <ele>52</ele>
        <time>2015-09-01T09:14:23.000Z</time>
      </trkpt>
      <trkpt lat="47.49983" lon="-0.57693">
        <ele>52</ele>
        <time>2015-09-01T09:14:24.000Z</time>
      </trkpt>
      <trkpt lat="47.49981" lon="-0.57695">
        <ele>52</ele>
        <time>2015-09-01T09:14:25.000Z</time>
      </trkpt>
      <trkpt lat="47.49978" lon="-0.57698">
        <ele>52</ele>
        <time>2015-09-01T09:14:26.000Z</time>
      </trkpt>
      <trkpt lat="47.49976" lon="-0.57701">
        <ele>52</ele>
        <time>2015-09-01T09:14:27.000Z</time>
      </trkpt>
      <trkpt lat="47.49974" lon="-0.57704">
        <ele>52</ele>
        <time>2015-09-01T09:14:28.000Z</time>
      </trkpt>
      <trkpt lat="47.49972" lon="-0.57708">
        <ele>53</ele>
        <time>2015-09-01T09:14:29.000Z</time>
      </trkpt>
      <trkpt lat="47.4997" lon="-0.57712">
        <ele>53</ele>
        <time>2015-09-01T09:14:30.000Z</time>
      </trkpt>
      <trkpt lat="47.49968" lon="-0.57715">
        <ele>54</ele>
        <time>2015-09-01T09:14:31.000Z</time>
      </trkpt>
      <trkpt lat="47.49966" lon="-0.57718">
        <ele>54</ele>
        <time>2015-09-01T09:14:32.000Z</time>
      </trkpt>
      <trkpt lat="47.49964" lon="-0.57722">
        <ele>54</ele>
        <time>2015-09-01T09:14:33.000Z</time>
      </trkpt>
      <trkpt lat="47.49961" lon="-0.57725">
        <ele>54</ele>
        <time>2015-09-01T09:14:34.000Z</time>
      </trkpt>
      <trkpt lat="47.49959" lon="-0.57728">
        <ele>54</ele>
        <time>2015-09-01T09:14:35.000Z</time>
      </trkpt>
      <trkpt lat="47.49956" lon="-0.5773">
        <ele>54</ele>
        <time>2015-09-01T09:14:36.000Z</time>
      </trkpt>
      <trkpt lat="47.49953" lon="-0.57733">
        <ele>54</ele>
        <time>2015-09-01T09:14:37.000Z</time>
      </trkpt>
      <trkpt lat="47.4995" lon="-0.57736">
        <ele>54</ele>
        <time>2015-09-01T09:14:38.000Z</time>
      </trkpt>
      <trkpt lat="47.49948" lon="-0.57738">
        <ele>54</ele>
        <time>2015-09-01T09:14:39.000Z</time>
      </trkpt>
      <trkpt lat="47.49945" lon="-0.57741">
        <ele>54</ele>
        <time>2015-09-01T09:14:40.000Z</time>
      </trkpt>
      <trkpt lat="47.49942" lon="-0.57743">
        <ele>54</ele>
        <time>2015-09-01T09:14:41.000Z</time>
      </trkpt>
      <trkpt lat="47.4994" lon="-0.57746">
        <ele>55</ele>
        <time>2015-09-01T09:14:42.000Z</time>
      </trkpt>
      <trkpt lat="47.49937" lon="-0.57748">
        <ele>55</ele>
        <time>2015-09-01T09:14:43.000Z</time>
      </trkpt>
      <trkpt lat="47.49934" lon="-0.57751">
        <ele>55</ele>
        <time>2015-09-01T09:14:44.000Z</time>
      </trkpt>
      <trkpt lat="47.49932" lon="-0.57754">
        <ele>54</ele>
        <time>2015-09-01T09:14:45.000Z</time>
      </trkpt>
      <trkpt lat="47.49929" lon="-0.57757">
        <ele>54</ele>
        <time>2015-09-01T09:14:46.000Z</time>
      </trkpt>
      <trkpt lat="47.49927" lon="-0.57761">
        <ele>55</ele>
        <time>2015-09-01T09:14:47.000Z</time>
      </trkpt>
      <trkpt lat="47.49925" lon="-0.57764">
        <ele>55</ele>
        <time>2015-09-01T09:14:48.000Z</time>
      </trkpt>
      <trkpt lat="47.49923" lon="-0.57768">
        <ele>55</ele>
        <time>2015-09-01T09:14:49.000Z</time>
      </trkpt>
      <trkpt lat="47.49921" lon="-0.57771">
        <ele>56</ele>
        <time>2015-09-01T09:14:50.000Z</time>
      </trkpt>
      <trkpt lat="47.49919" lon="-0.57775">
        <ele>55</ele>
        <time>2015-09-01T09:14:51.000Z</time>
      </trkpt>
      <trkpt lat="47.49917" lon="-0.57779">
        <ele>55</ele>
        <time>2015-09-01T09:14:52.000Z</time>
      </trkpt>
      <trkpt lat="47.49916" lon="-0.57784">
        <ele>55</ele>
        <time>2015-09-01T09:14:53.000Z</time>
      </trkpt>
      <trkpt lat="47.49914" lon="-0.57788">
        <ele>55</ele>
        <time>2015-09-01T09:14:54.000Z</time>
      </trkpt>
      <trkpt lat="47.49912" lon="-0.57792">
        <ele>54</ele>
        <time>2015-09-01T09:14:55.000Z</time>
      </trkpt>
      <trkpt lat="47.49911" lon="-0.57796">
        <ele>54</ele>
        <time>2015-09-01T09:14:56.000Z</time>
      </trkpt>
      <trkpt lat="47.49909" lon="-0.578">
        <ele>54</ele>
        <time>2015-09-01T09:14:57.000Z</time>
      </trkpt>
      <trkpt lat="47.49908" lon="-0.57804">
        <ele>54</ele>
        <time>2015-09-01T09:14:58.000Z</time>
      </trkpt>
      <trkpt lat="47.49906" lon="-0.57808">
        <ele>54</ele>
        <time>2015-09-01T09:14:59.000Z</time>
      </trkpt>
      <trkpt lat="47.49905" lon="-0.57813">
        <ele>54</ele>
        <time>2015-09-01T09:15:00.000Z</time>
      </trkpt>
      <trkpt lat="47.49903" lon="-0.57817">
        <ele>55</ele>
        <time>2015-09-01T09:15:01.000Z</time>
      </trkpt>
      <trkpt lat="47.49902" lon="-0.57821">
        <ele>55</ele>
        <time>2015-09-01T09:15:02.000Z</time>
      </trkpt>
      <trkpt lat="47.499" lon="-0.57825">
        <ele>55</ele>
        <time>2015-09-01T09:15:03.000Z</time>
      </trkpt>
      <trkpt lat="47.49899" lon="-0.57829">
        <ele>55</ele>
        <time>2015-09-01T09:15:04.000Z</time>
      </trkpt>
      <trkpt lat="47.49898" lon="-0.57833">
        <ele>55</ele>
        <time>2015-09-01T09:15:05.000Z</time>
      </trkpt>
      <trkpt lat="47.49896" lon="-0.57837">
        <ele>55</ele>
        <time>2015-09-01T09:15:06.000Z</time>
      </trkpt>
      <trkpt lat="47.49895" lon="-0.57841">
        <ele>55</ele>
        <time>2015-09-01T09:15:07.000Z</time>
      </trkpt>
      <trkpt lat="47.49894" lon="-0.57845">
        <ele>55</ele>
        <time>2015-09-01T09:15:08.000Z</time>
      </trkpt>
      <trkpt lat="47.49893" lon="-0.57849">
        <ele>54</ele>
        <time>2015-09-01T09:15:09.000Z</time>
      </trkpt>
      <trkpt lat="47.49891" lon="-0.57852">
        <ele>55</ele>
        <time>2015-09-01T09:15:10.000Z</time>
      </trkpt>
      <trkpt lat="47.49889" lon="-0.57856">
        <ele>54</ele>
        <time>2015-09-01T09:15:11.000Z</time>
      </trkpt>
      <trkpt lat="47.49888" lon="-0.57859">
        <ele>54</ele>
        <time>2015-09-01T09:15:12.000Z</time>
      </trkpt>
      <trkpt lat="47.49885" lon="-0.57862">
        <ele>54</ele>
        <time>2015-09-01T09:15:13.000Z</time>
      </trkpt>
      <trkpt lat="47.49883" lon="-0.57865">
        <ele>54</ele>
        <time>2015-09-01T09:15:14.000Z</time>
      </trkpt>
      <trkpt lat="47.49881" lon="-0.57868">
        <ele>54</ele>
        <time>2015-09-01T09:15:15.000Z</time>
      </trkpt>
      <trkpt lat="47.4988" lon="-0.57872">
        <ele>54</ele>
        <time>2015-09-01T09:15:16.000Z</time>
      </trkpt>
      <trkpt lat="47.49878" lon="-0.57876">
        <ele>54</ele>
        <time>2015-09-01T09:15:17.000Z</time>
      </trkpt>
      <trkpt lat="47.49876" lon="-0.57879">
        <ele>54</ele>
        <time>2015-09-01T09:15:18.000Z</time>
      </trkpt>
      <trkpt lat="47.49874" lon="-0.57884">
        <ele>54</ele>
        <time>2015-09-01T09:15:19.000Z</time>
      </trkpt>
      <trkpt lat="47.49873" lon="-0.57888">
        <ele>54</ele>
        <time>2015-09-01T09:15:20.000Z</time>
      </trkpt>
      <trkpt lat="47.49872" lon="-0.57893">
        <ele>53</ele>
        <time>2015-09-01T09:15:21.000Z</time>
      </trkpt>
      <trkpt lat="47.49871" lon="-0.57898">
        <ele>53</ele>
        <time>2015-09-01T09:15:22.000Z</time>
      </trkpt>
      <trkpt lat="47.49871" lon="-0.57903">
        <ele>53</ele>
        <time>2015-09-01T09:15:23.000Z</time>
      </trkpt>
      <trkpt lat="47.4987" lon="-0.57907">
        <ele>53</ele>
        <time>2015-09-01T09:15:24.000Z</time>
      </trkpt>
      <trkpt lat="47.49869" lon="-0.57911">
        <ele>53</ele>
        <time>2015-09-01T09:15:25.000Z</time>
      </trkpt>
      <trkpt lat="47.49869" lon="-0.57916">
        <ele>53</ele>
        <time>2015-09-01T09:15:26.000Z</time>
      </trkpt>
      <trkpt lat="47.49868" lon="-0.5792">
        <ele>53</ele>
        <time>2015-09-01T09:15:27.000Z</time>
      </trkpt>
      <trkpt lat="47.49867" lon="-0.57925">
        <ele>53</ele>
        <time>2015-09-01T09:15:28.000Z</time>
      </trkpt>
      <trkpt lat="47.49866" lon="-0.57929">
        <ele>54</ele>
        <time>2015-09-01T09:15:29.000Z</time>
      </trkpt>
      <trkpt lat="47.49865" lon="-0.57934">
        <ele>53</ele>
        <time>2015-09-01T09:15:30.000Z</time>
      </trkpt>
      <trkpt lat="47.49864" lon="-0.57938">
        <ele>53</ele>
        <time>2015-09-01T09:15:31.000Z</time>
      </trkpt>
      <trkpt lat="47.49863" lon="-0.57942">
        <ele>53</ele>
        <time>2015-09-01T09:15:32.000Z</time>
      </trkpt>
      <trkpt lat="47.49863" lon="-0.57946">
        <ele>54</ele>
        <time>2015-09-01T09:15:33.000Z</time>
      </trkpt>
      <trkpt lat="47.49862" lon="-0.5795">
        <ele>54</ele>
        <time>2015-09-01T09:15:34.000Z</time>
      </trkpt>
      <trkpt lat="47.4986" lon="-0.57953">
        <ele>54</ele>
        <time>2015-09-01T09:15:35.000Z</time>
      </trkpt>
      <trkpt lat="47.49859" lon="-0.57957">
        <ele>54</ele>
        <time>2015-09-01T09:15:36.000Z</time>
      </trkpt>
      <trkpt lat="47.49857" lon="-0.5796">
        <ele>54</ele>
        <time>2015-09-01T09:15:37.000Z</time>
      </trkpt>
      <trkpt lat="47.49856" lon="-0.57964">
        <ele>54</ele>
        <time>2015-09-01T09:15:38.000Z</time>
      </trkpt>
      <trkpt lat="47.49854" lon="-0.57968">
        <ele>54</ele>
        <time>2015-09-01T09:15:39.000Z</time>
      </trkpt>
      <trkpt lat="47.49853" lon="-0.57973">
        <ele>55</ele>
        <time>2015-09-01T09:15:40.000Z</time>
      </trkpt>
      <trkpt lat="47.49851" lon="-0.57977">
        <ele>54</ele>
        <time>2015-09-01T09:15:41.000Z</time>
      </trkpt>
      <trkpt lat="47.49849" lon="-0.57981">
        <ele>55</ele>
        <time>2015-09-01T09:15:42.000Z</time>
      </trkpt>
      <trkpt lat="47.49847" lon="-0.57985">
        <ele>55</ele>
        <time>2015-09-01T09:15:43.000Z</time>
      </trkpt>
      <trkpt lat="47.49845" lon="-0.57989">
        <ele>54</ele>
        <time>2015-09-01T09:15:44.000Z</time>
      </trkpt>
      <trkpt lat="47.49843" lon="-0.57993">
        <ele>55</ele>
        <time>2015-09-01T09:15:45.000Z</time>
      </trkpt>
      <trkpt lat="47.4984" lon="-0.57997">
        <ele>54</ele>
        <time>2015-09-01T09:15:46.000Z</time>
      </trkpt>
      <trkpt lat="47.49838" lon="-0.58">
        <ele>54</ele>
        <time>2015-09-01T09:15:47.000Z</time>
      </trkpt>
      <trkpt lat="47.49835" lon="-0.58003">
        <ele>54</ele>
        <time>2015-09-01T09:15:48.000Z</time>
      </trkpt>
      <trkpt lat="47.49833" lon="-0.58006">
        <ele>55</ele>
        <time>2015-09-01T09:15:49.000Z</time>
      </trkpt>
      <trkpt lat="47.49831" lon="-0.58009">
        <ele>54</ele>
        <time>2015-09-01T09:15:50.000Z</time>
      </trkpt>
      <trkpt lat="47.49829" lon="-0.58012">
        <ele>54</ele>
        <time>2015-09-01T09:15:51.000Z</time>
      </trkpt>
      <trkpt lat="47.49826" lon="-0.58015">
        <ele>54</ele>
        <time>2015-09-01T09:15:52.000Z</time>
      </trkpt>
      <trkpt lat="47.49824" lon="-0.58017">
        <ele>55</ele>
        <time>2015-09-01T09:15:53.000Z</time>
      </trkpt>
      <trkpt lat="47.49822" lon="-0.5802">
        <ele>55</ele>
        <time>2015-09-01T09:15:54.000Z</time>
      </trkpt>
      <trkpt lat="47.4982" lon="-0.58023">
        <ele>55</ele>
        <time>2015-09-01T09:15:55.000Z</time>
      </trkpt>
      <trkpt lat="47.49817" lon="-0.58026">
        <ele>55</ele>
        <time>2015-09-01T09:15:56.000Z</time>
      </trkpt>
      <trkpt lat="47.49815" lon="-0.5803">
        <ele>55</ele>
        <time>2015-09-01T09:15:57.000Z</time>
      </trkpt>
      <trkpt lat="47.49812" lon="-0.58033">
        <ele>55</ele>
        <time>2015-09-01T09:15:58.000Z</time>
      </trkpt>
      <trkpt lat="47.4981" lon="-0.58036">
        <ele>55</ele>
        <time>2015-09-01T09:15:59.000Z</time>
      </trkpt>
      <trkpt lat="47.49808" lon="-0.58039">
        <ele>55</ele>
        <time>2015-09-01T09:16:00.000Z</time>
      </trkpt>
      <trkpt lat="47.49805" lon="-0.58042">
        <ele>55</ele>
        <time>2015-09-01T09:16:01.000Z</time>
      </trkpt>
      <trkpt lat="47.49803" lon="-0.58046">
        <ele>54</ele>
        <time>2015-09-01T09:16:02.000Z</time>
      </trkpt>
      <trkpt lat="47.498" lon="-0.5805">
        <ele>54</ele>
        <time>2015-09-01T09:16:03.000Z</time>
      </trkpt>
      <trkpt lat="47.49798" lon="-0.58055">
        <ele>54</ele>
        <time>2015-09-01T09:16:04.000Z</time>
      </trkpt>
      <trkpt lat="47.49796" lon="-0.5806">
        <ele>53</ele>
        <time>2015-09-01T09:16:05.000Z</time>
      </trkpt>
      <trkpt lat="47.49795" lon="-0.58065">
        <ele>53</ele>
        <time>2015-09-01T09:16:06.000Z</time>
      </trkpt>
      <trkpt lat="47.49794" lon="-0.5807">
        <ele>53</ele>
        <time>2015-09-01T09:16:07.000Z</time>
      </trkpt>
      <trkpt lat="47.49793" lon="-0.58075">
        <ele>52</ele>
        <time>2015-09-01T09:16:08.000Z</time>
      </trkpt>
      <trkpt lat="47.49792" lon="-0.5808">
        <ele>51</ele>
        <time>2015-09-01T09:16:09.000Z</time>
      </trkpt>
      <trkpt lat="47.49791" lon="-0.58085">
        <ele>52</ele>
        <time>2015-09-01T09:16:10.000Z</time>
      </trkpt>
      <trkpt lat="47.49791" lon="-0.5809">
        <ele>50</ele>
        <time>2015-09-01T09:16:11.000Z</time>
      </trkpt>
      <trkpt lat="47.4979" lon="-0.58095">
        <ele>50</ele>
        <time>2015-09-01T09:16:12.000Z</time>
      </trkpt>
      <trkpt lat="47.4979" lon="-0.58099">
        <ele>51</ele>
        <time>2015-09-01T09:16:13.000Z</time>
      </trkpt>
      <trkpt lat="47.49789" lon="-0.58103">
        <ele>51</ele>
        <time>2015-09-01T09:16:14.000Z</time>
      </trkpt>
      <trkpt lat="47.49788" lon="-0.58105">
        <ele>51</ele>
        <time>2015-09-01T09:16:15.000Z</time>
      </trkpt>
      <trkpt lat="47.49787" lon="-0.58108">
        <ele>50</ele>
        <time>2015-09-01T09:16:16.000Z</time>
      </trkpt>
      <trkpt lat="47.49784" lon="-0.5811">
        <ele>49</ele>
        <time>2015-09-01T09:16:17.000Z</time>
      </trkpt>
      <trkpt lat="47.4978" lon="-0.58112">
        <ele>49</ele>
        <time>2015-09-01T09:16:18.000Z</time>
      </trkpt>
      <trkpt lat="47.49776" lon="-0.58113">
        <ele>49</ele>
        <time>2015-09-01T09:16:19.000Z</time>
      </trkpt>
      <trkpt lat="47.49773" lon="-0.58115">
        <ele>50</ele>
        <time>2015-09-01T09:16:20.000Z</time>
      </trkpt>
      <trkpt lat="47.4977" lon="-0.58117">
        <ele>50</ele>
        <time>2015-09-01T09:16:21.000Z</time>
      </trkpt>
      <trkpt lat="47.49768" lon="-0.58119">
        <ele>50</ele>
        <time>2015-09-01T09:16:22.000Z</time>
      </trkpt>
      <trkpt lat="47.49765" lon="-0.5812">
        <ele>51</ele>
        <time>2015-09-01T09:16:23.000Z</time>
      </trkpt>
      <trkpt lat="47.49762" lon="-0.58121">
        <ele>51</ele>
        <time>2015-09-01T09:16:24.000Z</time>
      </trkpt>
      <trkpt lat="47.49759" lon="-0.58121">
        <ele>51</ele>
        <time>2015-09-01T09:16:25.000Z</time>
      </trkpt>
      <trkpt lat="47.49756" lon="-0.5812">
        <ele>51</ele>
        <time>2015-09-01T09:16:26.000Z</time>
      </trkpt>
      <trkpt lat="47.49753" lon="-0.5812">
        <ele>50</ele>
        <time>2015-09-01T09:16:27.000Z</time>
      </trkpt>
      <trkpt lat="47.4975" lon="-0.58119">
        <ele>50</ele>
        <time>2015-09-01T09:16:28.000Z</time>
      </trkpt>
      <trkpt lat="47.49747" lon="-0.58117">
        <ele>50</ele>
        <time>2015-09-01T09:16:29.000Z</time>
      </trkpt>
      <trkpt lat="47.49744" lon="-0.58115">
        <ele>50</ele>
        <time>2015-09-01T09:16:30.000Z</time>
      </trkpt>
      <trkpt lat="47.49742" lon="-0.58113">
        <ele>50</ele>
        <time>2015-09-01T09:16:31.000Z</time>
      </trkpt>
      <trkpt lat="47.49739" lon="-0.5811">
        <ele>50</ele>
        <time>2015-09-01T09:16:32.000Z</time>
      </trkpt>
      <trkpt lat="47.49736" lon="-0.58108">
        <ele>50</ele>
        <time>2015-09-01T09:16:33.000Z</time>
      </trkpt>
      <trkpt lat="47.49733" lon="-0.58104">
        <ele>51</ele>
        <time>2015-09-01T09:16:34.000Z</time>
      </trkpt>
      <trkpt lat="47.4973" lon="-0.58102">
        <ele>50</ele>
        <time>2015-09-01T09:16:35.000Z</time>
      </trkpt>
      <trkpt lat="47.49728" lon="-0.58099">
        <ele>50</ele>
        <time>2015-09-01T09:16:36.000Z</time>
      </trkpt>
      <trkpt lat="47.49725" lon="-0.58097">
        <ele>51</ele>
        <time>2015-09-01T09:16:37.000Z</time>
      </trkpt>
      <trkpt lat="47.49722" lon="-0.58095">
        <ele>51</ele>
        <time>2015-09-01T09:16:38.000Z</time>
      </trkpt>
      <trkpt lat="47.49719" lon="-0.58093">
        <ele>51</ele>
        <time>2015-09-01T09:16:39.000Z</time>
      </trkpt>
      <trkpt lat="47.49716" lon="-0.58091">
        <ele>51</ele>
        <time>2015-09-01T09:16:40.000Z</time>
      </trkpt>
      <trkpt lat="47.49713" lon="-0.58089">
        <ele>51</ele>
        <time>2015-09-01T09:16:41.000Z</time>
      </trkpt>
      <trkpt lat="47.4971" lon="-0.58087">
        <ele>51</ele>
        <time>2015-09-01T09:16:42.000Z</time>
      </trkpt>
      <trkpt lat="47.49708" lon="-0.58085">
        <ele>51</ele>
        <time>2015-09-01T09:16:43.000Z</time>
      </trkpt>
      <trkpt lat="47.49705" lon="-0.58082">
        <ele>51</ele>
        <time>2015-09-01T09:16:44.000Z</time>
      </trkpt>
      <trkpt lat="47.49703" lon="-0.58079">
        <ele>52</ele>
        <time>2015-09-01T09:16:45.000Z</time>
      </trkpt>
      <trkpt lat="47.497" lon="-0.58076">
        <ele>53</ele>
        <time>2015-09-01T09:16:46.000Z</time>
      </trkpt>
      <trkpt lat="47.49697" lon="-0.58074">
        <ele>52</ele>
        <time>2015-09-01T09:16:47.000Z</time>
      </trkpt>
      <trkpt lat="47.49694" lon="-0.58072">
        <ele>53</ele>
        <time>2015-09-01T09:16:48.000Z</time>
      </trkpt>
      <trkpt lat="47.49691" lon="-0.5807">
        <ele>53</ele>
        <time>2015-09-01T09:16:49.000Z</time>
      </trkpt>
      <trkpt lat="47.49688" lon="-0.58068">
        <ele>53</ele>
        <time>2015-09-01T09:16:50.000Z</time>
      </trkpt>
      <trkpt lat="47.49685" lon="-0.58066">
        <ele>52</ele>
        <time>2015-09-01T09:16:51.000Z</time>
      </trkpt>
      <trkpt lat="47.49683" lon="-0.58065">
        <ele>53</ele>
        <time>2015-09-01T09:16:52.000Z</time>
      </trkpt>
      <trkpt lat="47.4968" lon="-0.58063">
        <ele>53</ele>
        <time>2015-09-01T09:16:53.000Z</time>
      </trkpt>
      <trkpt lat="47.49677" lon="-0.5806">
        <ele>52</ele>
        <time>2015-09-01T09:16:54.000Z</time>
      </trkpt>
      <trkpt lat="47.49674" lon="-0.58058">
        <ele>51</ele>
        <time>2015-09-01T09:16:55.000Z</time>
      </trkpt>
      <trkpt lat="47.4967" lon="-0.58056">
        <ele>51</ele>
        <time>2015-09-01T09:16:56.000Z</time>
      </trkpt>
      <trkpt lat="47.49667" lon="-0.58055">
        <ele>50</ele>
        <time>2015-09-01T09:16:57.000Z</time>
      </trkpt>
      <trkpt lat="47.49664" lon="-0.58054">
        <ele>50</ele>
        <time>2015-09-01T09:16:58.000Z</time>
      </trkpt>
      <trkpt lat="47.49661" lon="-0.58053">
        <ele>50</ele>
        <time>2015-09-01T09:16:59.000Z</time>
      </trkpt>
      <trkpt lat="47.49657" lon="-0.58051">
        <ele>51</ele>
        <time>2015-09-01T09:17:00.000Z</time>
      </trkpt>
      <trkpt lat="47.49654" lon="-0.58049">
        <ele>51</ele>
        <time>2015-09-01T09:17:01.000Z</time>
      </trkpt>
      <trkpt lat="47.49651" lon="-0.58046">
        <ele>51</ele>
        <time>2015-09-01T09:17:02.000Z</time>
      </trkpt>
      <trkpt lat="47.49648" lon="-0.58043">
        <ele>51</ele>
        <time>2015-09-01T09:17:03.000Z</time>
      </trkpt>
      <trkpt lat="47.49646" lon="-0.5804">
        <ele>52</ele>
        <time>2015-09-01T09:17:04.000Z</time>
      </trkpt>
      <trkpt lat="47.49644" lon="-0.58036">
        <ele>52</ele>
        <time>2015-09-01T09:17:05.000Z</time>
      </trkpt>
      <trkpt lat="47.49642" lon="-0.58033">
        <ele>51</ele>
        <time>2015-09-01T09:17:06.000Z</time>
      </trkpt>
      <trkpt lat="47.4964" lon="-0.5803">
        <ele>51</ele>
        <time>2015-09-01T09:17:07.000Z</time>
      </trkpt>
      <trkpt lat="47.49637" lon="-0.58027">
        <ele>51</ele>
        <time>2015-09-01T09:17:08.000Z</time>
      </trkpt>
      <trkpt lat="47.49635" lon="-0.58024">
        <ele>51</ele>
        <time>2015-09-01T09:17:09.000Z</time>
      </trkpt>
      <trkpt lat="47.49633" lon="-0.58022">
        <ele>51</ele>
        <time>2015-09-01T09:17:10.000Z</time>
      </trkpt>
      <trkpt lat="47.4963" lon="-0.58023">
        <ele>50</ele>
        <time>2015-09-01T09:17:11.000Z</time>
      </trkpt>
      <trkpt lat="47.49628" lon="-0.58024">
        <ele>52</ele>
        <time>2015-09-01T09:17:12.000Z</time>
      </trkpt>
      <trkpt lat="47.49625" lon="-0.58026">
        <ele>52</ele>
        <time>2015-09-01T09:17:13.000Z</time>
      </trkpt>
      <trkpt lat="47.49624" lon="-0.58028">
        <ele>52</ele>
        <time>2015-09-01T09:17:14.000Z</time>
      </trkpt>
      <trkpt lat="47.49622" lon="-0.58031">
        <ele>53</ele>
        <time>2015-09-01T09:17:15.000Z</time>
      </trkpt>
      <trkpt lat="47.49621" lon="-0.58033">
        <ele>53</ele>
        <time>2015-09-01T09:17:16.000Z</time>
      </trkpt>
      <trkpt lat="47.49621" lon="-0.58036">
        <ele>53</ele>
        <time>2015-09-01T09:17:17.000Z</time>
      </trkpt>
      <trkpt lat="47.4962" lon="-0.58039">
        <ele>54</ele>
        <time>2015-09-01T09:17:18.000Z</time>
      </trkpt>
      <trkpt lat="47.49619" lon="-0.58043">
        <ele>54</ele>
        <time>2015-09-01T09:17:19.000Z</time>
      </trkpt>
      <trkpt lat="47.49618" lon="-0.58046">
        <ele>55</ele>
        <time>2015-09-01T09:17:20.000Z</time>
      </trkpt>
      <trkpt lat="47.49617" lon="-0.5805">
        <ele>55</ele>
        <time>2015-09-01T09:17:21.000Z</time>
      </trkpt>
      <trkpt lat="47.49617" lon="-0.58053">
        <ele>55</ele>
        <time>2015-09-01T09:17:22.000Z</time>
      </trkpt>
      <trkpt lat="47.49616" lon="-0.58056">
        <ele>55</ele>
        <time>2015-09-01T09:17:23.000Z</time>
      </trkpt>
      <trkpt lat="47.49615" lon="-0.5806">
        <ele>55</ele>
        <time>2015-09-01T09:17:24.000Z</time>
      </trkpt>
      <trkpt lat="47.49614" lon="-0.58064">
        <ele>55</ele>
        <time>2015-09-01T09:17:25.000Z</time>
      </trkpt>
      <trkpt lat="47.49613" lon="-0.58069">
        <ele>55</ele>
        <time>2015-09-01T09:17:26.000Z</time>
      </trkpt>
      <trkpt lat="47.49612" lon="-0.58073">
        <ele>55</ele>
        <time>2015-09-01T09:17:27.000Z</time>
      </trkpt>
      <trkpt lat="47.4961" lon="-0.58078">
        <ele>55</ele>
        <time>2015-09-01T09:17:28.000Z</time>
      </trkpt>
      <trkpt lat="47.49608" lon="-0.58082">
        <ele>55</ele>
        <time>2015-09-01T09:17:29.000Z</time>
      </trkpt>
      <trkpt lat="47.49607" lon="-0.58086">
        <ele>55</ele>
        <time>2015-09-01T09:17:30.000Z</time>
      </trkpt>
      <trkpt lat="47.49605" lon="-0.5809">
        <ele>55</ele>
        <time>2015-09-01T09:17:31.000Z</time>
      </trkpt>
      <trkpt lat="47.49604" lon="-0.58095">
        <ele>55</ele>
        <time>2015-09-01T09:17:32.000Z</time>
      </trkpt>
      <trkpt lat="47.49603" lon="-0.58099">
        <ele>55</ele>
        <time>2015-09-01T09:17:33.000Z</time>
      </trkpt>
      <trkpt lat="47.49601" lon="-0.58104">
        <ele>55</ele>
        <time>2015-09-01T09:17:34.000Z</time>
      </trkpt>
      <trkpt lat="47.496" lon="-0.58108">
        <ele>54</ele>
        <time>2015-09-01T09:17:35.000Z</time>
      </trkpt>
      <trkpt lat="47.49598" lon="-0.58113">
        <ele>54</ele>
        <time>2015-09-01T09:17:36.000Z</time>
      </trkpt>
      <trkpt lat="47.49596" lon="-0.58117">
        <ele>54</ele>
        <time>2015-09-01T09:17:37.000Z</time>
      </trkpt>
      <trkpt lat="47.49595" lon="-0.58122">
        <ele>54</ele>
        <time>2015-09-01T09:17:38.000Z</time>
      </trkpt>
      <trkpt lat="47.49593" lon="-0.58126">
        <ele>54</ele>
        <time>2015-09-01T09:17:39.000Z</time>
      </trkpt>
      <trkpt lat="47.49591" lon="-0.58129">
        <ele>53</ele>
        <time>2015-09-01T09:17:40.000Z</time>
      </trkpt>
      <trkpt lat="47.4959" lon="-0.58133">
        <ele>53</ele>
        <time>2015-09-01T09:17:41.000Z</time>
      </trkpt>
      <trkpt lat="47.49589" lon="-0.58137">
        <ele>53</ele>
        <time>2015-09-01T09:17:42.000Z</time>
      </trkpt>
      <trkpt lat="47.49588" lon="-0.58141">
        <ele>53</ele>
        <time>2015-09-01T09:17:43.000Z</time>
      </trkpt>
      <trkpt lat="47.49586" lon="-0.58146">
        <ele>50</ele>
        <time>2015-09-01T09:17:44.000Z</time>
      </trkpt>
      <trkpt lat="47.49584" lon="-0.58151">
        <ele>49</ele>
        <time>2015-09-01T09:17:45.000Z</time>
      </trkpt>
      <trkpt lat="47.49582" lon="-0.58155">
        <ele>48</ele>
        <time>2015-09-01T09:17:46.000Z</time>
      </trkpt>
      <trkpt lat="47.4958" lon="-0.5816">
        <ele>48</ele>
        <time>2015-09-01T09:17:47.000Z</time>
      </trkpt>
      <trkpt lat="47.49577" lon="-0.58164">
        <ele>48</ele>
        <time>2015-09-01T09:17:48.000Z</time>
      </trkpt>
      <trkpt lat="47.49575" lon="-0.58169">
        <ele>48</ele>
        <time>2015-09-01T09:17:49.000Z</time>
      </trkpt>
      <trkpt lat="47.49573" lon="-0.58173">
        <ele>46</ele>
        <time>2015-09-01T09:17:50.000Z</time>
      </trkpt>
      <trkpt lat="47.49572" lon="-0.58178">
        <ele>46</ele>
        <time>2015-09-01T09:17:51.000Z</time>
      </trkpt>
      <trkpt lat="47.4957" lon="-0.58182">
        <ele>41</ele>
        <time>2015-09-01T09:17:52.000Z</time>
      </trkpt>
      <trkpt lat="47.49568" lon="-0.58187">
        <ele>39</ele>
        <time>2015-09-01T09:17:53.000Z</time>
      </trkpt>
      <trkpt lat="47.49566" lon="-0.58192">
        <ele>38</ele>
        <time>2015-09-01T09:17:54.000Z</time>
      </trkpt>
      <trkpt lat="47.49564" lon="-0.58196">
        <ele>37</ele>
        <time>2015-09-01T09:17:55.000Z</time>
      </trkpt>
      <trkpt lat="47.49563" lon="-0.582">
        <ele>36</ele>
        <time>2015-09-01T09:17:56.000Z</time>
      </trkpt>
      <trkpt lat="47.49561" lon="-0.58205">
        <ele>35</ele>
        <time>2015-09-01T09:17:57.000Z</time>
      </trkpt>
      <trkpt lat="47.49559" lon="-0.58209">
        <ele>36</ele>
        <time>2015-09-01T09:17:58.000Z</time>
      </trkpt>
      <trkpt lat="47.49558" lon="-0.58213">
        <ele>38</ele>
        <time>2015-09-01T09:17:59.000Z</time>
      </trkpt>
      <trkpt lat="47.49557" lon="-0.58218">
        <ele>40</ele>
        <time>2015-09-01T09:18:00.000Z</time>
      </trkpt>
      <trkpt lat="47.49556" lon="-0.58222">
        <ele>40</ele>
        <time>2015-09-01T09:18:01.000Z</time>
      </trkpt>
      <trkpt lat="47.49554" lon="-0.58226">
        <ele>40</ele>
        <time>2015-09-01T09:18:02.000Z</time>
      </trkpt>
      <trkpt lat="47.49552" lon="-0.5823">
        <ele>40</ele>
        <time>2015-09-01T09:18:03.000Z</time>
      </trkpt>
      <trkpt lat="47.4955" lon="-0.58235">
        <ele>39</ele>
        <time>2015-09-01T09:18:04.000Z</time>
      </trkpt>
      <trkpt lat="47.49549" lon="-0.58239">
        <ele>40</ele>
        <time>2015-09-01T09:18:05.000Z</time>
      </trkpt>
      <trkpt lat="47.49547" lon="-0.58244">
        <ele>40</ele>
        <time>2015-09-01T09:18:06.000Z</time>
      </trkpt>
      <trkpt lat="47.49545" lon="-0.58248">
        <ele>41</ele>
        <time>2015-09-01T09:18:07.000Z</time>
      </trkpt>
      <trkpt lat="47.49544" lon="-0.58252">
        <ele>41</ele>
        <time>2015-09-01T09:18:08.000Z</time>
      </trkpt>
      <trkpt lat="47.49542" lon="-0.58256">
        <ele>41</ele>
        <time>2015-09-01T09:18:09.000Z</time>
      </trkpt>
      <trkpt lat="47.4954" lon="-0.58261">
        <ele>40</ele>
        <time>2015-09-01T09:18:10.000Z</time>
      </trkpt>
      <trkpt lat="47.49539" lon="-0.58265">
        <ele>40</ele>
        <time>2015-09-01T09:18:11.000Z</time>
      </trkpt>
      <trkpt lat="47.49537" lon="-0.5827">
        <ele>40</ele>
        <time>2015-09-01T09:18:12.000Z</time>
      </trkpt>
      <trkpt lat="47.49536" lon="-0.58274">
        <ele>40</ele>
        <time>2015-09-01T09:18:13.000Z</time>
      </trkpt>
      <trkpt lat="47.49534" lon="-0.58278">
        <ele>40</ele>
        <time>2015-09-01T09:18:14.000Z</time>
      </trkpt>
      <trkpt lat="47.49533" lon="-0.58283">
        <ele>39</ele>
        <time>2015-09-01T09:18:15.000Z</time>
      </trkpt>
      <trkpt lat="47.49531" lon="-0.58287">
        <ele>39</ele>
        <time>2015-09-01T09:18:16.000Z</time>
      </trkpt>
      <trkpt lat="47.49529" lon="-0.58292">
        <ele>40</ele>
        <time>2015-09-01T09:18:17.000Z</time>
      </trkpt>
      <trkpt lat="47.49528" lon="-0.58297">
        <ele>39</ele>
        <time>2015-09-01T09:18:18.000Z</time>
      </trkpt>
      <trkpt lat="47.49526" lon="-0.58301">
        <ele>41</ele>
        <time>2015-09-01T09:18:19.000Z</time>
      </trkpt>
      <trkpt lat="47.49524" lon="-0.58305">
        <ele>41</ele>
        <time>2015-09-01T09:18:20.000Z</time>
      </trkpt>
      <trkpt lat="47.49522" lon="-0.58309">
        <ele>40</ele>
        <time>2015-09-01T09:18:21.000Z</time>
      </trkpt>
      <trkpt lat="47.4952" lon="-0.58314">
        <ele>40</ele>
        <time>2015-09-01T09:18:22.000Z</time>
      </trkpt>
      <trkpt lat="47.49519" lon="-0.58318">
        <ele>40</ele>
        <time>2015-09-01T09:18:23.000Z</time>
      </trkpt>
      <trkpt lat="47.49517" lon="-0.58323">
        <ele>39</ele>
        <time>2015-09-01T09:18:24.000Z</time>
      </trkpt>
      <trkpt lat="47.49516" lon="-0.58327">
        <ele>39</ele>
        <time>2015-09-01T09:18:25.000Z</time>
      </trkpt>
      <trkpt lat="47.49514" lon="-0.58332">
        <ele>40</ele>
        <time>2015-09-01T09:18:26.000Z</time>
      </trkpt>
      <trkpt lat="47.49513" lon="-0.58336">
        <ele>39</ele>
        <time>2015-09-01T09:18:27.000Z</time>
      </trkpt>
      <trkpt lat="47.49511" lon="-0.58341">
        <ele>40</ele>
        <time>2015-09-01T09:18:28.000Z</time>
      </trkpt>
      <trkpt lat="47.4951" lon="-0.58346">
        <ele>40</ele>
        <time>2015-09-01T09:18:29.000Z</time>
      </trkpt>
      <trkpt lat="47.49508" lon="-0.58351">
        <ele>39</ele>
        <time>2015-09-01T09:18:30.000Z</time>
      </trkpt>
      <trkpt lat="47.49507" lon="-0.58356">
        <ele>38</ele>
        <time>2015-09-01T09:18:31.000Z</time>
      </trkpt>
      <trkpt lat="47.49505" lon="-0.58361">
        <ele>39</ele>
        <time>2015-09-01T09:18:32.000Z</time>
      </trkpt>
      <trkpt lat="47.49504" lon="-0.58366">
        <ele>38</ele>
        <time>2015-09-01T09:18:33.000Z</time>
      </trkpt>
      <trkpt lat="47.49502" lon="-0.58371">
        <ele>39</ele>
        <time>2015-09-01T09:18:34.000Z</time>
      </trkpt>
      <trkpt lat="47.495" lon="-0.58375">
        <ele>39</ele>
        <time>2015-09-01T09:18:35.000Z</time>
      </trkpt>
      <trkpt lat="47.49499" lon="-0.5838">
        <ele>39</ele>
        <time>2015-09-01T09:18:36.000Z</time>
      </trkpt>
      <trkpt lat="47.49497" lon="-0.58384">
        <ele>39</ele>
        <time>2015-09-01T09:18:37.000Z</time>
      </trkpt>
      <trkpt lat="47.49495" lon="-0.58388">
        <ele>40</ele>
        <time>2015-09-01T09:18:38.000Z</time>
      </trkpt>
      <trkpt lat="47.49493" lon="-0.58393">
        <ele>39</ele>
        <time>2015-09-01T09:18:39.000Z</time>
      </trkpt>
      <trkpt lat="47.49492" lon="-0.58397">
        <ele>40</ele>
        <time>2015-09-01T09:18:40.000Z</time>
      </trkpt>
      <trkpt lat="47.4949" lon="-0.58402">
        <ele>40</ele>
        <time>2015-09-01T09:18:41.000Z</time>
      </trkpt>
      <trkpt lat="47.49488" lon="-0.58406">
        <ele>40</ele>
        <time>2015-09-01T09:18:42.000Z</time>
      </trkpt>
      <trkpt lat="47.49487" lon="-0.5841">
        <ele>40</ele>
        <time>2015-09-01T09:18:43.000Z</time>
      </trkpt>
      <trkpt lat="47.49486" lon="-0.58414">
        <ele>39</ele>
        <time>2015-09-01T09:18:44.000Z</time>
      </trkpt>
      <trkpt lat="47.49484" lon="-0.58419">
        <ele>38</ele>
        <time>2015-09-01T09:18:45.000Z</time>
      </trkpt>
      <trkpt lat="47.49483" lon="-0.58423">
        <ele>37</ele>
        <time>2015-09-01T09:18:46.000Z</time>
      </trkpt>
      <trkpt lat="47.49482" lon="-0.58428">
        <ele>37</ele>
        <time>2015-09-01T09:18:47.000Z</time>
      </trkpt>
      <trkpt lat="47.4948" lon="-0.58433">
        <ele>39</ele>
        <time>2015-09-01T09:18:48.000Z</time>
      </trkpt>
      <trkpt lat="47.49478" lon="-0.58438">
        <ele>40</ele>
        <time>2015-09-01T09:18:49.000Z</time>
      </trkpt>
      <trkpt lat="47.49476" lon="-0.58442">
        <ele>40</ele>
        <time>2015-09-01T09:18:50.000Z</time>
      </trkpt>
      <trkpt lat="47.49475" lon="-0.58447">
        <ele>40</ele>
        <time>2015-09-01T09:18:51.000Z</time>
      </trkpt>
      <trkpt lat="47.49473" lon="-0.58452">
        <ele>40</ele>
        <time>2015-09-01T09:18:52.000Z</time>
      </trkpt>
      <trkpt lat="47.49472" lon="-0.58456">
        <ele>40</ele>
        <time>2015-09-01T09:18:53.000Z</time>
      </trkpt>
      <trkpt lat="47.4947" lon="-0.58461">
        <ele>40</ele>
        <time>2015-09-01T09:18:54.000Z</time>
      </trkpt>
      <trkpt lat="47.49469" lon="-0.58465">
        <ele>41</ele>
        <time>2015-09-01T09:18:55.000Z</time>
      </trkpt>
      <trkpt lat="47.49467" lon="-0.5847">
        <ele>43</ele>
        <time>2015-09-01T09:18:56.000Z</time>
      </trkpt>
      <trkpt lat="47.49465" lon="-0.58474">
        <ele>43</ele>
        <time>2015-09-01T09:18:57.000Z</time>
      </trkpt>
      <trkpt lat="47.49462" lon="-0.58478">
        <ele>43</ele>
        <time>2015-09-01T09:18:58.000Z</time>
      </trkpt>
      <trkpt lat="47.49461" lon="-0.58483">
        <ele>43</ele>
        <time>2015-09-01T09:18:59.000Z</time>
      </trkpt>
      <trkpt lat="47.49459" lon="-0.58488">
        <ele>42</ele>
        <time>2015-09-01T09:19:00.000Z</time>
      </trkpt>
      <trkpt lat="47.49457" lon="-0.58493">
        <ele>42</ele>
        <time>2015-09-01T09:19:01.000Z</time>
      </trkpt>
      <trkpt lat="47.49455" lon="-0.58498">
        <ele>42</ele>
        <time>2015-09-01T09:19:02.000Z</time>
      </trkpt>
      <trkpt lat="47.49453" lon="-0.58502">
        <ele>43</ele>
        <time>2015-09-01T09:19:03.000Z</time>
      </trkpt>
      <trkpt lat="47.49451" lon="-0.58506">
        <ele>43</ele>
        <time>2015-09-01T09:19:04.000Z</time>
      </trkpt>
      <trkpt lat="47.49449" lon="-0.5851">
        <ele>43</ele>
        <time>2015-09-01T09:19:05.000Z</time>
      </trkpt>
      <trkpt lat="47.49447" lon="-0.58515">
        <ele>44</ele>
        <time>2015-09-01T09:19:06.000Z</time>
      </trkpt>
      <trkpt lat="47.49445" lon="-0.58519">
        <ele>43</ele>
        <time>2015-09-01T09:19:07.000Z</time>
      </trkpt>
      <trkpt lat="47.49443" lon="-0.58523">
        <ele>43</ele>
        <time>2015-09-01T09:19:08.000Z</time>
      </trkpt>
      <trkpt lat="47.49442" lon="-0.58527">
        <ele>43</ele>
        <time>2015-09-01T09:19:09.000Z</time>
      </trkpt>
      <trkpt lat="47.4944" lon="-0.58532">
        <ele>42</ele>
        <time>2015-09-01T09:19:10.000Z</time>
      </trkpt>
      <trkpt lat="47.49438" lon="-0.58536">
        <ele>42</ele>
        <time>2015-09-01T09:19:11.000Z</time>
      </trkpt>
      <trkpt lat="47.49436" lon="-0.5854">
        <ele>42</ele>
        <time>2015-09-01T09:19:12.000Z</time>
      </trkpt>
      <trkpt lat="47.49434" lon="-0.58544">
        <ele>42</ele>
        <time>2015-09-01T09:19:13.000Z</time>
      </trkpt>
      <trkpt lat="47.49433" lon="-0.58549">
        <ele>42</ele>
        <time>2015-09-01T09:19:14.000Z</time>
      </trkpt>
      <trkpt lat="47.49431" lon="-0.58553">
        <ele>42</ele>
        <time>2015-09-01T09:19:15.000Z</time>
      </trkpt>
      <trkpt lat="47.49429" lon="-0.58558">
        <ele>43</ele>
        <time>2015-09-01T09:19:16.000Z</time>
      </trkpt>
      <trkpt lat="47.49427" lon="-0.58562">
        <ele>43</ele>
        <time>2015-09-01T09:19:17.000Z</time>
      </trkpt>
      <trkpt lat="47.49425" lon="-0.58567">
        <ele>42</ele>
        <time>2015-09-01T09:19:18.000Z</time>
      </trkpt>
      <trkpt lat="47.49423" lon="-0.58572">
        <ele>42</ele>
        <time>2015-09-01T09:19:19.000Z</time>
      </trkpt>
      <trkpt lat="47.49421" lon="-0.58576">
        <ele>43</ele>
        <time>2015-09-01T09:19:20.000Z</time>
      </trkpt>
      <trkpt lat="47.4942" lon="-0.58581">
        <ele>42</ele>
        <time>2015-09-01T09:19:21.000Z</time>
      </trkpt>
      <trkpt lat="47.49418" lon="-0.58585">
        <ele>42</ele>
        <time>2015-09-01T09:19:22.000Z</time>
      </trkpt>
      <trkpt lat="47.49417" lon="-0.5859">
        <ele>42</ele>
        <time>2015-09-01T09:19:23.000Z</time>
      </trkpt>
      <trkpt lat="47.49415" lon="-0.58595">
        <ele>42</ele>
        <time>2015-09-01T09:19:24.000Z</time>
      </trkpt>
      <trkpt lat="47.49414" lon="-0.586">
        <ele>44</ele>
        <time>2015-09-01T09:19:25.000Z</time>
      </trkpt>
      <trkpt lat="47.49412" lon="-0.58604">
        <ele>44</ele>
        <time>2015-09-01T09:19:26.000Z</time>
      </trkpt>
      <trkpt lat="47.49411" lon="-0.58609">
        <ele>45</ele>
        <time>2015-09-01T09:19:27.000Z</time>
      </trkpt>
      <trkpt lat="47.49409" lon="-0.58613">
        <ele>45</ele>
        <time>2015-09-01T09:19:28.000Z</time>
      </trkpt>
      <trkpt lat="47.49407" lon="-0.58618">
        <ele>45</ele>
        <time>2015-09-01T09:19:29.000Z</time>
      </trkpt>
      <trkpt lat="47.49405" lon="-0.58622">
        <ele>44</ele>
        <time>2015-09-01T09:19:30.000Z</time>
      </trkpt>
      <trkpt lat="47.49403" lon="-0.58626">
        <ele>43</ele>
        <time>2015-09-01T09:19:31.000Z</time>
      </trkpt>
      <trkpt lat="47.49401" lon="-0.5863">
        <ele>41</ele>
        <time>2015-09-01T09:19:32.000Z</time>
      </trkpt>
      <trkpt lat="47.49398" lon="-0.58633">
        <ele>41</ele>
        <time>2015-09-01T09:19:33.000Z</time>
      </trkpt>
      <trkpt lat="47.49396" lon="-0.58637">
        <ele>41</ele>
        <time>2015-09-01T09:19:34.000Z</time>
      </trkpt>
      <trkpt lat="47.49394" lon="-0.58641">
        <ele>43</ele>
        <time>2015-09-01T09:19:35.000Z</time>
      </trkpt>
      <trkpt lat="47.49391" lon="-0.58645">
        <ele>42</ele>
        <time>2015-09-01T09:19:36.000Z</time>
      </trkpt>
      <trkpt lat="47.49388" lon="-0.58649">
        <ele>43</ele>
        <time>2015-09-01T09:19:37.000Z</time>
      </trkpt>
      <trkpt lat="47.49386" lon="-0.58653">
        <ele>41</ele>
        <time>2015-09-01T09:19:38.000Z</time>
      </trkpt>
      <trkpt lat="47.49384" lon="-0.58657">
        <ele>41</ele>
        <time>2015-09-01T09:19:39.000Z</time>
      </trkpt>
      <trkpt lat="47.49383" lon="-0.58661">
        <ele>41</ele>
        <time>2015-09-01T09:19:40.000Z</time>
      </trkpt>
      <trkpt lat="47.49381" lon="-0.58665">
        <ele>41</ele>
        <time>2015-09-01T09:19:41.000Z</time>
      </trkpt>
      <trkpt lat="47.49379" lon="-0.5867">
        <ele>40</ele>
        <time>2015-09-01T09:19:42.000Z</time>
      </trkpt>
      <trkpt lat="47.49377" lon="-0.58675">
        <ele>40</ele>
        <time>2015-09-01T09:19:43.000Z</time>
      </trkpt>
      <trkpt lat="47.49375" lon="-0.58679">
        <ele>39</ele>
        <time>2015-09-01T09:19:44.000Z</time>
      </trkpt>
      <trkpt lat="47.49373" lon="-0.58683">
        <ele>38</ele>
        <time>2015-09-01T09:19:45.000Z</time>
      </trkpt>
      <trkpt lat="47.49371" lon="-0.58687">
        <ele>38</ele>
        <time>2015-09-01T09:19:46.000Z</time>
      </trkpt>
      <trkpt lat="47.4937" lon="-0.58691">
        <ele>36</ele>
        <time>2015-09-01T09:19:47.000Z</time>
      </trkpt>
      <trkpt lat="47.49369" lon="-0.58696">
        <ele>35</ele>
        <time>2015-09-01T09:19:48.000Z</time>
      </trkpt>
      <trkpt lat="47.49367" lon="-0.587">
        <ele>35</ele>
        <time>2015-09-01T09:19:49.000Z</time>
      </trkpt>
      <trkpt lat="47.49366" lon="-0.58704">
        <ele>34</ele>
        <time>2015-09-01T09:19:50.000Z</time>
      </trkpt>
      <trkpt lat="47.49364" lon="-0.58708">
        <ele>32</ele>
        <time>2015-09-01T09:19:51.000Z</time>
      </trkpt>
      <trkpt lat="47.49362" lon="-0.58712">
        <ele>31</ele>
        <time>2015-09-01T09:19:52.000Z</time>
      </trkpt>
      <trkpt lat="47.4936" lon="-0.58717">
        <ele>28</ele>
        <time>2015-09-01T09:19:53.000Z</time>
      </trkpt>
      <trkpt lat="47.49358" lon="-0.58721">
        <ele>28</ele>
        <time>2015-09-01T09:19:54.000Z</time>
      </trkpt>
      <trkpt lat="47.49357" lon="-0.58727">
        <ele>27</ele>
        <time>2015-09-01T09:19:55.000Z</time>
      </trkpt>
      <trkpt lat="47.49356" lon="-0.58732">
        <ele>26</ele>
        <time>2015-09-01T09:19:56.000Z</time>
      </trkpt>
      <trkpt lat="47.49355" lon="-0.58737">
        <ele>26</ele>
        <time>2015-09-01T09:19:57.000Z</time>
      </trkpt>
      <trkpt lat="47.49354" lon="-0.58741">
        <ele>26</ele>
        <time>2015-09-01T09:19:58.000Z</time>
      </trkpt>
      <trkpt lat="47.49353" lon="-0.58746">
        <ele>27</ele>
        <time>2015-09-01T09:19:59.000Z</time>
      </trkpt>
      <trkpt lat="47.49352" lon="-0.58751">
        <ele>26</ele>
        <time>2015-09-01T09:20:00.000Z</time>
      </trkpt>
      <trkpt lat="47.49351" lon="-0.58755">
        <ele>26</ele>
        <time>2015-09-01T09:20:01.000Z</time>
      </trkpt>
      <trkpt lat="47.49351" lon="-0.5876">
        <ele>26</ele>
        <time>2015-09-01T09:20:02.000Z</time>
      </trkpt>
      <trkpt lat="47.49351" lon="-0.58764">
        <ele>25</ele>
        <time>2015-09-01T09:20:03.000Z</time>
      </trkpt>
      <trkpt lat="47.4935" lon="-0.58768">
        <ele>25</ele>
        <time>2015-09-01T09:20:04.000Z</time>
      </trkpt>
      <trkpt lat="47.49348" lon="-0.58771">
        <ele>23</ele>
        <time>2015-09-01T09:20:05.000Z</time>
      </trkpt>
      <trkpt lat="47.49345" lon="-0.58773">
        <ele>23</ele>
        <time>2015-09-01T09:20:06.000Z</time>
      </trkpt>
      <trkpt lat="47.49341" lon="-0.58775">
        <ele>24</ele>
        <time>2015-09-01T09:20:07.000Z</time>
      </trkpt>
      <trkpt lat="47.49338" lon="-0.58778">
        <ele>24</ele>
        <time>2015-09-01T09:20:08.000Z</time>
      </trkpt>
      <trkpt lat="47.49336" lon="-0.58781">
        <ele>24</ele>
        <time>2015-09-01T09:20:09.000Z</time>
      </trkpt>
      <trkpt lat="47.49335" lon="-0.58785">
        <ele>24</ele>
        <time>2015-09-01T09:20:10.000Z</time>
      </trkpt>
      <trkpt lat="47.49333" lon="-0.5879">
        <ele>24</ele>
        <time>2015-09-01T09:20:11.000Z</time>
      </trkpt>
      <trkpt lat="47.49332" lon="-0.58794">
        <ele>24</ele>
        <time>2015-09-01T09:20:12.000Z</time>
      </trkpt>
      <trkpt lat="47.4933" lon="-0.58799">
        <ele>25</ele>
        <time>2015-09-01T09:20:13.000Z</time>
      </trkpt>
      <trkpt lat="47.49328" lon="-0.58802">
        <ele>25</ele>
        <time>2015-09-01T09:20:14.000Z</time>
      </trkpt>
      <trkpt lat="47.49326" lon="-0.58806">
        <ele>26</ele>
        <time>2015-09-01T09:20:15.000Z</time>
      </trkpt>
      <trkpt lat="47.49324" lon="-0.58809">
        <ele>26</ele>
        <time>2015-09-01T09:20:16.000Z</time>
      </trkpt>
      <trkpt lat="47.49322" lon="-0.58813">
        <ele>26</ele>
        <time>2015-09-01T09:20:17.000Z</time>
      </trkpt>
      <trkpt lat="47.49319" lon="-0.58817">
        <ele>26</ele>
        <time>2015-09-01T09:20:18.000Z</time>
      </trkpt>
      <trkpt lat="47.49317" lon="-0.58821">
        <ele>26</ele>
        <time>2015-09-01T09:20:19.000Z</time>
      </trkpt>
      <trkpt lat="47.49315" lon="-0.58825">
        <ele>27</ele>
        <time>2015-09-01T09:20:20.000Z</time>
      </trkpt>
      <trkpt lat="47.49313" lon="-0.58828">
        <ele>26</ele>
        <time>2015-09-01T09:20:21.000Z</time>
      </trkpt>
      <trkpt lat="47.49311" lon="-0.58833">
        <ele>25</ele>
        <time>2015-09-01T09:20:22.000Z</time>
      </trkpt>
      <trkpt lat="47.49309" lon="-0.58837">
        <ele>23</ele>
        <time>2015-09-01T09:20:23.000Z</time>
      </trkpt>
      <trkpt lat="47.49308" lon="-0.58841">
        <ele>21</ele>
        <time>2015-09-01T09:20:24.000Z</time>
      </trkpt>
      <trkpt lat="47.49306" lon="-0.58845">
        <ele>20</ele>
        <time>2015-09-01T09:20:25.000Z</time>
      </trkpt>
      <trkpt lat="47.49304" lon="-0.58848">
        <ele>20</ele>
        <time>2015-09-01T09:20:26.000Z</time>
      </trkpt>
      <trkpt lat="47.49302" lon="-0.58851">
        <ele>20</ele>
        <time>2015-09-01T09:20:27.000Z</time>
      </trkpt>
      <trkpt lat="47.493" lon="-0.58853">
        <ele>20</ele>
        <time>2015-09-01T09:20:28.000Z</time>
      </trkpt>
      <trkpt lat="47.49298" lon="-0.58856">
        <ele>20</ele>
        <time>2015-09-01T09:20:29.000Z</time>
      </trkpt>
      <trkpt lat="47.49295" lon="-0.58858">
        <ele>21</ele>
        <time>2015-09-01T09:20:30.000Z</time>
      </trkpt>
      <trkpt lat="47.49293" lon="-0.58861">
        <ele>20</ele>
        <time>2015-09-01T09:20:31.000Z</time>
      </trkpt>
      <trkpt lat="47.4929" lon="-0.58864">
        <ele>21</ele>
        <time>2015-09-01T09:20:32.000Z</time>
      </trkpt>
      <trkpt lat="47.49287" lon="-0.58867">
        <ele>22</ele>
        <time>2015-09-01T09:20:33.000Z</time>
      </trkpt>
      <trkpt lat="47.49284" lon="-0.5887">
        <ele>23</ele>
        <time>2015-09-01T09:20:34.000Z</time>
      </trkpt>
      <trkpt lat="47.49281" lon="-0.58872">
        <ele>24</ele>
        <time>2015-09-01T09:20:35.000Z</time>
      </trkpt>
      <trkpt lat="47.49277" lon="-0.58873">
        <ele>24</ele>
        <time>2015-09-01T09:20:36.000Z</time>
      </trkpt>
      <trkpt lat="47.49274" lon="-0.58873">
        <ele>24</ele>
        <time>2015-09-01T09:20:37.000Z</time>
      </trkpt>
      <trkpt lat="47.49271" lon="-0.58872">
        <ele>24</ele>
        <time>2015-09-01T09:20:38.000Z</time>
      </trkpt>
      <trkpt lat="47.49268" lon="-0.58871">
        <ele>24</ele>
        <time>2015-09-01T09:20:39.000Z</time>
      </trkpt>
      <trkpt lat="47.49265" lon="-0.5887">
        <ele>23</ele>
        <time>2015-09-01T09:20:40.000Z</time>
      </trkpt>
      <trkpt lat="47.49262" lon="-0.58869">
        <ele>23</ele>
        <time>2015-09-01T09:20:41.000Z</time>
      </trkpt>
      <trkpt lat="47.4926" lon="-0.58867">
        <ele>23</ele>
        <time>2015-09-01T09:20:42.000Z</time>
      </trkpt>
      <trkpt lat="47.49258" lon="-0.58866">
        <ele>23</ele>
        <time>2015-09-01T09:20:43.000Z</time>
      </trkpt>
      <trkpt lat="47.49256" lon="-0.58863">
        <ele>23</ele>
        <time>2015-09-01T09:20:44.000Z</time>
      </trkpt>
      <trkpt lat="47.49254" lon="-0.58861">
        <ele>24</ele>
        <time>2015-09-01T09:20:45.000Z</time>
      </trkpt>
      <trkpt lat="47.49253" lon="-0.58858">
        <ele>23</ele>
        <time>2015-09-01T09:20:46.000Z</time>
      </trkpt>
      <trkpt lat="47.49251" lon="-0.58856">
        <ele>24</ele>
        <time>2015-09-01T09:20:47.000Z</time>
      </trkpt>
      <trkpt lat="47.49249" lon="-0.58852">
        <ele>25</ele>
        <time>2015-09-01T09:20:48.000Z</time>
      </trkpt>
      <trkpt lat="47.49247" lon="-0.58849">
        <ele>25</ele>
        <time>2015-09-01T09:20:49.000Z</time>
      </trkpt>
      <trkpt lat="47.49245" lon="-0.58845">
        <ele>25</ele>
        <time>2015-09-01T09:20:50.000Z</time>
      </trkpt>
      <trkpt lat="47.49242" lon="-0.58841">
        <ele>25</ele>
        <time>2015-09-01T09:20:51.000Z</time>
      </trkpt>
      <trkpt lat="47.4924" lon="-0.58837">
        <ele>25</ele>
        <time>2015-09-01T09:20:52.000Z</time>
      </trkpt>
      <trkpt lat="47.49237" lon="-0.58834">
        <ele>26</ele>
        <time>2015-09-01T09:20:53.000Z</time>
      </trkpt>
      <trkpt lat="47.49235" lon="-0.5883">
        <ele>27</ele>
        <time>2015-09-01T09:20:54.000Z</time>
      </trkpt>
      <trkpt lat="47.49232" lon="-0.58827">
        <ele>30</ele>
        <time>2015-09-01T09:20:55.000Z</time>
      </trkpt>
      <trkpt lat="47.49228" lon="-0.58824">
        <ele>34</ele>
        <time>2015-09-01T09:20:56.000Z</time>
      </trkpt>
      <trkpt lat="47.49224" lon="-0.58822">
        <ele>35</ele>
        <time>2015-09-01T09:20:57.000Z</time>
      </trkpt>
      <trkpt lat="47.49221" lon="-0.58821">
        <ele>35</ele>
        <time>2015-09-01T09:20:58.000Z</time>
      </trkpt>
      <trkpt lat="47.49217" lon="-0.5882">
        <ele>35</ele>
        <time>2015-09-01T09:20:59.000Z</time>
      </trkpt>
      <trkpt lat="47.49214" lon="-0.5882">
        <ele>35</ele>
        <time>2015-09-01T09:21:00.000Z</time>
      </trkpt>
      <trkpt lat="47.49211" lon="-0.58819">
        <ele>36</ele>
        <time>2015-09-01T09:21:01.000Z</time>
      </trkpt>
      <trkpt lat="47.49208" lon="-0.58816">
        <ele>37</ele>
        <time>2015-09-01T09:21:02.000Z</time>
      </trkpt>
      <trkpt lat="47.49204" lon="-0.58813">
        <ele>38</ele>
        <time>2015-09-01T09:21:03.000Z</time>
      </trkpt>
      <trkpt lat="47.49201" lon="-0.58809">
        <ele>39</ele>
        <time>2015-09-01T09:21:04.000Z</time>
      </trkpt>
      <trkpt lat="47.49198" lon="-0.58806">
        <ele>39</ele>
        <time>2015-09-01T09:21:05.000Z</time>
      </trkpt>
      <trkpt lat="47.49195" lon="-0.58803">
        <ele>40</ele>
        <time>2015-09-01T09:21:06.000Z</time>
      </trkpt>
      <trkpt lat="47.49193" lon="-0.588">
        <ele>40</ele>
        <time>2015-09-01T09:21:07.000Z</time>
      </trkpt>
      <trkpt lat="47.4919" lon="-0.58797">
        <ele>39</ele>
        <time>2015-09-01T09:21:08.000Z</time>
      </trkpt>
      <trkpt lat="47.49187" lon="-0.58794">
        <ele>40</ele>
        <time>2015-09-01T09:21:09.000Z</time>
      </trkpt>
      <trkpt lat="47.49184" lon="-0.58791">
        <ele>40</ele>
        <time>2015-09-01T09:21:10.000Z</time>
      </trkpt>
      <trkpt lat="47.49181" lon="-0.58788">
        <ele>40</ele>
        <time>2015-09-01T09:21:11.000Z</time>
      </trkpt>
      <trkpt lat="47.49178" lon="-0.58786">
        <ele>40</ele>
        <time>2015-09-01T09:21:12.000Z</time>
      </trkpt>
      <trkpt lat="47.49176" lon="-0.58784">
        <ele>39</ele>
        <time>2015-09-01T09:21:13.000Z</time>
      </trkpt>
      <trkpt lat="47.49173" lon="-0.58782">
        <ele>40</ele>
        <time>2015-09-01T09:21:14.000Z</time>
      </trkpt>
      <trkpt lat="47.4917" lon="-0.58779">
        <ele>40</ele>
        <time>2015-09-01T09:21:15.000Z</time>
      </trkpt>
      <trkpt lat="47.49168" lon="-0.58777">
        <ele>40</ele>
        <time>2015-09-01T09:21:16.000Z</time>
      </trkpt>
      <trkpt lat="47.49165" lon="-0.58775">
        <ele>40</ele>
        <time>2015-09-01T09:21:17.000Z</time>
      </trkpt>
      <trkpt lat="47.49162" lon="-0.58773">
        <ele>40</ele>
        <time>2015-09-01T09:21:18.000Z</time>
      </trkpt>
      <trkpt lat="47.49159" lon="-0.5877">
        <ele>40</ele>
        <time>2015-09-01T09:21:19.000Z</time>
      </trkpt>
      <trkpt lat="47.49156" lon="-0.58768">
        <ele>40</ele>
        <time>2015-09-01T09:21:20.000Z</time>
      </trkpt>
      <trkpt lat="47.49153" lon="-0.58765">
        <ele>39</ele>
        <time>2015-09-01T09:21:21.000Z</time>
      </trkpt>
      <trkpt lat="47.49151" lon="-0.58762">
        <ele>38</ele>
        <time>2015-09-01T09:21:22.000Z</time>
      </trkpt>
      <trkpt lat="47.49148" lon="-0.58759">
        <ele>38</ele>
        <time>2015-09-01T09:21:23.000Z</time>
      </trkpt>
      <trkpt lat="47.49145" lon="-0.58755">
        <ele>38</ele>
        <time>2015-09-01T09:21:24.000Z</time>
      </trkpt>
      <trkpt lat="47.49143" lon="-0.58751">
        <ele>39</ele>
        <time>2015-09-01T09:21:25.000Z</time>
      </trkpt>
      <trkpt lat="47.49141" lon="-0.58747">
        <ele>38</ele>
        <time>2015-09-01T09:21:26.000Z</time>
      </trkpt>
      <trkpt lat="47.49139" lon="-0.58743">
        <ele>38</ele>
        <time>2015-09-01T09:21:27.000Z</time>
      </trkpt>
      <trkpt lat="47.49137" lon="-0.58738">
        <ele>38</ele>
        <time>2015-09-01T09:21:28.000Z</time>
      </trkpt>
      <trkpt lat="47.49135" lon="-0.58734">
        <ele>38</ele>
        <time>2015-09-01T09:21:29.000Z</time>
      </trkpt>
      <trkpt lat="47.49133" lon="-0.5873">
        <ele>38</ele>
        <time>2015-09-01T09:21:30.000Z</time>
      </trkpt>
      <trkpt lat="47.49132" lon="-0.58726">
        <ele>37</ele>
        <time>2015-09-01T09:21:31.000Z</time>
      </trkpt>
      <trkpt lat="47.4913" lon="-0.58722">
        <ele>37</ele>
        <time>2015-09-01T09:21:32.000Z</time>
      </trkpt>
      <trkpt lat="47.49128" lon="-0.58719">
        <ele>37</ele>
        <time>2015-09-01T09:21:33.000Z</time>
      </trkpt>
      <trkpt lat="47.49126" lon="-0.58715">
        <ele>37</ele>
        <time>2015-09-01T09:21:34.000Z</time>
      </trkpt>
      <trkpt lat="47.49123" lon="-0.58711">
        <ele>38</ele>
        <time>2015-09-01T09:21:35.000Z</time>
      </trkpt>
      <trkpt lat="47.49121" lon="-0.58708">
        <ele>38</ele>
        <time>2015-09-01T09:21:36.000Z</time>
      </trkpt>
      <trkpt lat="47.49119" lon="-0.58704">
        <ele>38</ele>
        <time>2015-09-01T09:21:37.000Z</time>
      </trkpt>
      <trkpt lat="47.49117" lon="-0.587">
        <ele>38</ele>
        <time>2015-09-01T09:21:38.000Z</time>
      </trkpt>
      <trkpt lat="47.49115" lon="-0.58696">
        <ele>38</ele>
        <time>2015-09-01T09:21:39.000Z</time>
      </trkpt>
      <trkpt lat="47.49114" lon="-0.58692">
        <ele>38</ele>
        <time>2015-09-01T09:21:40.000Z</time>
      </trkpt>
      <trkpt lat="47.49113" lon="-0.58687">
        <ele>38</ele>
        <time>2015-09-01T09:21:41.000Z</time>
      </trkpt>
      <trkpt lat="47.49112" lon="-0.58683">
        <ele>38</ele>
        <time>2015-09-01T09:21:42.000Z</time>
      </trkpt>
      <trkpt lat="47.4911" lon="-0.58678">
        <ele>39</ele>
        <time>2015-09-01T09:21:43.000Z</time>
      </trkpt>
      <trkpt lat="47.49109" lon="-0.58674">
        <ele>39</ele>
        <time>2015-09-01T09:21:44.000Z</time>
      </trkpt>
      <trkpt lat="47.49108" lon="-0.58669">
        <ele>39</ele>
        <time>2015-09-01T09:21:45.000Z</time>
      </trkpt>
      <trkpt lat="47.49107" lon="-0.58665">
        <ele>38</ele>
        <time>2015-09-01T09:21:46.000Z</time>
      </trkpt>
      <trkpt lat="47.49106" lon="-0.5866">
        <ele>39</ele>
        <time>2015-09-01T09:21:47.000Z</time>
      </trkpt>
      <trkpt lat="47.49105" lon="-0.58656">
        <ele>39</ele>
        <time>2015-09-01T09:21:48.000Z</time>
      </trkpt>
      <trkpt lat="47.49104" lon="-0.58651">
        <ele>39</ele>
        <time>2015-09-01T09:21:49.000Z</time>
      </trkpt>
      <trkpt lat="47.49103" lon="-0.58646">
        <ele>39</ele>
        <time>2015-09-01T09:21:50.000Z</time>
      </trkpt>
      <trkpt lat="47.49102" lon="-0.58642">
        <ele>39</ele>
        <time>2015-09-01T09:21:51.000Z</time>
      </trkpt>
      <trkpt lat="47.49101" lon="-0.58637">
        <ele>40</ele>
        <time>2015-09-01T09:21:52.000Z</time>
      </trkpt>
      <trkpt lat="47.49099" lon="-0.58633">
        <ele>39</ele>
        <time>2015-09-01T09:21:53.000Z</time>
      </trkpt>
      <trkpt lat="47.49098" lon="-0.58628">
        <ele>39</ele>
        <time>2015-09-01T09:21:54.000Z</time>
      </trkpt>
      <trkpt lat="47.49096" lon="-0.58623">
        <ele>39</ele>
        <time>2015-09-01T09:21:55.000Z</time>
      </trkpt>
      <trkpt lat="47.49095" lon="-0.58619">
        <ele>39</ele>
        <time>2015-09-01T09:21:56.000Z</time>
      </trkpt>
      <trkpt lat="47.49094" lon="-0.58614">
        <ele>40</ele>
        <time>2015-09-01T09:21:57.000Z</time>
      </trkpt>
      <trkpt lat="47.49093" lon="-0.5861">
        <ele>40</ele>
        <time>2015-09-01T09:21:58.000Z</time>
      </trkpt>
      <trkpt lat="47.49091" lon="-0.58605">
        <ele>41</ele>
        <time>2015-09-01T09:21:59.000Z</time>
      </trkpt>
      <trkpt lat="47.4909" lon="-0.58601">
        <ele>41</ele>
        <time>2015-09-01T09:22:00.000Z</time>
      </trkpt>
      <trkpt lat="47.49088" lon="-0.58597">
        <ele>41</ele>
        <time>2015-09-01T09:22:01.000Z</time>
      </trkpt>
      <trkpt lat="47.49087" lon="-0.58592">
        <ele>41</ele>
        <time>2015-09-01T09:22:02.000Z</time>
      </trkpt>
      <trkpt lat="47.49085" lon="-0.58588">
        <ele>41</ele>
        <time>2015-09-01T09:22:03.000Z</time>
      </trkpt>
      <trkpt lat="47.49083" lon="-0.58584">
        <ele>41</ele>
        <time>2015-09-01T09:22:04.000Z</time>
      </trkpt>
      <trkpt lat="47.4908" lon="-0.58581">
        <ele>42</ele>
        <time>2015-09-01T09:22:05.000Z</time>
      </trkpt>
      <trkpt lat="47.49078" lon="-0.58577">
        <ele>41</ele>
        <time>2015-09-01T09:22:06.000Z</time>
      </trkpt>
      <trkpt lat="47.49075" lon="-0.58574">
        <ele>41</ele>
        <time>2015-09-01T09:22:07.000Z</time>
      </trkpt>
      <trkpt lat="47.49073" lon="-0.58571">
        <ele>41</ele>
        <time>2015-09-01T09:22:08.000Z</time>
      </trkpt>
      <trkpt lat="47.4907" lon="-0.58568">
        <ele>41</ele>
        <time>2015-09-01T09:22:09.000Z</time>
      </trkpt>
      <trkpt lat="47.49068" lon="-0.58566">
        <ele>40</ele>
        <time>2015-09-01T09:22:10.000Z</time>
      </trkpt>
      <trkpt lat="47.49065" lon="-0.58563">
        <ele>40</ele>
        <time>2015-09-01T09:22:11.000Z</time>
      </trkpt>
      <trkpt lat="47.49063" lon="-0.58561">
        <ele>40</ele>
        <time>2015-09-01T09:22:12.000Z</time>
      </trkpt>
      <trkpt lat="47.4906" lon="-0.58558">
        <ele>40</ele>
        <time>2015-09-01T09:22:13.000Z</time>
      </trkpt>
      <trkpt lat="47.49058" lon="-0.58556">
        <ele>41</ele>
        <time>2015-09-01T09:22:14.000Z</time>
      </trkpt>
      <trkpt lat="47.49055" lon="-0.58553">
        <ele>41</ele>
        <time>2015-09-01T09:22:15.000Z</time>
      </trkpt>
      <trkpt lat="47.49053" lon="-0.58552">
        <ele>41</ele>
        <time>2015-09-01T09:22:16.000Z</time>
      </trkpt>
      <trkpt lat="47.49049" lon="-0.5855">
        <ele>41</ele>
        <time>2015-09-01T09:22:17.000Z</time>
      </trkpt>
      <trkpt lat="47.49046" lon="-0.58549">
        <ele>41</ele>
        <time>2015-09-01T09:22:18.000Z</time>
      </trkpt>
      <trkpt lat="47.49043" lon="-0.58548">
        <ele>41</ele>
        <time>2015-09-01T09:22:19.000Z</time>
      </trkpt>
      <trkpt lat="47.4904" lon="-0.58548">
        <ele>42</ele>
        <time>2015-09-01T09:22:20.000Z</time>
      </trkpt>
      <trkpt lat="47.49037" lon="-0.58547">
        <ele>42</ele>
        <time>2015-09-01T09:22:21.000Z</time>
      </trkpt>
      <trkpt lat="47.49034" lon="-0.58547">
        <ele>41</ele>
        <time>2015-09-01T09:22:22.000Z</time>
      </trkpt>
      <trkpt lat="47.49031" lon="-0.58547">
        <ele>41</ele>
        <time>2015-09-01T09:22:23.000Z</time>
      </trkpt>
      <trkpt lat="47.49028" lon="-0.58546">
        <ele>41</ele>
        <time>2015-09-01T09:22:24.000Z</time>
      </trkpt>
      <trkpt lat="47.49025" lon="-0.58545">
        <ele>40</ele>
        <time>2015-09-01T09:22:25.000Z</time>
      </trkpt>
      <trkpt lat="47.49023" lon="-0.58542">
        <ele>40</ele>
        <time>2015-09-01T09:22:26.000Z</time>
      </trkpt>
      <trkpt lat="47.4902" lon="-0.58539">
        <ele>41</ele>
        <time>2015-09-01T09:22:27.000Z</time>
      </trkpt>
      <trkpt lat="47.49018" lon="-0.58535">
        <ele>42</ele>
        <time>2015-09-01T09:22:28.000Z</time>
      </trkpt>
      <trkpt lat="47.49015" lon="-0.58531">
        <ele>42</ele>
        <time>2015-09-01T09:22:29.000Z</time>
      </trkpt>
      <trkpt lat="47.49013" lon="-0.58526">
        <ele>42</ele>
        <time>2015-09-01T09:22:30.000Z</time>
      </trkpt>
      <trkpt lat="47.49012" lon="-0.58522">
        <ele>42</ele>
        <time>2015-09-01T09:22:31.000Z</time>
      </trkpt>
      <trkpt lat="47.4901" lon="-0.58518">
        <ele>42</ele>
        <time>2015-09-01T09:22:32.000Z</time>
      </trkpt>
      <trkpt lat="47.49009" lon="-0.58514">
        <ele>42</ele>
        <time>2015-09-01T09:22:33.000Z</time>
      </trkpt>
      <trkpt lat="47.49009" lon="-0.5851">
        <ele>43</ele>
        <time>2015-09-01T09:22:34.000Z</time>
      </trkpt>
      <trkpt lat="47.49008" lon="-0.58505">
        <ele>43</ele>
        <time>2015-09-01T09:22:35.000Z</time>
      </trkpt>
      <trkpt lat="47.49008" lon="-0.58501">
        <ele>42</ele>
        <time>2015-09-01T09:22:36.000Z</time>
      </trkpt>
      <trkpt lat="47.49008" lon="-0.58496">
        <ele>42</ele>
        <time>2015-09-01T09:22:37.000Z</time>
      </trkpt>
      <trkpt lat="47.49008" lon="-0.58492">
        <ele>42</ele>
        <time>2015-09-01T09:22:38.000Z</time>
      </trkpt>
      <trkpt lat="47.49008" lon="-0.58487">
        <ele>42</ele>
        <time>2015-09-01T09:22:39.000Z</time>
      </trkpt>
      <trkpt lat="47.49008" lon="-0.58483">
        <ele>42</ele>
        <time>2015-09-01T09:22:40.000Z</time>
      </trkpt>
      <trkpt lat="47.49008" lon="-0.58478">
        <ele>41</ele>
        <time>2015-09-01T09:22:41.000Z</time>
      </trkpt>
      <trkpt lat="47.49008" lon="-0.58474">
        <ele>42</ele>
        <time>2015-09-01T09:22:42.000Z</time>
      </trkpt>
      <trkpt lat="47.49008" lon="-0.5847">
        <ele>42</ele>
        <time>2015-09-01T09:22:43.000Z</time>
      </trkpt>
      <trkpt lat="47.49008" lon="-0.58465">
        <ele>42</ele>
        <time>2015-09-01T09:22:44.000Z</time>
      </trkpt>
      <trkpt lat="47.49008" lon="-0.58461">
        <ele>42</ele>
        <time>2015-09-01T09:22:45.000Z</time>
      </trkpt>
      <trkpt lat="47.49008" lon="-0.58457">
        <ele>43</ele>
        <time>2015-09-01T09:22:46.000Z</time>
      </trkpt>
      <trkpt lat="47.49008" lon="-0.58452">
        <ele>43</ele>
        <time>2015-09-01T09:22:47.000Z</time>
      </trkpt>
      <trkpt lat="47.49008" lon="-0.58448">
        <ele>43</ele>
        <time>2015-09-01T09:22:48.000Z</time>
      </trkpt>
      <trkpt lat="47.49008" lon="-0.58444">
        <ele>43</ele>
        <time>2015-09-01T09:22:49.000Z</time>
      </trkpt>
      <trkpt lat="47.49008" lon="-0.58439">
        <ele>44</ele>
        <time>2015-09-01T09:22:50.000Z</time>
      </trkpt>
      <trkpt lat="47.49008" lon="-0.58435">
        <ele>44</ele>
        <time>2015-09-01T09:22:51.000Z</time>
      </trkpt>
      <trkpt lat="47.49008" lon="-0.5843">
        <ele>44</ele>
        <time>2015-09-01T09:22:52.000Z</time>
      </trkpt>
      <trkpt lat="47.49008" lon="-0.58426">
        <ele>44</ele>
        <time>2015-09-01T09:22:53.000Z</time>
      </trkpt>
      <trkpt lat="47.49008" lon="-0.58422">
        <ele>44</ele>
        <time>2015-09-01T09:22:54.000Z</time>
      </trkpt>
      <trkpt lat="47.49008" lon="-0.58418">
        <ele>44</ele>
        <time>2015-09-01T09:22:55.000Z</time>
      </trkpt>
      <trkpt lat="47.49008" lon="-0.58413">
        <ele>44</ele>
        <time>2015-09-01T09:22:56.000Z</time>
      </trkpt>
      <trkpt lat="47.49008" lon="-0.5841">
        <ele>44</ele>
        <time>2015-09-01T09:22:57.000Z</time>
      </trkpt>
      <trkpt lat="47.49008" lon="-0.58405">
        <ele>44</ele>
        <time>2015-09-01T09:22:58.000Z</time>
      </trkpt>
      <trkpt lat="47.49008" lon="-0.58401">
        <ele>44</ele>
        <time>2015-09-01T09:22:59.000Z</time>
      </trkpt>
      <trkpt lat="47.49007" lon="-0.58397">
        <ele>44</ele>
        <time>2015-09-01T09:23:00.000Z</time>
      </trkpt>
      <trkpt lat="47.49007" lon="-0.58393">
        <ele>44</ele>
        <time>2015-09-01T09:23:01.000Z</time>
      </trkpt>
      <trkpt lat="47.49007" lon="-0.58388">
        <ele>44</ele>
        <time>2015-09-01T09:23:02.000Z</time>
      </trkpt>
      <trkpt lat="47.49007" lon="-0.58384">
        <ele>44</ele>
        <time>2015-09-01T09:23:03.000Z</time>
      </trkpt>
      <trkpt lat="47.49007" lon="-0.5838">
        <ele>45</ele>
        <time>2015-09-01T09:23:04.000Z</time>
      </trkpt>
      <trkpt lat="47.49007" lon="-0.58376">
        <ele>45</ele>
        <time>2015-09-01T09:23:05.000Z</time>
      </trkpt>
      <trkpt lat="47.49007" lon="-0.58373">
        <ele>45</ele>
        <time>2015-09-01T09:23:06.000Z</time>
      </trkpt>
      <trkpt lat="47.49006" lon="-0.58371">
        <ele>45</ele>
        <time>2015-09-01T09:23:07.000Z</time>
      </trkpt>
    </trkseg>
  </trk>
</gpx>